<?xml version="1.0" encoding="UTF-8" standalone="no" ?>
<gpx xmlns="http://www.topografix.com/GPX/1/1" xmlns:xsi="http://www.w3.org/2001/XMLSchema-instance" xsi:schemaLocation="http://www.topografix.com/GPX/1/1 http://www.topografix.com/GPX/1/1/gpx.xsd" version="1.1" creator="VisuGPX - https://www.visugpx.com">
  <metadata>
    <name>trail de montagnole 2012</name>
    <desc><![CDATA[trail de montagnole 2012]]></desc>
  </metadata>
  <trk>
    <name><![CDATA[trail montagnol]]></name>
    <trkseg>
      <trkpt lat="45.53929" lon="5.90902">
        <ele>550</ele>
        <time>2012-11-18T08:00:33Z</time>
      </trkpt>
      <trkpt lat="45.5393" lon="5.90905">
        <ele>550</ele>
        <time>2012-11-18T08:00:37Z</time>
      </trkpt>
      <trkpt lat="45.53936" lon="5.90912">
        <ele>549.59997558594</ele>
        <time>2012-11-18T08:00:42Z</time>
      </trkpt>
      <trkpt lat="45.53938" lon="5.90914">
        <ele>549.40002441406</ele>
        <time>2012-11-18T08:00:43Z</time>
      </trkpt>
      <trkpt lat="45.53946" lon="5.90918">
        <ele>549.20001220703</ele>
        <time>2012-11-18T08:00:46Z</time>
      </trkpt>
      <trkpt lat="45.53951" lon="5.90922">
        <ele>549</ele>
        <time>2012-11-18T08:00:48Z</time>
      </trkpt>
      <trkpt lat="45.5396" lon="5.90932">
        <ele>548.59997558594</ele>
        <time>2012-11-18T08:00:52Z</time>
      </trkpt>
      <trkpt lat="45.53966" lon="5.90939">
        <ele>548.40002441406</ele>
        <time>2012-11-18T08:00:55Z</time>
      </trkpt>
      <trkpt lat="45.53976" lon="5.90949">
        <ele>548.20001220703</ele>
        <time>2012-11-18T08:00:58Z</time>
      </trkpt>
      <trkpt lat="45.53978" lon="5.90951">
        <ele>548</ele>
        <time>2012-11-18T08:00:59Z</time>
      </trkpt>
      <trkpt lat="45.53993" lon="5.90962">
        <ele>548</ele>
        <time>2012-11-18T08:01:03Z</time>
      </trkpt>
      <trkpt lat="45.54007" lon="5.90967">
        <ele>547.59997558594</ele>
        <time>2012-11-18T08:01:07Z</time>
      </trkpt>
      <trkpt lat="45.54017" lon="5.90969">
        <ele>547</ele>
        <time>2012-11-18T08:01:10Z</time>
      </trkpt>
      <trkpt lat="45.54027" lon="5.90968">
        <ele>546.40002441406</ele>
        <time>2012-11-18T08:01:13Z</time>
      </trkpt>
      <trkpt lat="45.54043" lon="5.90965">
        <ele>545.59997558594</ele>
        <time>2012-11-18T08:01:19Z</time>
      </trkpt>
      <trkpt lat="45.54052" lon="5.90968">
        <ele>545.20001220703</ele>
        <time>2012-11-18T08:01:23Z</time>
      </trkpt>
      <trkpt lat="45.54062" lon="5.90978">
        <ele>545.20001220703</ele>
        <time>2012-11-18T08:01:28Z</time>
      </trkpt>
      <trkpt lat="45.54074" lon="5.90988">
        <ele>545.40002441406</ele>
        <time>2012-11-18T08:01:32Z</time>
      </trkpt>
      <trkpt lat="45.54086" lon="5.91007">
        <ele>546</ele>
        <time>2012-11-18T08:01:39Z</time>
      </trkpt>
      <trkpt lat="45.54088" lon="5.91009">
        <ele>545.79998779297</ele>
        <time>2012-11-18T08:01:40Z</time>
      </trkpt>
      <trkpt lat="45.54112" lon="5.91021">
        <ele>544.79998779297</ele>
        <time>2012-11-18T08:01:47Z</time>
      </trkpt>
      <trkpt lat="45.54131" lon="5.91029">
        <ele>544</ele>
        <time>2012-11-18T08:01:52Z</time>
      </trkpt>
      <trkpt lat="45.5415" lon="5.91041">
        <ele>543.20001220703</ele>
        <time>2012-11-18T08:01:58Z</time>
      </trkpt>
      <trkpt lat="45.54152" lon="5.91043">
        <ele>543.20001220703</ele>
        <time>2012-11-18T08:01:59Z</time>
      </trkpt>
      <trkpt lat="45.54168" lon="5.91051">
        <ele>542.59997558594</ele>
        <time>2012-11-18T08:02:04Z</time>
      </trkpt>
      <trkpt lat="45.54171" lon="5.91049">
        <ele>541.79998779297</ele>
        <time>2012-11-18T08:02:05Z</time>
      </trkpt>
      <trkpt lat="45.54184" lon="5.91026">
        <ele>539.20001220703</ele>
        <time>2012-11-18T08:02:11Z</time>
      </trkpt>
      <trkpt lat="45.54186" lon="5.91022">
        <ele>538.79998779297</ele>
        <time>2012-11-18T08:02:12Z</time>
      </trkpt>
      <trkpt lat="45.54202" lon="5.90986">
        <ele>535.59997558594</ele>
        <time>2012-11-18T08:02:21Z</time>
      </trkpt>
      <trkpt lat="45.54209" lon="5.9097">
        <ele>534</ele>
        <time>2012-11-18T08:02:25Z</time>
      </trkpt>
      <trkpt lat="45.54217" lon="5.90954">
        <ele>532.59997558594</ele>
        <time>2012-11-18T08:02:29Z</time>
      </trkpt>
      <trkpt lat="45.54223" lon="5.90943">
        <ele>531.59997558594</ele>
        <time>2012-11-18T08:02:32Z</time>
      </trkpt>
      <trkpt lat="45.54233" lon="5.90925">
        <ele>530.40002441406</ele>
        <time>2012-11-18T08:02:37Z</time>
      </trkpt>
      <trkpt lat="45.54237" lon="5.90918">
        <ele>529.79998779297</ele>
        <time>2012-11-18T08:02:39Z</time>
      </trkpt>
      <trkpt lat="45.54245" lon="5.90904">
        <ele>528.40002441406</ele>
        <time>2012-11-18T08:02:43Z</time>
      </trkpt>
      <trkpt lat="45.54247" lon="5.909">
        <ele>528</ele>
        <time>2012-11-18T08:02:44Z</time>
      </trkpt>
      <trkpt lat="45.54253" lon="5.90888">
        <ele>526.20001220703</ele>
        <time>2012-11-18T08:02:47Z</time>
      </trkpt>
      <trkpt lat="45.54257" lon="5.90879">
        <ele>525</ele>
        <time>2012-11-18T08:02:49Z</time>
      </trkpt>
      <trkpt lat="45.54265" lon="5.90861">
        <ele>522.59997558594</ele>
        <time>2012-11-18T08:02:53Z</time>
      </trkpt>
      <trkpt lat="45.54266" lon="5.90856">
        <ele>522</ele>
        <time>2012-11-18T08:02:54Z</time>
      </trkpt>
      <trkpt lat="45.54268" lon="5.90842">
        <ele>521</ele>
        <time>2012-11-18T08:02:57Z</time>
      </trkpt>
      <trkpt lat="45.54269" lon="5.90838">
        <ele>520.40002441406</ele>
        <time>2012-11-18T08:02:58Z</time>
      </trkpt>
      <trkpt lat="45.54272" lon="5.90825">
        <ele>518.59997558594</ele>
        <time>2012-11-18T08:03:01Z</time>
      </trkpt>
      <trkpt lat="45.54272" lon="5.90816">
        <ele>517.20001220703</ele>
        <time>2012-11-18T08:03:03Z</time>
      </trkpt>
      <trkpt lat="45.54269" lon="5.90802">
        <ele>515.59997558594</ele>
        <time>2012-11-18T08:03:06Z</time>
      </trkpt>
      <trkpt lat="45.54267" lon="5.90798">
        <ele>515.40002441406</ele>
        <time>2012-11-18T08:03:07Z</time>
      </trkpt>
      <trkpt lat="45.54254" lon="5.90789">
        <ele>516</ele>
        <time>2012-11-18T08:03:12Z</time>
      </trkpt>
      <trkpt lat="45.54248" lon="5.90792">
        <ele>517</ele>
        <time>2012-11-18T08:03:15Z</time>
      </trkpt>
      <trkpt lat="45.54236" lon="5.90794">
        <ele>518.20001220703</ele>
        <time>2012-11-18T08:03:20Z</time>
      </trkpt>
      <trkpt lat="45.54226" lon="5.90791">
        <ele>518.59997558594</ele>
        <time>2012-11-18T08:03:25Z</time>
      </trkpt>
      <trkpt lat="45.54215" lon="5.90788">
        <ele>519</ele>
        <time>2012-11-18T08:03:30Z</time>
      </trkpt>
      <trkpt lat="45.54206" lon="5.90788">
        <ele>519.59997558594</ele>
        <time>2012-11-18T08:03:34Z</time>
      </trkpt>
      <trkpt lat="45.54193" lon="5.90786">
        <ele>520.20001220703</ele>
        <time>2012-11-18T08:03:39Z</time>
      </trkpt>
      <trkpt lat="45.5419" lon="5.90786">
        <ele>520.59997558594</ele>
        <time>2012-11-18T08:03:40Z</time>
      </trkpt>
      <trkpt lat="45.54161" lon="5.90787">
        <ele>522.79998779297</ele>
        <time>2012-11-18T08:03:51Z</time>
      </trkpt>
      <trkpt lat="45.54143" lon="5.90788">
        <ele>524.59997558594</ele>
        <time>2012-11-18T08:03:57Z</time>
      </trkpt>
      <trkpt lat="45.54138" lon="5.90788">
        <ele>525</ele>
        <time>2012-11-18T08:03:59Z</time>
      </trkpt>
      <trkpt lat="45.54123" lon="5.90789">
        <ele>526.40002441406</ele>
        <time>2012-11-18T08:04:04Z</time>
      </trkpt>
      <trkpt lat="45.54089" lon="5.90792">
        <ele>529.79998779297</ele>
        <time>2012-11-18T08:04:17Z</time>
      </trkpt>
      <trkpt lat="45.54074" lon="5.90796">
        <ele>531.79998779297</ele>
        <time>2012-11-18T08:04:23Z</time>
      </trkpt>
      <trkpt lat="45.54066" lon="5.90799">
        <ele>533.20001220703</ele>
        <time>2012-11-18T08:04:26Z</time>
      </trkpt>
      <trkpt lat="45.54064" lon="5.90799">
        <ele>533.40002441406</ele>
        <time>2012-11-18T08:04:27Z</time>
      </trkpt>
      <trkpt lat="45.5405" lon="5.90794">
        <ele>534.79998779297</ele>
        <time>2012-11-18T08:04:32Z</time>
      </trkpt>
      <trkpt lat="45.54045" lon="5.90791">
        <ele>535.20001220703</ele>
        <time>2012-11-18T08:04:34Z</time>
      </trkpt>
      <trkpt lat="45.54031" lon="5.9078">
        <ele>536.20001220703</ele>
        <time>2012-11-18T08:04:40Z</time>
      </trkpt>
      <trkpt lat="45.54026" lon="5.90777">
        <ele>536.59997558594</ele>
        <time>2012-11-18T08:04:42Z</time>
      </trkpt>
      <trkpt lat="45.54011" lon="5.90767">
        <ele>537.79998779297</ele>
        <time>2012-11-18T08:04:48Z</time>
      </trkpt>
      <trkpt lat="45.53999" lon="5.90762">
        <ele>538.79998779297</ele>
        <time>2012-11-18T08:04:53Z</time>
      </trkpt>
      <trkpt lat="45.53987" lon="5.90757">
        <ele>540.20001220703</ele>
        <time>2012-11-18T08:04:58Z</time>
      </trkpt>
      <trkpt lat="45.53985" lon="5.90756">
        <ele>540.40002441406</ele>
        <time>2012-11-18T08:04:59Z</time>
      </trkpt>
      <trkpt lat="45.53975" lon="5.90751">
        <ele>541.59997558594</ele>
        <time>2012-11-18T08:05:03Z</time>
      </trkpt>
      <trkpt lat="45.53973" lon="5.9075">
        <ele>541.79998779297</ele>
        <time>2012-11-18T08:05:04Z</time>
      </trkpt>
      <trkpt lat="45.5396" lon="5.90742">
        <ele>542.79998779297</ele>
        <time>2012-11-18T08:05:10Z</time>
      </trkpt>
      <trkpt lat="45.53956" lon="5.90737">
        <ele>542.79998779297</ele>
        <time>2012-11-18T08:05:12Z</time>
      </trkpt>
      <trkpt lat="45.53948" lon="5.90731">
        <ele>543.20001220703</ele>
        <time>2012-11-18T08:05:16Z</time>
      </trkpt>
      <trkpt lat="45.53942" lon="5.90726">
        <ele>543.40002441406</ele>
        <time>2012-11-18T08:05:19Z</time>
      </trkpt>
      <trkpt lat="45.53937" lon="5.90723">
        <ele>543.79998779297</ele>
        <time>2012-11-18T08:05:21Z</time>
      </trkpt>
      <trkpt lat="45.53929" lon="5.9072">
        <ele>544.40002441406</ele>
        <time>2012-11-18T08:05:24Z</time>
      </trkpt>
      <trkpt lat="45.53917" lon="5.90714">
        <ele>545.59997558594</ele>
        <time>2012-11-18T08:05:30Z</time>
      </trkpt>
      <trkpt lat="45.53911" lon="5.90712">
        <ele>546</ele>
        <time>2012-11-18T08:05:33Z</time>
      </trkpt>
      <trkpt lat="45.53902" lon="5.90709">
        <ele>546.59997558594</ele>
        <time>2012-11-18T08:05:38Z</time>
      </trkpt>
      <trkpt lat="45.53898" lon="5.90709">
        <ele>547</ele>
        <time>2012-11-18T08:05:40Z</time>
      </trkpt>
      <trkpt lat="45.53892" lon="5.9071">
        <ele>548</ele>
        <time>2012-11-18T08:05:43Z</time>
      </trkpt>
      <trkpt lat="45.5389" lon="5.90711">
        <ele>548.20001220703</ele>
        <time>2012-11-18T08:05:44Z</time>
      </trkpt>
      <trkpt lat="45.53882" lon="5.90714">
        <ele>549.40002441406</ele>
        <time>2012-11-18T08:05:48Z</time>
      </trkpt>
      <trkpt lat="45.53877" lon="5.90715">
        <ele>550.20001220703</ele>
        <time>2012-11-18T08:05:51Z</time>
      </trkpt>
      <trkpt lat="45.53875" lon="5.90713">
        <ele>550.20001220703</ele>
        <time>2012-11-18T08:05:53Z</time>
      </trkpt>
      <trkpt lat="45.53873" lon="5.90713">
        <ele>550.20001220703</ele>
        <time>2012-11-18T08:05:54Z</time>
      </trkpt>
      <trkpt lat="45.53866" lon="5.9071">
        <ele>550.79998779297</ele>
        <time>2012-11-18T08:05:58Z</time>
      </trkpt>
      <trkpt lat="45.53865" lon="5.9071">
        <ele>551</ele>
        <time>2012-11-18T08:05:59Z</time>
      </trkpt>
      <trkpt lat="45.53855" lon="5.90707">
        <ele>551.79998779297</ele>
        <time>2012-11-18T08:06:05Z</time>
      </trkpt>
      <trkpt lat="45.53847" lon="5.90702">
        <ele>552.20001220703</ele>
        <time>2012-11-18T08:06:09Z</time>
      </trkpt>
      <trkpt lat="45.53843" lon="5.907">
        <ele>552.59997558594</ele>
        <time>2012-11-18T08:06:11Z</time>
      </trkpt>
      <trkpt lat="45.53835" lon="5.90697">
        <ele>553.20001220703</ele>
        <time>2012-11-18T08:06:15Z</time>
      </trkpt>
      <trkpt lat="45.53828" lon="5.90696">
        <ele>553.79998779297</ele>
        <time>2012-11-18T08:06:19Z</time>
      </trkpt>
      <trkpt lat="45.53823" lon="5.90696">
        <ele>554.20001220703</ele>
        <time>2012-11-18T08:06:22Z</time>
      </trkpt>
      <trkpt lat="45.53817" lon="5.90699">
        <ele>554.79998779297</ele>
        <time>2012-11-18T08:06:25Z</time>
      </trkpt>
      <trkpt lat="45.53811" lon="5.90704">
        <ele>555.59997558594</ele>
        <time>2012-11-18T08:06:28Z</time>
      </trkpt>
      <trkpt lat="45.53799" lon="5.90715">
        <ele>557.40002441406</ele>
        <time>2012-11-18T08:06:34Z</time>
      </trkpt>
      <trkpt lat="45.53795" lon="5.90719">
        <ele>558</ele>
        <time>2012-11-18T08:06:36Z</time>
      </trkpt>
      <trkpt lat="45.53787" lon="5.90732">
        <ele>559.79998779297</ele>
        <time>2012-11-18T08:06:41Z</time>
      </trkpt>
      <trkpt lat="45.53781" lon="5.90743">
        <ele>561</ele>
        <time>2012-11-18T08:06:45Z</time>
      </trkpt>
      <trkpt lat="45.53771" lon="5.90763">
        <ele>562.40002441406</ele>
        <time>2012-11-18T08:06:52Z</time>
      </trkpt>
      <trkpt lat="45.53761" lon="5.90766">
        <ele>563.20001220703</ele>
        <time>2012-11-18T08:06:57Z</time>
      </trkpt>
      <trkpt lat="45.53749" lon="5.90768">
        <ele>564.20001220703</ele>
        <time>2012-11-18T08:07:02Z</time>
      </trkpt>
      <trkpt lat="45.53747" lon="5.90773">
        <ele>564.40002441406</ele>
        <time>2012-11-18T08:07:04Z</time>
      </trkpt>
      <trkpt lat="45.53736" lon="5.90801">
        <ele>565.59997558594</ele>
        <time>2012-11-18T08:07:12Z</time>
      </trkpt>
      <trkpt lat="45.53727" lon="5.90823">
        <ele>566.79998779297</ele>
        <time>2012-11-18T08:07:18Z</time>
      </trkpt>
      <trkpt lat="45.5371" lon="5.90853">
        <ele>568.20001220703</ele>
        <time>2012-11-18T08:07:27Z</time>
      </trkpt>
      <trkpt lat="45.53705" lon="5.90858">
        <ele>568.79998779297</ele>
        <time>2012-11-18T08:07:29Z</time>
      </trkpt>
      <trkpt lat="45.53677" lon="5.90849">
        <ele>571.20001220703</ele>
        <time>2012-11-18T08:07:39Z</time>
      </trkpt>
      <trkpt lat="45.53666" lon="5.90835">
        <ele>572</ele>
        <time>2012-11-18T08:07:44Z</time>
      </trkpt>
      <trkpt lat="45.53654" lon="5.90822">
        <ele>573.40002441406</ele>
        <time>2012-11-18T08:07:51Z</time>
      </trkpt>
      <trkpt lat="45.53651" lon="5.90819">
        <ele>573.79998779297</ele>
        <time>2012-11-18T08:07:52Z</time>
      </trkpt>
      <trkpt lat="45.53638" lon="5.90808">
        <ele>575</ele>
        <time>2012-11-18T08:07:58Z</time>
      </trkpt>
      <trkpt lat="45.53636" lon="5.90806">
        <ele>575.20001220703</ele>
        <time>2012-11-18T08:07:59Z</time>
      </trkpt>
      <trkpt lat="45.53624" lon="5.90793">
        <ele>576.40002441406</ele>
        <time>2012-11-18T08:08:05Z</time>
      </trkpt>
      <trkpt lat="45.53617" lon="5.90787">
        <ele>577</ele>
        <time>2012-11-18T08:08:08Z</time>
      </trkpt>
      <trkpt lat="45.53599" lon="5.90775">
        <ele>578.40002441406</ele>
        <time>2012-11-18T08:08:15Z</time>
      </trkpt>
      <trkpt lat="45.53589" lon="5.90768">
        <ele>579.40002441406</ele>
        <time>2012-11-18T08:08:19Z</time>
      </trkpt>
      <trkpt lat="45.53572" lon="5.90759">
        <ele>579.59997558594</ele>
        <time>2012-11-18T08:08:25Z</time>
      </trkpt>
      <trkpt lat="45.53557" lon="5.90754">
        <ele>579.79998779297</ele>
        <time>2012-11-18T08:08:30Z</time>
      </trkpt>
      <trkpt lat="45.53542" lon="5.90753">
        <ele>580</ele>
        <time>2012-11-18T08:08:35Z</time>
      </trkpt>
      <trkpt lat="45.53534" lon="5.90754">
        <ele>580.20001220703</ele>
        <time>2012-11-18T08:08:38Z</time>
      </trkpt>
      <trkpt lat="45.53511" lon="5.90764">
        <ele>581.20001220703</ele>
        <time>2012-11-18T08:08:46Z</time>
      </trkpt>
      <trkpt lat="45.535" lon="5.90768">
        <ele>581.59997558594</ele>
        <time>2012-11-18T08:08:50Z</time>
      </trkpt>
      <trkpt lat="45.53476" lon="5.90774">
        <ele>581.59997558594</ele>
        <time>2012-11-18T08:08:58Z</time>
      </trkpt>
      <trkpt lat="45.53473" lon="5.90775">
        <ele>581.59997558594</ele>
        <time>2012-11-18T08:08:59Z</time>
      </trkpt>
      <trkpt lat="45.53449" lon="5.90777">
        <ele>581.59997558594</ele>
        <time>2012-11-18T08:09:07Z</time>
      </trkpt>
      <trkpt lat="45.53443" lon="5.90778">
        <ele>581.59997558594</ele>
        <time>2012-11-18T08:09:09Z</time>
      </trkpt>
      <trkpt lat="45.53421" lon="5.90782">
        <ele>581.59997558594</ele>
        <time>2012-11-18T08:09:17Z</time>
      </trkpt>
      <trkpt lat="45.53402" lon="5.90785">
        <ele>582.20001220703</ele>
        <time>2012-11-18T08:09:23Z</time>
      </trkpt>
      <trkpt lat="45.53368" lon="5.90791">
        <ele>583.40002441406</ele>
        <time>2012-11-18T08:09:35Z</time>
      </trkpt>
      <trkpt lat="45.5336" lon="5.90793">
        <ele>583.59997558594</ele>
        <time>2012-11-18T08:09:38Z</time>
      </trkpt>
      <trkpt lat="45.53343" lon="5.90799">
        <ele>584.20001220703</ele>
        <time>2012-11-18T08:09:44Z</time>
      </trkpt>
      <trkpt lat="45.53332" lon="5.90804">
        <ele>584.59997558594</ele>
        <time>2012-11-18T08:09:48Z</time>
      </trkpt>
      <trkpt lat="45.53317" lon="5.90809">
        <ele>585.59997558594</ele>
        <time>2012-11-18T08:09:53Z</time>
      </trkpt>
      <trkpt lat="45.53303" lon="5.90809">
        <ele>586.40002441406</ele>
        <time>2012-11-18T08:09:58Z</time>
      </trkpt>
      <trkpt lat="45.53288" lon="5.90801">
        <ele>587.40002441406</ele>
        <time>2012-11-18T08:10:03Z</time>
      </trkpt>
      <trkpt lat="45.53285" lon="5.90799">
        <ele>587.40002441406</ele>
        <time>2012-11-18T08:10:04Z</time>
      </trkpt>
      <trkpt lat="45.53272" lon="5.9078">
        <ele>588.59997558594</ele>
        <time>2012-11-18T08:10:11Z</time>
      </trkpt>
      <trkpt lat="45.53268" lon="5.90774">
        <ele>589</ele>
        <time>2012-11-18T08:10:13Z</time>
      </trkpt>
      <trkpt lat="45.53264" lon="5.90768">
        <ele>589.40002441406</ele>
        <time>2012-11-18T08:10:15Z</time>
      </trkpt>
      <trkpt lat="45.53257" lon="5.90752">
        <ele>590.20001220703</ele>
        <time>2012-11-18T08:10:20Z</time>
      </trkpt>
      <trkpt lat="45.53246" lon="5.90732">
        <ele>590.59997558594</ele>
        <time>2012-11-18T08:10:26Z</time>
      </trkpt>
      <trkpt lat="45.53234" lon="5.90721">
        <ele>591</ele>
        <time>2012-11-18T08:10:31Z</time>
      </trkpt>
      <trkpt lat="45.53222" lon="5.90709">
        <ele>591.40002441406</ele>
        <time>2012-11-18T08:10:36Z</time>
      </trkpt>
      <trkpt lat="45.53212" lon="5.907">
        <ele>591.79998779297</ele>
        <time>2012-11-18T08:10:40Z</time>
      </trkpt>
      <trkpt lat="45.53197" lon="5.90688">
        <ele>592.40002441406</ele>
        <time>2012-11-18T08:10:46Z</time>
      </trkpt>
      <trkpt lat="45.53185" lon="5.90679">
        <ele>593</ele>
        <time>2012-11-18T08:10:51Z</time>
      </trkpt>
      <trkpt lat="45.53169" lon="5.90668">
        <ele>593.79998779297</ele>
        <time>2012-11-18T08:10:57Z</time>
      </trkpt>
      <trkpt lat="45.53167" lon="5.90666">
        <ele>593.79998779297</ele>
        <time>2012-11-18T08:10:58Z</time>
      </trkpt>
      <trkpt lat="45.5316" lon="5.90662">
        <ele>594.59997558594</ele>
        <time>2012-11-18T08:11:01Z</time>
      </trkpt>
      <trkpt lat="45.53152" lon="5.90661">
        <ele>595.59997558594</ele>
        <time>2012-11-18T08:11:04Z</time>
      </trkpt>
      <trkpt lat="45.53147" lon="5.90671">
        <ele>596.20001220703</ele>
        <time>2012-11-18T08:11:08Z</time>
      </trkpt>
      <trkpt lat="45.53146" lon="5.90676">
        <ele>596.59997558594</ele>
        <time>2012-11-18T08:11:10Z</time>
      </trkpt>
      <trkpt lat="45.53138" lon="5.907">
        <ele>598.40002441406</ele>
        <time>2012-11-18T08:11:18Z</time>
      </trkpt>
      <trkpt lat="45.53135" lon="5.90709">
        <ele>599</ele>
        <time>2012-11-18T08:11:21Z</time>
      </trkpt>
      <trkpt lat="45.53127" lon="5.9072">
        <ele>600.40002441406</ele>
        <time>2012-11-18T08:11:26Z</time>
      </trkpt>
      <trkpt lat="45.53125" lon="5.90722">
        <ele>600.59997558594</ele>
        <time>2012-11-18T08:11:27Z</time>
      </trkpt>
      <trkpt lat="45.53115" lon="5.90722">
        <ele>602</ele>
        <time>2012-11-18T08:11:32Z</time>
      </trkpt>
      <trkpt lat="45.5311" lon="5.90722">
        <ele>602.40002441406</ele>
        <time>2012-11-18T08:11:34Z</time>
      </trkpt>
      <trkpt lat="45.53099" lon="5.90724">
        <ele>603.79998779297</ele>
        <time>2012-11-18T08:11:39Z</time>
      </trkpt>
      <trkpt lat="45.53087" lon="5.90726">
        <ele>605.40002441406</ele>
        <time>2012-11-18T08:11:44Z</time>
      </trkpt>
      <trkpt lat="45.53077" lon="5.9073">
        <ele>606.59997558594</ele>
        <time>2012-11-18T08:11:49Z</time>
      </trkpt>
      <trkpt lat="45.53075" lon="5.90731">
        <ele>607</ele>
        <time>2012-11-18T08:11:50Z</time>
      </trkpt>
      <trkpt lat="45.5306" lon="5.90734">
        <ele>609</ele>
        <time>2012-11-18T08:11:57Z</time>
      </trkpt>
      <trkpt lat="45.53049" lon="5.90738">
        <ele>610.59997558594</ele>
        <time>2012-11-18T08:12:02Z</time>
      </trkpt>
      <trkpt lat="45.5304" lon="5.90742">
        <ele>611.79998779297</ele>
        <time>2012-11-18T08:12:06Z</time>
      </trkpt>
      <trkpt lat="45.53034" lon="5.90744">
        <ele>612.59997558594</ele>
        <time>2012-11-18T08:12:09Z</time>
      </trkpt>
      <trkpt lat="45.53023" lon="5.90746">
        <ele>614</ele>
        <time>2012-11-18T08:12:14Z</time>
      </trkpt>
      <trkpt lat="45.53018" lon="5.90747">
        <ele>614.59997558594</ele>
        <time>2012-11-18T08:12:16Z</time>
      </trkpt>
      <trkpt lat="45.53003" lon="5.90753">
        <ele>616.79998779297</ele>
        <time>2012-11-18T08:12:23Z</time>
      </trkpt>
      <trkpt lat="45.52989" lon="5.90763">
        <ele>619.20001220703</ele>
        <time>2012-11-18T08:12:30Z</time>
      </trkpt>
      <trkpt lat="45.52972" lon="5.90783">
        <ele>622.79998779297</ele>
        <time>2012-11-18T08:12:40Z</time>
      </trkpt>
      <trkpt lat="45.52966" lon="5.9079">
        <ele>623.79998779297</ele>
        <time>2012-11-18T08:12:44Z</time>
      </trkpt>
      <trkpt lat="45.52959" lon="5.90797">
        <ele>624.79998779297</ele>
        <time>2012-11-18T08:12:48Z</time>
      </trkpt>
      <trkpt lat="45.52956" lon="5.908">
        <ele>625.40002441406</ele>
        <time>2012-11-18T08:12:50Z</time>
      </trkpt>
      <trkpt lat="45.52952" lon="5.90806">
        <ele>626</ele>
        <time>2012-11-18T08:12:53Z</time>
      </trkpt>
      <trkpt lat="45.52945" lon="5.90815">
        <ele>627</ele>
        <time>2012-11-18T08:12:58Z</time>
      </trkpt>
      <trkpt lat="45.52938" lon="5.9082">
        <ele>627.79998779297</ele>
        <time>2012-11-18T08:13:02Z</time>
      </trkpt>
      <trkpt lat="45.52932" lon="5.90824">
        <ele>628.59997558594</ele>
        <time>2012-11-18T08:13:06Z</time>
      </trkpt>
      <trkpt lat="45.52915" lon="5.90834">
        <ele>630</ele>
        <time>2012-11-18T08:13:15Z</time>
      </trkpt>
      <trkpt lat="45.52913" lon="5.90835">
        <ele>630</ele>
        <time>2012-11-18T08:13:16Z</time>
      </trkpt>
      <trkpt lat="45.52898" lon="5.90846">
        <ele>630.79998779297</ele>
        <time>2012-11-18T08:13:25Z</time>
      </trkpt>
      <trkpt lat="45.52892" lon="5.90849">
        <ele>631</ele>
        <time>2012-11-18T08:13:28Z</time>
      </trkpt>
      <trkpt lat="45.52883" lon="5.90855">
        <ele>631.40002441406</ele>
        <time>2012-11-18T08:13:34Z</time>
      </trkpt>
      <trkpt lat="45.52882" lon="5.90855">
        <ele>631.40002441406</ele>
        <time>2012-11-18T08:13:35Z</time>
      </trkpt>
      <trkpt lat="45.52873" lon="5.90859">
        <ele>631.59997558594</ele>
        <time>2012-11-18T08:13:40Z</time>
      </trkpt>
      <trkpt lat="45.52869" lon="5.90861">
        <ele>631.79998779297</ele>
        <time>2012-11-18T08:13:42Z</time>
      </trkpt>
      <trkpt lat="45.52846" lon="5.90876">
        <ele>632.79998779297</ele>
        <time>2012-11-18T08:13:51Z</time>
      </trkpt>
      <trkpt lat="45.52832" lon="5.9089">
        <ele>633.79998779297</ele>
        <time>2012-11-18T08:13:57Z</time>
      </trkpt>
      <trkpt lat="45.52803" lon="5.9091">
        <ele>636.20001220703</ele>
        <time>2012-11-18T08:14:08Z</time>
      </trkpt>
      <trkpt lat="45.52784" lon="5.90915">
        <ele>637.20001220703</ele>
        <time>2012-11-18T08:14:15Z</time>
      </trkpt>
      <trkpt lat="45.52759" lon="5.90919">
        <ele>638.40002441406</ele>
        <time>2012-11-18T08:14:25Z</time>
      </trkpt>
      <trkpt lat="45.52756" lon="5.9092">
        <ele>638.40002441406</ele>
        <time>2012-11-18T08:14:26Z</time>
      </trkpt>
      <trkpt lat="45.52743" lon="5.90921">
        <ele>639.79998779297</ele>
        <time>2012-11-18T08:14:32Z</time>
      </trkpt>
      <trkpt lat="45.52741" lon="5.9092">
        <ele>640.20001220703</ele>
        <time>2012-11-18T08:14:33Z</time>
      </trkpt>
      <trkpt lat="45.52738" lon="5.9091">
        <ele>641.20001220703</ele>
        <time>2012-11-18T08:14:37Z</time>
      </trkpt>
      <trkpt lat="45.52738" lon="5.90892">
        <ele>641.59997558594</ele>
        <time>2012-11-18T08:14:42Z</time>
      </trkpt>
      <trkpt lat="45.52739" lon="5.90851">
        <ele>642.40002441406</ele>
        <time>2012-11-18T08:14:53Z</time>
      </trkpt>
      <trkpt lat="45.52737" lon="5.90831">
        <ele>643.40002441406</ele>
        <time>2012-11-18T08:14:58Z</time>
      </trkpt>
      <trkpt lat="45.52735" lon="5.90808">
        <ele>643.59997558594</ele>
        <time>2012-11-18T08:15:04Z</time>
      </trkpt>
      <trkpt lat="45.52734" lon="5.90797">
        <ele>643.79998779297</ele>
        <time>2012-11-18T08:15:07Z</time>
      </trkpt>
      <trkpt lat="45.52732" lon="5.90767">
        <ele>644.20001220703</ele>
        <time>2012-11-18T08:15:15Z</time>
      </trkpt>
      <trkpt lat="45.52731" lon="5.90759">
        <ele>644.40002441406</ele>
        <time>2012-11-18T08:15:17Z</time>
      </trkpt>
      <trkpt lat="45.5273" lon="5.90729">
        <ele>644.79998779297</ele>
        <time>2012-11-18T08:15:25Z</time>
      </trkpt>
      <trkpt lat="45.5273" lon="5.90719">
        <ele>644.79998779297</ele>
        <time>2012-11-18T08:15:28Z</time>
      </trkpt>
      <trkpt lat="45.52731" lon="5.90702">
        <ele>644.59997558594</ele>
        <time>2012-11-18T08:15:33Z</time>
      </trkpt>
      <trkpt lat="45.52732" lon="5.90698">
        <ele>644.59997558594</ele>
        <time>2012-11-18T08:15:34Z</time>
      </trkpt>
      <trkpt lat="45.52735" lon="5.90654">
        <ele>644.59997558594</ele>
        <time>2012-11-18T08:15:44Z</time>
      </trkpt>
      <trkpt lat="45.52733" lon="5.90639">
        <ele>645.59997558594</ele>
        <time>2012-11-18T08:15:48Z</time>
      </trkpt>
      <trkpt lat="45.52731" lon="5.90615">
        <ele>647</ele>
        <time>2012-11-18T08:15:54Z</time>
      </trkpt>
      <trkpt lat="45.52729" lon="5.90608">
        <ele>647.79998779297</ele>
        <time>2012-11-18T08:15:56Z</time>
      </trkpt>
      <trkpt lat="45.52727" lon="5.90598">
        <ele>648.59997558594</ele>
        <time>2012-11-18T08:15:59Z</time>
      </trkpt>
      <trkpt lat="45.52724" lon="5.90582">
        <ele>649.79998779297</ele>
        <time>2012-11-18T08:16:03Z</time>
      </trkpt>
      <trkpt lat="45.52723" lon="5.90575">
        <ele>650.20001220703</ele>
        <time>2012-11-18T08:16:05Z</time>
      </trkpt>
      <trkpt lat="45.52718" lon="5.9056">
        <ele>651.20001220703</ele>
        <time>2012-11-18T08:16:10Z</time>
      </trkpt>
      <trkpt lat="45.52711" lon="5.90541">
        <ele>653</ele>
        <time>2012-11-18T08:16:16Z</time>
      </trkpt>
      <trkpt lat="45.5271" lon="5.9054">
        <ele>653.20001220703</ele>
        <time>2012-11-18T08:16:17Z</time>
      </trkpt>
      <trkpt lat="45.52706" lon="5.90533">
        <ele>654.20001220703</ele>
        <time>2012-11-18T08:16:21Z</time>
      </trkpt>
      <trkpt lat="45.52704" lon="5.90529">
        <ele>654.79998779297</ele>
        <time>2012-11-18T08:16:23Z</time>
      </trkpt>
      <trkpt lat="45.52701" lon="5.90522">
        <ele>655.40002441406</ele>
        <time>2012-11-18T08:16:27Z</time>
      </trkpt>
      <trkpt lat="45.527" lon="5.90519">
        <ele>655.79998779297</ele>
        <time>2012-11-18T08:16:29Z</time>
      </trkpt>
      <trkpt lat="45.52695" lon="5.9051">
        <ele>657</ele>
        <time>2012-11-18T08:16:35Z</time>
      </trkpt>
      <trkpt lat="45.52692" lon="5.90503">
        <ele>657.79998779297</ele>
        <time>2012-11-18T08:16:39Z</time>
      </trkpt>
      <trkpt lat="45.52687" lon="5.90493">
        <ele>658.79998779297</ele>
        <time>2012-11-18T08:16:45Z</time>
      </trkpt>
      <trkpt lat="45.52687" lon="5.90493">
        <ele>658.79998779297</ele>
        <time>2012-11-18T08:16:46Z</time>
      </trkpt>
      <trkpt lat="45.52682" lon="5.90486">
        <ele>659.79998779297</ele>
        <time>2012-11-18T08:16:51Z</time>
      </trkpt>
      <trkpt lat="45.52679" lon="5.90482">
        <ele>660.40002441406</ele>
        <time>2012-11-18T08:16:53Z</time>
      </trkpt>
      <trkpt lat="45.52676" lon="5.90474">
        <ele>661</ele>
        <time>2012-11-18T08:16:58Z</time>
      </trkpt>
      <trkpt lat="45.52675" lon="5.90473">
        <ele>661.20001220703</ele>
        <time>2012-11-18T08:16:59Z</time>
      </trkpt>
      <trkpt lat="45.52667" lon="5.9046">
        <ele>662.79998779297</ele>
        <time>2012-11-18T08:17:06Z</time>
      </trkpt>
      <trkpt lat="45.52664" lon="5.90455">
        <ele>663.20001220703</ele>
        <time>2012-11-18T08:17:08Z</time>
      </trkpt>
      <trkpt lat="45.5266" lon="5.90447">
        <ele>663.79998779297</ele>
        <time>2012-11-18T08:17:12Z</time>
      </trkpt>
      <trkpt lat="45.52657" lon="5.90443">
        <ele>664</ele>
        <time>2012-11-18T08:17:14Z</time>
      </trkpt>
      <trkpt lat="45.52651" lon="5.90436">
        <ele>664.79998779297</ele>
        <time>2012-11-18T08:17:18Z</time>
      </trkpt>
      <trkpt lat="45.52648" lon="5.90432">
        <ele>665</ele>
        <time>2012-11-18T08:17:20Z</time>
      </trkpt>
      <trkpt lat="45.52641" lon="5.90424">
        <ele>665.59997558594</ele>
        <time>2012-11-18T08:17:24Z</time>
      </trkpt>
      <trkpt lat="45.52638" lon="5.90421">
        <ele>665.79998779297</ele>
        <time>2012-11-18T08:17:26Z</time>
      </trkpt>
      <trkpt lat="45.52634" lon="5.90414">
        <ele>666</ele>
        <time>2012-11-18T08:17:29Z</time>
      </trkpt>
      <trkpt lat="45.52627" lon="5.90409">
        <ele>666.40002441406</ele>
        <time>2012-11-18T08:17:33Z</time>
      </trkpt>
      <trkpt lat="45.5262" lon="5.90406">
        <ele>667</ele>
        <time>2012-11-18T08:17:36Z</time>
      </trkpt>
      <trkpt lat="45.52613" lon="5.90402">
        <ele>667.79998779297</ele>
        <time>2012-11-18T08:17:40Z</time>
      </trkpt>
      <trkpt lat="45.52602" lon="5.90399">
        <ele>669</ele>
        <time>2012-11-18T08:17:45Z</time>
      </trkpt>
      <trkpt lat="45.52588" lon="5.90396">
        <ele>670.59997558594</ele>
        <time>2012-11-18T08:17:50Z</time>
      </trkpt>
      <trkpt lat="45.52565" lon="5.90395">
        <ele>672.79998779297</ele>
        <time>2012-11-18T08:17:58Z</time>
      </trkpt>
      <trkpt lat="45.52552" lon="5.90396">
        <ele>674.20001220703</ele>
        <time>2012-11-18T08:18:02Z</time>
      </trkpt>
      <trkpt lat="45.52543" lon="5.90397">
        <ele>675</ele>
        <time>2012-11-18T08:18:05Z</time>
      </trkpt>
      <trkpt lat="45.52535" lon="5.90397">
        <ele>675.79998779297</ele>
        <time>2012-11-18T08:18:08Z</time>
      </trkpt>
      <trkpt lat="45.52531" lon="5.90397">
        <ele>676.20001220703</ele>
        <time>2012-11-18T08:18:10Z</time>
      </trkpt>
      <trkpt lat="45.5252" lon="5.90395">
        <ele>677.20001220703</ele>
        <time>2012-11-18T08:18:14Z</time>
      </trkpt>
      <trkpt lat="45.52505" lon="5.90385">
        <ele>678.20001220703</ele>
        <time>2012-11-18T08:18:21Z</time>
      </trkpt>
      <trkpt lat="45.52501" lon="5.9038">
        <ele>678.40002441406</ele>
        <time>2012-11-18T08:18:24Z</time>
      </trkpt>
      <trkpt lat="45.52495" lon="5.90371">
        <ele>678.59997558594</ele>
        <time>2012-11-18T08:18:30Z</time>
      </trkpt>
      <trkpt lat="45.52494" lon="5.90369">
        <ele>678.59997558594</ele>
        <time>2012-11-18T08:18:31Z</time>
      </trkpt>
      <trkpt lat="45.5249" lon="5.90359">
        <ele>678.59997558594</ele>
        <time>2012-11-18T08:18:35Z</time>
      </trkpt>
      <trkpt lat="45.52487" lon="5.90352">
        <ele>678.59997558594</ele>
        <time>2012-11-18T08:18:37Z</time>
      </trkpt>
      <trkpt lat="45.52484" lon="5.90343">
        <ele>678.59997558594</ele>
        <time>2012-11-18T08:18:40Z</time>
      </trkpt>
      <trkpt lat="45.52482" lon="5.90341">
        <ele>678.59997558594</ele>
        <time>2012-11-18T08:18:41Z</time>
      </trkpt>
      <trkpt lat="45.52475" lon="5.90324">
        <ele>678.79998779297</ele>
        <time>2012-11-18T08:18:46Z</time>
      </trkpt>
      <trkpt lat="45.5247" lon="5.90316">
        <ele>679</ele>
        <time>2012-11-18T08:18:49Z</time>
      </trkpt>
      <trkpt lat="45.52463" lon="5.90303">
        <ele>679.20001220703</ele>
        <time>2012-11-18T08:18:54Z</time>
      </trkpt>
      <trkpt lat="45.52456" lon="5.90293">
        <ele>679.59997558594</ele>
        <time>2012-11-18T08:18:58Z</time>
      </trkpt>
      <trkpt lat="45.52448" lon="5.9028">
        <ele>680.40002441406</ele>
        <time>2012-11-18T08:19:03Z</time>
      </trkpt>
      <trkpt lat="45.52445" lon="5.90275">
        <ele>680.59997558594</ele>
        <time>2012-11-18T08:19:05Z</time>
      </trkpt>
      <trkpt lat="45.52438" lon="5.90263">
        <ele>681.20001220703</ele>
        <time>2012-11-18T08:19:10Z</time>
      </trkpt>
      <trkpt lat="45.52435" lon="5.90255">
        <ele>681.59997558594</ele>
        <time>2012-11-18T08:19:13Z</time>
      </trkpt>
      <trkpt lat="45.52422" lon="5.90228">
        <ele>682.79998779297</ele>
        <time>2012-11-18T08:19:24Z</time>
      </trkpt>
      <trkpt lat="45.5242" lon="5.90223">
        <ele>683</ele>
        <time>2012-11-18T08:19:26Z</time>
      </trkpt>
      <trkpt lat="45.52414" lon="5.90209">
        <ele>683.79998779297</ele>
        <time>2012-11-18T08:19:33Z</time>
      </trkpt>
      <trkpt lat="45.5241" lon="5.902">
        <ele>684.40002441406</ele>
        <time>2012-11-18T08:19:36Z</time>
      </trkpt>
      <trkpt lat="45.52403" lon="5.90187">
        <ele>685.59997558594</ele>
        <time>2012-11-18T08:19:42Z</time>
      </trkpt>
      <trkpt lat="45.52402" lon="5.90185">
        <ele>685.79998779297</ele>
        <time>2012-11-18T08:19:43Z</time>
      </trkpt>
      <trkpt lat="45.52396" lon="5.90177">
        <ele>686.79998779297</ele>
        <time>2012-11-18T08:19:47Z</time>
      </trkpt>
      <trkpt lat="45.52395" lon="5.90177">
        <ele>686.79998779297</ele>
        <time>2012-11-18T08:19:48Z</time>
      </trkpt>
      <trkpt lat="45.52393" lon="5.90174">
        <ele>687.20001220703</ele>
        <time>2012-11-18T08:20:04Z</time>
      </trkpt>
      <trkpt lat="45.52392" lon="5.90172">
        <ele>687.40002441406</ele>
        <time>2012-11-18T08:20:05Z</time>
      </trkpt>
      <trkpt lat="45.52387" lon="5.90166">
        <ele>688.20001220703</ele>
        <time>2012-11-18T08:20:09Z</time>
      </trkpt>
      <trkpt lat="45.52386" lon="5.90163">
        <ele>688.20001220703</ele>
        <time>2012-11-18T08:20:10Z</time>
      </trkpt>
      <trkpt lat="45.52379" lon="5.90157">
        <ele>689.40002441406</ele>
        <time>2012-11-18T08:20:14Z</time>
      </trkpt>
      <trkpt lat="45.52373" lon="5.90152">
        <ele>690.40002441406</ele>
        <time>2012-11-18T08:20:17Z</time>
      </trkpt>
      <trkpt lat="45.52362" lon="5.9014">
        <ele>691.79998779297</ele>
        <time>2012-11-18T08:20:22Z</time>
      </trkpt>
      <trkpt lat="45.52354" lon="5.90131">
        <ele>693</ele>
        <time>2012-11-18T08:20:26Z</time>
      </trkpt>
      <trkpt lat="45.52344" lon="5.90116">
        <ele>694.20001220703</ele>
        <time>2012-11-18T08:20:32Z</time>
      </trkpt>
      <trkpt lat="45.52339" lon="5.90107">
        <ele>694.79998779297</ele>
        <time>2012-11-18T08:20:35Z</time>
      </trkpt>
      <trkpt lat="45.52325" lon="5.9008">
        <ele>696.20001220703</ele>
        <time>2012-11-18T08:20:44Z</time>
      </trkpt>
      <trkpt lat="45.52318" lon="5.90064">
        <ele>697.20001220703</ele>
        <time>2012-11-18T08:20:49Z</time>
      </trkpt>
      <trkpt lat="45.52315" lon="5.90058">
        <ele>697.59997558594</ele>
        <time>2012-11-18T08:20:51Z</time>
      </trkpt>
      <trkpt lat="45.52314" lon="5.90056">
        <ele>697.79998779297</ele>
        <time>2012-11-18T08:20:52Z</time>
      </trkpt>
      <trkpt lat="45.52308" lon="5.90039">
        <ele>698.59997558594</ele>
        <time>2012-11-18T08:20:57Z</time>
      </trkpt>
      <trkpt lat="45.52307" lon="5.90035">
        <ele>698.79998779297</ele>
        <time>2012-11-18T08:20:58Z</time>
      </trkpt>
      <trkpt lat="45.52304" lon="5.90027">
        <ele>699.20001220703</ele>
        <time>2012-11-18T08:21:00Z</time>
      </trkpt>
      <trkpt lat="45.52301" lon="5.90019">
        <ele>699.59997558594</ele>
        <time>2012-11-18T08:21:02Z</time>
      </trkpt>
      <trkpt lat="45.52291" lon="5.89983">
        <ele>701.79998779297</ele>
        <time>2012-11-18T08:21:11Z</time>
      </trkpt>
      <trkpt lat="45.5229" lon="5.89978">
        <ele>702.20001220703</ele>
        <time>2012-11-18T08:21:12Z</time>
      </trkpt>
      <trkpt lat="45.52283" lon="5.89958">
        <ele>704</ele>
        <time>2012-11-18T08:21:17Z</time>
      </trkpt>
      <trkpt lat="45.52282" lon="5.89955">
        <ele>704.40002441406</ele>
        <time>2012-11-18T08:21:18Z</time>
      </trkpt>
      <trkpt lat="45.52273" lon="5.89923">
        <ele>706.79998779297</ele>
        <time>2012-11-18T08:21:26Z</time>
      </trkpt>
      <trkpt lat="45.52271" lon="5.89915">
        <ele>707.20001220703</ele>
        <time>2012-11-18T08:21:28Z</time>
      </trkpt>
      <trkpt lat="45.5227" lon="5.89904">
        <ele>707</ele>
        <time>2012-11-18T08:21:31Z</time>
      </trkpt>
      <trkpt lat="45.52267" lon="5.89883">
        <ele>706.40002441406</ele>
        <time>2012-11-18T08:21:37Z</time>
      </trkpt>
      <trkpt lat="45.52258" lon="5.89854">
        <ele>707</ele>
        <time>2012-11-18T08:21:45Z</time>
      </trkpt>
      <trkpt lat="45.52253" lon="5.89833">
        <ele>707.20001220703</ele>
        <time>2012-11-18T08:21:50Z</time>
      </trkpt>
      <trkpt lat="45.52244" lon="5.89806">
        <ele>708.40002441406</ele>
        <time>2012-11-18T08:21:57Z</time>
      </trkpt>
      <trkpt lat="45.52242" lon="5.89803">
        <ele>708.59997558594</ele>
        <time>2012-11-18T08:21:58Z</time>
      </trkpt>
      <trkpt lat="45.52238" lon="5.89795">
        <ele>709</ele>
        <time>2012-11-18T08:22:01Z</time>
      </trkpt>
      <trkpt lat="45.52231" lon="5.89783">
        <ele>709.59997558594</ele>
        <time>2012-11-18T08:22:05Z</time>
      </trkpt>
      <trkpt lat="45.52216" lon="5.89743">
        <ele>709.59997558594</ele>
        <time>2012-11-18T08:22:15Z</time>
      </trkpt>
      <trkpt lat="45.52214" lon="5.8974">
        <ele>709.40002441406</ele>
        <time>2012-11-18T08:22:16Z</time>
      </trkpt>
      <trkpt lat="45.52211" lon="5.89734">
        <ele>709.40002441406</ele>
        <time>2012-11-18T08:22:18Z</time>
      </trkpt>
      <trkpt lat="45.52206" lon="5.89726">
        <ele>709.20001220703</ele>
        <time>2012-11-18T08:22:21Z</time>
      </trkpt>
      <trkpt lat="45.52194" lon="5.89712">
        <ele>709</ele>
        <time>2012-11-18T08:22:25Z</time>
      </trkpt>
      <trkpt lat="45.52189" lon="5.89704">
        <ele>708.59997558594</ele>
        <time>2012-11-18T08:22:27Z</time>
      </trkpt>
      <trkpt lat="45.52173" lon="5.89693">
        <ele>708.59997558594</ele>
        <time>2012-11-18T08:22:32Z</time>
      </trkpt>
      <trkpt lat="45.5217" lon="5.89692">
        <ele>708.59997558594</ele>
        <time>2012-11-18T08:22:33Z</time>
      </trkpt>
      <trkpt lat="45.52163" lon="5.89685">
        <ele>708.20001220703</ele>
        <time>2012-11-18T08:22:36Z</time>
      </trkpt>
      <trkpt lat="45.52158" lon="5.89684">
        <ele>708.20001220703</ele>
        <time>2012-11-18T08:22:38Z</time>
      </trkpt>
      <trkpt lat="45.5215" lon="5.89684">
        <ele>708.59997558594</ele>
        <time>2012-11-18T08:22:41Z</time>
      </trkpt>
      <trkpt lat="45.52147" lon="5.89685">
        <ele>708.79998779297</ele>
        <time>2012-11-18T08:22:42Z</time>
      </trkpt>
      <trkpt lat="45.52131" lon="5.89688">
        <ele>709.79998779297</ele>
        <time>2012-11-18T08:22:47Z</time>
      </trkpt>
      <trkpt lat="45.52121" lon="5.8968">
        <ele>709.20001220703</ele>
        <time>2012-11-18T08:22:50Z</time>
      </trkpt>
      <trkpt lat="45.52119" lon="5.89647">
        <ele>708.40002441406</ele>
        <time>2012-11-18T08:23:00Z</time>
      </trkpt>
      <trkpt lat="45.5212" lon="5.89644">
        <ele>708.40002441406</ele>
        <time>2012-11-18T08:23:01Z</time>
      </trkpt>
      <trkpt lat="45.52125" lon="5.89628">
        <ele>708.79998779297</ele>
        <time>2012-11-18T08:23:07Z</time>
      </trkpt>
      <trkpt lat="45.52128" lon="5.89624">
        <ele>708.79998779297</ele>
        <time>2012-11-18T08:23:09Z</time>
      </trkpt>
      <trkpt lat="45.52134" lon="5.89616">
        <ele>708.79998779297</ele>
        <time>2012-11-18T08:23:14Z</time>
      </trkpt>
      <trkpt lat="45.52137" lon="5.89612">
        <ele>708.79998779297</ele>
        <time>2012-11-18T08:23:17Z</time>
      </trkpt>
      <trkpt lat="45.52143" lon="5.89603">
        <ele>708.79998779297</ele>
        <time>2012-11-18T08:23:23Z</time>
      </trkpt>
      <trkpt lat="45.52144" lon="5.89601">
        <ele>708.79998779297</ele>
        <time>2012-11-18T08:23:25Z</time>
      </trkpt>
      <trkpt lat="45.52148" lon="5.89591">
        <ele>708.79998779297</ele>
        <time>2012-11-18T08:23:31Z</time>
      </trkpt>
      <trkpt lat="45.52148" lon="5.89589">
        <ele>708.79998779297</ele>
        <time>2012-11-18T08:23:32Z</time>
      </trkpt>
      <trkpt lat="45.52149" lon="5.89582">
        <ele>708.79998779297</ele>
        <time>2012-11-18T08:23:36Z</time>
      </trkpt>
      <trkpt lat="45.52149" lon="5.8958">
        <ele>708.79998779297</ele>
        <time>2012-11-18T08:23:37Z</time>
      </trkpt>
      <trkpt lat="45.52144" lon="5.89568">
        <ele>708.59997558594</ele>
        <time>2012-11-18T08:23:44Z</time>
      </trkpt>
      <trkpt lat="45.52142" lon="5.89566">
        <ele>708.59997558594</ele>
        <time>2012-11-18T08:23:45Z</time>
      </trkpt>
      <trkpt lat="45.52134" lon="5.89554">
        <ele>709</ele>
        <time>2012-11-18T08:23:52Z</time>
      </trkpt>
      <trkpt lat="45.52129" lon="5.89545">
        <ele>709.20001220703</ele>
        <time>2012-11-18T08:23:56Z</time>
      </trkpt>
      <trkpt lat="45.52124" lon="5.89538">
        <ele>709.40002441406</ele>
        <time>2012-11-18T08:23:59Z</time>
      </trkpt>
      <trkpt lat="45.52122" lon="5.89535">
        <ele>709.59997558594</ele>
        <time>2012-11-18T08:24:00Z</time>
      </trkpt>
      <trkpt lat="45.52103" lon="5.89511">
        <ele>711.40002441406</ele>
        <time>2012-11-18T08:24:09Z</time>
      </trkpt>
      <trkpt lat="45.52091" lon="5.89494">
        <ele>712.20001220703</ele>
        <time>2012-11-18T08:24:15Z</time>
      </trkpt>
      <trkpt lat="45.52067" lon="5.89463">
        <ele>712.40002441406</ele>
        <time>2012-11-18T08:24:26Z</time>
      </trkpt>
      <trkpt lat="45.52055" lon="5.89452">
        <ele>712.79998779297</ele>
        <time>2012-11-18T08:24:31Z</time>
      </trkpt>
      <trkpt lat="45.52051" lon="5.89446">
        <ele>712.59997558594</ele>
        <time>2012-11-18T08:24:35Z</time>
      </trkpt>
      <trkpt lat="45.52049" lon="5.89444">
        <ele>712.79998779297</ele>
        <time>2012-11-18T08:24:36Z</time>
      </trkpt>
      <trkpt lat="45.52043" lon="5.89442">
        <ele>713.20001220703</ele>
        <time>2012-11-18T08:24:38Z</time>
      </trkpt>
      <trkpt lat="45.52042" lon="5.8944">
        <ele>713.20001220703</ele>
        <time>2012-11-18T08:24:39Z</time>
      </trkpt>
      <trkpt lat="45.52029" lon="5.89427">
        <ele>713</ele>
        <time>2012-11-18T08:24:44Z</time>
      </trkpt>
      <trkpt lat="45.52022" lon="5.89425">
        <ele>713.40002441406</ele>
        <time>2012-11-18T08:24:46Z</time>
      </trkpt>
      <trkpt lat="45.52015" lon="5.89422">
        <ele>714</ele>
        <time>2012-11-18T08:24:48Z</time>
      </trkpt>
      <trkpt lat="45.52002" lon="5.89417">
        <ele>714.79998779297</ele>
        <time>2012-11-18T08:24:52Z</time>
      </trkpt>
      <trkpt lat="45.51996" lon="5.8941">
        <ele>714.20001220703</ele>
        <time>2012-11-18T08:24:55Z</time>
      </trkpt>
      <trkpt lat="45.51989" lon="5.89408">
        <ele>714.40002441406</ele>
        <time>2012-11-18T08:24:57Z</time>
      </trkpt>
      <trkpt lat="45.51982" lon="5.89405">
        <ele>714.79998779297</ele>
        <time>2012-11-18T08:24:59Z</time>
      </trkpt>
      <trkpt lat="45.51978" lon="5.89405">
        <ele>715.20001220703</ele>
        <time>2012-11-18T08:25:00Z</time>
      </trkpt>
      <trkpt lat="45.51968" lon="5.89399">
        <ele>715.20001220703</ele>
        <time>2012-11-18T08:25:03Z</time>
      </trkpt>
      <trkpt lat="45.51965" lon="5.89397">
        <ele>715</ele>
        <time>2012-11-18T08:25:04Z</time>
      </trkpt>
      <trkpt lat="45.51953" lon="5.89391">
        <ele>714.79998779297</ele>
        <time>2012-11-18T08:25:08Z</time>
      </trkpt>
      <trkpt lat="45.51951" lon="5.8939">
        <ele>714.79998779297</ele>
        <time>2012-11-18T08:25:09Z</time>
      </trkpt>
      <trkpt lat="45.51934" lon="5.89379">
        <ele>714</ele>
        <time>2012-11-18T08:25:15Z</time>
      </trkpt>
      <trkpt lat="45.51925" lon="5.89373">
        <ele>713.20001220703</ele>
        <time>2012-11-18T08:25:18Z</time>
      </trkpt>
      <trkpt lat="45.51915" lon="5.89368">
        <ele>713.40002441406</ele>
        <time>2012-11-18T08:25:22Z</time>
      </trkpt>
      <trkpt lat="45.51911" lon="5.89363">
        <ele>713.20001220703</ele>
        <time>2012-11-18T08:25:24Z</time>
      </trkpt>
      <trkpt lat="45.51906" lon="5.89358">
        <ele>713.40002441406</ele>
        <time>2012-11-18T08:25:26Z</time>
      </trkpt>
      <trkpt lat="45.51894" lon="5.89345">
        <ele>714.59997558594</ele>
        <time>2012-11-18T08:25:31Z</time>
      </trkpt>
      <trkpt lat="45.5188" lon="5.89325">
        <ele>715.20001220703</ele>
        <time>2012-11-18T08:25:39Z</time>
      </trkpt>
      <trkpt lat="45.51875" lon="5.89321">
        <ele>716.20001220703</ele>
        <time>2012-11-18T08:25:42Z</time>
      </trkpt>
      <trkpt lat="45.51867" lon="5.89311">
        <ele>717.20001220703</ele>
        <time>2012-11-18T08:25:46Z</time>
      </trkpt>
      <trkpt lat="45.51866" lon="5.8931">
        <ele>717.40002441406</ele>
        <time>2012-11-18T08:25:47Z</time>
      </trkpt>
      <trkpt lat="45.51863" lon="5.89306">
        <ele>717.79998779297</ele>
        <time>2012-11-18T08:25:51Z</time>
      </trkpt>
      <trkpt lat="45.51861" lon="5.89305">
        <ele>718.20001220703</ele>
        <time>2012-11-18T08:25:53Z</time>
      </trkpt>
      <trkpt lat="45.51858" lon="5.89299">
        <ele>718.20001220703</ele>
        <time>2012-11-18T08:25:58Z</time>
      </trkpt>
      <trkpt lat="45.51857" lon="5.89298">
        <ele>718.20001220703</ele>
        <time>2012-11-18T08:25:59Z</time>
      </trkpt>
      <trkpt lat="45.51855" lon="5.89294">
        <ele>718.20001220703</ele>
        <time>2012-11-18T08:26:02Z</time>
      </trkpt>
      <trkpt lat="45.51853" lon="5.89288">
        <ele>717.79998779297</ele>
        <time>2012-11-18T08:26:06Z</time>
      </trkpt>
      <trkpt lat="45.51847" lon="5.89278">
        <ele>717.59997558594</ele>
        <time>2012-11-18T08:26:10Z</time>
      </trkpt>
      <trkpt lat="45.51841" lon="5.8927">
        <ele>717.79998779297</ele>
        <time>2012-11-18T08:26:14Z</time>
      </trkpt>
      <trkpt lat="45.51837" lon="5.89261">
        <ele>717.20001220703</ele>
        <time>2012-11-18T08:26:18Z</time>
      </trkpt>
      <trkpt lat="45.51835" lon="5.89259">
        <ele>717.40002441406</ele>
        <time>2012-11-18T08:26:19Z</time>
      </trkpt>
      <trkpt lat="45.51816" lon="5.89241">
        <ele>717.79998779297</ele>
        <time>2012-11-18T08:26:27Z</time>
      </trkpt>
      <trkpt lat="45.51803" lon="5.89239">
        <ele>719.79998779297</ele>
        <time>2012-11-18T08:26:32Z</time>
      </trkpt>
      <trkpt lat="45.51799" lon="5.89239">
        <ele>720.59997558594</ele>
        <time>2012-11-18T08:26:34Z</time>
      </trkpt>
      <trkpt lat="45.51796" lon="5.89237">
        <ele>720.79998779297</ele>
        <time>2012-11-18T08:26:36Z</time>
      </trkpt>
      <trkpt lat="45.51783" lon="5.89228">
        <ele>721</ele>
        <time>2012-11-18T08:26:41Z</time>
      </trkpt>
      <trkpt lat="45.51776" lon="5.89218">
        <ele>720</ele>
        <time>2012-11-18T08:26:44Z</time>
      </trkpt>
      <trkpt lat="45.51768" lon="5.89204">
        <ele>718.20001220703</ele>
        <time>2012-11-18T08:26:48Z</time>
      </trkpt>
      <trkpt lat="45.51765" lon="5.89202">
        <ele>718</ele>
        <time>2012-11-18T08:26:49Z</time>
      </trkpt>
      <trkpt lat="45.51751" lon="5.89187">
        <ele>716.20001220703</ele>
        <time>2012-11-18T08:26:54Z</time>
      </trkpt>
      <trkpt lat="45.51747" lon="5.89177">
        <ele>714.20001220703</ele>
        <time>2012-11-18T08:26:56Z</time>
      </trkpt>
      <trkpt lat="45.51744" lon="5.89166">
        <ele>712</ele>
        <time>2012-11-18T08:26:59Z</time>
      </trkpt>
      <trkpt lat="45.51742" lon="5.89164">
        <ele>711.79998779297</ele>
        <time>2012-11-18T08:27:00Z</time>
      </trkpt>
      <trkpt lat="45.51729" lon="5.89154">
        <ele>712.59997558594</ele>
        <time>2012-11-18T08:27:07Z</time>
      </trkpt>
      <trkpt lat="45.51727" lon="5.89154">
        <ele>712.79998779297</ele>
        <time>2012-11-18T08:27:09Z</time>
      </trkpt>
      <trkpt lat="45.51718" lon="5.89151">
        <ele>714</ele>
        <time>2012-11-18T08:27:13Z</time>
      </trkpt>
      <trkpt lat="45.51712" lon="5.89149">
        <ele>714.79998779297</ele>
        <time>2012-11-18T08:27:16Z</time>
      </trkpt>
      <trkpt lat="45.51698" lon="5.89139">
        <ele>715.20001220703</ele>
        <time>2012-11-18T08:27:22Z</time>
      </trkpt>
      <trkpt lat="45.5169" lon="5.89133">
        <ele>715.20001220703</ele>
        <time>2012-11-18T08:27:26Z</time>
      </trkpt>
      <trkpt lat="45.51687" lon="5.89132">
        <ele>715.40002441406</ele>
        <time>2012-11-18T08:27:28Z</time>
      </trkpt>
      <trkpt lat="45.51686" lon="5.89131">
        <ele>715.40002441406</ele>
        <time>2012-11-18T08:27:29Z</time>
      </trkpt>
      <trkpt lat="45.51682" lon="5.89128">
        <ele>715.40002441406</ele>
        <time>2012-11-18T08:27:33Z</time>
      </trkpt>
      <trkpt lat="45.5168" lon="5.89127">
        <ele>715.59997558594</ele>
        <time>2012-11-18T08:27:35Z</time>
      </trkpt>
      <trkpt lat="45.51678" lon="5.89127">
        <ele>716</ele>
        <time>2012-11-18T08:27:38Z</time>
      </trkpt>
      <trkpt lat="45.51677" lon="5.89127">
        <ele>716</ele>
        <time>2012-11-18T08:27:39Z</time>
      </trkpt>
      <trkpt lat="45.51673" lon="5.89125">
        <ele>716.20001220703</ele>
        <time>2012-11-18T08:27:42Z</time>
      </trkpt>
      <trkpt lat="45.51671" lon="5.89123">
        <ele>716.20001220703</ele>
        <time>2012-11-18T08:27:44Z</time>
      </trkpt>
      <trkpt lat="45.51667" lon="5.89121">
        <ele>716.20001220703</ele>
        <time>2012-11-18T08:27:46Z</time>
      </trkpt>
      <trkpt lat="45.51664" lon="5.8912">
        <ele>716.20001220703</ele>
        <time>2012-11-18T08:27:49Z</time>
      </trkpt>
      <trkpt lat="45.5166" lon="5.89119">
        <ele>716.20001220703</ele>
        <time>2012-11-18T08:27:53Z</time>
      </trkpt>
      <trkpt lat="45.51658" lon="5.89118">
        <ele>716.20001220703</ele>
        <time>2012-11-18T08:27:54Z</time>
      </trkpt>
      <trkpt lat="45.51653" lon="5.89118">
        <ele>716.59997558594</ele>
        <time>2012-11-18T08:27:58Z</time>
      </trkpt>
      <trkpt lat="45.51652" lon="5.89118">
        <ele>716.59997558594</ele>
        <time>2012-11-18T08:27:59Z</time>
      </trkpt>
      <trkpt lat="45.51644" lon="5.89118">
        <ele>717</ele>
        <time>2012-11-18T08:28:06Z</time>
      </trkpt>
      <trkpt lat="45.51642" lon="5.89118">
        <ele>717</ele>
        <time>2012-11-18T08:28:07Z</time>
      </trkpt>
      <trkpt lat="45.51639" lon="5.89117">
        <ele>717.20001220703</ele>
        <time>2012-11-18T08:28:10Z</time>
      </trkpt>
      <trkpt lat="45.51635" lon="5.89118">
        <ele>717.79998779297</ele>
        <time>2012-11-18T08:28:13Z</time>
      </trkpt>
      <trkpt lat="45.51629" lon="5.89118">
        <ele>718</ele>
        <time>2012-11-18T08:28:18Z</time>
      </trkpt>
      <trkpt lat="45.51629" lon="5.89118">
        <ele>718</ele>
        <time>2012-11-18T08:28:19Z</time>
      </trkpt>
      <trkpt lat="45.51622" lon="5.89121">
        <ele>719.20001220703</ele>
        <time>2012-11-18T08:28:23Z</time>
      </trkpt>
      <trkpt lat="45.51611" lon="5.89121">
        <ele>719.79998779297</ele>
        <time>2012-11-18T08:28:27Z</time>
      </trkpt>
      <trkpt lat="45.51586" lon="5.8911">
        <ele>718.79998779297</ele>
        <time>2012-11-18T08:28:36Z</time>
      </trkpt>
      <trkpt lat="45.51583" lon="5.89108">
        <ele>718.59997558594</ele>
        <time>2012-11-18T08:28:37Z</time>
      </trkpt>
      <trkpt lat="45.51573" lon="5.89101">
        <ele>718.40002441406</ele>
        <time>2012-11-18T08:28:41Z</time>
      </trkpt>
      <trkpt lat="45.51569" lon="5.89099">
        <ele>718.40002441406</ele>
        <time>2012-11-18T08:28:43Z</time>
      </trkpt>
      <trkpt lat="45.51559" lon="5.89096">
        <ele>719.20001220703</ele>
        <time>2012-11-18T08:28:46Z</time>
      </trkpt>
      <trkpt lat="45.51545" lon="5.89091">
        <ele>719.59997558594</ele>
        <time>2012-11-18T08:28:50Z</time>
      </trkpt>
      <trkpt lat="45.51532" lon="5.89075">
        <ele>718.40002441406</ele>
        <time>2012-11-18T08:28:56Z</time>
      </trkpt>
      <trkpt lat="45.51528" lon="5.8907">
        <ele>718.40002441406</ele>
        <time>2012-11-18T08:28:58Z</time>
      </trkpt>
      <trkpt lat="45.51522" lon="5.89065">
        <ele>718.40002441406</ele>
        <time>2012-11-18T08:29:01Z</time>
      </trkpt>
      <trkpt lat="45.51517" lon="5.89062">
        <ele>718.40002441406</ele>
        <time>2012-11-18T08:29:03Z</time>
      </trkpt>
      <trkpt lat="45.51503" lon="5.89056">
        <ele>719.59997558594</ele>
        <time>2012-11-18T08:29:10Z</time>
      </trkpt>
      <trkpt lat="45.51497" lon="5.89052">
        <ele>720</ele>
        <time>2012-11-18T08:29:13Z</time>
      </trkpt>
      <trkpt lat="45.51486" lon="5.89046">
        <ele>721.59997558594</ele>
        <time>2012-11-18T08:29:18Z</time>
      </trkpt>
      <trkpt lat="45.51475" lon="5.89042">
        <ele>723.20001220703</ele>
        <time>2012-11-18T08:29:22Z</time>
      </trkpt>
      <trkpt lat="45.51462" lon="5.89034">
        <ele>724.59997558594</ele>
        <time>2012-11-18T08:29:28Z</time>
      </trkpt>
      <trkpt lat="45.51459" lon="5.89031">
        <ele>724.79998779297</ele>
        <time>2012-11-18T08:29:30Z</time>
      </trkpt>
      <trkpt lat="45.51449" lon="5.89026">
        <ele>725.59997558594</ele>
        <time>2012-11-18T08:29:35Z</time>
      </trkpt>
      <trkpt lat="45.51447" lon="5.89025">
        <ele>726</ele>
        <time>2012-11-18T08:29:36Z</time>
      </trkpt>
      <trkpt lat="45.51443" lon="5.89024">
        <ele>726.59997558594</ele>
        <time>2012-11-18T08:29:38Z</time>
      </trkpt>
      <trkpt lat="45.51438" lon="5.89022">
        <ele>727.20001220703</ele>
        <time>2012-11-18T08:29:40Z</time>
      </trkpt>
      <trkpt lat="45.51434" lon="5.89019">
        <ele>727.40002441406</ele>
        <time>2012-11-18T08:29:43Z</time>
      </trkpt>
      <trkpt lat="45.51433" lon="5.89019">
        <ele>727.40002441406</ele>
        <time>2012-11-18T08:29:44Z</time>
      </trkpt>
      <trkpt lat="45.51428" lon="5.89015">
        <ele>727.79998779297</ele>
        <time>2012-11-18T08:29:48Z</time>
      </trkpt>
      <trkpt lat="45.51427" lon="5.89015">
        <ele>728.20001220703</ele>
        <time>2012-11-18T08:29:49Z</time>
      </trkpt>
      <trkpt lat="45.51421" lon="5.89012">
        <ele>728.59997558594</ele>
        <time>2012-11-18T08:29:53Z</time>
      </trkpt>
      <trkpt lat="45.51419" lon="5.89012">
        <ele>728.79998779297</ele>
        <time>2012-11-18T08:29:54Z</time>
      </trkpt>
      <trkpt lat="45.51415" lon="5.89008">
        <ele>728.79998779297</ele>
        <time>2012-11-18T08:29:58Z</time>
      </trkpt>
      <trkpt lat="45.51413" lon="5.89008">
        <ele>729.20001220703</ele>
        <time>2012-11-18T08:30:00Z</time>
      </trkpt>
      <trkpt lat="45.51409" lon="5.89007">
        <ele>729.79998779297</ele>
        <time>2012-11-18T08:30:03Z</time>
      </trkpt>
      <trkpt lat="45.5141" lon="5.89007">
        <ele>729.59997558594</ele>
        <time>2012-11-18T08:30:04Z</time>
      </trkpt>
      <trkpt lat="45.51404" lon="5.89006">
        <ele>730.79998779297</ele>
        <time>2012-11-18T08:30:07Z</time>
      </trkpt>
      <trkpt lat="45.51402" lon="5.89005">
        <ele>730.79998779297</ele>
        <time>2012-11-18T08:30:10Z</time>
      </trkpt>
      <trkpt lat="45.51396" lon="5.89002">
        <ele>731.40002441406</ele>
        <time>2012-11-18T08:30:12Z</time>
      </trkpt>
      <trkpt lat="45.51391" lon="5.89">
        <ele>731.79998779297</ele>
        <time>2012-11-18T08:30:15Z</time>
      </trkpt>
      <trkpt lat="45.51385" lon="5.88996">
        <ele>732.79998779297</ele>
        <time>2012-11-18T08:30:19Z</time>
      </trkpt>
      <trkpt lat="45.51378" lon="5.88993">
        <ele>734</ele>
        <time>2012-11-18T08:30:22Z</time>
      </trkpt>
      <trkpt lat="45.51367" lon="5.88989">
        <ele>736</ele>
        <time>2012-11-18T08:30:26Z</time>
      </trkpt>
      <trkpt lat="45.51364" lon="5.88988">
        <ele>736.40002441406</ele>
        <time>2012-11-18T08:30:27Z</time>
      </trkpt>
      <trkpt lat="45.51355" lon="5.88984">
        <ele>738.20001220703</ele>
        <time>2012-11-18T08:30:31Z</time>
      </trkpt>
      <trkpt lat="45.5135" lon="5.88981">
        <ele>738.79998779297</ele>
        <time>2012-11-18T08:30:33Z</time>
      </trkpt>
      <trkpt lat="45.51345" lon="5.88976">
        <ele>739.59997558594</ele>
        <time>2012-11-18T08:30:37Z</time>
      </trkpt>
      <trkpt lat="45.51341" lon="5.88974">
        <ele>740.20001220703</ele>
        <time>2012-11-18T08:30:40Z</time>
      </trkpt>
      <trkpt lat="45.51338" lon="5.88971">
        <ele>740.59997558594</ele>
        <time>2012-11-18T08:30:44Z</time>
      </trkpt>
      <trkpt lat="45.51338" lon="5.8897">
        <ele>740.59997558594</ele>
        <time>2012-11-18T08:30:45Z</time>
      </trkpt>
      <trkpt lat="45.51334" lon="5.88968">
        <ele>741.20001220703</ele>
        <time>2012-11-18T08:30:49Z</time>
      </trkpt>
      <trkpt lat="45.51332" lon="5.88968">
        <ele>741.79998779297</ele>
        <time>2012-11-18T08:30:50Z</time>
      </trkpt>
      <trkpt lat="45.51327" lon="5.88965">
        <ele>742.59997558594</ele>
        <time>2012-11-18T08:30:54Z</time>
      </trkpt>
      <trkpt lat="45.51325" lon="5.88966">
        <ele>743.20001220703</ele>
        <time>2012-11-18T08:30:55Z</time>
      </trkpt>
      <trkpt lat="45.5132" lon="5.88963">
        <ele>744.40002441406</ele>
        <time>2012-11-18T08:30:59Z</time>
      </trkpt>
      <trkpt lat="45.5132" lon="5.88963">
        <ele>744.40002441406</ele>
        <time>2012-11-18T08:31:00Z</time>
      </trkpt>
      <trkpt lat="45.51312" lon="5.8896">
        <ele>746</ele>
        <time>2012-11-18T08:31:04Z</time>
      </trkpt>
      <trkpt lat="45.51311" lon="5.88959">
        <ele>746.20001220703</ele>
        <time>2012-11-18T08:31:05Z</time>
      </trkpt>
      <trkpt lat="45.51303" lon="5.88955">
        <ele>747.79998779297</ele>
        <time>2012-11-18T08:31:10Z</time>
      </trkpt>
      <trkpt lat="45.51297" lon="5.88952">
        <ele>748.79998779297</ele>
        <time>2012-11-18T08:31:14Z</time>
      </trkpt>
      <trkpt lat="45.51291" lon="5.8895">
        <ele>750</ele>
        <time>2012-11-18T08:31:20Z</time>
      </trkpt>
      <trkpt lat="45.5129" lon="5.8895">
        <ele>750.20001220703</ele>
        <time>2012-11-18T08:31:21Z</time>
      </trkpt>
      <trkpt lat="45.5128" lon="5.88949">
        <ele>752</ele>
        <time>2012-11-18T08:31:26Z</time>
      </trkpt>
      <trkpt lat="45.51274" lon="5.88949">
        <ele>753.40002441406</ele>
        <time>2012-11-18T08:31:30Z</time>
      </trkpt>
      <trkpt lat="45.51267" lon="5.88949">
        <ele>755</ele>
        <time>2012-11-18T08:31:35Z</time>
      </trkpt>
      <trkpt lat="45.51266" lon="5.88948">
        <ele>755.20001220703</ele>
        <time>2012-11-18T08:31:36Z</time>
      </trkpt>
      <trkpt lat="45.51262" lon="5.88945">
        <ele>755.59997558594</ele>
        <time>2012-11-18T08:31:39Z</time>
      </trkpt>
      <trkpt lat="45.51259" lon="5.88943">
        <ele>755.79998779297</ele>
        <time>2012-11-18T08:31:41Z</time>
      </trkpt>
      <trkpt lat="45.51256" lon="5.88938">
        <ele>755.59997558594</ele>
        <time>2012-11-18T08:31:43Z</time>
      </trkpt>
      <trkpt lat="45.51253" lon="5.88933">
        <ele>755.40002441406</ele>
        <time>2012-11-18T08:31:45Z</time>
      </trkpt>
      <trkpt lat="45.51236" lon="5.88914">
        <ele>756.40002441406</ele>
        <time>2012-11-18T08:31:53Z</time>
      </trkpt>
      <trkpt lat="45.51235" lon="5.88913">
        <ele>756.79998779297</ele>
        <time>2012-11-18T08:31:54Z</time>
      </trkpt>
      <trkpt lat="45.51229" lon="5.88904">
        <ele>758.20001220703</ele>
        <time>2012-11-18T08:31:57Z</time>
      </trkpt>
      <trkpt lat="45.51227" lon="5.88902">
        <ele>758.79998779297</ele>
        <time>2012-11-18T08:31:58Z</time>
      </trkpt>
      <trkpt lat="45.51223" lon="5.88896">
        <ele>759.59997558594</ele>
        <time>2012-11-18T08:32:01Z</time>
      </trkpt>
      <trkpt lat="45.51221" lon="5.8889">
        <ele>760</ele>
        <time>2012-11-18T08:32:04Z</time>
      </trkpt>
      <trkpt lat="45.51219" lon="5.88878">
        <ele>760.20001220703</ele>
        <time>2012-11-18T08:32:09Z</time>
      </trkpt>
      <trkpt lat="45.51219" lon="5.88877">
        <ele>760</ele>
        <time>2012-11-18T08:32:10Z</time>
      </trkpt>
      <trkpt lat="45.51225" lon="5.88873">
        <ele>758.79998779297</ele>
        <time>2012-11-18T08:32:15Z</time>
      </trkpt>
      <trkpt lat="45.51226" lon="5.88873">
        <ele>758.59997558594</ele>
        <time>2012-11-18T08:32:16Z</time>
      </trkpt>
      <trkpt lat="45.51238" lon="5.8887">
        <ele>756</ele>
        <time>2012-11-18T08:32:23Z</time>
      </trkpt>
      <trkpt lat="45.5125" lon="5.88871">
        <ele>753.40002441406</ele>
        <time>2012-11-18T08:32:27Z</time>
      </trkpt>
      <trkpt lat="45.51267" lon="5.88866">
        <ele>750.79998779297</ele>
        <time>2012-11-18T08:32:32Z</time>
      </trkpt>
      <trkpt lat="45.51271" lon="5.88862">
        <ele>750.20001220703</ele>
        <time>2012-11-18T08:32:34Z</time>
      </trkpt>
      <trkpt lat="45.51278" lon="5.88844">
        <ele>749.40002441406</ele>
        <time>2012-11-18T08:32:39Z</time>
      </trkpt>
      <trkpt lat="45.51281" lon="5.8883">
        <ele>749.40002441406</ele>
        <time>2012-11-18T08:32:42Z</time>
      </trkpt>
      <trkpt lat="45.51287" lon="5.88806">
        <ele>751</ele>
        <time>2012-11-18T08:32:47Z</time>
      </trkpt>
      <trkpt lat="45.51288" lon="5.88802">
        <ele>751</ele>
        <time>2012-11-18T08:32:48Z</time>
      </trkpt>
      <trkpt lat="45.51297" lon="5.88789">
        <ele>751.20001220703</ele>
        <time>2012-11-18T08:32:52Z</time>
      </trkpt>
      <trkpt lat="45.51298" lon="5.88787">
        <ele>751.20001220703</ele>
        <time>2012-11-18T08:32:53Z</time>
      </trkpt>
      <trkpt lat="45.51313" lon="5.88778">
        <ele>749.79998779297</ele>
        <time>2012-11-18T08:32:57Z</time>
      </trkpt>
      <trkpt lat="45.51316" lon="5.88776">
        <ele>749.59997558594</ele>
        <time>2012-11-18T08:32:58Z</time>
      </trkpt>
      <trkpt lat="45.51325" lon="5.88772">
        <ele>748.79998779297</ele>
        <time>2012-11-18T08:33:01Z</time>
      </trkpt>
      <trkpt lat="45.51329" lon="5.88771">
        <ele>748.20001220703</ele>
        <time>2012-11-18T08:33:02Z</time>
      </trkpt>
      <trkpt lat="45.51348" lon="5.88767">
        <ele>745.79998779297</ele>
        <time>2012-11-18T08:33:07Z</time>
      </trkpt>
      <trkpt lat="45.51351" lon="5.88766">
        <ele>745.40002441406</ele>
        <time>2012-11-18T08:33:08Z</time>
      </trkpt>
      <trkpt lat="45.51366" lon="5.88762">
        <ele>743.59997558594</ele>
        <time>2012-11-18T08:33:12Z</time>
      </trkpt>
      <trkpt lat="45.51374" lon="5.8876">
        <ele>742.40002441406</ele>
        <time>2012-11-18T08:33:14Z</time>
      </trkpt>
      <trkpt lat="45.51393" lon="5.88755">
        <ele>740</ele>
        <time>2012-11-18T08:33:19Z</time>
      </trkpt>
      <trkpt lat="45.514" lon="5.88753">
        <ele>739.20001220703</ele>
        <time>2012-11-18T08:33:21Z</time>
      </trkpt>
      <trkpt lat="45.51424" lon="5.88751">
        <ele>735.59997558594</ele>
        <time>2012-11-18T08:33:28Z</time>
      </trkpt>
      <trkpt lat="45.51427" lon="5.8875">
        <ele>735.20001220703</ele>
        <time>2012-11-18T08:33:29Z</time>
      </trkpt>
      <trkpt lat="45.51441" lon="5.88748">
        <ele>733.20001220703</ele>
        <time>2012-11-18T08:33:33Z</time>
      </trkpt>
      <trkpt lat="45.5145" lon="5.88747">
        <ele>731.79998779297</ele>
        <time>2012-11-18T08:33:36Z</time>
      </trkpt>
      <trkpt lat="45.51469" lon="5.88743">
        <ele>729</ele>
        <time>2012-11-18T08:33:42Z</time>
      </trkpt>
      <trkpt lat="45.5148" lon="5.88741">
        <ele>727.40002441406</ele>
        <time>2012-11-18T08:33:45Z</time>
      </trkpt>
      <trkpt lat="45.51502" lon="5.88737">
        <ele>724</ele>
        <time>2012-11-18T08:33:51Z</time>
      </trkpt>
      <trkpt lat="45.51505" lon="5.88736">
        <ele>723.59997558594</ele>
        <time>2012-11-18T08:33:52Z</time>
      </trkpt>
      <trkpt lat="45.51521" lon="5.88736">
        <ele>720.59997558594</ele>
        <time>2012-11-18T08:33:57Z</time>
      </trkpt>
      <trkpt lat="45.51524" lon="5.88736">
        <ele>720.20001220703</ele>
        <time>2012-11-18T08:33:58Z</time>
      </trkpt>
      <trkpt lat="45.51531" lon="5.88734">
        <ele>719</ele>
        <time>2012-11-18T08:34:00Z</time>
      </trkpt>
      <trkpt lat="45.51541" lon="5.88733">
        <ele>717.40002441406</ele>
        <time>2012-11-18T08:34:03Z</time>
      </trkpt>
      <trkpt lat="45.51557" lon="5.8873">
        <ele>714.40002441406</ele>
        <time>2012-11-18T08:34:08Z</time>
      </trkpt>
      <trkpt lat="45.5156" lon="5.88729">
        <ele>714</ele>
        <time>2012-11-18T08:34:09Z</time>
      </trkpt>
      <trkpt lat="45.51573" lon="5.88725">
        <ele>712</ele>
        <time>2012-11-18T08:34:13Z</time>
      </trkpt>
      <trkpt lat="45.51575" lon="5.88724">
        <ele>711.79998779297</ele>
        <time>2012-11-18T08:34:14Z</time>
      </trkpt>
      <trkpt lat="45.51579" lon="5.8871">
        <ele>712</ele>
        <time>2012-11-18T08:34:18Z</time>
      </trkpt>
      <trkpt lat="45.51578" lon="5.88695">
        <ele>713.59997558594</ele>
        <time>2012-11-18T08:34:23Z</time>
      </trkpt>
      <trkpt lat="45.51573" lon="5.88681">
        <ele>715.79998779297</ele>
        <time>2012-11-18T08:34:28Z</time>
      </trkpt>
      <trkpt lat="45.51571" lon="5.88665">
        <ele>717.79998779297</ele>
        <time>2012-11-18T08:34:33Z</time>
      </trkpt>
      <trkpt lat="45.51574" lon="5.88652">
        <ele>717.79998779297</ele>
        <time>2012-11-18T08:34:37Z</time>
      </trkpt>
      <trkpt lat="45.51575" lon="5.88645">
        <ele>718</ele>
        <time>2012-11-18T08:34:39Z</time>
      </trkpt>
      <trkpt lat="45.51572" lon="5.88612">
        <ele>720.59997558594</ele>
        <time>2012-11-18T08:34:47Z</time>
      </trkpt>
      <trkpt lat="45.51574" lon="5.88601">
        <ele>720.79998779297</ele>
        <time>2012-11-18T08:34:50Z</time>
      </trkpt>
      <trkpt lat="45.51577" lon="5.88585">
        <ele>721.20001220703</ele>
        <time>2012-11-18T08:34:55Z</time>
      </trkpt>
      <trkpt lat="45.51576" lon="5.88578">
        <ele>721.79998779297</ele>
        <time>2012-11-18T08:34:58Z</time>
      </trkpt>
      <trkpt lat="45.51575" lon="5.88573">
        <ele>722.40002441406</ele>
        <time>2012-11-18T08:35:00Z</time>
      </trkpt>
      <trkpt lat="45.51574" lon="5.88571">
        <ele>722.59997558594</ele>
        <time>2012-11-18T08:35:01Z</time>
      </trkpt>
      <trkpt lat="45.51572" lon="5.88555">
        <ele>724.40002441406</ele>
        <time>2012-11-18T08:35:07Z</time>
      </trkpt>
      <trkpt lat="45.51571" lon="5.88551">
        <ele>724.79998779297</ele>
        <time>2012-11-18T08:35:08Z</time>
      </trkpt>
      <trkpt lat="45.5157" lon="5.8852">
        <ele>727.20001220703</ele>
        <time>2012-11-18T08:35:17Z</time>
      </trkpt>
      <trkpt lat="45.51574" lon="5.8851">
        <ele>727.40002441406</ele>
        <time>2012-11-18T08:35:21Z</time>
      </trkpt>
      <trkpt lat="45.5158" lon="5.88502">
        <ele>727</ele>
        <time>2012-11-18T08:35:25Z</time>
      </trkpt>
      <trkpt lat="45.51582" lon="5.885">
        <ele>727</ele>
        <time>2012-11-18T08:35:26Z</time>
      </trkpt>
      <trkpt lat="45.51588" lon="5.8849">
        <ele>727.79998779297</ele>
        <time>2012-11-18T08:35:30Z</time>
      </trkpt>
      <trkpt lat="45.51592" lon="5.88484">
        <ele>728.59997558594</ele>
        <time>2012-11-18T08:35:33Z</time>
      </trkpt>
      <trkpt lat="45.51594" lon="5.88479">
        <ele>729</ele>
        <time>2012-11-18T08:35:37Z</time>
      </trkpt>
      <trkpt lat="45.51594" lon="5.88478">
        <ele>729.20001220703</ele>
        <time>2012-11-18T08:35:39Z</time>
      </trkpt>
      <trkpt lat="45.51595" lon="5.88473">
        <ele>729.79998779297</ele>
        <time>2012-11-18T08:35:43Z</time>
      </trkpt>
      <trkpt lat="45.51597" lon="5.88466">
        <ele>730.59997558594</ele>
        <time>2012-11-18T08:35:45Z</time>
      </trkpt>
      <trkpt lat="45.51599" lon="5.88459">
        <ele>731.59997558594</ele>
        <time>2012-11-18T08:35:47Z</time>
      </trkpt>
      <trkpt lat="45.51598" lon="5.88452">
        <ele>732.40002441406</ele>
        <time>2012-11-18T08:35:49Z</time>
      </trkpt>
      <trkpt lat="45.51589" lon="5.88434">
        <ele>734.20001220703</ele>
        <time>2012-11-18T08:35:55Z</time>
      </trkpt>
      <trkpt lat="45.51588" lon="5.88431">
        <ele>734.59997558594</ele>
        <time>2012-11-18T08:35:56Z</time>
      </trkpt>
      <trkpt lat="45.51586" lon="5.88423">
        <ele>735.40002441406</ele>
        <time>2012-11-18T08:35:59Z</time>
      </trkpt>
      <trkpt lat="45.51585" lon="5.8842">
        <ele>735.59997558594</ele>
        <time>2012-11-18T08:36:00Z</time>
      </trkpt>
      <trkpt lat="45.51584" lon="5.88413">
        <ele>736.40002441406</ele>
        <time>2012-11-18T08:36:02Z</time>
      </trkpt>
      <trkpt lat="45.51584" lon="5.8841">
        <ele>736.79998779297</ele>
        <time>2012-11-18T08:36:03Z</time>
      </trkpt>
      <trkpt lat="45.5158" lon="5.88397">
        <ele>739</ele>
        <time>2012-11-18T08:36:08Z</time>
      </trkpt>
      <trkpt lat="45.51578" lon="5.88394">
        <ele>739.59997558594</ele>
        <time>2012-11-18T08:36:10Z</time>
      </trkpt>
      <trkpt lat="45.51564" lon="5.88391">
        <ele>741.20001220703</ele>
        <time>2012-11-18T08:36:17Z</time>
      </trkpt>
      <trkpt lat="45.51559" lon="5.88388">
        <ele>741.79998779297</ele>
        <time>2012-11-18T08:36:20Z</time>
      </trkpt>
      <trkpt lat="45.51549" lon="5.88379">
        <ele>743.59997558594</ele>
        <time>2012-11-18T08:36:26Z</time>
      </trkpt>
      <trkpt lat="45.51545" lon="5.88377">
        <ele>744.20001220703</ele>
        <time>2012-11-18T08:36:28Z</time>
      </trkpt>
      <trkpt lat="45.51536" lon="5.88369">
        <ele>745.59997558594</ele>
        <time>2012-11-18T08:36:33Z</time>
      </trkpt>
      <trkpt lat="45.51534" lon="5.88368">
        <ele>746</ele>
        <time>2012-11-18T08:36:34Z</time>
      </trkpt>
      <trkpt lat="45.51525" lon="5.88361">
        <ele>747.20001220703</ele>
        <time>2012-11-18T08:36:39Z</time>
      </trkpt>
      <trkpt lat="45.51514" lon="5.88356">
        <ele>748.20001220703</ele>
        <time>2012-11-18T08:36:44Z</time>
      </trkpt>
      <trkpt lat="45.51503" lon="5.88355">
        <ele>749</ele>
        <time>2012-11-18T08:36:50Z</time>
      </trkpt>
      <trkpt lat="45.51501" lon="5.88355">
        <ele>749</ele>
        <time>2012-11-18T08:36:51Z</time>
      </trkpt>
      <trkpt lat="45.51494" lon="5.88355">
        <ele>749.40002441406</ele>
        <time>2012-11-18T08:36:55Z</time>
      </trkpt>
      <trkpt lat="45.5149" lon="5.88352">
        <ele>750</ele>
        <time>2012-11-18T08:36:58Z</time>
      </trkpt>
      <trkpt lat="45.51486" lon="5.88347">
        <ele>750.79998779297</ele>
        <time>2012-11-18T08:37:01Z</time>
      </trkpt>
      <trkpt lat="45.51476" lon="5.8834">
        <ele>751.79998779297</ele>
        <time>2012-11-18T08:37:06Z</time>
      </trkpt>
      <trkpt lat="45.51452" lon="5.88327">
        <ele>754</ele>
        <time>2012-11-18T08:37:16Z</time>
      </trkpt>
      <trkpt lat="45.51439" lon="5.88319">
        <ele>755.20001220703</ele>
        <time>2012-11-18T08:37:22Z</time>
      </trkpt>
      <trkpt lat="45.51431" lon="5.88314">
        <ele>755.79998779297</ele>
        <time>2012-11-18T08:37:26Z</time>
      </trkpt>
      <trkpt lat="45.51423" lon="5.88311">
        <ele>756.20001220703</ele>
        <time>2012-11-18T08:37:29Z</time>
      </trkpt>
      <trkpt lat="45.51411" lon="5.88305">
        <ele>757.40002441406</ele>
        <time>2012-11-18T08:37:36Z</time>
      </trkpt>
      <trkpt lat="45.51409" lon="5.88304">
        <ele>757.79998779297</ele>
        <time>2012-11-18T08:37:38Z</time>
      </trkpt>
      <trkpt lat="45.51403" lon="5.88302">
        <ele>758.59997558594</ele>
        <time>2012-11-18T08:37:41Z</time>
      </trkpt>
      <trkpt lat="45.51401" lon="5.88301">
        <ele>758.79998779297</ele>
        <time>2012-11-18T08:37:42Z</time>
      </trkpt>
      <trkpt lat="45.51391" lon="5.88298">
        <ele>760.40002441406</ele>
        <time>2012-11-18T08:37:47Z</time>
      </trkpt>
      <trkpt lat="45.51383" lon="5.88297">
        <ele>761.40002441406</ele>
        <time>2012-11-18T08:37:51Z</time>
      </trkpt>
      <trkpt lat="45.51377" lon="5.883">
        <ele>762.20001220703</ele>
        <time>2012-11-18T08:37:55Z</time>
      </trkpt>
      <trkpt lat="45.51376" lon="5.88299">
        <ele>762.40002441406</ele>
        <time>2012-11-18T08:37:56Z</time>
      </trkpt>
      <trkpt lat="45.51374" lon="5.883">
        <ele>762.59997558594</ele>
        <time>2012-11-18T08:37:59Z</time>
      </trkpt>
      <trkpt lat="45.51373" lon="5.88301">
        <ele>762.79998779297</ele>
        <time>2012-11-18T08:38:00Z</time>
      </trkpt>
      <trkpt lat="45.51366" lon="5.88299">
        <ele>763.79998779297</ele>
        <time>2012-11-18T08:38:05Z</time>
      </trkpt>
      <trkpt lat="45.51363" lon="5.88298">
        <ele>764.20001220703</ele>
        <time>2012-11-18T08:38:08Z</time>
      </trkpt>
      <trkpt lat="45.51358" lon="5.88291">
        <ele>765</ele>
        <time>2012-11-18T08:38:12Z</time>
      </trkpt>
      <trkpt lat="45.51356" lon="5.88289">
        <ele>765.20001220703</ele>
        <time>2012-11-18T08:38:13Z</time>
      </trkpt>
      <trkpt lat="45.51345" lon="5.88277">
        <ele>767</ele>
        <time>2012-11-18T08:38:20Z</time>
      </trkpt>
      <trkpt lat="45.51339" lon="5.88269">
        <ele>767.79998779297</ele>
        <time>2012-11-18T08:38:24Z</time>
      </trkpt>
      <trkpt lat="45.51336" lon="5.88266">
        <ele>768.40002441406</ele>
        <time>2012-11-18T08:38:27Z</time>
      </trkpt>
      <trkpt lat="45.51331" lon="5.88263">
        <ele>769.40002441406</ele>
        <time>2012-11-18T08:38:30Z</time>
      </trkpt>
      <trkpt lat="45.51326" lon="5.88258">
        <ele>770.59997558594</ele>
        <time>2012-11-18T08:38:35Z</time>
      </trkpt>
      <trkpt lat="45.51325" lon="5.88258">
        <ele>770.59997558594</ele>
        <time>2012-11-18T08:38:36Z</time>
      </trkpt>
      <trkpt lat="45.51323" lon="5.88258">
        <ele>771.20001220703</ele>
        <time>2012-11-18T08:38:38Z</time>
      </trkpt>
      <trkpt lat="45.51321" lon="5.88256">
        <ele>771.79998779297</ele>
        <time>2012-11-18T08:38:41Z</time>
      </trkpt>
      <trkpt lat="45.51317" lon="5.88257">
        <ele>772.59997558594</ele>
        <time>2012-11-18T08:38:43Z</time>
      </trkpt>
      <trkpt lat="45.51315" lon="5.88257">
        <ele>773.20001220703</ele>
        <time>2012-11-18T08:38:45Z</time>
      </trkpt>
      <trkpt lat="45.5131" lon="5.88258">
        <ele>774.20001220703</ele>
        <time>2012-11-18T08:38:49Z</time>
      </trkpt>
      <trkpt lat="45.5131" lon="5.88258">
        <ele>774.40002441406</ele>
        <time>2012-11-18T08:38:50Z</time>
      </trkpt>
      <trkpt lat="45.51305" lon="5.88259">
        <ele>775.40002441406</ele>
        <time>2012-11-18T08:38:55Z</time>
      </trkpt>
      <trkpt lat="45.51303" lon="5.88259">
        <ele>775.79998779297</ele>
        <time>2012-11-18T08:38:56Z</time>
      </trkpt>
      <trkpt lat="45.51301" lon="5.88259">
        <ele>776.40002441406</ele>
        <time>2012-11-18T08:38:59Z</time>
      </trkpt>
      <trkpt lat="45.51298" lon="5.88257">
        <ele>777</ele>
        <time>2012-11-18T08:39:01Z</time>
      </trkpt>
      <trkpt lat="45.51293" lon="5.88251">
        <ele>778.59997558594</ele>
        <time>2012-11-18T08:39:04Z</time>
      </trkpt>
      <trkpt lat="45.51291" lon="5.88249">
        <ele>779.20001220703</ele>
        <time>2012-11-18T08:39:05Z</time>
      </trkpt>
      <trkpt lat="45.51288" lon="5.88242">
        <ele>781</ele>
        <time>2012-11-18T08:39:10Z</time>
      </trkpt>
      <trkpt lat="45.51287" lon="5.88241">
        <ele>781.40002441406</ele>
        <time>2012-11-18T08:39:11Z</time>
      </trkpt>
      <trkpt lat="45.51284" lon="5.88236">
        <ele>782.59997558594</ele>
        <time>2012-11-18T08:39:15Z</time>
      </trkpt>
      <trkpt lat="45.51283" lon="5.88235">
        <ele>783</ele>
        <time>2012-11-18T08:39:16Z</time>
      </trkpt>
      <trkpt lat="45.5128" lon="5.88231">
        <ele>784.40002441406</ele>
        <time>2012-11-18T08:39:21Z</time>
      </trkpt>
      <trkpt lat="45.5128" lon="5.88232">
        <ele>784.20001220703</ele>
        <time>2012-11-18T08:39:23Z</time>
      </trkpt>
      <trkpt lat="45.51276" lon="5.8823">
        <ele>785.40002441406</ele>
        <time>2012-11-18T08:39:27Z</time>
      </trkpt>
      <trkpt lat="45.51276" lon="5.8823">
        <ele>785.40002441406</ele>
        <time>2012-11-18T08:39:28Z</time>
      </trkpt>
      <trkpt lat="45.51269" lon="5.88228">
        <ele>787</ele>
        <time>2012-11-18T08:39:32Z</time>
      </trkpt>
      <trkpt lat="45.51268" lon="5.88228">
        <ele>787.20001220703</ele>
        <time>2012-11-18T08:39:34Z</time>
      </trkpt>
      <trkpt lat="45.51266" lon="5.88229">
        <ele>787.79998779297</ele>
        <time>2012-11-18T08:39:39Z</time>
      </trkpt>
      <trkpt lat="45.51262" lon="5.88228">
        <ele>788.59997558594</ele>
        <time>2012-11-18T08:39:40Z</time>
      </trkpt>
      <trkpt lat="45.51256" lon="5.88226">
        <ele>790.20001220703</ele>
        <time>2012-11-18T08:39:43Z</time>
      </trkpt>
      <trkpt lat="45.51255" lon="5.88226">
        <ele>790.59997558594</ele>
        <time>2012-11-18T08:39:44Z</time>
      </trkpt>
      <trkpt lat="45.51249" lon="5.88222">
        <ele>792</ele>
        <time>2012-11-18T08:39:48Z</time>
      </trkpt>
      <trkpt lat="45.51245" lon="5.88221">
        <ele>792.79998779297</ele>
        <time>2012-11-18T08:39:52Z</time>
      </trkpt>
      <trkpt lat="45.51243" lon="5.8822">
        <ele>793</ele>
        <time>2012-11-18T08:39:54Z</time>
      </trkpt>
      <trkpt lat="45.5124" lon="5.88221">
        <ele>793.40002441406</ele>
        <time>2012-11-18T08:39:56Z</time>
      </trkpt>
      <trkpt lat="45.51236" lon="5.88222">
        <ele>793.79998779297</ele>
        <time>2012-11-18T08:39:58Z</time>
      </trkpt>
      <trkpt lat="45.51234" lon="5.88222">
        <ele>794.20001220703</ele>
        <time>2012-11-18T08:39:59Z</time>
      </trkpt>
      <trkpt lat="45.51228" lon="5.88225">
        <ele>794.79998779297</ele>
        <time>2012-11-18T08:40:03Z</time>
      </trkpt>
      <trkpt lat="45.51222" lon="5.88228">
        <ele>795.40002441406</ele>
        <time>2012-11-18T08:40:06Z</time>
      </trkpt>
      <trkpt lat="45.51214" lon="5.88233">
        <ele>796</ele>
        <time>2012-11-18T08:40:11Z</time>
      </trkpt>
      <trkpt lat="45.51213" lon="5.88234">
        <ele>796</ele>
        <time>2012-11-18T08:40:12Z</time>
      </trkpt>
      <trkpt lat="45.51207" lon="5.88237">
        <ele>796.79998779297</ele>
        <time>2012-11-18T08:40:16Z</time>
      </trkpt>
      <trkpt lat="45.51205" lon="5.88237">
        <ele>797</ele>
        <time>2012-11-18T08:40:17Z</time>
      </trkpt>
      <trkpt lat="45.51197" lon="5.8824">
        <ele>798</ele>
        <time>2012-11-18T08:40:22Z</time>
      </trkpt>
      <trkpt lat="45.51194" lon="5.8824">
        <ele>798.40002441406</ele>
        <time>2012-11-18T08:40:25Z</time>
      </trkpt>
      <trkpt lat="45.51189" lon="5.88236">
        <ele>799.40002441406</ele>
        <time>2012-11-18T08:40:31Z</time>
      </trkpt>
      <trkpt lat="45.51188" lon="5.88234">
        <ele>799.79998779297</ele>
        <time>2012-11-18T08:40:33Z</time>
      </trkpt>
      <trkpt lat="45.51186" lon="5.88232">
        <ele>800.20001220703</ele>
        <time>2012-11-18T08:40:35Z</time>
      </trkpt>
      <trkpt lat="45.51186" lon="5.88231">
        <ele>800.20001220703</ele>
        <time>2012-11-18T08:40:36Z</time>
      </trkpt>
      <trkpt lat="45.51177" lon="5.88226">
        <ele>801.79998779297</ele>
        <time>2012-11-18T08:40:41Z</time>
      </trkpt>
      <trkpt lat="45.51174" lon="5.88222">
        <ele>802.59997558594</ele>
        <time>2012-11-18T08:40:44Z</time>
      </trkpt>
      <trkpt lat="45.51167" lon="5.88217">
        <ele>803.79998779297</ele>
        <time>2012-11-18T08:40:49Z</time>
      </trkpt>
      <trkpt lat="45.51166" lon="5.88216">
        <ele>804</ele>
        <time>2012-11-18T08:40:51Z</time>
      </trkpt>
      <trkpt lat="45.51163" lon="5.88215">
        <ele>804.40002441406</ele>
        <time>2012-11-18T08:40:54Z</time>
      </trkpt>
      <trkpt lat="45.51163" lon="5.88215">
        <ele>804.40002441406</ele>
        <time>2012-11-18T08:40:55Z</time>
      </trkpt>
      <trkpt lat="45.51158" lon="5.88215">
        <ele>805.20001220703</ele>
        <time>2012-11-18T08:40:58Z</time>
      </trkpt>
      <trkpt lat="45.51157" lon="5.88215">
        <ele>805.20001220703</ele>
        <time>2012-11-18T08:40:59Z</time>
      </trkpt>
      <trkpt lat="45.5115" lon="5.88213">
        <ele>806.20001220703</ele>
        <time>2012-11-18T08:41:05Z</time>
      </trkpt>
      <trkpt lat="45.51149" lon="5.88213">
        <ele>806.40002441406</ele>
        <time>2012-11-18T08:41:06Z</time>
      </trkpt>
      <trkpt lat="45.51146" lon="5.88213">
        <ele>806.79998779297</ele>
        <time>2012-11-18T08:41:09Z</time>
      </trkpt>
      <trkpt lat="45.51146" lon="5.88212">
        <ele>807</ele>
        <time>2012-11-18T08:41:11Z</time>
      </trkpt>
      <trkpt lat="45.5114" lon="5.88213">
        <ele>807.59997558594</ele>
        <time>2012-11-18T08:41:15Z</time>
      </trkpt>
      <trkpt lat="45.51134" lon="5.88213">
        <ele>808.40002441406</ele>
        <time>2012-11-18T08:41:18Z</time>
      </trkpt>
      <trkpt lat="45.51134" lon="5.88214">
        <ele>808.40002441406</ele>
        <time>2012-11-18T08:41:20Z</time>
      </trkpt>
      <trkpt lat="45.5113" lon="5.88213">
        <ele>809</ele>
        <time>2012-11-18T08:41:21Z</time>
      </trkpt>
      <trkpt lat="45.51121" lon="5.8821">
        <ele>810.20001220703</ele>
        <time>2012-11-18T08:41:27Z</time>
      </trkpt>
      <trkpt lat="45.5112" lon="5.88209">
        <ele>810.59997558594</ele>
        <time>2012-11-18T08:41:28Z</time>
      </trkpt>
      <trkpt lat="45.51116" lon="5.88208">
        <ele>811.20001220703</ele>
        <time>2012-11-18T08:41:31Z</time>
      </trkpt>
      <trkpt lat="45.51113" lon="5.88205">
        <ele>811.79998779297</ele>
        <time>2012-11-18T08:41:33Z</time>
      </trkpt>
      <trkpt lat="45.51097" lon="5.88194">
        <ele>814.79998779297</ele>
        <time>2012-11-18T08:41:40Z</time>
      </trkpt>
      <trkpt lat="45.51095" lon="5.88192">
        <ele>815.20001220703</ele>
        <time>2012-11-18T08:41:41Z</time>
      </trkpt>
      <trkpt lat="45.51089" lon="5.88185">
        <ele>816.59997558594</ele>
        <time>2012-11-18T08:41:45Z</time>
      </trkpt>
      <trkpt lat="45.51087" lon="5.88183">
        <ele>817</ele>
        <time>2012-11-18T08:41:47Z</time>
      </trkpt>
      <trkpt lat="45.51082" lon="5.88181">
        <ele>818</ele>
        <time>2012-11-18T08:41:50Z</time>
      </trkpt>
      <trkpt lat="45.51077" lon="5.88178">
        <ele>819.40002441406</ele>
        <time>2012-11-18T08:41:55Z</time>
      </trkpt>
      <trkpt lat="45.51075" lon="5.88176">
        <ele>819.79998779297</ele>
        <time>2012-11-18T08:41:58Z</time>
      </trkpt>
      <trkpt lat="45.51074" lon="5.88175">
        <ele>820</ele>
        <time>2012-11-18T08:41:59Z</time>
      </trkpt>
      <trkpt lat="45.51073" lon="5.88173">
        <ele>820.59997558594</ele>
        <time>2012-11-18T08:42:02Z</time>
      </trkpt>
      <trkpt lat="45.51073" lon="5.88172">
        <ele>820.79998779297</ele>
        <time>2012-11-18T08:42:03Z</time>
      </trkpt>
      <trkpt lat="45.51069" lon="5.88167">
        <ele>821.79998779297</ele>
        <time>2012-11-18T08:42:06Z</time>
      </trkpt>
      <trkpt lat="45.51068" lon="5.88166">
        <ele>822.20001220703</ele>
        <time>2012-11-18T08:42:07Z</time>
      </trkpt>
      <trkpt lat="45.51066" lon="5.88163">
        <ele>823</ele>
        <time>2012-11-18T08:42:10Z</time>
      </trkpt>
      <trkpt lat="45.51065" lon="5.88161">
        <ele>823.40002441406</ele>
        <time>2012-11-18T08:42:12Z</time>
      </trkpt>
      <trkpt lat="45.51062" lon="5.88157">
        <ele>824.40002441406</ele>
        <time>2012-11-18T08:42:18Z</time>
      </trkpt>
      <trkpt lat="45.51058" lon="5.88154">
        <ele>825.40002441406</ele>
        <time>2012-11-18T08:42:21Z</time>
      </trkpt>
      <trkpt lat="45.51053" lon="5.8815">
        <ele>827</ele>
        <time>2012-11-18T08:42:25Z</time>
      </trkpt>
      <trkpt lat="45.51052" lon="5.88149">
        <ele>827.20001220703</ele>
        <time>2012-11-18T08:42:26Z</time>
      </trkpt>
      <trkpt lat="45.5105" lon="5.88147">
        <ele>828</ele>
        <time>2012-11-18T08:42:28Z</time>
      </trkpt>
      <trkpt lat="45.51047" lon="5.88146">
        <ele>828.59997558594</ele>
        <time>2012-11-18T08:42:30Z</time>
      </trkpt>
      <trkpt lat="45.51044" lon="5.88144">
        <ele>829.59997558594</ele>
        <time>2012-11-18T08:42:33Z</time>
      </trkpt>
      <trkpt lat="45.51043" lon="5.88143">
        <ele>829.79998779297</ele>
        <time>2012-11-18T08:42:34Z</time>
      </trkpt>
      <trkpt lat="45.51038" lon="5.88138">
        <ele>831.59997558594</ele>
        <time>2012-11-18T08:42:39Z</time>
      </trkpt>
      <trkpt lat="45.51036" lon="5.88137">
        <ele>832</ele>
        <time>2012-11-18T08:42:40Z</time>
      </trkpt>
      <trkpt lat="45.51029" lon="5.88132">
        <ele>833.79998779297</ele>
        <time>2012-11-18T08:42:45Z</time>
      </trkpt>
      <trkpt lat="45.51027" lon="5.88133">
        <ele>834.40002441406</ele>
        <time>2012-11-18T08:42:48Z</time>
      </trkpt>
      <trkpt lat="45.51022" lon="5.88131">
        <ele>835.59997558594</ele>
        <time>2012-11-18T08:42:52Z</time>
      </trkpt>
      <trkpt lat="45.51018" lon="5.88129">
        <ele>836.59997558594</ele>
        <time>2012-11-18T08:42:56Z</time>
      </trkpt>
      <trkpt lat="45.51015" lon="5.88128">
        <ele>837.40002441406</ele>
        <time>2012-11-18T08:42:59Z</time>
      </trkpt>
      <trkpt lat="45.51014" lon="5.88128">
        <ele>837.59997558594</ele>
        <time>2012-11-18T08:43:00Z</time>
      </trkpt>
      <trkpt lat="45.51012" lon="5.88128">
        <ele>838</ele>
        <time>2012-11-18T08:43:04Z</time>
      </trkpt>
      <trkpt lat="45.5101" lon="5.88128">
        <ele>838.59997558594</ele>
        <time>2012-11-18T08:43:06Z</time>
      </trkpt>
      <trkpt lat="45.51003" lon="5.8813">
        <ele>839.59997558594</ele>
        <time>2012-11-18T08:43:12Z</time>
      </trkpt>
      <trkpt lat="45.50999" lon="5.8813">
        <ele>840.59997558594</ele>
        <time>2012-11-18T08:43:16Z</time>
      </trkpt>
      <trkpt lat="45.50991" lon="5.88131">
        <ele>841.79998779297</ele>
        <time>2012-11-18T08:43:21Z</time>
      </trkpt>
      <trkpt lat="45.50985" lon="5.88132">
        <ele>842.59997558594</ele>
        <time>2012-11-18T08:43:25Z</time>
      </trkpt>
      <trkpt lat="45.50984" lon="5.88132">
        <ele>842.79998779297</ele>
        <time>2012-11-18T08:43:29Z</time>
      </trkpt>
      <trkpt lat="45.5098" lon="5.88134">
        <ele>843.20001220703</ele>
        <time>2012-11-18T08:43:32Z</time>
      </trkpt>
      <trkpt lat="45.50976" lon="5.88137">
        <ele>843.59997558594</ele>
        <time>2012-11-18T08:43:36Z</time>
      </trkpt>
      <trkpt lat="45.50973" lon="5.88139">
        <ele>843.79998779297</ele>
        <time>2012-11-18T08:43:38Z</time>
      </trkpt>
      <trkpt lat="45.50972" lon="5.8814">
        <ele>843.79998779297</ele>
        <time>2012-11-18T08:43:41Z</time>
      </trkpt>
      <trkpt lat="45.50969" lon="5.88141">
        <ele>844.20001220703</ele>
        <time>2012-11-18T08:43:43Z</time>
      </trkpt>
      <trkpt lat="45.50963" lon="5.88139">
        <ele>845.40002441406</ele>
        <time>2012-11-18T08:43:48Z</time>
      </trkpt>
      <trkpt lat="45.50961" lon="5.88139">
        <ele>845.59997558594</ele>
        <time>2012-11-18T08:43:49Z</time>
      </trkpt>
      <trkpt lat="45.50953" lon="5.88137">
        <ele>847.20001220703</ele>
        <time>2012-11-18T08:43:54Z</time>
      </trkpt>
      <trkpt lat="45.50947" lon="5.88138">
        <ele>847.79998779297</ele>
        <time>2012-11-18T08:43:58Z</time>
      </trkpt>
      <trkpt lat="45.50942" lon="5.88139">
        <ele>848.59997558594</ele>
        <time>2012-11-18T08:44:02Z</time>
      </trkpt>
      <trkpt lat="45.5094" lon="5.8814">
        <ele>848.79998779297</ele>
        <time>2012-11-18T08:44:04Z</time>
      </trkpt>
      <trkpt lat="45.5093" lon="5.88145">
        <ele>849.79998779297</ele>
        <time>2012-11-18T08:44:09Z</time>
      </trkpt>
      <trkpt lat="45.50925" lon="5.88147">
        <ele>850.59997558594</ele>
        <time>2012-11-18T08:44:12Z</time>
      </trkpt>
      <trkpt lat="45.50912" lon="5.88146">
        <ele>852.20001220703</ele>
        <time>2012-11-18T08:44:17Z</time>
      </trkpt>
      <trkpt lat="45.50909" lon="5.88146">
        <ele>852.59997558594</ele>
        <time>2012-11-18T08:44:18Z</time>
      </trkpt>
      <trkpt lat="45.50904" lon="5.88147">
        <ele>853</ele>
        <time>2012-11-18T08:44:22Z</time>
      </trkpt>
      <trkpt lat="45.50899" lon="5.88146">
        <ele>853.40002441406</ele>
        <time>2012-11-18T08:44:25Z</time>
      </trkpt>
      <trkpt lat="45.50891" lon="5.88144">
        <ele>854.40002441406</ele>
        <time>2012-11-18T08:44:32Z</time>
      </trkpt>
      <trkpt lat="45.50889" lon="5.88143">
        <ele>854.79998779297</ele>
        <time>2012-11-18T08:44:34Z</time>
      </trkpt>
      <trkpt lat="45.50885" lon="5.88141">
        <ele>855.40002441406</ele>
        <time>2012-11-18T08:44:37Z</time>
      </trkpt>
      <trkpt lat="45.50882" lon="5.88141">
        <ele>855.79998779297</ele>
        <time>2012-11-18T08:44:40Z</time>
      </trkpt>
      <trkpt lat="45.5088" lon="5.88141">
        <ele>856</ele>
        <time>2012-11-18T08:44:42Z</time>
      </trkpt>
      <trkpt lat="45.50879" lon="5.88141">
        <ele>856</ele>
        <time>2012-11-18T08:44:44Z</time>
      </trkpt>
      <trkpt lat="45.50876" lon="5.88141">
        <ele>856.40002441406</ele>
        <time>2012-11-18T08:44:46Z</time>
      </trkpt>
      <trkpt lat="45.50871" lon="5.88138">
        <ele>857.20001220703</ele>
        <time>2012-11-18T08:44:49Z</time>
      </trkpt>
      <trkpt lat="45.5087" lon="5.88137">
        <ele>857.40002441406</ele>
        <time>2012-11-18T08:44:51Z</time>
      </trkpt>
      <trkpt lat="45.50869" lon="5.88136">
        <ele>857.79998779297</ele>
        <time>2012-11-18T08:44:52Z</time>
      </trkpt>
      <trkpt lat="45.50866" lon="5.88135">
        <ele>858.20001220703</ele>
        <time>2012-11-18T08:44:55Z</time>
      </trkpt>
      <trkpt lat="45.50864" lon="5.88133">
        <ele>858.79998779297</ele>
        <time>2012-11-18T08:44:57Z</time>
      </trkpt>
      <trkpt lat="45.50858" lon="5.88128">
        <ele>860.40002441406</ele>
        <time>2012-11-18T08:45:03Z</time>
      </trkpt>
      <trkpt lat="45.50858" lon="5.88128">
        <ele>860.40002441406</ele>
        <time>2012-11-18T08:45:04Z</time>
      </trkpt>
      <trkpt lat="45.50856" lon="5.88127">
        <ele>860.79998779297</ele>
        <time>2012-11-18T08:45:08Z</time>
      </trkpt>
      <trkpt lat="45.50853" lon="5.88126">
        <ele>861.40002441406</ele>
        <time>2012-11-18T08:45:10Z</time>
      </trkpt>
      <trkpt lat="45.50849" lon="5.88125">
        <ele>862</ele>
        <time>2012-11-18T08:45:16Z</time>
      </trkpt>
      <trkpt lat="45.50846" lon="5.88125">
        <ele>862.40002441406</ele>
        <time>2012-11-18T08:45:18Z</time>
      </trkpt>
      <trkpt lat="45.50843" lon="5.88124">
        <ele>863</ele>
        <time>2012-11-18T08:45:22Z</time>
      </trkpt>
      <trkpt lat="45.50842" lon="5.88124">
        <ele>863.20001220703</ele>
        <time>2012-11-18T08:45:23Z</time>
      </trkpt>
      <trkpt lat="45.50834" lon="5.88121">
        <ele>864.59997558594</ele>
        <time>2012-11-18T08:45:29Z</time>
      </trkpt>
      <trkpt lat="45.50829" lon="5.88117">
        <ele>866.40002441406</ele>
        <time>2012-11-18T08:45:33Z</time>
      </trkpt>
      <trkpt lat="45.50824" lon="5.88113">
        <ele>867.79998779297</ele>
        <time>2012-11-18T08:45:36Z</time>
      </trkpt>
      <trkpt lat="45.50815" lon="5.8811">
        <ele>869.59997558594</ele>
        <time>2012-11-18T08:45:40Z</time>
      </trkpt>
      <trkpt lat="45.50801" lon="5.88112">
        <ele>871.20001220703</ele>
        <time>2012-11-18T08:45:47Z</time>
      </trkpt>
      <trkpt lat="45.50797" lon="5.88112">
        <ele>871.79998779297</ele>
        <time>2012-11-18T08:45:49Z</time>
      </trkpt>
      <trkpt lat="45.50792" lon="5.88111">
        <ele>872.59997558594</ele>
        <time>2012-11-18T08:45:52Z</time>
      </trkpt>
      <trkpt lat="45.50785" lon="5.88109">
        <ele>874.20001220703</ele>
        <time>2012-11-18T08:45:56Z</time>
      </trkpt>
      <trkpt lat="45.5078" lon="5.88106">
        <ele>875.59997558594</ele>
        <time>2012-11-18T08:45:59Z</time>
      </trkpt>
      <trkpt lat="45.50779" lon="5.88105">
        <ele>875.79998779297</ele>
        <time>2012-11-18T08:46:00Z</time>
      </trkpt>
      <trkpt lat="45.50772" lon="5.88099">
        <ele>878</ele>
        <time>2012-11-18T08:46:06Z</time>
      </trkpt>
      <trkpt lat="45.5077" lon="5.88098">
        <ele>878.79998779297</ele>
        <time>2012-11-18T08:46:08Z</time>
      </trkpt>
      <trkpt lat="45.5076" lon="5.88093">
        <ele>881.20001220703</ele>
        <time>2012-11-18T08:46:14Z</time>
      </trkpt>
      <trkpt lat="45.50758" lon="5.88091">
        <ele>882</ele>
        <time>2012-11-18T08:46:16Z</time>
      </trkpt>
      <trkpt lat="45.50753" lon="5.88089">
        <ele>883.40002441406</ele>
        <time>2012-11-18T08:46:20Z</time>
      </trkpt>
      <trkpt lat="45.50751" lon="5.88087">
        <ele>883.79998779297</ele>
        <time>2012-11-18T08:46:22Z</time>
      </trkpt>
      <trkpt lat="45.50746" lon="5.88084">
        <ele>885</ele>
        <time>2012-11-18T08:46:26Z</time>
      </trkpt>
      <trkpt lat="45.50743" lon="5.88082">
        <ele>885.40002441406</ele>
        <time>2012-11-18T08:46:29Z</time>
      </trkpt>
      <trkpt lat="45.50739" lon="5.88078">
        <ele>886.20001220703</ele>
        <time>2012-11-18T08:46:33Z</time>
      </trkpt>
      <trkpt lat="45.50738" lon="5.88078">
        <ele>886.20001220703</ele>
        <time>2012-11-18T08:46:34Z</time>
      </trkpt>
      <trkpt lat="45.50735" lon="5.88076">
        <ele>886.59997558594</ele>
        <time>2012-11-18T08:46:37Z</time>
      </trkpt>
      <trkpt lat="45.50733" lon="5.88074">
        <ele>887</ele>
        <time>2012-11-18T08:46:39Z</time>
      </trkpt>
      <trkpt lat="45.50729" lon="5.88071">
        <ele>887.79998779297</ele>
        <time>2012-11-18T08:46:45Z</time>
      </trkpt>
      <trkpt lat="45.50728" lon="5.88071">
        <ele>888</ele>
        <time>2012-11-18T08:46:46Z</time>
      </trkpt>
      <trkpt lat="45.50726" lon="5.88068">
        <ele>888.40002441406</ele>
        <time>2012-11-18T08:46:49Z</time>
      </trkpt>
      <trkpt lat="45.50724" lon="5.88068">
        <ele>888.59997558594</ele>
        <time>2012-11-18T08:46:51Z</time>
      </trkpt>
      <trkpt lat="45.5072" lon="5.88067">
        <ele>889</ele>
        <time>2012-11-18T08:46:55Z</time>
      </trkpt>
      <trkpt lat="45.50718" lon="5.88066">
        <ele>889.20001220703</ele>
        <time>2012-11-18T08:46:56Z</time>
      </trkpt>
      <trkpt lat="45.50715" lon="5.88064">
        <ele>889.59997558594</ele>
        <time>2012-11-18T08:46:59Z</time>
      </trkpt>
      <trkpt lat="45.50713" lon="5.88063">
        <ele>890</ele>
        <time>2012-11-18T08:47:00Z</time>
      </trkpt>
      <trkpt lat="45.50709" lon="5.8806">
        <ele>890.59997558594</ele>
        <time>2012-11-18T08:47:05Z</time>
      </trkpt>
      <trkpt lat="45.50707" lon="5.8806">
        <ele>890.59997558594</ele>
        <time>2012-11-18T08:47:06Z</time>
      </trkpt>
      <trkpt lat="45.50704" lon="5.88058">
        <ele>891.20001220703</ele>
        <time>2012-11-18T08:47:10Z</time>
      </trkpt>
      <trkpt lat="45.50703" lon="5.88058">
        <ele>891.40002441406</ele>
        <time>2012-11-18T08:47:11Z</time>
      </trkpt>
      <trkpt lat="45.50698" lon="5.88052">
        <ele>892.79998779297</ele>
        <time>2012-11-18T08:47:15Z</time>
      </trkpt>
      <trkpt lat="45.50694" lon="5.88048">
        <ele>893.79998779297</ele>
        <time>2012-11-18T08:47:17Z</time>
      </trkpt>
      <trkpt lat="45.50684" lon="5.88034">
        <ele>897</ele>
        <time>2012-11-18T08:47:23Z</time>
      </trkpt>
      <trkpt lat="45.5068" lon="5.88028">
        <ele>898.20001220703</ele>
        <time>2012-11-18T08:47:25Z</time>
      </trkpt>
      <trkpt lat="45.50674" lon="5.88022">
        <ele>900</ele>
        <time>2012-11-18T08:47:28Z</time>
      </trkpt>
      <trkpt lat="45.50673" lon="5.8802">
        <ele>900.40002441406</ele>
        <time>2012-11-18T08:47:29Z</time>
      </trkpt>
      <trkpt lat="45.50664" lon="5.88015">
        <ele>902.40002441406</ele>
        <time>2012-11-18T08:47:36Z</time>
      </trkpt>
      <trkpt lat="45.50663" lon="5.88015">
        <ele>902.79998779297</ele>
        <time>2012-11-18T08:47:37Z</time>
      </trkpt>
      <trkpt lat="45.50653" lon="5.88011">
        <ele>905.59997558594</ele>
        <time>2012-11-18T08:47:44Z</time>
      </trkpt>
      <trkpt lat="45.50652" lon="5.8801">
        <ele>906</ele>
        <time>2012-11-18T08:47:45Z</time>
      </trkpt>
      <trkpt lat="45.50651" lon="5.88009">
        <ele>906.20001220703</ele>
        <time>2012-11-18T08:47:48Z</time>
      </trkpt>
      <trkpt lat="45.50648" lon="5.88006">
        <ele>907.40002441406</ele>
        <time>2012-11-18T08:47:50Z</time>
      </trkpt>
      <trkpt lat="45.50646" lon="5.88002">
        <ele>908.40002441406</ele>
        <time>2012-11-18T08:47:54Z</time>
      </trkpt>
      <trkpt lat="45.50645" lon="5.88001">
        <ele>909</ele>
        <time>2012-11-18T08:47:55Z</time>
      </trkpt>
      <trkpt lat="45.50643" lon="5.87995">
        <ele>910</ele>
        <time>2012-11-18T08:47:59Z</time>
      </trkpt>
      <trkpt lat="45.50642" lon="5.87994">
        <ele>910.59997558594</ele>
        <time>2012-11-18T08:48:00Z</time>
      </trkpt>
      <trkpt lat="45.50639" lon="5.87991">
        <ele>911.40002441406</ele>
        <time>2012-11-18T08:48:03Z</time>
      </trkpt>
      <trkpt lat="45.50638" lon="5.87988">
        <ele>912</ele>
        <time>2012-11-18T08:48:06Z</time>
      </trkpt>
      <trkpt lat="45.50636" lon="5.87986">
        <ele>912.59997558594</ele>
        <time>2012-11-18T08:48:08Z</time>
      </trkpt>
      <trkpt lat="45.50634" lon="5.87984">
        <ele>913</ele>
        <time>2012-11-18T08:48:09Z</time>
      </trkpt>
      <trkpt lat="45.50626" lon="5.87971">
        <ele>916</ele>
        <time>2012-11-18T08:48:18Z</time>
      </trkpt>
      <trkpt lat="45.50625" lon="5.87968">
        <ele>916.59997558594</ele>
        <time>2012-11-18T08:48:21Z</time>
      </trkpt>
      <trkpt lat="45.50618" lon="5.87962">
        <ele>918.40002441406</ele>
        <time>2012-11-18T08:48:27Z</time>
      </trkpt>
      <trkpt lat="45.50619" lon="5.87962">
        <ele>918.20001220703</ele>
        <time>2012-11-18T08:48:28Z</time>
      </trkpt>
      <trkpt lat="45.5061" lon="5.87954">
        <ele>920.40002441406</ele>
        <time>2012-11-18T08:48:34Z</time>
      </trkpt>
      <trkpt lat="45.50607" lon="5.87952">
        <ele>920.79998779297</ele>
        <time>2012-11-18T08:48:37Z</time>
      </trkpt>
      <trkpt lat="45.50605" lon="5.87947">
        <ele>921.59997558594</ele>
        <time>2012-11-18T08:48:41Z</time>
      </trkpt>
      <trkpt lat="45.50604" lon="5.87947">
        <ele>921.79998779297</ele>
        <time>2012-11-18T08:48:42Z</time>
      </trkpt>
      <trkpt lat="45.506" lon="5.87938">
        <ele>923.20001220703</ele>
        <time>2012-11-18T08:48:48Z</time>
      </trkpt>
      <trkpt lat="45.50599" lon="5.87937">
        <ele>923.40002441406</ele>
        <time>2012-11-18T08:48:49Z</time>
      </trkpt>
      <trkpt lat="45.50599" lon="5.87935">
        <ele>923.59997558594</ele>
        <time>2012-11-18T08:48:51Z</time>
      </trkpt>
      <trkpt lat="45.50598" lon="5.87927">
        <ele>924.40002441406</ele>
        <time>2012-11-18T08:48:54Z</time>
      </trkpt>
      <trkpt lat="45.50595" lon="5.87918">
        <ele>925.59997558594</ele>
        <time>2012-11-18T08:48:57Z</time>
      </trkpt>
      <trkpt lat="45.50594" lon="5.87916">
        <ele>925.79998779297</ele>
        <time>2012-11-18T08:48:58Z</time>
      </trkpt>
      <trkpt lat="45.50594" lon="5.87907">
        <ele>926.40002441406</ele>
        <time>2012-11-18T08:49:01Z</time>
      </trkpt>
      <trkpt lat="45.50593" lon="5.87904">
        <ele>926.79998779297</ele>
        <time>2012-11-18T08:49:02Z</time>
      </trkpt>
      <trkpt lat="45.50589" lon="5.8789">
        <ele>928</ele>
        <time>2012-11-18T08:49:07Z</time>
      </trkpt>
      <trkpt lat="45.50587" lon="5.87885">
        <ele>928.40002441406</ele>
        <time>2012-11-18T08:49:10Z</time>
      </trkpt>
      <trkpt lat="45.50585" lon="5.87873">
        <ele>929.40002441406</ele>
        <time>2012-11-18T08:49:16Z</time>
      </trkpt>
      <trkpt lat="45.50584" lon="5.87869">
        <ele>929.79998779297</ele>
        <time>2012-11-18T08:49:18Z</time>
      </trkpt>
      <trkpt lat="45.50584" lon="5.87866">
        <ele>930</ele>
        <time>2012-11-18T08:49:20Z</time>
      </trkpt>
      <trkpt lat="45.50584" lon="5.87862">
        <ele>930.20001220703</ele>
        <time>2012-11-18T08:49:22Z</time>
      </trkpt>
      <trkpt lat="45.50583" lon="5.87855">
        <ele>930.79998779297</ele>
        <time>2012-11-18T08:49:26Z</time>
      </trkpt>
      <trkpt lat="45.50585" lon="5.87853">
        <ele>930.59997558594</ele>
        <time>2012-11-18T08:49:27Z</time>
      </trkpt>
      <trkpt lat="45.50584" lon="5.87847">
        <ele>931</ele>
        <time>2012-11-18T08:49:31Z</time>
      </trkpt>
      <trkpt lat="45.50583" lon="5.87845">
        <ele>931.20001220703</ele>
        <time>2012-11-18T08:49:32Z</time>
      </trkpt>
      <trkpt lat="45.50583" lon="5.87839">
        <ele>931.59997558594</ele>
        <time>2012-11-18T08:49:36Z</time>
      </trkpt>
      <trkpt lat="45.50582" lon="5.87835">
        <ele>932.20001220703</ele>
        <time>2012-11-18T08:49:38Z</time>
      </trkpt>
      <trkpt lat="45.50579" lon="5.87824">
        <ele>934</ele>
        <time>2012-11-18T08:49:44Z</time>
      </trkpt>
      <trkpt lat="45.50579" lon="5.87824">
        <ele>934.20001220703</ele>
        <time>2012-11-18T08:49:45Z</time>
      </trkpt>
      <trkpt lat="45.50577" lon="5.87819">
        <ele>935.20001220703</ele>
        <time>2012-11-18T08:49:49Z</time>
      </trkpt>
      <trkpt lat="45.50575" lon="5.87812">
        <ele>936.59997558594</ele>
        <time>2012-11-18T08:49:54Z</time>
      </trkpt>
      <trkpt lat="45.50573" lon="5.87809">
        <ele>937.40002441406</ele>
        <time>2012-11-18T08:49:56Z</time>
      </trkpt>
      <trkpt lat="45.50571" lon="5.87806">
        <ele>938.20001220703</ele>
        <time>2012-11-18T08:49:58Z</time>
      </trkpt>
      <trkpt lat="45.5057" lon="5.87803">
        <ele>939</ele>
        <time>2012-11-18T08:50:01Z</time>
      </trkpt>
      <trkpt lat="45.50569" lon="5.87801">
        <ele>939.40002441406</ele>
        <time>2012-11-18T08:50:03Z</time>
      </trkpt>
      <trkpt lat="45.50567" lon="5.87797">
        <ele>940.20001220703</ele>
        <time>2012-11-18T08:50:06Z</time>
      </trkpt>
      <trkpt lat="45.50567" lon="5.87795">
        <ele>940.40002441406</ele>
        <time>2012-11-18T08:50:07Z</time>
      </trkpt>
      <trkpt lat="45.50565" lon="5.8779">
        <ele>941.40002441406</ele>
        <time>2012-11-18T08:50:11Z</time>
      </trkpt>
      <trkpt lat="45.50563" lon="5.87785">
        <ele>942.40002441406</ele>
        <time>2012-11-18T08:50:15Z</time>
      </trkpt>
      <trkpt lat="45.50562" lon="5.87781">
        <ele>943.20001220703</ele>
        <time>2012-11-18T08:50:19Z</time>
      </trkpt>
      <trkpt lat="45.50562" lon="5.87781">
        <ele>943</ele>
        <time>2012-11-18T08:50:21Z</time>
      </trkpt>
      <trkpt lat="45.50557" lon="5.87775">
        <ele>944.59997558594</ele>
        <time>2012-11-18T08:50:26Z</time>
      </trkpt>
      <trkpt lat="45.50554" lon="5.87771">
        <ele>945.79998779297</ele>
        <time>2012-11-18T08:50:29Z</time>
      </trkpt>
      <trkpt lat="45.50555" lon="5.87768">
        <ele>945.79998779297</ele>
        <time>2012-11-18T08:50:31Z</time>
      </trkpt>
      <trkpt lat="45.50555" lon="5.87766">
        <ele>946</ele>
        <time>2012-11-18T08:50:32Z</time>
      </trkpt>
      <trkpt lat="45.50556" lon="5.8776">
        <ele>946.40002441406</ele>
        <time>2012-11-18T08:50:36Z</time>
      </trkpt>
      <trkpt lat="45.50555" lon="5.87757">
        <ele>947</ele>
        <time>2012-11-18T08:50:39Z</time>
      </trkpt>
      <trkpt lat="45.50554" lon="5.8775">
        <ele>947.79998779297</ele>
        <time>2012-11-18T08:50:44Z</time>
      </trkpt>
      <trkpt lat="45.50554" lon="5.87746">
        <ele>948.79998779297</ele>
        <time>2012-11-18T08:50:47Z</time>
      </trkpt>
      <trkpt lat="45.50554" lon="5.87744">
        <ele>949.79998779297</ele>
        <time>2012-11-18T08:50:50Z</time>
      </trkpt>
      <trkpt lat="45.50554" lon="5.87742">
        <ele>950.20001220703</ele>
        <time>2012-11-18T08:50:52Z</time>
      </trkpt>
      <trkpt lat="45.50553" lon="5.87735">
        <ele>952.40002441406</ele>
        <time>2012-11-18T08:50:57Z</time>
      </trkpt>
      <trkpt lat="45.50548" lon="5.8773">
        <ele>954.40002441406</ele>
        <time>2012-11-18T08:51:03Z</time>
      </trkpt>
      <trkpt lat="45.50542" lon="5.87725">
        <ele>957</ele>
        <time>2012-11-18T08:51:09Z</time>
      </trkpt>
      <trkpt lat="45.50539" lon="5.87723">
        <ele>958</ele>
        <time>2012-11-18T08:51:12Z</time>
      </trkpt>
      <trkpt lat="45.50537" lon="5.87722">
        <ele>958.40002441406</ele>
        <time>2012-11-18T08:51:15Z</time>
      </trkpt>
      <trkpt lat="45.50535" lon="5.87721">
        <ele>959</ele>
        <time>2012-11-18T08:51:18Z</time>
      </trkpt>
      <trkpt lat="45.5053" lon="5.87718">
        <ele>960.40002441406</ele>
        <time>2012-11-18T08:51:24Z</time>
      </trkpt>
      <trkpt lat="45.50527" lon="5.87716">
        <ele>961.59997558594</ele>
        <time>2012-11-18T08:51:27Z</time>
      </trkpt>
      <trkpt lat="45.50522" lon="5.87713">
        <ele>962.79998779297</ele>
        <time>2012-11-18T08:51:32Z</time>
      </trkpt>
      <trkpt lat="45.50521" lon="5.87712">
        <ele>963.20001220703</ele>
        <time>2012-11-18T08:51:33Z</time>
      </trkpt>
      <trkpt lat="45.50516" lon="5.87712">
        <ele>963.79998779297</ele>
        <time>2012-11-18T08:51:38Z</time>
      </trkpt>
      <trkpt lat="45.50514" lon="5.87714">
        <ele>963.79998779297</ele>
        <time>2012-11-18T08:51:42Z</time>
      </trkpt>
      <trkpt lat="45.50504" lon="5.87713">
        <ele>965.40002441406</ele>
        <time>2012-11-18T08:51:46Z</time>
      </trkpt>
      <trkpt lat="45.50503" lon="5.87712">
        <ele>965.59997558594</ele>
        <time>2012-11-18T08:51:47Z</time>
      </trkpt>
      <trkpt lat="45.505" lon="5.8771">
        <ele>966.59997558594</ele>
        <time>2012-11-18T08:51:52Z</time>
      </trkpt>
      <trkpt lat="45.505" lon="5.87709">
        <ele>966.79998779297</ele>
        <time>2012-11-18T08:51:53Z</time>
      </trkpt>
      <trkpt lat="45.50499" lon="5.87709">
        <ele>967</ele>
        <time>2012-11-18T08:51:56Z</time>
      </trkpt>
      <trkpt lat="45.50496" lon="5.87709">
        <ele>967.59997558594</ele>
        <time>2012-11-18T08:51:59Z</time>
      </trkpt>
      <trkpt lat="45.50491" lon="5.87709">
        <ele>968.59997558594</ele>
        <time>2012-11-18T08:52:02Z</time>
      </trkpt>
      <trkpt lat="45.5049" lon="5.8771">
        <ele>968.40002441406</ele>
        <time>2012-11-18T08:52:05Z</time>
      </trkpt>
      <trkpt lat="45.50484" lon="5.87711">
        <ele>969.79998779297</ele>
        <time>2012-11-18T08:52:10Z</time>
      </trkpt>
      <trkpt lat="45.50479" lon="5.87708">
        <ele>971.40002441406</ele>
        <time>2012-11-18T08:52:13Z</time>
      </trkpt>
      <trkpt lat="45.5047" lon="5.87705">
        <ele>973.79998779297</ele>
        <time>2012-11-18T08:52:17Z</time>
      </trkpt>
      <trkpt lat="45.50465" lon="5.87705">
        <ele>975</ele>
        <time>2012-11-18T08:52:19Z</time>
      </trkpt>
      <trkpt lat="45.50459" lon="5.87709">
        <ele>975.40002441406</ele>
        <time>2012-11-18T08:52:23Z</time>
      </trkpt>
      <trkpt lat="45.50457" lon="5.87709">
        <ele>975.79998779297</ele>
        <time>2012-11-18T08:52:24Z</time>
      </trkpt>
      <trkpt lat="45.50451" lon="5.87714">
        <ele>976.20001220703</ele>
        <time>2012-11-18T08:52:27Z</time>
      </trkpt>
      <trkpt lat="45.50449" lon="5.87715">
        <ele>976.20001220703</ele>
        <time>2012-11-18T08:52:28Z</time>
      </trkpt>
      <trkpt lat="45.50442" lon="5.87718">
        <ele>977.20001220703</ele>
        <time>2012-11-18T08:52:32Z</time>
      </trkpt>
      <trkpt lat="45.50441" lon="5.87719">
        <ele>977.40002441406</ele>
        <time>2012-11-18T08:52:33Z</time>
      </trkpt>
      <trkpt lat="45.50433" lon="5.87726">
        <ele>977.59997558594</ele>
        <time>2012-11-18T08:52:39Z</time>
      </trkpt>
      <trkpt lat="45.50429" lon="5.87728">
        <ele>978.20001220703</ele>
        <time>2012-11-18T08:52:41Z</time>
      </trkpt>
      <trkpt lat="45.50421" lon="5.87734">
        <ele>978.79998779297</ele>
        <time>2012-11-18T08:52:47Z</time>
      </trkpt>
      <trkpt lat="45.50417" lon="5.87733">
        <ele>979.79998779297</ele>
        <time>2012-11-18T08:52:51Z</time>
      </trkpt>
      <trkpt lat="45.50412" lon="5.87738">
        <ele>980</ele>
        <time>2012-11-18T08:52:56Z</time>
      </trkpt>
      <trkpt lat="45.50409" lon="5.87739">
        <ele>980.20001220703</ele>
        <time>2012-11-18T08:52:58Z</time>
      </trkpt>
      <trkpt lat="45.50406" lon="5.87739">
        <ele>980.79998779297</ele>
        <time>2012-11-18T08:53:00Z</time>
      </trkpt>
      <trkpt lat="45.50402" lon="5.87742">
        <ele>981.20001220703</ele>
        <time>2012-11-18T08:53:03Z</time>
      </trkpt>
      <trkpt lat="45.50395" lon="5.87746">
        <ele>981.79998779297</ele>
        <time>2012-11-18T08:53:06Z</time>
      </trkpt>
      <trkpt lat="45.5039" lon="5.87749">
        <ele>982.20001220703</ele>
        <time>2012-11-18T08:53:10Z</time>
      </trkpt>
      <trkpt lat="45.50389" lon="5.8775">
        <ele>982.40002441406</ele>
        <time>2012-11-18T08:53:12Z</time>
      </trkpt>
      <trkpt lat="45.50387" lon="5.87751">
        <ele>982.40002441406</ele>
        <time>2012-11-18T08:53:13Z</time>
      </trkpt>
      <trkpt lat="45.50384" lon="5.87753">
        <ele>982.79998779297</ele>
        <time>2012-11-18T08:53:17Z</time>
      </trkpt>
      <trkpt lat="45.50381" lon="5.87755">
        <ele>982.79998779297</ele>
        <time>2012-11-18T08:53:19Z</time>
      </trkpt>
      <trkpt lat="45.50374" lon="5.87764">
        <ele>983</ele>
        <time>2012-11-18T08:53:27Z</time>
      </trkpt>
      <trkpt lat="45.50373" lon="5.87766">
        <ele>982.79998779297</ele>
        <time>2012-11-18T08:53:28Z</time>
      </trkpt>
      <trkpt lat="45.50369" lon="5.8777">
        <ele>983</ele>
        <time>2012-11-18T08:53:33Z</time>
      </trkpt>
      <trkpt lat="45.50367" lon="5.8777">
        <ele>983.40002441406</ele>
        <time>2012-11-18T08:53:36Z</time>
      </trkpt>
      <trkpt lat="45.50361" lon="5.87767">
        <ele>984.79998779297</ele>
        <time>2012-11-18T08:53:40Z</time>
      </trkpt>
      <trkpt lat="45.5036" lon="5.87767">
        <ele>985</ele>
        <time>2012-11-18T08:53:42Z</time>
      </trkpt>
      <trkpt lat="45.50358" lon="5.87764">
        <ele>986</ele>
        <time>2012-11-18T08:53:46Z</time>
      </trkpt>
      <trkpt lat="45.50358" lon="5.87763">
        <ele>986.20001220703</ele>
        <time>2012-11-18T08:53:47Z</time>
      </trkpt>
      <trkpt lat="45.50356" lon="5.87756">
        <ele>987.59997558594</ele>
        <time>2012-11-18T08:53:54Z</time>
      </trkpt>
      <trkpt lat="45.50356" lon="5.87756">
        <ele>987.59997558594</ele>
        <time>2012-11-18T08:53:55Z</time>
      </trkpt>
      <trkpt lat="45.50356" lon="5.8775">
        <ele>988.59997558594</ele>
        <time>2012-11-18T08:54:01Z</time>
      </trkpt>
      <trkpt lat="45.50356" lon="5.87749">
        <ele>988.79998779297</ele>
        <time>2012-11-18T08:54:02Z</time>
      </trkpt>
      <trkpt lat="45.50355" lon="5.87746">
        <ele>989.40002441406</ele>
        <time>2012-11-18T08:54:06Z</time>
      </trkpt>
      <trkpt lat="45.50353" lon="5.87743">
        <ele>990.20001220703</ele>
        <time>2012-11-18T08:54:09Z</time>
      </trkpt>
      <trkpt lat="45.50353" lon="5.87738">
        <ele>991.20001220703</ele>
        <time>2012-11-18T08:54:13Z</time>
      </trkpt>
      <trkpt lat="45.50353" lon="5.87736">
        <ele>991.59997558594</ele>
        <time>2012-11-18T08:54:14Z</time>
      </trkpt>
      <trkpt lat="45.5035" lon="5.87732">
        <ele>992.79998779297</ele>
        <time>2012-11-18T08:54:17Z</time>
      </trkpt>
      <trkpt lat="45.5035" lon="5.8773">
        <ele>993</ele>
        <time>2012-11-18T08:54:20Z</time>
      </trkpt>
      <trkpt lat="45.50349" lon="5.87723">
        <ele>994.40002441406</ele>
        <time>2012-11-18T08:54:25Z</time>
      </trkpt>
      <trkpt lat="45.50346" lon="5.87718">
        <ele>996</ele>
        <time>2012-11-18T08:54:29Z</time>
      </trkpt>
      <trkpt lat="45.50345" lon="5.87714">
        <ele>996.79998779297</ele>
        <time>2012-11-18T08:54:33Z</time>
      </trkpt>
      <trkpt lat="45.50344" lon="5.87712">
        <ele>997.20001220703</ele>
        <time>2012-11-18T08:54:34Z</time>
      </trkpt>
      <trkpt lat="45.50342" lon="5.87705">
        <ele>999</ele>
        <time>2012-11-18T08:54:39Z</time>
      </trkpt>
      <trkpt lat="45.50341" lon="5.87705">
        <ele>999</ele>
        <time>2012-11-18T08:54:40Z</time>
      </trkpt>
      <trkpt lat="45.50339" lon="5.87697">
        <ele>1000.799987793</ele>
        <time>2012-11-18T08:54:44Z</time>
      </trkpt>
      <trkpt lat="45.50335" lon="5.8769">
        <ele>1002.5999755859</ele>
        <time>2012-11-18T08:54:49Z</time>
      </trkpt>
      <trkpt lat="45.50334" lon="5.87685">
        <ele>1003.799987793</ele>
        <time>2012-11-18T08:54:53Z</time>
      </trkpt>
      <trkpt lat="45.50334" lon="5.87682">
        <ele>1004.200012207</ele>
        <time>2012-11-18T08:54:54Z</time>
      </trkpt>
      <trkpt lat="45.50333" lon="5.87678">
        <ele>1004.799987793</ele>
        <time>2012-11-18T08:54:57Z</time>
      </trkpt>
      <trkpt lat="45.50332" lon="5.87677">
        <ele>1005.200012207</ele>
        <time>2012-11-18T08:54:58Z</time>
      </trkpt>
      <trkpt lat="45.50331" lon="5.8767">
        <ele>1006.200012207</ele>
        <time>2012-11-18T08:55:03Z</time>
      </trkpt>
      <trkpt lat="45.50331" lon="5.87665">
        <ele>1007</ele>
        <time>2012-11-18T08:55:06Z</time>
      </trkpt>
      <trkpt lat="45.5033" lon="5.87656">
        <ele>1007.5999755859</ele>
        <time>2012-11-18T08:55:10Z</time>
      </trkpt>
      <trkpt lat="45.5033" lon="5.87652">
        <ele>1007.799987793</ele>
        <time>2012-11-18T08:55:11Z</time>
      </trkpt>
      <trkpt lat="45.50331" lon="5.8764">
        <ele>1008.799987793</ele>
        <time>2012-11-18T08:55:16Z</time>
      </trkpt>
      <trkpt lat="45.5033" lon="5.8764">
        <ele>1008.799987793</ele>
        <time>2012-11-18T08:55:17Z</time>
      </trkpt>
      <trkpt lat="45.50328" lon="5.87629">
        <ele>1009.5999755859</ele>
        <time>2012-11-18T08:55:20Z</time>
      </trkpt>
      <trkpt lat="45.5032" lon="5.87617">
        <ele>1010.799987793</ele>
        <time>2012-11-18T08:55:24Z</time>
      </trkpt>
      <trkpt lat="45.50316" lon="5.87608">
        <ele>1011.799987793</ele>
        <time>2012-11-18T08:55:27Z</time>
      </trkpt>
      <trkpt lat="45.50315" lon="5.87605">
        <ele>1012</ele>
        <time>2012-11-18T08:55:28Z</time>
      </trkpt>
      <trkpt lat="45.50303" lon="5.87587">
        <ele>1014.5999755859</ele>
        <time>2012-11-18T08:55:34Z</time>
      </trkpt>
      <trkpt lat="45.50299" lon="5.87582">
        <ele>1015.5999755859</ele>
        <time>2012-11-18T08:55:36Z</time>
      </trkpt>
      <trkpt lat="45.50294" lon="5.87574">
        <ele>1017.200012207</ele>
        <time>2012-11-18T08:55:41Z</time>
      </trkpt>
      <trkpt lat="45.50293" lon="5.87572">
        <ele>1017.4000244141</ele>
        <time>2012-11-18T08:55:42Z</time>
      </trkpt>
      <trkpt lat="45.50278" lon="5.87555">
        <ele>1021</ele>
        <time>2012-11-18T08:55:50Z</time>
      </trkpt>
      <trkpt lat="45.50276" lon="5.87554">
        <ele>1021.200012207</ele>
        <time>2012-11-18T08:55:51Z</time>
      </trkpt>
      <trkpt lat="45.50273" lon="5.87551">
        <ele>1021.799987793</ele>
        <time>2012-11-18T08:55:54Z</time>
      </trkpt>
      <trkpt lat="45.50267" lon="5.87541">
        <ele>1023.5999755859</ele>
        <time>2012-11-18T08:55:58Z</time>
      </trkpt>
      <trkpt lat="45.50257" lon="5.87524">
        <ele>1026.4000244141</ele>
        <time>2012-11-18T08:56:04Z</time>
      </trkpt>
      <trkpt lat="45.50256" lon="5.87518">
        <ele>1027.1999511719</ele>
        <time>2012-11-18T08:56:06Z</time>
      </trkpt>
      <trkpt lat="45.50255" lon="5.87514">
        <ele>1027.8000488281</ele>
        <time>2012-11-18T08:56:08Z</time>
      </trkpt>
      <trkpt lat="45.50254" lon="5.87509">
        <ele>1028.5999755859</ele>
        <time>2012-11-18T08:56:10Z</time>
      </trkpt>
      <trkpt lat="45.50256" lon="5.87499">
        <ele>1029.8000488281</ele>
        <time>2012-11-18T08:56:14Z</time>
      </trkpt>
      <trkpt lat="45.50255" lon="5.87497">
        <ele>1030.1999511719</ele>
        <time>2012-11-18T08:56:16Z</time>
      </trkpt>
      <trkpt lat="45.50251" lon="5.87489">
        <ele>1031.4000244141</ele>
        <time>2012-11-18T08:56:20Z</time>
      </trkpt>
      <trkpt lat="45.50251" lon="5.87487">
        <ele>1031.8000488281</ele>
        <time>2012-11-18T08:56:22Z</time>
      </trkpt>
      <trkpt lat="45.50249" lon="5.87483">
        <ele>1032.4000244141</ele>
        <time>2012-11-18T08:56:24Z</time>
      </trkpt>
      <trkpt lat="45.50248" lon="5.87482">
        <ele>1032.8000488281</ele>
        <time>2012-11-18T08:56:25Z</time>
      </trkpt>
      <trkpt lat="45.50245" lon="5.87476">
        <ele>1033.8000488281</ele>
        <time>2012-11-18T08:56:30Z</time>
      </trkpt>
      <trkpt lat="45.50244" lon="5.87475">
        <ele>1034.1999511719</ele>
        <time>2012-11-18T08:56:31Z</time>
      </trkpt>
      <trkpt lat="45.50243" lon="5.87471">
        <ele>1034.8000488281</ele>
        <time>2012-11-18T08:56:34Z</time>
      </trkpt>
      <trkpt lat="45.50241" lon="5.87471">
        <ele>1035</ele>
        <time>2012-11-18T08:56:36Z</time>
      </trkpt>
      <trkpt lat="45.50238" lon="5.87467">
        <ele>1035.8000488281</ele>
        <time>2012-11-18T08:56:41Z</time>
      </trkpt>
      <trkpt lat="45.50237" lon="5.87466">
        <ele>1036</ele>
        <time>2012-11-18T08:56:42Z</time>
      </trkpt>
      <trkpt lat="45.50232" lon="5.87462">
        <ele>1037</ele>
        <time>2012-11-18T08:56:48Z</time>
      </trkpt>
      <trkpt lat="45.50232" lon="5.87461">
        <ele>1037.1999511719</ele>
        <time>2012-11-18T08:56:50Z</time>
      </trkpt>
      <trkpt lat="45.50229" lon="5.87458">
        <ele>1037.8000488281</ele>
        <time>2012-11-18T08:56:53Z</time>
      </trkpt>
      <trkpt lat="45.50225" lon="5.87456">
        <ele>1038.4000244141</ele>
        <time>2012-11-18T08:56:58Z</time>
      </trkpt>
      <trkpt lat="45.50222" lon="5.87454">
        <ele>1039</ele>
        <time>2012-11-18T08:57:01Z</time>
      </trkpt>
      <trkpt lat="45.50218" lon="5.87453">
        <ele>1039.4000244141</ele>
        <time>2012-11-18T08:57:04Z</time>
      </trkpt>
      <trkpt lat="45.50213" lon="5.87451">
        <ele>1040</ele>
        <time>2012-11-18T08:57:07Z</time>
      </trkpt>
      <trkpt lat="45.50214" lon="5.87452">
        <ele>1040</ele>
        <time>2012-11-18T08:57:08Z</time>
      </trkpt>
      <trkpt lat="45.50205" lon="5.8745">
        <ele>1040.8000488281</ele>
        <time>2012-11-18T08:57:13Z</time>
      </trkpt>
      <trkpt lat="45.50203" lon="5.8745">
        <ele>1041.1999511719</ele>
        <time>2012-11-18T08:57:15Z</time>
      </trkpt>
      <trkpt lat="45.50197" lon="5.87446">
        <ele>1042</ele>
        <time>2012-11-18T08:57:20Z</time>
      </trkpt>
      <trkpt lat="45.50194" lon="5.87445">
        <ele>1042.1999511719</ele>
        <time>2012-11-18T08:57:22Z</time>
      </trkpt>
      <trkpt lat="45.50191" lon="5.87443">
        <ele>1042.8000488281</ele>
        <time>2012-11-18T08:57:24Z</time>
      </trkpt>
      <trkpt lat="45.50187" lon="5.8744">
        <ele>1043.4000244141</ele>
        <time>2012-11-18T08:57:26Z</time>
      </trkpt>
      <trkpt lat="45.50184" lon="5.87435">
        <ele>1044.1999511719</ele>
        <time>2012-11-18T08:57:30Z</time>
      </trkpt>
      <trkpt lat="45.50183" lon="5.87432">
        <ele>1044.4000244141</ele>
        <time>2012-11-18T08:57:32Z</time>
      </trkpt>
      <trkpt lat="45.50179" lon="5.87427">
        <ele>1045.1999511719</ele>
        <time>2012-11-18T08:57:37Z</time>
      </trkpt>
      <trkpt lat="45.50174" lon="5.87424">
        <ele>1045.8000488281</ele>
        <time>2012-11-18T08:57:41Z</time>
      </trkpt>
      <trkpt lat="45.50167" lon="5.87419">
        <ele>1046.5999755859</ele>
        <time>2012-11-18T08:57:47Z</time>
      </trkpt>
      <trkpt lat="45.50163" lon="5.87418">
        <ele>1047.4000244141</ele>
        <time>2012-11-18T08:57:50Z</time>
      </trkpt>
      <trkpt lat="45.50158" lon="5.87417">
        <ele>1048.4000244141</ele>
        <time>2012-11-18T08:57:54Z</time>
      </trkpt>
      <trkpt lat="45.50156" lon="5.87416">
        <ele>1048.8000488281</ele>
        <time>2012-11-18T08:57:55Z</time>
      </trkpt>
      <trkpt lat="45.50153" lon="5.87416">
        <ele>1049.4000244141</ele>
        <time>2012-11-18T08:57:58Z</time>
      </trkpt>
      <trkpt lat="45.50151" lon="5.87415">
        <ele>1049.8000488281</ele>
        <time>2012-11-18T08:58:00Z</time>
      </trkpt>
      <trkpt lat="45.50145" lon="5.87414">
        <ele>1051</ele>
        <time>2012-11-18T08:58:05Z</time>
      </trkpt>
      <trkpt lat="45.50145" lon="5.87414">
        <ele>1051.1999511719</ele>
        <time>2012-11-18T08:58:06Z</time>
      </trkpt>
      <trkpt lat="45.50135" lon="5.87414">
        <ele>1052.5999755859</ele>
        <time>2012-11-18T08:58:11Z</time>
      </trkpt>
      <trkpt lat="45.50132" lon="5.87414">
        <ele>1053.1999511719</ele>
        <time>2012-11-18T08:58:13Z</time>
      </trkpt>
      <trkpt lat="45.50125" lon="5.87414">
        <ele>1054.5999755859</ele>
        <time>2012-11-18T08:58:17Z</time>
      </trkpt>
      <trkpt lat="45.50115" lon="5.87413">
        <ele>1056.1999511719</ele>
        <time>2012-11-18T08:58:21Z</time>
      </trkpt>
      <trkpt lat="45.50101" lon="5.87414">
        <ele>1058.4000244141</ele>
        <time>2012-11-18T08:58:28Z</time>
      </trkpt>
      <trkpt lat="45.50098" lon="5.87413">
        <ele>1059.1999511719</ele>
        <time>2012-11-18T08:58:30Z</time>
      </trkpt>
      <trkpt lat="45.5009" lon="5.87407">
        <ele>1061.8000488281</ele>
        <time>2012-11-18T08:58:36Z</time>
      </trkpt>
      <trkpt lat="45.50087" lon="5.87406">
        <ele>1062.4000244141</ele>
        <time>2012-11-18T08:58:38Z</time>
      </trkpt>
      <trkpt lat="45.50076" lon="5.87394">
        <ele>1065.8000488281</ele>
        <time>2012-11-18T08:58:44Z</time>
      </trkpt>
      <trkpt lat="45.50074" lon="5.87392">
        <ele>1066.1999511719</ele>
        <time>2012-11-18T08:58:45Z</time>
      </trkpt>
      <trkpt lat="45.50067" lon="5.87388">
        <ele>1067.4000244141</ele>
        <time>2012-11-18T08:58:48Z</time>
      </trkpt>
      <trkpt lat="45.50061" lon="5.87387">
        <ele>1068</ele>
        <time>2012-11-18T08:58:52Z</time>
      </trkpt>
      <trkpt lat="45.50054" lon="5.87382">
        <ele>1069.4000244141</ele>
        <time>2012-11-18T08:58:57Z</time>
      </trkpt>
      <trkpt lat="45.50053" lon="5.87381">
        <ele>1069.5999755859</ele>
        <time>2012-11-18T08:58:58Z</time>
      </trkpt>
      <trkpt lat="45.50049" lon="5.87376">
        <ele>1070.5999755859</ele>
        <time>2012-11-18T08:59:02Z</time>
      </trkpt>
      <trkpt lat="45.50043" lon="5.87374">
        <ele>1071.1999511719</ele>
        <time>2012-11-18T08:59:05Z</time>
      </trkpt>
      <trkpt lat="45.50038" lon="5.87371">
        <ele>1072</ele>
        <time>2012-11-18T08:59:10Z</time>
      </trkpt>
      <trkpt lat="45.50035" lon="5.8737">
        <ele>1072.4000244141</ele>
        <time>2012-11-18T08:59:13Z</time>
      </trkpt>
      <trkpt lat="45.5003" lon="5.87368">
        <ele>1072.8000488281</ele>
        <time>2012-11-18T08:59:18Z</time>
      </trkpt>
      <trkpt lat="45.50029" lon="5.87367">
        <ele>1073</ele>
        <time>2012-11-18T08:59:19Z</time>
      </trkpt>
      <trkpt lat="45.50022" lon="5.87363">
        <ele>1074</ele>
        <time>2012-11-18T08:59:23Z</time>
      </trkpt>
      <trkpt lat="45.5002" lon="5.87362">
        <ele>1074.1999511719</ele>
        <time>2012-11-18T08:59:24Z</time>
      </trkpt>
      <trkpt lat="45.50017" lon="5.87358">
        <ele>1075</ele>
        <time>2012-11-18T08:59:28Z</time>
      </trkpt>
      <trkpt lat="45.50014" lon="5.87356">
        <ele>1075.4000244141</ele>
        <time>2012-11-18T08:59:31Z</time>
      </trkpt>
      <trkpt lat="45.5001" lon="5.87352">
        <ele>1076</ele>
        <time>2012-11-18T08:59:36Z</time>
      </trkpt>
      <trkpt lat="45.50008" lon="5.8735">
        <ele>1076.4000244141</ele>
        <time>2012-11-18T08:59:37Z</time>
      </trkpt>
      <trkpt lat="45.50005" lon="5.87346">
        <ele>1077</ele>
        <time>2012-11-18T08:59:40Z</time>
      </trkpt>
      <trkpt lat="45.50004" lon="5.87343">
        <ele>1077.4000244141</ele>
        <time>2012-11-18T08:59:42Z</time>
      </trkpt>
      <trkpt lat="45.49999" lon="5.87334">
        <ele>1079</ele>
        <time>2012-11-18T08:59:48Z</time>
      </trkpt>
      <trkpt lat="45.49998" lon="5.87334">
        <ele>1079</ele>
        <time>2012-11-18T08:59:49Z</time>
      </trkpt>
      <trkpt lat="45.49995" lon="5.87331">
        <ele>1080.1999511719</ele>
        <time>2012-11-18T08:59:52Z</time>
      </trkpt>
      <trkpt lat="45.49994" lon="5.87331">
        <ele>1080.5999755859</ele>
        <time>2012-11-18T08:59:53Z</time>
      </trkpt>
      <trkpt lat="45.49987" lon="5.87326">
        <ele>1082.5999755859</ele>
        <time>2012-11-18T08:59:57Z</time>
      </trkpt>
      <trkpt lat="45.49983" lon="5.87322">
        <ele>1084.1999511719</ele>
        <time>2012-11-18T09:00:01Z</time>
      </trkpt>
      <trkpt lat="45.49981" lon="5.87321">
        <ele>1084.5999755859</ele>
        <time>2012-11-18T09:00:04Z</time>
      </trkpt>
      <trkpt lat="45.49978" lon="5.87319">
        <ele>1085.5999755859</ele>
        <time>2012-11-18T09:00:08Z</time>
      </trkpt>
      <trkpt lat="45.49975" lon="5.87317">
        <ele>1086.5999755859</ele>
        <time>2012-11-18T09:00:13Z</time>
      </trkpt>
      <trkpt lat="45.49974" lon="5.87315">
        <ele>1087.1999511719</ele>
        <time>2012-11-18T09:00:15Z</time>
      </trkpt>
      <trkpt lat="45.49971" lon="5.87312">
        <ele>1088.4000244141</ele>
        <time>2012-11-18T09:00:20Z</time>
      </trkpt>
      <trkpt lat="45.49969" lon="5.87311">
        <ele>1089</ele>
        <time>2012-11-18T09:00:22Z</time>
      </trkpt>
      <trkpt lat="45.49965" lon="5.8731">
        <ele>1089.5999755859</ele>
        <time>2012-11-18T09:00:26Z</time>
      </trkpt>
      <trkpt lat="45.49963" lon="5.87309">
        <ele>1090</ele>
        <time>2012-11-18T09:00:28Z</time>
      </trkpt>
      <trkpt lat="45.49957" lon="5.87305">
        <ele>1091.8000488281</ele>
        <time>2012-11-18T09:00:34Z</time>
      </trkpt>
      <trkpt lat="45.49949" lon="5.87302">
        <ele>1093.5999755859</ele>
        <time>2012-11-18T09:00:38Z</time>
      </trkpt>
      <trkpt lat="45.49948" lon="5.87302">
        <ele>1093.8000488281</ele>
        <time>2012-11-18T09:00:43Z</time>
      </trkpt>
      <trkpt lat="45.49943" lon="5.87298">
        <ele>1095.4000244141</ele>
        <time>2012-11-18T09:00:44Z</time>
      </trkpt>
      <trkpt lat="45.49938" lon="5.87293">
        <ele>1096.8000488281</ele>
        <time>2012-11-18T09:00:49Z</time>
      </trkpt>
      <trkpt lat="45.49936" lon="5.87291">
        <ele>1097.5999755859</ele>
        <time>2012-11-18T09:00:51Z</time>
      </trkpt>
      <trkpt lat="45.49933" lon="5.87285">
        <ele>1099.1999511719</ele>
        <time>2012-11-18T09:00:57Z</time>
      </trkpt>
      <trkpt lat="45.49934" lon="5.87285">
        <ele>1099</ele>
        <time>2012-11-18T09:00:58Z</time>
      </trkpt>
      <trkpt lat="45.49931" lon="5.87279">
        <ele>1100.5999755859</ele>
        <time>2012-11-18T09:01:03Z</time>
      </trkpt>
      <trkpt lat="45.4993" lon="5.87277">
        <ele>1101</ele>
        <time>2012-11-18T09:01:05Z</time>
      </trkpt>
      <trkpt lat="45.4993" lon="5.87274">
        <ele>1101.8000488281</ele>
        <time>2012-11-18T09:01:08Z</time>
      </trkpt>
      <trkpt lat="45.49931" lon="5.87272">
        <ele>1102</ele>
        <time>2012-11-18T09:01:11Z</time>
      </trkpt>
      <trkpt lat="45.49926" lon="5.87266">
        <ele>1103.8000488281</ele>
        <time>2012-11-18T09:01:17Z</time>
      </trkpt>
      <trkpt lat="45.49926" lon="5.87264">
        <ele>1104.1999511719</ele>
        <time>2012-11-18T09:01:18Z</time>
      </trkpt>
      <trkpt lat="45.49927" lon="5.87258">
        <ele>1105.1999511719</ele>
        <time>2012-11-18T09:01:21Z</time>
      </trkpt>
      <trkpt lat="45.49927" lon="5.87257">
        <ele>1105.5999755859</ele>
        <time>2012-11-18T09:01:22Z</time>
      </trkpt>
      <trkpt lat="45.49932" lon="5.87258">
        <ele>1104.8000488281</ele>
        <time>2012-11-18T09:01:28Z</time>
      </trkpt>
      <trkpt lat="45.49928" lon="5.87247">
        <ele>1107.5999755859</ele>
        <time>2012-11-18T09:01:29Z</time>
      </trkpt>
      <trkpt lat="45.4993" lon="5.87244">
        <ele>1108.8000488281</ele>
        <time>2012-11-18T09:01:32Z</time>
      </trkpt>
      <trkpt lat="45.49929" lon="5.87244">
        <ele>1108.8000488281</ele>
        <time>2012-11-18T09:01:33Z</time>
      </trkpt>
      <trkpt lat="45.4993" lon="5.8724">
        <ele>1110</ele>
        <time>2012-11-18T09:01:37Z</time>
      </trkpt>
      <trkpt lat="45.49929" lon="5.87237">
        <ele>1110.8000488281</ele>
        <time>2012-11-18T09:01:38Z</time>
      </trkpt>
      <trkpt lat="45.49929" lon="5.87238">
        <ele>1110.8000488281</ele>
        <time>2012-11-18T09:01:44Z</time>
      </trkpt>
      <trkpt lat="45.49928" lon="5.87229">
        <ele>1113.5999755859</ele>
        <time>2012-11-18T09:01:46Z</time>
      </trkpt>
      <trkpt lat="45.49931" lon="5.8722">
        <ele>1116.4000244141</ele>
        <time>2012-11-18T09:01:53Z</time>
      </trkpt>
      <trkpt lat="45.49931" lon="5.8722">
        <ele>1116.5999755859</ele>
        <time>2012-11-18T09:01:55Z</time>
      </trkpt>
      <trkpt lat="45.49933" lon="5.87214">
        <ele>1118.4000244141</ele>
        <time>2012-11-18T09:02:01Z</time>
      </trkpt>
      <trkpt lat="45.49933" lon="5.87214">
        <ele>1118.4000244141</ele>
        <time>2012-11-18T09:02:04Z</time>
      </trkpt>
      <trkpt lat="45.49936" lon="5.87203">
        <ele>1121.5999755859</ele>
        <time>2012-11-18T09:02:07Z</time>
      </trkpt>
      <trkpt lat="45.49937" lon="5.87204">
        <ele>1121.4000244141</ele>
        <time>2012-11-18T09:02:08Z</time>
      </trkpt>
      <trkpt lat="45.4994" lon="5.87199">
        <ele>1123</ele>
        <time>2012-11-18T09:02:13Z</time>
      </trkpt>
      <trkpt lat="45.4994" lon="5.87199">
        <ele>1123</ele>
        <time>2012-11-18T09:02:14Z</time>
      </trkpt>
      <trkpt lat="45.49942" lon="5.87196">
        <ele>1123.5999755859</ele>
        <time>2012-11-18T09:02:16Z</time>
      </trkpt>
      <trkpt lat="45.49942" lon="5.87197">
        <ele>1123.1999511719</ele>
        <time>2012-11-18T09:02:17Z</time>
      </trkpt>
      <trkpt lat="45.49944" lon="5.87194">
        <ele>1124.4000244141</ele>
        <time>2012-11-18T09:02:21Z</time>
      </trkpt>
      <trkpt lat="45.49945" lon="5.87192">
        <ele>1124.8000488281</ele>
        <time>2012-11-18T09:02:22Z</time>
      </trkpt>
      <trkpt lat="45.49946" lon="5.8719">
        <ele>1125.4000244141</ele>
        <time>2012-11-18T09:02:27Z</time>
      </trkpt>
      <trkpt lat="45.49947" lon="5.87188">
        <ele>1126</ele>
        <time>2012-11-18T09:02:28Z</time>
      </trkpt>
      <trkpt lat="45.49949" lon="5.87184">
        <ele>1127.4000244141</ele>
        <time>2012-11-18T09:02:32Z</time>
      </trkpt>
      <trkpt lat="45.49948" lon="5.87184">
        <ele>1127.5999755859</ele>
        <time>2012-11-18T09:02:34Z</time>
      </trkpt>
      <trkpt lat="45.4995" lon="5.87179">
        <ele>1129</ele>
        <time>2012-11-18T09:02:40Z</time>
      </trkpt>
      <trkpt lat="45.49952" lon="5.87176">
        <ele>1130.1999511719</ele>
        <time>2012-11-18T09:02:43Z</time>
      </trkpt>
      <trkpt lat="45.49952" lon="5.87172">
        <ele>1131.1999511719</ele>
        <time>2012-11-18T09:02:47Z</time>
      </trkpt>
      <trkpt lat="45.49951" lon="5.87171">
        <ele>1131.8000488281</ele>
        <time>2012-11-18T09:02:50Z</time>
      </trkpt>
      <trkpt lat="45.49949" lon="5.87169">
        <ele>1132.5999755859</ele>
        <time>2012-11-18T09:02:54Z</time>
      </trkpt>
      <trkpt lat="45.49948" lon="5.87168">
        <ele>1133</ele>
        <time>2012-11-18T09:02:56Z</time>
      </trkpt>
      <trkpt lat="45.49948" lon="5.87168">
        <ele>1133</ele>
        <time>2012-11-18T09:03:00Z</time>
      </trkpt>
      <trkpt lat="45.49947" lon="5.87168">
        <ele>1133.1999511719</ele>
        <time>2012-11-18T09:03:02Z</time>
      </trkpt>
      <trkpt lat="45.49941" lon="5.87163">
        <ele>1134.8000488281</ele>
        <time>2012-11-18T09:03:07Z</time>
      </trkpt>
      <trkpt lat="45.4994" lon="5.87161">
        <ele>1135.5999755859</ele>
        <time>2012-11-18T09:03:10Z</time>
      </trkpt>
      <trkpt lat="45.49937" lon="5.87156">
        <ele>1137.1999511719</ele>
        <time>2012-11-18T09:03:16Z</time>
      </trkpt>
      <trkpt lat="45.49937" lon="5.87154">
        <ele>1137.8000488281</ele>
        <time>2012-11-18T09:03:17Z</time>
      </trkpt>
      <trkpt lat="45.49927" lon="5.87143">
        <ele>1141</ele>
        <time>2012-11-18T09:03:27Z</time>
      </trkpt>
      <trkpt lat="45.49923" lon="5.87138">
        <ele>1142</ele>
        <time>2012-11-18T09:03:31Z</time>
      </trkpt>
      <trkpt lat="45.49916" lon="5.87133">
        <ele>1143</ele>
        <time>2012-11-18T09:03:35Z</time>
      </trkpt>
      <trkpt lat="45.49911" lon="5.87129">
        <ele>1144</ele>
        <time>2012-11-18T09:03:39Z</time>
      </trkpt>
      <trkpt lat="45.49895" lon="5.87113">
        <ele>1147.5999755859</ele>
        <time>2012-11-18T09:03:47Z</time>
      </trkpt>
      <trkpt lat="45.49891" lon="5.87104">
        <ele>1149.4000244141</ele>
        <time>2012-11-18T09:03:51Z</time>
      </trkpt>
      <trkpt lat="45.49892" lon="5.87102">
        <ele>1150</ele>
        <time>2012-11-18T09:03:53Z</time>
      </trkpt>
      <trkpt lat="45.4989" lon="5.871">
        <ele>1150.4000244141</ele>
        <time>2012-11-18T09:03:55Z</time>
      </trkpt>
      <trkpt lat="45.49887" lon="5.87096">
        <ele>1151.1999511719</ele>
        <time>2012-11-18T09:03:58Z</time>
      </trkpt>
      <trkpt lat="45.49886" lon="5.87095">
        <ele>1151.5999755859</ele>
        <time>2012-11-18T09:03:59Z</time>
      </trkpt>
      <trkpt lat="45.49882" lon="5.8709">
        <ele>1152.5999755859</ele>
        <time>2012-11-18T09:04:03Z</time>
      </trkpt>
      <trkpt lat="45.4988" lon="5.87089">
        <ele>1152.5999755859</ele>
        <time>2012-11-18T09:04:06Z</time>
      </trkpt>
      <trkpt lat="45.49878" lon="5.87087">
        <ele>1153.1999511719</ele>
        <time>2012-11-18T09:04:09Z</time>
      </trkpt>
      <trkpt lat="45.49876" lon="5.87085">
        <ele>1153.5999755859</ele>
        <time>2012-11-18T09:04:10Z</time>
      </trkpt>
      <trkpt lat="45.49872" lon="5.8708">
        <ele>1155.1999511719</ele>
        <time>2012-11-18T09:04:14Z</time>
      </trkpt>
      <trkpt lat="45.49871" lon="5.87078">
        <ele>1156</ele>
        <time>2012-11-18T09:04:18Z</time>
      </trkpt>
      <trkpt lat="45.49868" lon="5.87075">
        <ele>1157.1999511719</ele>
        <time>2012-11-18T09:04:21Z</time>
      </trkpt>
      <trkpt lat="45.49866" lon="5.87073">
        <ele>1157.8000488281</ele>
        <time>2012-11-18T09:04:24Z</time>
      </trkpt>
      <trkpt lat="45.4986" lon="5.87071">
        <ele>1158.5999755859</ele>
        <time>2012-11-18T09:04:29Z</time>
      </trkpt>
      <trkpt lat="45.49859" lon="5.8707">
        <ele>1158.5999755859</ele>
        <time>2012-11-18T09:04:30Z</time>
      </trkpt>
      <trkpt lat="45.49856" lon="5.87069">
        <ele>1159</ele>
        <time>2012-11-18T09:04:33Z</time>
      </trkpt>
      <trkpt lat="45.49855" lon="5.87068">
        <ele>1159.4000244141</ele>
        <time>2012-11-18T09:04:34Z</time>
      </trkpt>
      <trkpt lat="45.49851" lon="5.87065">
        <ele>1160.4000244141</ele>
        <time>2012-11-18T09:04:37Z</time>
      </trkpt>
      <trkpt lat="45.49848" lon="5.87064">
        <ele>1160.8000488281</ele>
        <time>2012-11-18T09:04:39Z</time>
      </trkpt>
      <trkpt lat="45.49848" lon="5.87063">
        <ele>1161.1999511719</ele>
        <time>2012-11-18T09:04:41Z</time>
      </trkpt>
      <trkpt lat="45.49847" lon="5.87061">
        <ele>1161.8000488281</ele>
        <time>2012-11-18T09:04:42Z</time>
      </trkpt>
      <trkpt lat="45.49845" lon="5.87058">
        <ele>1163</ele>
        <time>2012-11-18T09:04:45Z</time>
      </trkpt>
      <trkpt lat="45.49842" lon="5.87056">
        <ele>1163.5999755859</ele>
        <time>2012-11-18T09:04:47Z</time>
      </trkpt>
      <trkpt lat="45.49843" lon="5.87055">
        <ele>1164.1999511719</ele>
        <time>2012-11-18T09:04:50Z</time>
      </trkpt>
      <trkpt lat="45.4984" lon="5.87051">
        <ele>1165.4000244141</ele>
        <time>2012-11-18T09:04:53Z</time>
      </trkpt>
      <trkpt lat="45.4984" lon="5.87049">
        <ele>1166.4000244141</ele>
        <time>2012-11-18T09:04:57Z</time>
      </trkpt>
      <trkpt lat="45.49841" lon="5.87048">
        <ele>1167</ele>
        <time>2012-11-18T09:04:58Z</time>
      </trkpt>
      <trkpt lat="45.49842" lon="5.87047">
        <ele>1167.1999511719</ele>
        <time>2012-11-18T09:05:00Z</time>
      </trkpt>
      <trkpt lat="45.49844" lon="5.87044">
        <ele>1168.1999511719</ele>
        <time>2012-11-18T09:05:04Z</time>
      </trkpt>
      <trkpt lat="45.49845" lon="5.87043">
        <ele>1168.8000488281</ele>
        <time>2012-11-18T09:05:08Z</time>
      </trkpt>
      <trkpt lat="45.49848" lon="5.87044">
        <ele>1168.5999755859</ele>
        <time>2012-11-18T09:05:10Z</time>
      </trkpt>
      <trkpt lat="45.49849" lon="5.87043">
        <ele>1168.8000488281</ele>
        <time>2012-11-18T09:05:15Z</time>
      </trkpt>
      <trkpt lat="45.49854" lon="5.8704">
        <ele>1170.4000244141</ele>
        <time>2012-11-18T09:05:17Z</time>
      </trkpt>
      <trkpt lat="45.49857" lon="5.87038">
        <ele>1171</ele>
        <time>2012-11-18T09:05:21Z</time>
      </trkpt>
      <trkpt lat="45.49857" lon="5.87039">
        <ele>1171</ele>
        <time>2012-11-18T09:05:22Z</time>
      </trkpt>
      <trkpt lat="45.49861" lon="5.87038">
        <ele>1171.4000244141</ele>
        <time>2012-11-18T09:05:25Z</time>
      </trkpt>
      <trkpt lat="45.49863" lon="5.87036">
        <ele>1172</ele>
        <time>2012-11-18T09:05:27Z</time>
      </trkpt>
      <trkpt lat="45.49868" lon="5.87036">
        <ele>1172.4000244141</ele>
        <time>2012-11-18T09:05:32Z</time>
      </trkpt>
      <trkpt lat="45.49869" lon="5.87035">
        <ele>1172.8000488281</ele>
        <time>2012-11-18T09:05:33Z</time>
      </trkpt>
      <trkpt lat="45.49871" lon="5.87034">
        <ele>1173.1999511719</ele>
        <time>2012-11-18T09:05:35Z</time>
      </trkpt>
      <trkpt lat="45.49875" lon="5.87033">
        <ele>1173.8000488281</ele>
        <time>2012-11-18T09:05:39Z</time>
      </trkpt>
      <trkpt lat="45.49879" lon="5.87031">
        <ele>1174.8000488281</ele>
        <time>2012-11-18T09:05:44Z</time>
      </trkpt>
      <trkpt lat="45.4988" lon="5.8703">
        <ele>1175.1999511719</ele>
        <time>2012-11-18T09:05:47Z</time>
      </trkpt>
      <trkpt lat="45.49885" lon="5.87025">
        <ele>1177.4000244141</ele>
        <time>2012-11-18T09:05:54Z</time>
      </trkpt>
      <trkpt lat="45.49884" lon="5.87024">
        <ele>1177.8000488281</ele>
        <time>2012-11-18T09:05:55Z</time>
      </trkpt>
      <trkpt lat="45.49883" lon="5.87022">
        <ele>1178.4000244141</ele>
        <time>2012-11-18T09:06:00Z</time>
      </trkpt>
      <trkpt lat="45.49882" lon="5.87022">
        <ele>1178.4000244141</ele>
        <time>2012-11-18T09:06:04Z</time>
      </trkpt>
      <trkpt lat="45.49881" lon="5.87022">
        <ele>1178.4000244141</ele>
        <time>2012-11-18T09:06:08Z</time>
      </trkpt>
      <trkpt lat="45.49878" lon="5.87019">
        <ele>1179.4000244141</ele>
        <time>2012-11-18T09:06:11Z</time>
      </trkpt>
      <trkpt lat="45.49875" lon="5.87015">
        <ele>1181</ele>
        <time>2012-11-18T09:06:16Z</time>
      </trkpt>
      <trkpt lat="45.49875" lon="5.87015">
        <ele>1180.8000488281</ele>
        <time>2012-11-18T09:06:17Z</time>
      </trkpt>
      <trkpt lat="45.49873" lon="5.87012">
        <ele>1182.1999511719</ele>
        <time>2012-11-18T09:06:29Z</time>
      </trkpt>
      <trkpt lat="45.49872" lon="5.8701">
        <ele>1182.8000488281</ele>
        <time>2012-11-18T09:06:30Z</time>
      </trkpt>
      <trkpt lat="45.49868" lon="5.87006">
        <ele>1184.1999511719</ele>
        <time>2012-11-18T09:06:35Z</time>
      </trkpt>
      <trkpt lat="45.49868" lon="5.87006">
        <ele>1184.1999511719</ele>
        <time>2012-11-18T09:06:36Z</time>
      </trkpt>
      <trkpt lat="45.49864" lon="5.87003">
        <ele>1185.1999511719</ele>
        <time>2012-11-18T09:06:40Z</time>
      </trkpt>
      <trkpt lat="45.49863" lon="5.87002">
        <ele>1185.4000244141</ele>
        <time>2012-11-18T09:06:42Z</time>
      </trkpt>
      <trkpt lat="45.4986" lon="5.87001">
        <ele>1185.8000488281</ele>
        <time>2012-11-18T09:06:45Z</time>
      </trkpt>
      <trkpt lat="45.49852" lon="5.87">
        <ele>1185.8000488281</ele>
        <time>2012-11-18T09:06:51Z</time>
      </trkpt>
      <trkpt lat="45.49848" lon="5.86999">
        <ele>1185.5999755859</ele>
        <time>2012-11-18T09:06:54Z</time>
      </trkpt>
      <trkpt lat="45.49847" lon="5.86999">
        <ele>1185.5999755859</ele>
        <time>2012-11-18T09:06:55Z</time>
      </trkpt>
      <trkpt lat="45.49843" lon="5.86998">
        <ele>1185.5999755859</ele>
        <time>2012-11-18T09:06:59Z</time>
      </trkpt>
      <trkpt lat="45.49843" lon="5.86998">
        <ele>1185.5999755859</ele>
        <time>2012-11-18T09:07:00Z</time>
      </trkpt>
      <trkpt lat="45.49837" lon="5.86996">
        <ele>1185.8000488281</ele>
        <time>2012-11-18T09:07:07Z</time>
      </trkpt>
      <trkpt lat="45.49836" lon="5.86996">
        <ele>1185.5999755859</ele>
        <time>2012-11-18T09:07:08Z</time>
      </trkpt>
      <trkpt lat="45.49836" lon="5.86994">
        <ele>1185.8000488281</ele>
        <time>2012-11-18T09:07:12Z</time>
      </trkpt>
      <trkpt lat="45.49832" lon="5.8699">
        <ele>1186.4000244141</ele>
        <time>2012-11-18T09:07:15Z</time>
      </trkpt>
      <trkpt lat="45.49832" lon="5.86986">
        <ele>1187.1999511719</ele>
        <time>2012-11-18T09:07:19Z</time>
      </trkpt>
      <trkpt lat="45.49832" lon="5.86985">
        <ele>1187.4000244141</ele>
        <time>2012-11-18T09:07:20Z</time>
      </trkpt>
      <trkpt lat="45.49833" lon="5.86982">
        <ele>1187.5999755859</ele>
        <time>2012-11-18T09:07:23Z</time>
      </trkpt>
      <trkpt lat="45.49834" lon="5.8698">
        <ele>1187.8000488281</ele>
        <time>2012-11-18T09:07:26Z</time>
      </trkpt>
      <trkpt lat="45.49834" lon="5.86978">
        <ele>1188.1999511719</ele>
        <time>2012-11-18T09:07:28Z</time>
      </trkpt>
      <trkpt lat="45.49833" lon="5.86975">
        <ele>1188.5999755859</ele>
        <time>2012-11-18T09:07:30Z</time>
      </trkpt>
      <trkpt lat="45.49833" lon="5.86972">
        <ele>1189</ele>
        <time>2012-11-18T09:07:33Z</time>
      </trkpt>
      <trkpt lat="45.49833" lon="5.8697">
        <ele>1189.4000244141</ele>
        <time>2012-11-18T09:07:36Z</time>
      </trkpt>
      <trkpt lat="45.49833" lon="5.86968">
        <ele>1189.5999755859</ele>
        <time>2012-11-18T09:07:40Z</time>
      </trkpt>
      <trkpt lat="45.49833" lon="5.86965">
        <ele>1190</ele>
        <time>2012-11-18T09:07:43Z</time>
      </trkpt>
      <trkpt lat="45.49832" lon="5.86959">
        <ele>1191</ele>
        <time>2012-11-18T09:07:47Z</time>
      </trkpt>
      <trkpt lat="45.49832" lon="5.86958">
        <ele>1191.1999511719</ele>
        <time>2012-11-18T09:07:48Z</time>
      </trkpt>
      <trkpt lat="45.49832" lon="5.86952">
        <ele>1192</ele>
        <time>2012-11-18T09:07:54Z</time>
      </trkpt>
      <trkpt lat="45.49833" lon="5.86951">
        <ele>1192</ele>
        <time>2012-11-18T09:07:55Z</time>
      </trkpt>
      <trkpt lat="45.4983" lon="5.86946">
        <ele>1193.4000244141</ele>
        <time>2012-11-18T09:08:00Z</time>
      </trkpt>
      <trkpt lat="45.4983" lon="5.86944">
        <ele>1193.5999755859</ele>
        <time>2012-11-18T09:08:01Z</time>
      </trkpt>
      <trkpt lat="45.49832" lon="5.8694">
        <ele>1193.8000488281</ele>
        <time>2012-11-18T09:08:04Z</time>
      </trkpt>
      <trkpt lat="45.49835" lon="5.86937">
        <ele>1194.1999511719</ele>
        <time>2012-11-18T09:08:09Z</time>
      </trkpt>
      <trkpt lat="45.49834" lon="5.86935">
        <ele>1194.1999511719</ele>
        <time>2012-11-18T09:08:19Z</time>
      </trkpt>
      <trkpt lat="45.49834" lon="5.86935">
        <ele>1194.1999511719</ele>
        <time>2012-11-18T09:08:20Z</time>
      </trkpt>
      <trkpt lat="45.49832" lon="5.8693">
        <ele>1195.4000244141</ele>
        <time>2012-11-18T09:08:33Z</time>
      </trkpt>
      <trkpt lat="45.49832" lon="5.86928">
        <ele>1195.5999755859</ele>
        <time>2012-11-18T09:08:39Z</time>
      </trkpt>
      <trkpt lat="45.49828" lon="5.86925">
        <ele>1197.1999511719</ele>
        <time>2012-11-18T09:08:43Z</time>
      </trkpt>
      <trkpt lat="45.49826" lon="5.86925">
        <ele>1197.8000488281</ele>
        <time>2012-11-18T09:08:45Z</time>
      </trkpt>
      <trkpt lat="45.49823" lon="5.8693">
        <ele>1198</ele>
        <time>2012-11-18T09:08:48Z</time>
      </trkpt>
      <trkpt lat="45.49817" lon="5.86934">
        <ele>1198.5999755859</ele>
        <time>2012-11-18T09:08:51Z</time>
      </trkpt>
      <trkpt lat="45.49815" lon="5.86939">
        <ele>1198.4000244141</ele>
        <time>2012-11-18T09:08:53Z</time>
      </trkpt>
      <trkpt lat="45.49811" lon="5.86941">
        <ele>1199</ele>
        <time>2012-11-18T09:08:56Z</time>
      </trkpt>
      <trkpt lat="45.49804" lon="5.86949">
        <ele>1199.1999511719</ele>
        <time>2012-11-18T09:09:08Z</time>
      </trkpt>
      <trkpt lat="45.49796" lon="5.86959">
        <ele>1199</ele>
        <time>2012-11-18T09:09:12Z</time>
      </trkpt>
      <trkpt lat="45.49789" lon="5.86967">
        <ele>1198.8000488281</ele>
        <time>2012-11-18T09:09:17Z</time>
      </trkpt>
      <trkpt lat="45.49784" lon="5.86973">
        <ele>1198.4000244141</ele>
        <time>2012-11-18T09:09:20Z</time>
      </trkpt>
      <trkpt lat="45.49778" lon="5.86979">
        <ele>1198.1999511719</ele>
        <time>2012-11-18T09:09:22Z</time>
      </trkpt>
      <trkpt lat="45.49776" lon="5.86982">
        <ele>1197.5999755859</ele>
        <time>2012-11-18T09:09:23Z</time>
      </trkpt>
      <trkpt lat="45.49765" lon="5.86996">
        <ele>1195.8000488281</ele>
        <time>2012-11-18T09:09:27Z</time>
      </trkpt>
      <trkpt lat="45.49762" lon="5.87001">
        <ele>1194.5999755859</ele>
        <time>2012-11-18T09:09:29Z</time>
      </trkpt>
      <trkpt lat="45.49756" lon="5.87008">
        <ele>1192.5999755859</ele>
        <time>2012-11-18T09:09:32Z</time>
      </trkpt>
      <trkpt lat="45.49751" lon="5.87015">
        <ele>1190.1999511719</ele>
        <time>2012-11-18T09:09:34Z</time>
      </trkpt>
      <trkpt lat="45.49733" lon="5.87023">
        <ele>1187</ele>
        <time>2012-11-18T09:09:41Z</time>
      </trkpt>
      <trkpt lat="45.4973" lon="5.87025">
        <ele>1186.4000244141</ele>
        <time>2012-11-18T09:09:42Z</time>
      </trkpt>
      <trkpt lat="45.49724" lon="5.87027">
        <ele>1185.1999511719</ele>
        <time>2012-11-18T09:09:44Z</time>
      </trkpt>
      <trkpt lat="45.49721" lon="5.87029">
        <ele>1184.4000244141</ele>
        <time>2012-11-18T09:09:45Z</time>
      </trkpt>
      <trkpt lat="45.49708" lon="5.87036">
        <ele>1181.1999511719</ele>
        <time>2012-11-18T09:09:50Z</time>
      </trkpt>
      <trkpt lat="45.49705" lon="5.87037">
        <ele>1180.8000488281</ele>
        <time>2012-11-18T09:09:51Z</time>
      </trkpt>
      <trkpt lat="45.49699" lon="5.8704">
        <ele>1179.5999755859</ele>
        <time>2012-11-18T09:09:54Z</time>
      </trkpt>
      <trkpt lat="45.49697" lon="5.87041">
        <ele>1179.1999511719</ele>
        <time>2012-11-18T09:09:55Z</time>
      </trkpt>
      <trkpt lat="45.49692" lon="5.87044">
        <ele>1177.8000488281</ele>
        <time>2012-11-18T09:09:58Z</time>
      </trkpt>
      <trkpt lat="45.49688" lon="5.87047">
        <ele>1176.1999511719</ele>
        <time>2012-11-18T09:10:00Z</time>
      </trkpt>
      <trkpt lat="45.49682" lon="5.87051">
        <ele>1174.1999511719</ele>
        <time>2012-11-18T09:10:03Z</time>
      </trkpt>
      <trkpt lat="45.49675" lon="5.87053">
        <ele>1173</ele>
        <time>2012-11-18T09:10:06Z</time>
      </trkpt>
      <trkpt lat="45.49668" lon="5.87054">
        <ele>1173</ele>
        <time>2012-11-18T09:10:09Z</time>
      </trkpt>
      <trkpt lat="45.49664" lon="5.87055">
        <ele>1172</ele>
        <time>2012-11-18T09:10:11Z</time>
      </trkpt>
      <trkpt lat="45.49658" lon="5.87055">
        <ele>1172</ele>
        <time>2012-11-18T09:10:13Z</time>
      </trkpt>
      <trkpt lat="45.4965" lon="5.87056">
        <ele>1171.4000244141</ele>
        <time>2012-11-18T09:10:16Z</time>
      </trkpt>
      <trkpt lat="45.49643" lon="5.8706">
        <ele>1169.5999755859</ele>
        <time>2012-11-18T09:10:19Z</time>
      </trkpt>
      <trkpt lat="45.49641" lon="5.8706">
        <ele>1169.1999511719</ele>
        <time>2012-11-18T09:10:20Z</time>
      </trkpt>
      <trkpt lat="45.49633" lon="5.87063">
        <ele>1168</ele>
        <time>2012-11-18T09:10:23Z</time>
      </trkpt>
      <trkpt lat="45.49631" lon="5.87063">
        <ele>1167.8000488281</ele>
        <time>2012-11-18T09:10:24Z</time>
      </trkpt>
      <trkpt lat="45.49625" lon="5.87066">
        <ele>1166.1999511719</ele>
        <time>2012-11-18T09:10:26Z</time>
      </trkpt>
      <trkpt lat="45.49622" lon="5.87066">
        <ele>1166</ele>
        <time>2012-11-18T09:10:27Z</time>
      </trkpt>
      <trkpt lat="45.49609" lon="5.87068">
        <ele>1164.8000488281</ele>
        <time>2012-11-18T09:10:32Z</time>
      </trkpt>
      <trkpt lat="45.49604" lon="5.87069">
        <ele>1164.4000244141</ele>
        <time>2012-11-18T09:10:34Z</time>
      </trkpt>
      <trkpt lat="45.49595" lon="5.87074">
        <ele>1162</ele>
        <time>2012-11-18T09:10:37Z</time>
      </trkpt>
      <trkpt lat="45.49591" lon="5.87076">
        <ele>1160.8000488281</ele>
        <time>2012-11-18T09:10:39Z</time>
      </trkpt>
      <trkpt lat="45.49583" lon="5.87078">
        <ele>1159.8000488281</ele>
        <time>2012-11-18T09:10:42Z</time>
      </trkpt>
      <trkpt lat="45.49578" lon="5.87081">
        <ele>1158.4000244141</ele>
        <time>2012-11-18T09:10:44Z</time>
      </trkpt>
      <trkpt lat="45.49571" lon="5.87086">
        <ele>1157</ele>
        <time>2012-11-18T09:10:48Z</time>
      </trkpt>
      <trkpt lat="45.49568" lon="5.87088">
        <ele>1156.8000488281</ele>
        <time>2012-11-18T09:10:49Z</time>
      </trkpt>
      <trkpt lat="45.49563" lon="5.8709">
        <ele>1156.8000488281</ele>
        <time>2012-11-18T09:10:51Z</time>
      </trkpt>
      <trkpt lat="45.4955" lon="5.87098">
        <ele>1156.8000488281</ele>
        <time>2012-11-18T09:10:55Z</time>
      </trkpt>
      <trkpt lat="45.49552" lon="5.8711">
        <ele>1156.1999511719</ele>
        <time>2012-11-18T09:10:58Z</time>
      </trkpt>
      <trkpt lat="45.49556" lon="5.87114">
        <ele>1155.5999755859</ele>
        <time>2012-11-18T09:11:01Z</time>
      </trkpt>
      <trkpt lat="45.49561" lon="5.8712">
        <ele>1154.8000488281</ele>
        <time>2012-11-18T09:11:04Z</time>
      </trkpt>
      <trkpt lat="45.49563" lon="5.87123">
        <ele>1154.4000244141</ele>
        <time>2012-11-18T09:11:06Z</time>
      </trkpt>
      <trkpt lat="45.49568" lon="5.87138">
        <ele>1152.5999755859</ele>
        <time>2012-11-18T09:11:12Z</time>
      </trkpt>
      <trkpt lat="45.49569" lon="5.87142">
        <ele>1152.1999511719</ele>
        <time>2012-11-18T09:11:14Z</time>
      </trkpt>
      <trkpt lat="45.49571" lon="5.87153">
        <ele>1151</ele>
        <time>2012-11-18T09:11:18Z</time>
      </trkpt>
      <trkpt lat="45.49573" lon="5.87156">
        <ele>1150.5999755859</ele>
        <time>2012-11-18T09:11:19Z</time>
      </trkpt>
      <trkpt lat="45.49577" lon="5.87171">
        <ele>1149.1999511719</ele>
        <time>2012-11-18T09:11:24Z</time>
      </trkpt>
      <trkpt lat="45.49577" lon="5.87175">
        <ele>1149.4000244141</ele>
        <time>2012-11-18T09:11:25Z</time>
      </trkpt>
      <trkpt lat="45.49578" lon="5.87184">
        <ele>1149.8000488281</ele>
        <time>2012-11-18T09:11:28Z</time>
      </trkpt>
      <trkpt lat="45.4958" lon="5.87188">
        <ele>1149.8000488281</ele>
        <time>2012-11-18T09:11:29Z</time>
      </trkpt>
      <trkpt lat="45.49588" lon="5.872">
        <ele>1149</ele>
        <time>2012-11-18T09:11:33Z</time>
      </trkpt>
      <trkpt lat="45.496" lon="5.87207">
        <ele>1147.4000244141</ele>
        <time>2012-11-18T09:11:39Z</time>
      </trkpt>
      <trkpt lat="45.49604" lon="5.87204">
        <ele>1146.5999755859</ele>
        <time>2012-11-18T09:11:42Z</time>
      </trkpt>
      <trkpt lat="45.49608" lon="5.87205">
        <ele>1146</ele>
        <time>2012-11-18T09:11:43Z</time>
      </trkpt>
      <trkpt lat="45.49613" lon="5.87206">
        <ele>1145.1999511719</ele>
        <time>2012-11-18T09:11:45Z</time>
      </trkpt>
      <trkpt lat="45.49619" lon="5.87203">
        <ele>1144</ele>
        <time>2012-11-18T09:11:48Z</time>
      </trkpt>
      <trkpt lat="45.49633" lon="5.87207">
        <ele>1141.8000488281</ele>
        <time>2012-11-18T09:11:53Z</time>
      </trkpt>
      <trkpt lat="45.49639" lon="5.8721">
        <ele>1140.5999755859</ele>
        <time>2012-11-18T09:11:55Z</time>
      </trkpt>
      <trkpt lat="45.49655" lon="5.8721">
        <ele>1138</ele>
        <time>2012-11-18T09:12:00Z</time>
      </trkpt>
      <trkpt lat="45.49664" lon="5.87212">
        <ele>1136.4000244141</ele>
        <time>2012-11-18T09:12:02Z</time>
      </trkpt>
      <trkpt lat="45.49678" lon="5.87215">
        <ele>1134.8000488281</ele>
        <time>2012-11-18T09:12:07Z</time>
      </trkpt>
      <trkpt lat="45.49682" lon="5.87215">
        <ele>1134.5999755859</ele>
        <time>2012-11-18T09:12:08Z</time>
      </trkpt>
      <trkpt lat="45.49695" lon="5.87222">
        <ele>1133.4000244141</ele>
        <time>2012-11-18T09:12:12Z</time>
      </trkpt>
      <trkpt lat="45.49701" lon="5.87227">
        <ele>1132.5999755859</ele>
        <time>2012-11-18T09:12:15Z</time>
      </trkpt>
      <trkpt lat="45.4971" lon="5.87238">
        <ele>1131.5999755859</ele>
        <time>2012-11-18T09:12:19Z</time>
      </trkpt>
      <trkpt lat="45.49717" lon="5.87246">
        <ele>1130.5999755859</ele>
        <time>2012-11-18T09:12:22Z</time>
      </trkpt>
      <trkpt lat="45.49721" lon="5.87249">
        <ele>1130</ele>
        <time>2012-11-18T09:12:24Z</time>
      </trkpt>
      <trkpt lat="45.49724" lon="5.87253">
        <ele>1129.5999755859</ele>
        <time>2012-11-18T09:12:25Z</time>
      </trkpt>
      <trkpt lat="45.49727" lon="5.87258">
        <ele>1128.5999755859</ele>
        <time>2012-11-18T09:12:27Z</time>
      </trkpt>
      <trkpt lat="45.49729" lon="5.87262">
        <ele>1128</ele>
        <time>2012-11-18T09:12:28Z</time>
      </trkpt>
      <trkpt lat="45.49732" lon="5.87268">
        <ele>1127.1999511719</ele>
        <time>2012-11-18T09:12:31Z</time>
      </trkpt>
      <trkpt lat="45.49733" lon="5.87268">
        <ele>1127</ele>
        <time>2012-11-18T09:12:32Z</time>
      </trkpt>
      <trkpt lat="45.49739" lon="5.87268">
        <ele>1126.1999511719</ele>
        <time>2012-11-18T09:12:35Z</time>
      </trkpt>
      <trkpt lat="45.49742" lon="5.8727">
        <ele>1125.5999755859</ele>
        <time>2012-11-18T09:12:36Z</time>
      </trkpt>
      <trkpt lat="45.49755" lon="5.87284">
        <ele>1122.1999511719</ele>
        <time>2012-11-18T09:12:43Z</time>
      </trkpt>
      <trkpt lat="45.49755" lon="5.87288">
        <ele>1121.8000488281</ele>
        <time>2012-11-18T09:12:44Z</time>
      </trkpt>
      <trkpt lat="45.49755" lon="5.87296">
        <ele>1120.8000488281</ele>
        <time>2012-11-18T09:12:48Z</time>
      </trkpt>
      <trkpt lat="45.49755" lon="5.87297">
        <ele>1120.5999755859</ele>
        <time>2012-11-18T09:12:49Z</time>
      </trkpt>
      <trkpt lat="45.49758" lon="5.873">
        <ele>1120</ele>
        <time>2012-11-18T09:12:51Z</time>
      </trkpt>
      <trkpt lat="45.49765" lon="5.87311">
        <ele>1117.8000488281</ele>
        <time>2012-11-18T09:12:56Z</time>
      </trkpt>
      <trkpt lat="45.49772" lon="5.87319">
        <ele>1115.5999755859</ele>
        <time>2012-11-18T09:13:01Z</time>
      </trkpt>
      <trkpt lat="45.49775" lon="5.87322">
        <ele>1114.8000488281</ele>
        <time>2012-11-18T09:13:02Z</time>
      </trkpt>
      <trkpt lat="45.49782" lon="5.87327">
        <ele>1113.1999511719</ele>
        <time>2012-11-18T09:13:05Z</time>
      </trkpt>
      <trkpt lat="45.49785" lon="5.87328">
        <ele>1112.5999755859</ele>
        <time>2012-11-18T09:13:06Z</time>
      </trkpt>
      <trkpt lat="45.49789" lon="5.87333">
        <ele>1111.1999511719</ele>
        <time>2012-11-18T09:13:08Z</time>
      </trkpt>
      <trkpt lat="45.49793" lon="5.87336">
        <ele>1110.5999755859</ele>
        <time>2012-11-18T09:13:10Z</time>
      </trkpt>
      <trkpt lat="45.49806" lon="5.87344">
        <ele>1108</ele>
        <time>2012-11-18T09:13:14Z</time>
      </trkpt>
      <trkpt lat="45.49811" lon="5.87347">
        <ele>1107</ele>
        <time>2012-11-18T09:13:16Z</time>
      </trkpt>
      <trkpt lat="45.49813" lon="5.87344">
        <ele>1107.1999511719</ele>
        <time>2012-11-18T09:13:18Z</time>
      </trkpt>
      <trkpt lat="45.49817" lon="5.87346">
        <ele>1106.4000244141</ele>
        <time>2012-11-18T09:13:20Z</time>
      </trkpt>
      <trkpt lat="45.49825" lon="5.87349">
        <ele>1105</ele>
        <time>2012-11-18T09:13:23Z</time>
      </trkpt>
      <trkpt lat="45.49827" lon="5.87352">
        <ele>1104.4000244141</ele>
        <time>2012-11-18T09:13:25Z</time>
      </trkpt>
      <trkpt lat="45.49838" lon="5.87358">
        <ele>1102.4000244141</ele>
        <time>2012-11-18T09:13:29Z</time>
      </trkpt>
      <trkpt lat="45.49843" lon="5.87364">
        <ele>1100.8000488281</ele>
        <time>2012-11-18T09:13:32Z</time>
      </trkpt>
      <trkpt lat="45.49849" lon="5.87379">
        <ele>1098.5999755859</ele>
        <time>2012-11-18T09:13:38Z</time>
      </trkpt>
      <trkpt lat="45.49848" lon="5.87379">
        <ele>1098.8000488281</ele>
        <time>2012-11-18T09:13:39Z</time>
      </trkpt>
      <trkpt lat="45.49849" lon="5.87387">
        <ele>1098</ele>
        <time>2012-11-18T09:13:41Z</time>
      </trkpt>
      <trkpt lat="45.49847" lon="5.874">
        <ele>1097.4000244141</ele>
        <time>2012-11-18T09:13:45Z</time>
      </trkpt>
      <trkpt lat="45.49852" lon="5.87411">
        <ele>1095.1999511719</ele>
        <time>2012-11-18T09:13:49Z</time>
      </trkpt>
      <trkpt lat="45.49853" lon="5.87422">
        <ele>1094.4000244141</ele>
        <time>2012-11-18T09:13:52Z</time>
      </trkpt>
      <trkpt lat="45.49862" lon="5.87439">
        <ele>1091.4000244141</ele>
        <time>2012-11-18T09:13:58Z</time>
      </trkpt>
      <trkpt lat="45.49862" lon="5.8744">
        <ele>1091.1999511719</ele>
        <time>2012-11-18T09:13:59Z</time>
      </trkpt>
      <trkpt lat="45.49865" lon="5.87443">
        <ele>1090.4000244141</ele>
        <time>2012-11-18T09:14:03Z</time>
      </trkpt>
      <trkpt lat="45.49867" lon="5.87448">
        <ele>1089.5999755859</ele>
        <time>2012-11-18T09:14:04Z</time>
      </trkpt>
      <trkpt lat="45.49873" lon="5.8747">
        <ele>1087</ele>
        <time>2012-11-18T09:14:10Z</time>
      </trkpt>
      <trkpt lat="45.49875" lon="5.87475">
        <ele>1086.4000244141</ele>
        <time>2012-11-18T09:14:11Z</time>
      </trkpt>
      <trkpt lat="45.49879" lon="5.87482">
        <ele>1085.1999511719</ele>
        <time>2012-11-18T09:14:13Z</time>
      </trkpt>
      <trkpt lat="45.4988" lon="5.87486">
        <ele>1084.8000488281</ele>
        <time>2012-11-18T09:14:14Z</time>
      </trkpt>
      <trkpt lat="45.49898" lon="5.87517">
        <ele>1081</ele>
        <time>2012-11-18T09:14:23Z</time>
      </trkpt>
      <trkpt lat="45.49899" lon="5.87526">
        <ele>1081.1999511719</ele>
        <time>2012-11-18T09:14:25Z</time>
      </trkpt>
      <trkpt lat="45.49904" lon="5.87542">
        <ele>1080.8000488281</ele>
        <time>2012-11-18T09:14:29Z</time>
      </trkpt>
      <trkpt lat="45.49907" lon="5.87554">
        <ele>1080.5999755859</ele>
        <time>2012-11-18T09:14:32Z</time>
      </trkpt>
      <trkpt lat="45.4991" lon="5.87561">
        <ele>1080.4000244141</ele>
        <time>2012-11-18T09:14:35Z</time>
      </trkpt>
      <trkpt lat="45.49913" lon="5.8757">
        <ele>1080</ele>
        <time>2012-11-18T09:14:38Z</time>
      </trkpt>
      <trkpt lat="45.49916" lon="5.87575">
        <ele>1079.5999755859</ele>
        <time>2012-11-18T09:14:42Z</time>
      </trkpt>
      <trkpt lat="45.49916" lon="5.87576">
        <ele>1079.8000488281</ele>
        <time>2012-11-18T09:14:43Z</time>
      </trkpt>
      <trkpt lat="45.49918" lon="5.87584">
        <ele>1079.5999755859</ele>
        <time>2012-11-18T09:14:45Z</time>
      </trkpt>
      <trkpt lat="45.49923" lon="5.87585">
        <ele>1078.8000488281</ele>
        <time>2012-11-18T09:14:47Z</time>
      </trkpt>
      <trkpt lat="45.49927" lon="5.87595">
        <ele>1078.4000244141</ele>
        <time>2012-11-18T09:14:51Z</time>
      </trkpt>
      <trkpt lat="45.49935" lon="5.87598">
        <ele>1076.5999755859</ele>
        <time>2012-11-18T09:14:55Z</time>
      </trkpt>
      <trkpt lat="45.49946" lon="5.87601">
        <ele>1074.4000244141</ele>
        <time>2012-11-18T09:14:59Z</time>
      </trkpt>
      <trkpt lat="45.49947" lon="5.87605">
        <ele>1074.4000244141</ele>
        <time>2012-11-18T09:15:00Z</time>
      </trkpt>
      <trkpt lat="45.49949" lon="5.87609">
        <ele>1073.8000488281</ele>
        <time>2012-11-18T09:15:03Z</time>
      </trkpt>
      <trkpt lat="45.49952" lon="5.87611">
        <ele>1073.4000244141</ele>
        <time>2012-11-18T09:15:04Z</time>
      </trkpt>
      <trkpt lat="45.49954" lon="5.87615">
        <ele>1073</ele>
        <time>2012-11-18T09:15:06Z</time>
      </trkpt>
      <trkpt lat="45.49958" lon="5.87614">
        <ele>1072.1999511719</ele>
        <time>2012-11-18T09:15:08Z</time>
      </trkpt>
      <trkpt lat="45.49966" lon="5.87615">
        <ele>1070.1999511719</ele>
        <time>2012-11-18T09:15:13Z</time>
      </trkpt>
      <trkpt lat="45.49968" lon="5.87616">
        <ele>1069.8000488281</ele>
        <time>2012-11-18T09:15:14Z</time>
      </trkpt>
      <trkpt lat="45.49978" lon="5.87622">
        <ele>1067.5999755859</ele>
        <time>2012-11-18T09:15:18Z</time>
      </trkpt>
      <trkpt lat="45.49981" lon="5.87627">
        <ele>1066.8000488281</ele>
        <time>2012-11-18T09:15:21Z</time>
      </trkpt>
      <trkpt lat="45.49984" lon="5.87626">
        <ele>1066.4000244141</ele>
        <time>2012-11-18T09:15:23Z</time>
      </trkpt>
      <trkpt lat="45.49987" lon="5.87626">
        <ele>1065.4000244141</ele>
        <time>2012-11-18T09:15:25Z</time>
      </trkpt>
      <trkpt lat="45.49991" lon="5.87627">
        <ele>1064.5999755859</ele>
        <time>2012-11-18T09:15:27Z</time>
      </trkpt>
      <trkpt lat="45.49999" lon="5.87631">
        <ele>1062.5999755859</ele>
        <time>2012-11-18T09:15:30Z</time>
      </trkpt>
      <trkpt lat="45.50007" lon="5.87634">
        <ele>1060.5999755859</ele>
        <time>2012-11-18T09:15:35Z</time>
      </trkpt>
      <trkpt lat="45.5001" lon="5.87636">
        <ele>1059.8000488281</ele>
        <time>2012-11-18T09:15:36Z</time>
      </trkpt>
      <trkpt lat="45.50016" lon="5.87642">
        <ele>1058.1999511719</ele>
        <time>2012-11-18T09:15:39Z</time>
      </trkpt>
      <trkpt lat="45.5002" lon="5.87648">
        <ele>1057</ele>
        <time>2012-11-18T09:15:41Z</time>
      </trkpt>
      <trkpt lat="45.50028" lon="5.8766">
        <ele>1054.4000244141</ele>
        <time>2012-11-18T09:15:44Z</time>
      </trkpt>
      <trkpt lat="45.50033" lon="5.87665">
        <ele>1053</ele>
        <time>2012-11-18T09:15:46Z</time>
      </trkpt>
      <trkpt lat="45.50042" lon="5.87669">
        <ele>1050.4000244141</ele>
        <time>2012-11-18T09:15:49Z</time>
      </trkpt>
      <trkpt lat="45.50043" lon="5.8767">
        <ele>1050</ele>
        <time>2012-11-18T09:15:50Z</time>
      </trkpt>
      <trkpt lat="45.50049" lon="5.87675">
        <ele>1048.1999511719</ele>
        <time>2012-11-18T09:15:54Z</time>
      </trkpt>
      <trkpt lat="45.50051" lon="5.87676">
        <ele>1047.5999755859</ele>
        <time>2012-11-18T09:15:55Z</time>
      </trkpt>
      <trkpt lat="45.50055" lon="5.8768">
        <ele>1046.4000244141</ele>
        <time>2012-11-18T09:15:58Z</time>
      </trkpt>
      <trkpt lat="45.50055" lon="5.87682">
        <ele>1046.1999511719</ele>
        <time>2012-11-18T09:15:59Z</time>
      </trkpt>
      <trkpt lat="45.5006" lon="5.87684">
        <ele>1044.5999755859</ele>
        <time>2012-11-18T09:16:01Z</time>
      </trkpt>
      <trkpt lat="45.50062" lon="5.87685">
        <ele>1043.8000488281</ele>
        <time>2012-11-18T09:16:02Z</time>
      </trkpt>
      <trkpt lat="45.50064" lon="5.87684">
        <ele>1043.1999511719</ele>
        <time>2012-11-18T09:16:04Z</time>
      </trkpt>
      <trkpt lat="45.50068" lon="5.87683">
        <ele>1042</ele>
        <time>2012-11-18T09:16:06Z</time>
      </trkpt>
      <trkpt lat="45.50075" lon="5.87684">
        <ele>1039.5999755859</ele>
        <time>2012-11-18T09:16:09Z</time>
      </trkpt>
      <trkpt lat="45.50077" lon="5.87685">
        <ele>1039</ele>
        <time>2012-11-18T09:16:10Z</time>
      </trkpt>
      <trkpt lat="45.50083" lon="5.87689">
        <ele>1036.5999755859</ele>
        <time>2012-11-18T09:16:13Z</time>
      </trkpt>
      <trkpt lat="45.50086" lon="5.8769">
        <ele>1036</ele>
        <time>2012-11-18T09:16:14Z</time>
      </trkpt>
      <trkpt lat="45.5009" lon="5.87694">
        <ele>1035</ele>
        <time>2012-11-18T09:16:16Z</time>
      </trkpt>
      <trkpt lat="45.50095" lon="5.87698">
        <ele>1033.5999755859</ele>
        <time>2012-11-18T09:16:18Z</time>
      </trkpt>
      <trkpt lat="45.50104" lon="5.87702">
        <ele>1031.4000244141</ele>
        <time>2012-11-18T09:16:21Z</time>
      </trkpt>
      <trkpt lat="45.50108" lon="5.87704">
        <ele>1030.4000244141</ele>
        <time>2012-11-18T09:16:22Z</time>
      </trkpt>
      <trkpt lat="45.50118" lon="5.87716">
        <ele>1027.1999511719</ele>
        <time>2012-11-18T09:16:27Z</time>
      </trkpt>
      <trkpt lat="45.50119" lon="5.87718">
        <ele>1026.8000488281</ele>
        <time>2012-11-18T09:16:28Z</time>
      </trkpt>
      <trkpt lat="45.50124" lon="5.87724">
        <ele>1025.4000244141</ele>
        <time>2012-11-18T09:16:30Z</time>
      </trkpt>
      <trkpt lat="45.50125" lon="5.87725">
        <ele>1025</ele>
        <time>2012-11-18T09:16:31Z</time>
      </trkpt>
      <trkpt lat="45.50134" lon="5.87737">
        <ele>1021.799987793</ele>
        <time>2012-11-18T09:16:35Z</time>
      </trkpt>
      <trkpt lat="45.50138" lon="5.87741">
        <ele>1020.799987793</ele>
        <time>2012-11-18T09:16:36Z</time>
      </trkpt>
      <trkpt lat="45.5015" lon="5.87756">
        <ele>1016.799987793</ele>
        <time>2012-11-18T09:16:41Z</time>
      </trkpt>
      <trkpt lat="45.50152" lon="5.87758">
        <ele>1016.200012207</ele>
        <time>2012-11-18T09:16:42Z</time>
      </trkpt>
      <trkpt lat="45.50167" lon="5.87772">
        <ele>1012</ele>
        <time>2012-11-18T09:16:47Z</time>
      </trkpt>
      <trkpt lat="45.50171" lon="5.87777">
        <ele>1011</ele>
        <time>2012-11-18T09:16:49Z</time>
      </trkpt>
      <trkpt lat="45.50182" lon="5.87787">
        <ele>1008.200012207</ele>
        <time>2012-11-18T09:16:53Z</time>
      </trkpt>
      <trkpt lat="45.50194" lon="5.87795">
        <ele>1005.4000244141</ele>
        <time>2012-11-18T09:16:57Z</time>
      </trkpt>
      <trkpt lat="45.50213" lon="5.87821">
        <ele>999.79998779297</ele>
        <time>2012-11-18T09:17:04Z</time>
      </trkpt>
      <trkpt lat="45.50217" lon="5.87837">
        <ele>998.59997558594</ele>
        <time>2012-11-18T09:17:07Z</time>
      </trkpt>
      <trkpt lat="45.50224" lon="5.87881">
        <ele>998.59997558594</ele>
        <time>2012-11-18T09:17:16Z</time>
      </trkpt>
      <trkpt lat="45.50228" lon="5.87894">
        <ele>998.20001220703</ele>
        <time>2012-11-18T09:17:20Z</time>
      </trkpt>
      <trkpt lat="45.5023" lon="5.8791">
        <ele>998</ele>
        <time>2012-11-18T09:17:24Z</time>
      </trkpt>
      <trkpt lat="45.5023" lon="5.87922">
        <ele>999.20001220703</ele>
        <time>2012-11-18T09:17:27Z</time>
      </trkpt>
      <trkpt lat="45.50231" lon="5.87942">
        <ele>1001.5999755859</ele>
        <time>2012-11-18T09:17:33Z</time>
      </trkpt>
      <trkpt lat="45.50232" lon="5.87943">
        <ele>1001.4000244141</ele>
        <time>2012-11-18T09:17:34Z</time>
      </trkpt>
      <trkpt lat="45.50242" lon="5.87949">
        <ele>999.59997558594</ele>
        <time>2012-11-18T09:17:38Z</time>
      </trkpt>
      <trkpt lat="45.50253" lon="5.87959">
        <ele>998.20001220703</ele>
        <time>2012-11-18T09:17:41Z</time>
      </trkpt>
      <trkpt lat="45.50264" lon="5.87976">
        <ele>998</ele>
        <time>2012-11-18T09:17:45Z</time>
      </trkpt>
      <trkpt lat="45.50265" lon="5.87979">
        <ele>998.20001220703</ele>
        <time>2012-11-18T09:17:46Z</time>
      </trkpt>
      <trkpt lat="45.50267" lon="5.87989">
        <ele>999.20001220703</ele>
        <time>2012-11-18T09:17:49Z</time>
      </trkpt>
      <trkpt lat="45.50271" lon="5.87997">
        <ele>999</ele>
        <time>2012-11-18T09:17:51Z</time>
      </trkpt>
      <trkpt lat="45.50285" lon="5.88013">
        <ele>996.79998779297</ele>
        <time>2012-11-18T09:17:56Z</time>
      </trkpt>
      <trkpt lat="45.50289" lon="5.88017">
        <ele>996</ele>
        <time>2012-11-18T09:17:58Z</time>
      </trkpt>
      <trkpt lat="45.50297" lon="5.88024">
        <ele>993.59997558594</ele>
        <time>2012-11-18T09:18:02Z</time>
      </trkpt>
      <trkpt lat="45.50304" lon="5.88028">
        <ele>991.59997558594</ele>
        <time>2012-11-18T09:18:04Z</time>
      </trkpt>
      <trkpt lat="45.5031" lon="5.88029">
        <ele>989.79998779297</ele>
        <time>2012-11-18T09:18:06Z</time>
      </trkpt>
      <trkpt lat="45.50313" lon="5.88028">
        <ele>989</ele>
        <time>2012-11-18T09:18:07Z</time>
      </trkpt>
      <trkpt lat="45.50321" lon="5.88027">
        <ele>986.20001220703</ele>
        <time>2012-11-18T09:18:11Z</time>
      </trkpt>
      <trkpt lat="45.50324" lon="5.88028">
        <ele>985.40002441406</ele>
        <time>2012-11-18T09:18:12Z</time>
      </trkpt>
      <trkpt lat="45.50336" lon="5.88036">
        <ele>981.40002441406</ele>
        <time>2012-11-18T09:18:16Z</time>
      </trkpt>
      <trkpt lat="45.50345" lon="5.88041">
        <ele>978.79998779297</ele>
        <time>2012-11-18T09:18:19Z</time>
      </trkpt>
      <trkpt lat="45.50358" lon="5.88049">
        <ele>974.79998779297</ele>
        <time>2012-11-18T09:18:24Z</time>
      </trkpt>
      <trkpt lat="45.50363" lon="5.88051">
        <ele>973.40002441406</ele>
        <time>2012-11-18T09:18:26Z</time>
      </trkpt>
      <trkpt lat="45.50372" lon="5.88052">
        <ele>971</ele>
        <time>2012-11-18T09:18:29Z</time>
      </trkpt>
      <trkpt lat="45.50374" lon="5.88051">
        <ele>970.40002441406</ele>
        <time>2012-11-18T09:18:30Z</time>
      </trkpt>
      <trkpt lat="45.50394" lon="5.88054">
        <ele>965.20001220703</ele>
        <time>2012-11-18T09:18:37Z</time>
      </trkpt>
      <trkpt lat="45.50396" lon="5.88057">
        <ele>964.40002441406</ele>
        <time>2012-11-18T09:18:38Z</time>
      </trkpt>
      <trkpt lat="45.50397" lon="5.88066">
        <ele>963.79998779297</ele>
        <time>2012-11-18T09:18:40Z</time>
      </trkpt>
      <trkpt lat="45.50397" lon="5.8807">
        <ele>963.59997558594</ele>
        <time>2012-11-18T09:18:41Z</time>
      </trkpt>
      <trkpt lat="45.50395" lon="5.88077">
        <ele>963.79998779297</ele>
        <time>2012-11-18T09:18:43Z</time>
      </trkpt>
      <trkpt lat="45.50392" lon="5.88082">
        <ele>964.59997558594</ele>
        <time>2012-11-18T09:18:45Z</time>
      </trkpt>
      <trkpt lat="45.50387" lon="5.88087">
        <ele>965</ele>
        <time>2012-11-18T09:18:48Z</time>
      </trkpt>
      <trkpt lat="45.50384" lon="5.88091">
        <ele>965</ele>
        <time>2012-11-18T09:18:50Z</time>
      </trkpt>
      <trkpt lat="45.50369" lon="5.88104">
        <ele>966.79998779297</ele>
        <time>2012-11-18T09:18:57Z</time>
      </trkpt>
      <trkpt lat="45.50367" lon="5.88106">
        <ele>967</ele>
        <time>2012-11-18T09:18:58Z</time>
      </trkpt>
      <trkpt lat="45.50364" lon="5.88132">
        <ele>963.40002441406</ele>
        <time>2012-11-18T09:19:07Z</time>
      </trkpt>
      <trkpt lat="45.50367" lon="5.88135">
        <ele>961.79998779297</ele>
        <time>2012-11-18T09:19:08Z</time>
      </trkpt>
      <trkpt lat="45.50374" lon="5.88138">
        <ele>959</ele>
        <time>2012-11-18T09:19:12Z</time>
      </trkpt>
      <trkpt lat="45.50382" lon="5.8814">
        <ele>956.20001220703</ele>
        <time>2012-11-18T09:19:15Z</time>
      </trkpt>
      <trkpt lat="45.5039" lon="5.88136">
        <ele>954.20001220703</ele>
        <time>2012-11-18T09:19:20Z</time>
      </trkpt>
      <trkpt lat="45.50395" lon="5.88134">
        <ele>953</ele>
        <time>2012-11-18T09:19:23Z</time>
      </trkpt>
      <trkpt lat="45.50399" lon="5.88135">
        <ele>951.20001220703</ele>
        <time>2012-11-18T09:19:25Z</time>
      </trkpt>
      <trkpt lat="45.50404" lon="5.88139">
        <ele>949</ele>
        <time>2012-11-18T09:19:27Z</time>
      </trkpt>
      <trkpt lat="45.50417" lon="5.88138">
        <ele>944.79998779297</ele>
        <time>2012-11-18T09:19:32Z</time>
      </trkpt>
      <trkpt lat="45.5042" lon="5.88139">
        <ele>944.20001220703</ele>
        <time>2012-11-18T09:19:33Z</time>
      </trkpt>
      <trkpt lat="45.50427" lon="5.88139">
        <ele>943.20001220703</ele>
        <time>2012-11-18T09:19:37Z</time>
      </trkpt>
      <trkpt lat="45.50435" lon="5.88142">
        <ele>941.40002441406</ele>
        <time>2012-11-18T09:19:40Z</time>
      </trkpt>
      <trkpt lat="45.5044" lon="5.88144">
        <ele>940.40002441406</ele>
        <time>2012-11-18T09:19:42Z</time>
      </trkpt>
      <trkpt lat="45.50448" lon="5.88151">
        <ele>937.79998779297</ele>
        <time>2012-11-18T09:19:45Z</time>
      </trkpt>
      <trkpt lat="45.50452" lon="5.88156">
        <ele>936.20001220703</ele>
        <time>2012-11-18T09:19:47Z</time>
      </trkpt>
      <trkpt lat="45.50454" lon="5.88158">
        <ele>935.79998779297</ele>
        <time>2012-11-18T09:19:48Z</time>
      </trkpt>
      <trkpt lat="45.50457" lon="5.88166">
        <ele>933.59997558594</ele>
        <time>2012-11-18T09:19:52Z</time>
      </trkpt>
      <trkpt lat="45.50459" lon="5.8817">
        <ele>933</ele>
        <time>2012-11-18T09:19:54Z</time>
      </trkpt>
      <trkpt lat="45.50461" lon="5.88176">
        <ele>932.20001220703</ele>
        <time>2012-11-18T09:19:57Z</time>
      </trkpt>
      <trkpt lat="45.50464" lon="5.88178">
        <ele>931.59997558594</ele>
        <time>2012-11-18T09:19:58Z</time>
      </trkpt>
      <trkpt lat="45.50474" lon="5.88188">
        <ele>929</ele>
        <time>2012-11-18T09:20:03Z</time>
      </trkpt>
      <trkpt lat="45.50476" lon="5.88191">
        <ele>928.20001220703</ele>
        <time>2012-11-18T09:20:04Z</time>
      </trkpt>
      <trkpt lat="45.5048" lon="5.88198">
        <ele>926.59997558594</ele>
        <time>2012-11-18T09:20:06Z</time>
      </trkpt>
      <trkpt lat="45.50481" lon="5.88201">
        <ele>926.20001220703</ele>
        <time>2012-11-18T09:20:07Z</time>
      </trkpt>
      <trkpt lat="45.50484" lon="5.88205">
        <ele>924.79998779297</ele>
        <time>2012-11-18T09:20:10Z</time>
      </trkpt>
      <trkpt lat="45.50488" lon="5.88209">
        <ele>923.59997558594</ele>
        <time>2012-11-18T09:20:11Z</time>
      </trkpt>
      <trkpt lat="45.50494" lon="5.88214">
        <ele>921.59997558594</ele>
        <time>2012-11-18T09:20:13Z</time>
      </trkpt>
      <trkpt lat="45.50496" lon="5.88216">
        <ele>921</ele>
        <time>2012-11-18T09:20:14Z</time>
      </trkpt>
      <trkpt lat="45.505" lon="5.8822">
        <ele>919.20001220703</ele>
        <time>2012-11-18T09:20:17Z</time>
      </trkpt>
      <trkpt lat="45.50504" lon="5.88227">
        <ele>917.40002441406</ele>
        <time>2012-11-18T09:20:19Z</time>
      </trkpt>
      <trkpt lat="45.50508" lon="5.88235">
        <ele>915.40002441406</ele>
        <time>2012-11-18T09:20:22Z</time>
      </trkpt>
      <trkpt lat="45.50511" lon="5.8824">
        <ele>914.20001220703</ele>
        <time>2012-11-18T09:20:24Z</time>
      </trkpt>
      <trkpt lat="45.50519" lon="5.88244">
        <ele>912.20001220703</ele>
        <time>2012-11-18T09:20:27Z</time>
      </trkpt>
      <trkpt lat="45.50526" lon="5.88246">
        <ele>910.79998779297</ele>
        <time>2012-11-18T09:20:29Z</time>
      </trkpt>
      <trkpt lat="45.50532" lon="5.88249">
        <ele>909.40002441406</ele>
        <time>2012-11-18T09:20:31Z</time>
      </trkpt>
      <trkpt lat="45.50535" lon="5.88252">
        <ele>908.59997558594</ele>
        <time>2012-11-18T09:20:32Z</time>
      </trkpt>
      <trkpt lat="45.50541" lon="5.8826">
        <ele>906.79998779297</ele>
        <time>2012-11-18T09:20:35Z</time>
      </trkpt>
      <trkpt lat="45.50544" lon="5.88262">
        <ele>906.20001220703</ele>
        <time>2012-11-18T09:20:36Z</time>
      </trkpt>
      <trkpt lat="45.50551" lon="5.88268">
        <ele>904.40002441406</ele>
        <time>2012-11-18T09:20:39Z</time>
      </trkpt>
      <trkpt lat="45.50554" lon="5.88269">
        <ele>903.79998779297</ele>
        <time>2012-11-18T09:20:40Z</time>
      </trkpt>
      <trkpt lat="45.50565" lon="5.88277">
        <ele>900.79998779297</ele>
        <time>2012-11-18T09:20:43Z</time>
      </trkpt>
      <trkpt lat="45.50568" lon="5.88281">
        <ele>899.79998779297</ele>
        <time>2012-11-18T09:20:44Z</time>
      </trkpt>
      <trkpt lat="45.50574" lon="5.88297">
        <ele>896.40002441406</ele>
        <time>2012-11-18T09:20:48Z</time>
      </trkpt>
      <trkpt lat="45.50575" lon="5.88304">
        <ele>895.20001220703</ele>
        <time>2012-11-18T09:20:50Z</time>
      </trkpt>
      <trkpt lat="45.50575" lon="5.88314">
        <ele>893.59997558594</ele>
        <time>2012-11-18T09:20:53Z</time>
      </trkpt>
      <trkpt lat="45.50574" lon="5.88323">
        <ele>892.59997558594</ele>
        <time>2012-11-18T09:20:55Z</time>
      </trkpt>
      <trkpt lat="45.50573" lon="5.8834">
        <ele>890.40002441406</ele>
        <time>2012-11-18T09:20:59Z</time>
      </trkpt>
      <trkpt lat="45.50571" lon="5.88347">
        <ele>889.79998779297</ele>
        <time>2012-11-18T09:21:01Z</time>
      </trkpt>
      <trkpt lat="45.50568" lon="5.88354">
        <ele>889.79998779297</ele>
        <time>2012-11-18T09:21:03Z</time>
      </trkpt>
      <trkpt lat="45.50567" lon="5.88358">
        <ele>889.59997558594</ele>
        <time>2012-11-18T09:21:04Z</time>
      </trkpt>
      <trkpt lat="45.50568" lon="5.88379">
        <ele>886.79998779297</ele>
        <time>2012-11-18T09:21:09Z</time>
      </trkpt>
      <trkpt lat="45.50569" lon="5.88383">
        <ele>886</ele>
        <time>2012-11-18T09:21:10Z</time>
      </trkpt>
      <trkpt lat="45.50582" lon="5.88414">
        <ele>878.59997558594</ele>
        <time>2012-11-18T09:21:18Z</time>
      </trkpt>
      <trkpt lat="45.50593" lon="5.88426">
        <ele>876.20001220703</ele>
        <time>2012-11-18T09:21:22Z</time>
      </trkpt>
      <trkpt lat="45.506" lon="5.88438">
        <ele>874.79998779297</ele>
        <time>2012-11-18T09:21:26Z</time>
      </trkpt>
      <trkpt lat="45.50602" lon="5.88441">
        <ele>874.20001220703</ele>
        <time>2012-11-18T09:21:27Z</time>
      </trkpt>
      <trkpt lat="45.5061" lon="5.88452">
        <ele>872.40002441406</ele>
        <time>2012-11-18T09:21:31Z</time>
      </trkpt>
      <trkpt lat="45.50612" lon="5.88454">
        <ele>872</ele>
        <time>2012-11-18T09:21:32Z</time>
      </trkpt>
      <trkpt lat="45.50618" lon="5.8846">
        <ele>870.59997558594</ele>
        <time>2012-11-18T09:21:35Z</time>
      </trkpt>
      <trkpt lat="45.50623" lon="5.88461">
        <ele>869.79998779297</ele>
        <time>2012-11-18T09:21:37Z</time>
      </trkpt>
      <trkpt lat="45.50627" lon="5.88462">
        <ele>869</ele>
        <time>2012-11-18T09:21:40Z</time>
      </trkpt>
      <trkpt lat="45.50628" lon="5.88462">
        <ele>869</ele>
        <time>2012-11-18T09:21:41Z</time>
      </trkpt>
      <trkpt lat="45.50634" lon="5.88464">
        <ele>867.79998779297</ele>
        <time>2012-11-18T09:21:44Z</time>
      </trkpt>
      <trkpt lat="45.50639" lon="5.88463">
        <ele>867</ele>
        <time>2012-11-18T09:21:46Z</time>
      </trkpt>
      <trkpt lat="45.50658" lon="5.88463">
        <ele>863.79998779297</ele>
        <time>2012-11-18T09:21:51Z</time>
      </trkpt>
      <trkpt lat="45.5066" lon="5.88463">
        <ele>863.59997558594</ele>
        <time>2012-11-18T09:21:52Z</time>
      </trkpt>
      <trkpt lat="45.50666" lon="5.88462">
        <ele>862.59997558594</ele>
        <time>2012-11-18T09:21:56Z</time>
      </trkpt>
      <trkpt lat="45.5067" lon="5.88462">
        <ele>862</ele>
        <time>2012-11-18T09:21:57Z</time>
      </trkpt>
      <trkpt lat="45.50677" lon="5.8846">
        <ele>861</ele>
        <time>2012-11-18T09:22:00Z</time>
      </trkpt>
      <trkpt lat="45.50679" lon="5.88458">
        <ele>861</ele>
        <time>2012-11-18T09:22:01Z</time>
      </trkpt>
      <trkpt lat="45.50688" lon="5.88452">
        <ele>860.20001220703</ele>
        <time>2012-11-18T09:22:04Z</time>
      </trkpt>
      <trkpt lat="45.50698" lon="5.88449">
        <ele>859.40002441406</ele>
        <time>2012-11-18T09:22:07Z</time>
      </trkpt>
      <trkpt lat="45.50703" lon="5.88446">
        <ele>858.79998779297</ele>
        <time>2012-11-18T09:22:09Z</time>
      </trkpt>
      <trkpt lat="45.50709" lon="5.88445">
        <ele>858</ele>
        <time>2012-11-18T09:22:11Z</time>
      </trkpt>
      <trkpt lat="45.50719" lon="5.88442">
        <ele>857</ele>
        <time>2012-11-18T09:22:15Z</time>
      </trkpt>
      <trkpt lat="45.50728" lon="5.88442">
        <ele>855.79998779297</ele>
        <time>2012-11-18T09:22:17Z</time>
      </trkpt>
      <trkpt lat="45.5074" lon="5.88447">
        <ele>853.40002441406</ele>
        <time>2012-11-18T09:22:21Z</time>
      </trkpt>
      <trkpt lat="45.50743" lon="5.88447">
        <ele>853</ele>
        <time>2012-11-18T09:22:22Z</time>
      </trkpt>
      <trkpt lat="45.50751" lon="5.8845">
        <ele>851.20001220703</ele>
        <time>2012-11-18T09:22:25Z</time>
      </trkpt>
      <trkpt lat="45.50754" lon="5.88451">
        <ele>850.59997558594</ele>
        <time>2012-11-18T09:22:26Z</time>
      </trkpt>
      <trkpt lat="45.50759" lon="5.88451">
        <ele>849.40002441406</ele>
        <time>2012-11-18T09:22:30Z</time>
      </trkpt>
      <trkpt lat="45.50763" lon="5.88451">
        <ele>848.79998779297</ele>
        <time>2012-11-18T09:22:32Z</time>
      </trkpt>
      <trkpt lat="45.50778" lon="5.88452">
        <ele>845.79998779297</ele>
        <time>2012-11-18T09:22:37Z</time>
      </trkpt>
      <trkpt lat="45.5078" lon="5.88453">
        <ele>845.20001220703</ele>
        <time>2012-11-18T09:22:38Z</time>
      </trkpt>
      <trkpt lat="45.50784" lon="5.88461">
        <ele>843.40002441406</ele>
        <time>2012-11-18T09:22:41Z</time>
      </trkpt>
      <trkpt lat="45.50786" lon="5.88465">
        <ele>842.40002441406</ele>
        <time>2012-11-18T09:22:42Z</time>
      </trkpt>
      <trkpt lat="45.50785" lon="5.88471">
        <ele>842</ele>
        <time>2012-11-18T09:22:44Z</time>
      </trkpt>
      <trkpt lat="45.50783" lon="5.88473">
        <ele>842</ele>
        <time>2012-11-18T09:22:45Z</time>
      </trkpt>
      <trkpt lat="45.50783" lon="5.88484">
        <ele>840.59997558594</ele>
        <time>2012-11-18T09:22:49Z</time>
      </trkpt>
      <trkpt lat="45.50783" lon="5.88486">
        <ele>840.40002441406</ele>
        <time>2012-11-18T09:22:50Z</time>
      </trkpt>
      <trkpt lat="45.50784" lon="5.88493">
        <ele>839.40002441406</ele>
        <time>2012-11-18T09:22:52Z</time>
      </trkpt>
      <trkpt lat="45.50793" lon="5.88499">
        <ele>836.59997558594</ele>
        <time>2012-11-18T09:22:56Z</time>
      </trkpt>
      <trkpt lat="45.50817" lon="5.88503">
        <ele>832.20001220703</ele>
        <time>2012-11-18T09:23:05Z</time>
      </trkpt>
      <trkpt lat="45.50819" lon="5.88504">
        <ele>832</ele>
        <time>2012-11-18T09:23:06Z</time>
      </trkpt>
      <trkpt lat="45.50834" lon="5.8851">
        <ele>829.40002441406</ele>
        <time>2012-11-18T09:23:13Z</time>
      </trkpt>
      <trkpt lat="45.50836" lon="5.88512">
        <ele>829.40002441406</ele>
        <time>2012-11-18T09:23:14Z</time>
      </trkpt>
      <trkpt lat="45.50845" lon="5.88514">
        <ele>828.59997558594</ele>
        <time>2012-11-18T09:23:19Z</time>
      </trkpt>
      <trkpt lat="45.50846" lon="5.88514">
        <ele>828.40002441406</ele>
        <time>2012-11-18T09:23:20Z</time>
      </trkpt>
      <trkpt lat="45.50852" lon="5.88518">
        <ele>828</ele>
        <time>2012-11-18T09:23:22Z</time>
      </trkpt>
      <trkpt lat="45.50856" lon="5.88522">
        <ele>827.59997558594</ele>
        <time>2012-11-18T09:23:25Z</time>
      </trkpt>
      <trkpt lat="45.5086" lon="5.88527">
        <ele>827.20001220703</ele>
        <time>2012-11-18T09:23:28Z</time>
      </trkpt>
      <trkpt lat="45.50861" lon="5.88528">
        <ele>827.20001220703</ele>
        <time>2012-11-18T09:23:29Z</time>
      </trkpt>
      <trkpt lat="45.50868" lon="5.88535">
        <ele>826.59997558594</ele>
        <time>2012-11-18T09:23:33Z</time>
      </trkpt>
      <trkpt lat="45.50869" lon="5.88536">
        <ele>826.40002441406</ele>
        <time>2012-11-18T09:23:34Z</time>
      </trkpt>
      <trkpt lat="45.50876" lon="5.88543">
        <ele>825.40002441406</ele>
        <time>2012-11-18T09:23:37Z</time>
      </trkpt>
      <trkpt lat="45.50878" lon="5.88544">
        <ele>825.20001220703</ele>
        <time>2012-11-18T09:23:38Z</time>
      </trkpt>
      <trkpt lat="45.50889" lon="5.88555">
        <ele>823.59997558594</ele>
        <time>2012-11-18T09:23:43Z</time>
      </trkpt>
      <trkpt lat="45.50892" lon="5.88561">
        <ele>823</ele>
        <time>2012-11-18T09:23:45Z</time>
      </trkpt>
      <trkpt lat="45.50897" lon="5.88563">
        <ele>822.20001220703</ele>
        <time>2012-11-18T09:23:47Z</time>
      </trkpt>
      <trkpt lat="45.509" lon="5.88567">
        <ele>821.40002441406</ele>
        <time>2012-11-18T09:23:49Z</time>
      </trkpt>
      <trkpt lat="45.50905" lon="5.88566">
        <ele>820.79998779297</ele>
        <time>2012-11-18T09:23:52Z</time>
      </trkpt>
      <trkpt lat="45.50907" lon="5.88567">
        <ele>820.40002441406</ele>
        <time>2012-11-18T09:23:53Z</time>
      </trkpt>
      <trkpt lat="45.50913" lon="5.88574">
        <ele>819</ele>
        <time>2012-11-18T09:23:56Z</time>
      </trkpt>
      <trkpt lat="45.50918" lon="5.88578">
        <ele>817.79998779297</ele>
        <time>2012-11-18T09:23:58Z</time>
      </trkpt>
      <trkpt lat="45.50926" lon="5.88583">
        <ele>816.20001220703</ele>
        <time>2012-11-18T09:24:01Z</time>
      </trkpt>
      <trkpt lat="45.50935" lon="5.8859">
        <ele>814.79998779297</ele>
        <time>2012-11-18T09:24:04Z</time>
      </trkpt>
      <trkpt lat="45.50947" lon="5.88595">
        <ele>812.79998779297</ele>
        <time>2012-11-18T09:24:07Z</time>
      </trkpt>
      <trkpt lat="45.50951" lon="5.88596">
        <ele>812.20001220703</ele>
        <time>2012-11-18T09:24:08Z</time>
      </trkpt>
      <trkpt lat="45.50968" lon="5.88587">
        <ele>809.20001220703</ele>
        <time>2012-11-18T09:24:15Z</time>
      </trkpt>
      <trkpt lat="45.50974" lon="5.88589">
        <ele>808.20001220703</ele>
        <time>2012-11-18T09:24:17Z</time>
      </trkpt>
      <trkpt lat="45.50985" lon="5.88592">
        <ele>806.40002441406</ele>
        <time>2012-11-18T09:24:20Z</time>
      </trkpt>
      <trkpt lat="45.50989" lon="5.88593">
        <ele>805.79998779297</ele>
        <time>2012-11-18T09:24:21Z</time>
      </trkpt>
      <trkpt lat="45.50997" lon="5.88597">
        <ele>804.20001220703</ele>
        <time>2012-11-18T09:24:24Z</time>
      </trkpt>
      <trkpt lat="45.51" lon="5.88598">
        <ele>803.79998779297</ele>
        <time>2012-11-18T09:24:25Z</time>
      </trkpt>
      <trkpt lat="45.51007" lon="5.88604">
        <ele>802.79998779297</ele>
        <time>2012-11-18T09:24:29Z</time>
      </trkpt>
      <trkpt lat="45.51011" lon="5.88609">
        <ele>802.40002441406</ele>
        <time>2012-11-18T09:24:31Z</time>
      </trkpt>
      <trkpt lat="45.5103" lon="5.8862">
        <ele>799.59997558594</ele>
        <time>2012-11-18T09:24:37Z</time>
      </trkpt>
      <trkpt lat="45.51031" lon="5.88621">
        <ele>799.40002441406</ele>
        <time>2012-11-18T09:24:38Z</time>
      </trkpt>
      <trkpt lat="45.51048" lon="5.88626">
        <ele>797</ele>
        <time>2012-11-18T09:24:42Z</time>
      </trkpt>
      <trkpt lat="45.51051" lon="5.88628">
        <ele>796.59997558594</ele>
        <time>2012-11-18T09:24:43Z</time>
      </trkpt>
      <trkpt lat="45.51071" lon="5.88639">
        <ele>792.59997558594</ele>
        <time>2012-11-18T09:24:49Z</time>
      </trkpt>
      <trkpt lat="45.51073" lon="5.8864">
        <ele>792.20001220703</ele>
        <time>2012-11-18T09:24:50Z</time>
      </trkpt>
      <trkpt lat="45.51081" lon="5.88644">
        <ele>790.79998779297</ele>
        <time>2012-11-18T09:24:53Z</time>
      </trkpt>
      <trkpt lat="45.51087" lon="5.88647">
        <ele>789.59997558594</ele>
        <time>2012-11-18T09:24:55Z</time>
      </trkpt>
      <trkpt lat="45.51095" lon="5.8865">
        <ele>788.40002441406</ele>
        <time>2012-11-18T09:24:57Z</time>
      </trkpt>
      <trkpt lat="45.51103" lon="5.88658">
        <ele>786.79998779297</ele>
        <time>2012-11-18T09:25:00Z</time>
      </trkpt>
      <trkpt lat="45.51112" lon="5.88667">
        <ele>784.40002441406</ele>
        <time>2012-11-18T09:25:03Z</time>
      </trkpt>
      <trkpt lat="45.51116" lon="5.88672">
        <ele>784</ele>
        <time>2012-11-18T09:25:05Z</time>
      </trkpt>
      <trkpt lat="45.51125" lon="5.88685">
        <ele>782.40002441406</ele>
        <time>2012-11-18T09:25:10Z</time>
      </trkpt>
      <trkpt lat="45.51135" lon="5.88694">
        <ele>780.79998779297</ele>
        <time>2012-11-18T09:25:13Z</time>
      </trkpt>
      <trkpt lat="45.51142" lon="5.88728">
        <ele>778.20001220703</ele>
        <time>2012-11-18T09:25:21Z</time>
      </trkpt>
      <trkpt lat="45.51143" lon="5.88732">
        <ele>778</ele>
        <time>2012-11-18T09:25:22Z</time>
      </trkpt>
      <trkpt lat="45.51145" lon="5.88749">
        <ele>776.79998779297</ele>
        <time>2012-11-18T09:25:26Z</time>
      </trkpt>
      <trkpt lat="45.51151" lon="5.8876">
        <ele>775.20001220703</ele>
        <time>2012-11-18T09:25:29Z</time>
      </trkpt>
      <trkpt lat="45.51156" lon="5.88772">
        <ele>773.59997558594</ele>
        <time>2012-11-18T09:25:32Z</time>
      </trkpt>
      <trkpt lat="45.51156" lon="5.88776">
        <ele>773.20001220703</ele>
        <time>2012-11-18T09:25:33Z</time>
      </trkpt>
      <trkpt lat="45.51159" lon="5.888">
        <ele>771.40002441406</ele>
        <time>2012-11-18T09:25:38Z</time>
      </trkpt>
      <trkpt lat="45.5116" lon="5.88808">
        <ele>770.79998779297</ele>
        <time>2012-11-18T09:25:41Z</time>
      </trkpt>
      <trkpt lat="45.51161" lon="5.88823">
        <ele>769.59997558594</ele>
        <time>2012-11-18T09:25:45Z</time>
      </trkpt>
      <trkpt lat="45.5116" lon="5.88829">
        <ele>769.59997558594</ele>
        <time>2012-11-18T09:25:46Z</time>
      </trkpt>
      <trkpt lat="45.51161" lon="5.88838">
        <ele>769.40002441406</ele>
        <time>2012-11-18T09:25:49Z</time>
      </trkpt>
      <trkpt lat="45.51165" lon="5.88844">
        <ele>769</ele>
        <time>2012-11-18T09:25:52Z</time>
      </trkpt>
      <trkpt lat="45.51168" lon="5.88846">
        <ele>768.79998779297</ele>
        <time>2012-11-18T09:25:54Z</time>
      </trkpt>
      <trkpt lat="45.51175" lon="5.88848">
        <ele>767.59997558594</ele>
        <time>2012-11-18T09:25:57Z</time>
      </trkpt>
      <trkpt lat="45.51189" lon="5.88852">
        <ele>765.20001220703</ele>
        <time>2012-11-18T09:26:02Z</time>
      </trkpt>
      <trkpt lat="45.51189" lon="5.88852">
        <ele>765.20001220703</ele>
        <time>2012-11-18T09:26:03Z</time>
      </trkpt>
      <trkpt lat="45.51199" lon="5.88858">
        <ele>763.79998779297</ele>
        <time>2012-11-18T09:26:06Z</time>
      </trkpt>
      <trkpt lat="45.51203" lon="5.88866">
        <ele>763.20001220703</ele>
        <time>2012-11-18T09:26:08Z</time>
      </trkpt>
      <trkpt lat="45.51205" lon="5.88872">
        <ele>763</ele>
        <time>2012-11-18T09:26:10Z</time>
      </trkpt>
      <trkpt lat="45.51209" lon="5.88878">
        <ele>762.40002441406</ele>
        <time>2012-11-18T09:26:12Z</time>
      </trkpt>
      <trkpt lat="45.51216" lon="5.88887">
        <ele>761.20001220703</ele>
        <time>2012-11-18T09:26:16Z</time>
      </trkpt>
      <trkpt lat="45.51225" lon="5.88898">
        <ele>759.40002441406</ele>
        <time>2012-11-18T09:26:21Z</time>
      </trkpt>
      <trkpt lat="45.51236" lon="5.88915">
        <ele>756.59997558594</ele>
        <time>2012-11-18T09:26:26Z</time>
      </trkpt>
      <trkpt lat="45.51243" lon="5.88921">
        <ele>755.59997558594</ele>
        <time>2012-11-18T09:26:28Z</time>
      </trkpt>
      <trkpt lat="45.51254" lon="5.8893">
        <ele>754.59997558594</ele>
        <time>2012-11-18T09:26:32Z</time>
      </trkpt>
      <trkpt lat="45.51258" lon="5.88931">
        <ele>754</ele>
        <time>2012-11-18T09:26:33Z</time>
      </trkpt>
      <trkpt lat="45.51262" lon="5.88932">
        <ele>753.40002441406</ele>
        <time>2012-11-18T09:26:35Z</time>
      </trkpt>
      <trkpt lat="45.51267" lon="5.88934">
        <ele>752.79998779297</ele>
        <time>2012-11-18T09:26:37Z</time>
      </trkpt>
      <trkpt lat="45.51279" lon="5.88937">
        <ele>750.79998779297</ele>
        <time>2012-11-18T09:26:41Z</time>
      </trkpt>
      <trkpt lat="45.51281" lon="5.88939">
        <ele>750.59997558594</ele>
        <time>2012-11-18T09:26:42Z</time>
      </trkpt>
      <trkpt lat="45.51301" lon="5.88954">
        <ele>748</ele>
        <time>2012-11-18T09:26:49Z</time>
      </trkpt>
      <trkpt lat="45.51304" lon="5.88956">
        <ele>747.59997558594</ele>
        <time>2012-11-18T09:26:50Z</time>
      </trkpt>
      <trkpt lat="45.51316" lon="5.88963">
        <ele>745.20001220703</ele>
        <time>2012-11-18T09:26:54Z</time>
      </trkpt>
      <trkpt lat="45.51325" lon="5.88967">
        <ele>743.40002441406</ele>
        <time>2012-11-18T09:26:58Z</time>
      </trkpt>
      <trkpt lat="45.51331" lon="5.88971">
        <ele>742</ele>
        <time>2012-11-18T09:27:01Z</time>
      </trkpt>
      <trkpt lat="45.51334" lon="5.88973">
        <ele>741.40002441406</ele>
        <time>2012-11-18T09:27:02Z</time>
      </trkpt>
      <trkpt lat="45.51341" lon="5.88976">
        <ele>740.20001220703</ele>
        <time>2012-11-18T09:27:05Z</time>
      </trkpt>
      <trkpt lat="45.51344" lon="5.88977">
        <ele>739.79998779297</ele>
        <time>2012-11-18T09:27:06Z</time>
      </trkpt>
      <trkpt lat="45.51361" lon="5.88984">
        <ele>737</ele>
        <time>2012-11-18T09:27:11Z</time>
      </trkpt>
      <trkpt lat="45.51368" lon="5.88989">
        <ele>735.79998779297</ele>
        <time>2012-11-18T09:27:13Z</time>
      </trkpt>
      <trkpt lat="45.51375" lon="5.88991">
        <ele>734.59997558594</ele>
        <time>2012-11-18T09:27:17Z</time>
      </trkpt>
      <trkpt lat="45.51384" lon="5.88993">
        <ele>733</ele>
        <time>2012-11-18T09:27:20Z</time>
      </trkpt>
      <trkpt lat="45.51395" lon="5.88998">
        <ele>731</ele>
        <time>2012-11-18T09:27:24Z</time>
      </trkpt>
      <trkpt lat="45.51398" lon="5.88999">
        <ele>730.40002441406</ele>
        <time>2012-11-18T09:27:25Z</time>
      </trkpt>
      <trkpt lat="45.5141" lon="5.89005">
        <ele>729.20001220703</ele>
        <time>2012-11-18T09:27:29Z</time>
      </trkpt>
      <trkpt lat="45.51421" lon="5.89014">
        <ele>729</ele>
        <time>2012-11-18T09:27:33Z</time>
      </trkpt>
      <trkpt lat="45.51429" lon="5.89017">
        <ele>728</ele>
        <time>2012-11-18T09:27:37Z</time>
      </trkpt>
      <trkpt lat="45.51433" lon="5.89018">
        <ele>727.40002441406</ele>
        <time>2012-11-18T09:27:39Z</time>
      </trkpt>
      <trkpt lat="45.51449" lon="5.89023">
        <ele>725.40002441406</ele>
        <time>2012-11-18T09:27:44Z</time>
      </trkpt>
      <trkpt lat="45.51451" lon="5.89026">
        <ele>725.40002441406</ele>
        <time>2012-11-18T09:27:45Z</time>
      </trkpt>
      <trkpt lat="45.51462" lon="5.89034">
        <ele>724.59997558594</ele>
        <time>2012-11-18T09:27:49Z</time>
      </trkpt>
      <trkpt lat="45.51467" lon="5.89038">
        <ele>724</ele>
        <time>2012-11-18T09:27:51Z</time>
      </trkpt>
      <trkpt lat="45.51482" lon="5.89046">
        <ele>722.20001220703</ele>
        <time>2012-11-18T09:27:56Z</time>
      </trkpt>
      <trkpt lat="45.51491" lon="5.89051">
        <ele>721.20001220703</ele>
        <time>2012-11-18T09:27:59Z</time>
      </trkpt>
      <trkpt lat="45.51496" lon="5.89051">
        <ele>720</ele>
        <time>2012-11-18T09:28:01Z</time>
      </trkpt>
      <trkpt lat="45.51505" lon="5.89058">
        <ele>719.59997558594</ele>
        <time>2012-11-18T09:28:05Z</time>
      </trkpt>
      <trkpt lat="45.51521" lon="5.89077">
        <ele>720.20001220703</ele>
        <time>2012-11-18T09:28:13Z</time>
      </trkpt>
      <trkpt lat="45.5153" lon="5.89085">
        <ele>720.40002441406</ele>
        <time>2012-11-18T09:28:17Z</time>
      </trkpt>
      <trkpt lat="45.51541" lon="5.89092">
        <ele>720.59997558594</ele>
        <time>2012-11-18T09:28:23Z</time>
      </trkpt>
      <trkpt lat="45.51543" lon="5.89093">
        <ele>720.59997558594</ele>
        <time>2012-11-18T09:28:24Z</time>
      </trkpt>
      <trkpt lat="45.51556" lon="5.89101">
        <ele>720.79998779297</ele>
        <time>2012-11-18T09:28:29Z</time>
      </trkpt>
      <trkpt lat="45.51566" lon="5.89107">
        <ele>720.59997558594</ele>
        <time>2012-11-18T09:28:33Z</time>
      </trkpt>
      <trkpt lat="45.51577" lon="5.89114">
        <ele>720.79998779297</ele>
        <time>2012-11-18T09:28:38Z</time>
      </trkpt>
      <trkpt lat="45.51583" lon="5.89118">
        <ele>721</ele>
        <time>2012-11-18T09:28:41Z</time>
      </trkpt>
      <trkpt lat="45.51583" lon="5.89118">
        <ele>720.79998779297</ele>
        <time>2012-11-18T09:28:48Z</time>
      </trkpt>
      <trkpt lat="45.5159" lon="5.89121">
        <ele>721</ele>
        <time>2012-11-18T09:28:50Z</time>
      </trkpt>
      <trkpt lat="45.51602" lon="5.89114">
        <ele>718.59997558594</ele>
        <time>2012-11-18T09:28:55Z</time>
      </trkpt>
      <trkpt lat="45.51606" lon="5.89111">
        <ele>717.59997558594</ele>
        <time>2012-11-18T09:28:57Z</time>
      </trkpt>
      <trkpt lat="45.51615" lon="5.89107">
        <ele>716.20001220703</ele>
        <time>2012-11-18T09:29:00Z</time>
      </trkpt>
      <trkpt lat="45.51618" lon="5.89106">
        <ele>715.79998779297</ele>
        <time>2012-11-18T09:29:01Z</time>
      </trkpt>
      <trkpt lat="45.51627" lon="5.8911">
        <ele>716.20001220703</ele>
        <time>2012-11-18T09:29:04Z</time>
      </trkpt>
      <trkpt lat="45.5163" lon="5.89111">
        <ele>716.20001220703</ele>
        <time>2012-11-18T09:29:05Z</time>
      </trkpt>
      <trkpt lat="45.51639" lon="5.89113">
        <ele>716.20001220703</ele>
        <time>2012-11-18T09:29:08Z</time>
      </trkpt>
      <trkpt lat="45.51645" lon="5.89114">
        <ele>716</ele>
        <time>2012-11-18T09:29:10Z</time>
      </trkpt>
      <trkpt lat="45.51649" lon="5.89115">
        <ele>716</ele>
        <time>2012-11-18T09:29:12Z</time>
      </trkpt>
      <trkpt lat="45.51652" lon="5.89117">
        <ele>716.20001220703</ele>
        <time>2012-11-18T09:29:13Z</time>
      </trkpt>
      <trkpt lat="45.51666" lon="5.89127">
        <ele>718</ele>
        <time>2012-11-18T09:29:18Z</time>
      </trkpt>
      <trkpt lat="45.5167" lon="5.89128">
        <ele>717.40002441406</ele>
        <time>2012-11-18T09:29:20Z</time>
      </trkpt>
      <trkpt lat="45.5169" lon="5.89138">
        <ele>716.40002441406</ele>
        <time>2012-11-18T09:29:26Z</time>
      </trkpt>
      <trkpt lat="45.51693" lon="5.89138">
        <ele>716</ele>
        <time>2012-11-18T09:29:27Z</time>
      </trkpt>
      <trkpt lat="45.51707" lon="5.89149">
        <ele>715.79998779297</ele>
        <time>2012-11-18T09:29:32Z</time>
      </trkpt>
      <trkpt lat="45.51715" lon="5.89159">
        <ele>716.20001220703</ele>
        <time>2012-11-18T09:29:36Z</time>
      </trkpt>
      <trkpt lat="45.51719" lon="5.89162">
        <ele>716.20001220703</ele>
        <time>2012-11-18T09:29:38Z</time>
      </trkpt>
      <trkpt lat="45.51724" lon="5.89167">
        <ele>716.40002441406</ele>
        <time>2012-11-18T09:29:40Z</time>
      </trkpt>
      <trkpt lat="45.51737" lon="5.89187">
        <ele>719</ele>
        <time>2012-11-18T09:29:46Z</time>
      </trkpt>
      <trkpt lat="45.51737" lon="5.89194">
        <ele>721</ele>
        <time>2012-11-18T09:29:48Z</time>
      </trkpt>
      <trkpt lat="45.51754" lon="5.89212">
        <ele>722.20001220703</ele>
        <time>2012-11-18T09:29:56Z</time>
      </trkpt>
      <trkpt lat="45.51758" lon="5.89217">
        <ele>722.79998779297</ele>
        <time>2012-11-18T09:29:59Z</time>
      </trkpt>
      <trkpt lat="45.51762" lon="5.89222">
        <ele>723.40002441406</ele>
        <time>2012-11-18T09:30:01Z</time>
      </trkpt>
      <trkpt lat="45.51765" lon="5.89224">
        <ele>723.40002441406</ele>
        <time>2012-11-18T09:30:03Z</time>
      </trkpt>
      <trkpt lat="45.51776" lon="5.89224">
        <ele>721.40002441406</ele>
        <time>2012-11-18T09:30:07Z</time>
      </trkpt>
      <trkpt lat="45.51786" lon="5.89223">
        <ele>719.59997558594</ele>
        <time>2012-11-18T09:30:10Z</time>
      </trkpt>
      <trkpt lat="45.518" lon="5.8922">
        <ele>716.40002441406</ele>
        <time>2012-11-18T09:30:15Z</time>
      </trkpt>
      <trkpt lat="45.51803" lon="5.8922">
        <ele>716</ele>
        <time>2012-11-18T09:30:17Z</time>
      </trkpt>
      <trkpt lat="45.51811" lon="5.89232">
        <ele>716.79998779297</ele>
        <time>2012-11-18T09:30:22Z</time>
      </trkpt>
      <trkpt lat="45.51817" lon="5.89238">
        <ele>717</ele>
        <time>2012-11-18T09:30:25Z</time>
      </trkpt>
      <trkpt lat="45.51834" lon="5.89259">
        <ele>717.40002441406</ele>
        <time>2012-11-18T09:30:33Z</time>
      </trkpt>
      <trkpt lat="45.51836" lon="5.89262">
        <ele>717.59997558594</ele>
        <time>2012-11-18T09:30:34Z</time>
      </trkpt>
      <trkpt lat="45.51846" lon="5.89278">
        <ele>718</ele>
        <time>2012-11-18T09:30:39Z</time>
      </trkpt>
      <trkpt lat="45.51846" lon="5.89284">
        <ele>718.79998779297</ele>
        <time>2012-11-18T09:30:41Z</time>
      </trkpt>
      <trkpt lat="45.51848" lon="5.89293">
        <ele>719.79998779297</ele>
        <time>2012-11-18T09:30:44Z</time>
      </trkpt>
      <trkpt lat="45.51854" lon="5.89301">
        <ele>719.59997558594</ele>
        <time>2012-11-18T09:30:47Z</time>
      </trkpt>
      <trkpt lat="45.5186" lon="5.89306">
        <ele>718.79998779297</ele>
        <time>2012-11-18T09:30:49Z</time>
      </trkpt>
      <trkpt lat="45.51867" lon="5.89311">
        <ele>717.40002441406</ele>
        <time>2012-11-18T09:30:51Z</time>
      </trkpt>
      <trkpt lat="45.51885" lon="5.89335">
        <ele>714.79998779297</ele>
        <time>2012-11-18T09:30:59Z</time>
      </trkpt>
      <trkpt lat="45.51888" lon="5.8934">
        <ele>715.20001220703</ele>
        <time>2012-11-18T09:31:01Z</time>
      </trkpt>
      <trkpt lat="45.51896" lon="5.89351">
        <ele>715.20001220703</ele>
        <time>2012-11-18T09:31:05Z</time>
      </trkpt>
      <trkpt lat="45.51898" lon="5.89353">
        <ele>714.79998779297</ele>
        <time>2012-11-18T09:31:06Z</time>
      </trkpt>
      <trkpt lat="45.51905" lon="5.89359">
        <ele>714.20001220703</ele>
        <time>2012-11-18T09:31:09Z</time>
      </trkpt>
      <trkpt lat="45.51914" lon="5.89364">
        <ele>712.40002441406</ele>
        <time>2012-11-18T09:31:12Z</time>
      </trkpt>
      <trkpt lat="45.51927" lon="5.89375">
        <ele>713.59997558594</ele>
        <time>2012-11-18T09:31:18Z</time>
      </trkpt>
      <trkpt lat="45.51928" lon="5.89376">
        <ele>713.79998779297</ele>
        <time>2012-11-18T09:31:19Z</time>
      </trkpt>
      <trkpt lat="45.51944" lon="5.89383">
        <ele>714</ele>
        <time>2012-11-18T09:31:25Z</time>
      </trkpt>
      <trkpt lat="45.51953" lon="5.89388">
        <ele>714.20001220703</ele>
        <time>2012-11-18T09:31:29Z</time>
      </trkpt>
      <trkpt lat="45.5196" lon="5.8939">
        <ele>714</ele>
        <time>2012-11-18T09:31:32Z</time>
      </trkpt>
      <trkpt lat="45.51964" lon="5.89393">
        <ele>714.20001220703</ele>
        <time>2012-11-18T09:31:34Z</time>
      </trkpt>
      <trkpt lat="45.5197" lon="5.89396">
        <ele>714.20001220703</ele>
        <time>2012-11-18T09:31:37Z</time>
      </trkpt>
      <trkpt lat="45.51975" lon="5.89399">
        <ele>714.40002441406</ele>
        <time>2012-11-18T09:31:39Z</time>
      </trkpt>
      <trkpt lat="45.51981" lon="5.89402">
        <ele>714.40002441406</ele>
        <time>2012-11-18T09:31:41Z</time>
      </trkpt>
      <trkpt lat="45.51985" lon="5.89404">
        <ele>714.20001220703</ele>
        <time>2012-11-18T09:31:43Z</time>
      </trkpt>
      <trkpt lat="45.51995" lon="5.8941">
        <ele>714.20001220703</ele>
        <time>2012-11-18T09:31:48Z</time>
      </trkpt>
      <trkpt lat="45.51997" lon="5.89411">
        <ele>714.20001220703</ele>
        <time>2012-11-18T09:31:49Z</time>
      </trkpt>
      <trkpt lat="45.52004" lon="5.89416">
        <ele>714.20001220703</ele>
        <time>2012-11-18T09:31:53Z</time>
      </trkpt>
      <trkpt lat="45.52006" lon="5.89417">
        <ele>714.20001220703</ele>
        <time>2012-11-18T09:31:54Z</time>
      </trkpt>
      <trkpt lat="45.52013" lon="5.89422">
        <ele>714</ele>
        <time>2012-11-18T09:31:59Z</time>
      </trkpt>
      <trkpt lat="45.52016" lon="5.89422">
        <ele>713.79998779297</ele>
        <time>2012-11-18T09:32:00Z</time>
      </trkpt>
      <trkpt lat="45.52021" lon="5.89425">
        <ele>713.59997558594</ele>
        <time>2012-11-18T09:32:03Z</time>
      </trkpt>
      <trkpt lat="45.52029" lon="5.89428">
        <ele>713</ele>
        <time>2012-11-18T09:32:07Z</time>
      </trkpt>
      <trkpt lat="45.52035" lon="5.89431">
        <ele>712.59997558594</ele>
        <time>2012-11-18T09:32:11Z</time>
      </trkpt>
      <trkpt lat="45.52037" lon="5.89432">
        <ele>712.59997558594</ele>
        <time>2012-11-18T09:32:12Z</time>
      </trkpt>
      <trkpt lat="45.52044" lon="5.89435">
        <ele>712.20001220703</ele>
        <time>2012-11-18T09:32:15Z</time>
      </trkpt>
      <trkpt lat="45.52052" lon="5.89441">
        <ele>711.79998779297</ele>
        <time>2012-11-18T09:32:19Z</time>
      </trkpt>
      <trkpt lat="45.52072" lon="5.89464">
        <ele>711.79998779297</ele>
        <time>2012-11-18T09:32:27Z</time>
      </trkpt>
      <trkpt lat="45.52083" lon="5.89478">
        <ele>711.20001220703</ele>
        <time>2012-11-18T09:32:31Z</time>
      </trkpt>
      <trkpt lat="45.52091" lon="5.89489">
        <ele>711.40002441406</ele>
        <time>2012-11-18T09:32:35Z</time>
      </trkpt>
      <trkpt lat="45.52098" lon="5.895">
        <ele>712</ele>
        <time>2012-11-18T09:32:39Z</time>
      </trkpt>
      <trkpt lat="45.52107" lon="5.89511">
        <ele>710.79998779297</ele>
        <time>2012-11-18T09:32:43Z</time>
      </trkpt>
      <trkpt lat="45.52113" lon="5.89517">
        <ele>710.20001220703</ele>
        <time>2012-11-18T09:32:47Z</time>
      </trkpt>
      <trkpt lat="45.52122" lon="5.8953">
        <ele>709.40002441406</ele>
        <time>2012-11-18T09:32:51Z</time>
      </trkpt>
      <trkpt lat="45.52126" lon="5.89535">
        <ele>709.20001220703</ele>
        <time>2012-11-18T09:32:53Z</time>
      </trkpt>
      <trkpt lat="45.52131" lon="5.8954">
        <ele>708.79998779297</ele>
        <time>2012-11-18T09:32:55Z</time>
      </trkpt>
      <trkpt lat="45.52133" lon="5.89544">
        <ele>708.59997558594</ele>
        <time>2012-11-18T09:32:56Z</time>
      </trkpt>
      <trkpt lat="45.52138" lon="5.89554">
        <ele>708.59997558594</ele>
        <time>2012-11-18T09:32:59Z</time>
      </trkpt>
      <trkpt lat="45.52138" lon="5.89557">
        <ele>708.79998779297</ele>
        <time>2012-11-18T09:33:00Z</time>
      </trkpt>
      <trkpt lat="45.52135" lon="5.89575">
        <ele>709.59997558594</ele>
        <time>2012-11-18T09:33:04Z</time>
      </trkpt>
      <trkpt lat="45.52133" lon="5.89578">
        <ele>709.79998779297</ele>
        <time>2012-11-18T09:33:05Z</time>
      </trkpt>
      <trkpt lat="45.52125" lon="5.89593">
        <ele>710</ele>
        <time>2012-11-18T09:33:10Z</time>
      </trkpt>
      <trkpt lat="45.5212" lon="5.89609">
        <ele>709.79998779297</ele>
        <time>2012-11-18T09:33:14Z</time>
      </trkpt>
      <trkpt lat="45.52114" lon="5.89623">
        <ele>709.59997558594</ele>
        <time>2012-11-18T09:33:18Z</time>
      </trkpt>
      <trkpt lat="45.52114" lon="5.89627">
        <ele>709.40002441406</ele>
        <time>2012-11-18T09:33:19Z</time>
      </trkpt>
      <trkpt lat="45.52109" lon="5.89661">
        <ele>708.20001220703</ele>
        <time>2012-11-18T09:33:27Z</time>
      </trkpt>
      <trkpt lat="45.52111" lon="5.89674">
        <ele>708.79998779297</ele>
        <time>2012-11-18T09:33:31Z</time>
      </trkpt>
      <trkpt lat="45.5212" lon="5.89673">
        <ele>708.40002441406</ele>
        <time>2012-11-18T09:33:36Z</time>
      </trkpt>
      <trkpt lat="45.52129" lon="5.89674">
        <ele>708.20001220703</ele>
        <time>2012-11-18T09:33:40Z</time>
      </trkpt>
      <trkpt lat="45.52136" lon="5.89674">
        <ele>708</ele>
        <time>2012-11-18T09:33:44Z</time>
      </trkpt>
      <trkpt lat="45.52143" lon="5.89672">
        <ele>707.40002441406</ele>
        <time>2012-11-18T09:33:49Z</time>
      </trkpt>
      <trkpt lat="45.52148" lon="5.8967">
        <ele>707</ele>
        <time>2012-11-18T09:33:52Z</time>
      </trkpt>
      <trkpt lat="45.52149" lon="5.8967">
        <ele>707</ele>
        <time>2012-11-18T09:33:53Z</time>
      </trkpt>
      <trkpt lat="45.52157" lon="5.89672">
        <ele>706.79998779297</ele>
        <time>2012-11-18T09:33:57Z</time>
      </trkpt>
      <trkpt lat="45.52166" lon="5.89675">
        <ele>707</ele>
        <time>2012-11-18T09:34:01Z</time>
      </trkpt>
      <trkpt lat="45.52175" lon="5.89683">
        <ele>707.40002441406</ele>
        <time>2012-11-18T09:34:06Z</time>
      </trkpt>
      <trkpt lat="45.52181" lon="5.89689">
        <ele>707.59997558594</ele>
        <time>2012-11-18T09:34:09Z</time>
      </trkpt>
      <trkpt lat="45.52192" lon="5.8971">
        <ele>709</ele>
        <time>2012-11-18T09:34:18Z</time>
      </trkpt>
      <trkpt lat="45.52193" lon="5.89713">
        <ele>709.20001220703</ele>
        <time>2012-11-18T09:34:19Z</time>
      </trkpt>
      <trkpt lat="45.52194" lon="5.8973">
        <ele>710.59997558594</ele>
        <time>2012-11-18T09:34:26Z</time>
      </trkpt>
      <trkpt lat="45.52197" lon="5.89743">
        <ele>711.59997558594</ele>
        <time>2012-11-18T09:34:31Z</time>
      </trkpt>
      <trkpt lat="45.52198" lon="5.89751">
        <ele>712.20001220703</ele>
        <time>2012-11-18T09:34:34Z</time>
      </trkpt>
      <trkpt lat="45.52199" lon="5.89752">
        <ele>712.20001220703</ele>
        <time>2012-11-18T09:34:35Z</time>
      </trkpt>
      <trkpt lat="45.52202" lon="5.89767">
        <ele>712.79998779297</ele>
        <time>2012-11-18T09:34:41Z</time>
      </trkpt>
      <trkpt lat="45.52205" lon="5.89776">
        <ele>713</ele>
        <time>2012-11-18T09:34:44Z</time>
      </trkpt>
      <trkpt lat="45.52208" lon="5.89791">
        <ele>713.79998779297</ele>
        <time>2012-11-18T09:34:49Z</time>
      </trkpt>
      <trkpt lat="45.52208" lon="5.89796">
        <ele>714</ele>
        <time>2012-11-18T09:34:51Z</time>
      </trkpt>
      <trkpt lat="45.5221" lon="5.89805">
        <ele>714.20001220703</ele>
        <time>2012-11-18T09:34:54Z</time>
      </trkpt>
      <trkpt lat="45.52211" lon="5.89809">
        <ele>714.40002441406</ele>
        <time>2012-11-18T09:34:56Z</time>
      </trkpt>
      <trkpt lat="45.52212" lon="5.89825">
        <ele>715</ele>
        <time>2012-11-18T09:35:02Z</time>
      </trkpt>
      <trkpt lat="45.52213" lon="5.89828">
        <ele>715.20001220703</ele>
        <time>2012-11-18T09:35:03Z</time>
      </trkpt>
      <trkpt lat="45.52214" lon="5.89859">
        <ele>716.59997558594</ele>
        <time>2012-11-18T09:35:11Z</time>
      </trkpt>
      <trkpt lat="45.52214" lon="5.89873">
        <ele>717.40002441406</ele>
        <time>2012-11-18T09:35:15Z</time>
      </trkpt>
      <trkpt lat="45.52218" lon="5.89898">
        <ele>718</ele>
        <time>2012-11-18T09:35:22Z</time>
      </trkpt>
      <trkpt lat="45.52219" lon="5.89915">
        <ele>718.79998779297</ele>
        <time>2012-11-18T09:35:27Z</time>
      </trkpt>
      <trkpt lat="45.52221" lon="5.89926">
        <ele>718.59997558594</ele>
        <time>2012-11-18T09:35:30Z</time>
      </trkpt>
      <trkpt lat="45.52221" lon="5.89932">
        <ele>718.59997558594</ele>
        <time>2012-11-18T09:35:32Z</time>
      </trkpt>
      <trkpt lat="45.52221" lon="5.89948">
        <ele>718.59997558594</ele>
        <time>2012-11-18T09:35:38Z</time>
      </trkpt>
      <trkpt lat="45.52221" lon="5.8996">
        <ele>718.59997558594</ele>
        <time>2012-11-18T09:35:42Z</time>
      </trkpt>
      <trkpt lat="45.52222" lon="5.89965">
        <ele>718.40002441406</ele>
        <time>2012-11-18T09:35:44Z</time>
      </trkpt>
      <trkpt lat="45.52224" lon="5.89976">
        <ele>718</ele>
        <time>2012-11-18T09:35:47Z</time>
      </trkpt>
      <trkpt lat="45.52224" lon="5.90007">
        <ele>717.79998779297</ele>
        <time>2012-11-18T09:35:56Z</time>
      </trkpt>
      <trkpt lat="45.52223" lon="5.90013">
        <ele>718</ele>
        <time>2012-11-18T09:35:58Z</time>
      </trkpt>
      <trkpt lat="45.52216" lon="5.90022">
        <ele>720</ele>
        <time>2012-11-18T09:36:05Z</time>
      </trkpt>
      <trkpt lat="45.52214" lon="5.9002">
        <ele>720.40002441406</ele>
        <time>2012-11-18T09:36:06Z</time>
      </trkpt>
      <trkpt lat="45.52211" lon="5.90013">
        <ele>721.59997558594</ele>
        <time>2012-11-18T09:36:11Z</time>
      </trkpt>
      <trkpt lat="45.5221" lon="5.90009">
        <ele>722</ele>
        <time>2012-11-18T09:36:13Z</time>
      </trkpt>
      <trkpt lat="45.5221" lon="5.90006">
        <ele>722.20001220703</ele>
        <time>2012-11-18T09:36:16Z</time>
      </trkpt>
      <trkpt lat="45.52209" lon="5.90002">
        <ele>722.79998779297</ele>
        <time>2012-11-18T09:36:20Z</time>
      </trkpt>
      <trkpt lat="45.52206" lon="5.89998">
        <ele>723.59997558594</ele>
        <time>2012-11-18T09:36:23Z</time>
      </trkpt>
      <trkpt lat="45.52204" lon="5.89996">
        <ele>724.20001220703</ele>
        <time>2012-11-18T09:36:26Z</time>
      </trkpt>
      <trkpt lat="45.522" lon="5.8999">
        <ele>725.20001220703</ele>
        <time>2012-11-18T09:36:31Z</time>
      </trkpt>
      <trkpt lat="45.52198" lon="5.89987">
        <ele>725.79998779297</ele>
        <time>2012-11-18T09:36:33Z</time>
      </trkpt>
      <trkpt lat="45.52194" lon="5.89983">
        <ele>726.79998779297</ele>
        <time>2012-11-18T09:36:37Z</time>
      </trkpt>
      <trkpt lat="45.52193" lon="5.89982">
        <ele>727.20001220703</ele>
        <time>2012-11-18T09:36:38Z</time>
      </trkpt>
      <trkpt lat="45.52189" lon="5.89981">
        <ele>728.20001220703</ele>
        <time>2012-11-18T09:36:42Z</time>
      </trkpt>
      <trkpt lat="45.52187" lon="5.89979">
        <ele>728.79998779297</ele>
        <time>2012-11-18T09:36:45Z</time>
      </trkpt>
      <trkpt lat="45.52182" lon="5.89977">
        <ele>730</ele>
        <time>2012-11-18T09:36:49Z</time>
      </trkpt>
      <trkpt lat="45.52181" lon="5.89976">
        <ele>730.20001220703</ele>
        <time>2012-11-18T09:36:50Z</time>
      </trkpt>
      <trkpt lat="45.52181" lon="5.89977">
        <ele>730.20001220703</ele>
        <time>2012-11-18T09:37:01Z</time>
      </trkpt>
      <trkpt lat="45.52174" lon="5.89971">
        <ele>732.20001220703</ele>
        <time>2012-11-18T09:37:12Z</time>
      </trkpt>
      <trkpt lat="45.52167" lon="5.89968">
        <ele>733.79998779297</ele>
        <time>2012-11-18T09:37:18Z</time>
      </trkpt>
      <trkpt lat="45.52163" lon="5.89966">
        <ele>734.59997558594</ele>
        <time>2012-11-18T09:37:22Z</time>
      </trkpt>
      <trkpt lat="45.5216" lon="5.89964">
        <ele>735</ele>
        <time>2012-11-18T09:37:25Z</time>
      </trkpt>
      <trkpt lat="45.5216" lon="5.89964">
        <ele>735</ele>
        <time>2012-11-18T09:37:26Z</time>
      </trkpt>
      <trkpt lat="45.52154" lon="5.89961">
        <ele>736</ele>
        <time>2012-11-18T09:37:32Z</time>
      </trkpt>
      <trkpt lat="45.52151" lon="5.8996">
        <ele>736.20001220703</ele>
        <time>2012-11-18T09:37:35Z</time>
      </trkpt>
      <trkpt lat="45.52145" lon="5.89958">
        <ele>737.20001220703</ele>
        <time>2012-11-18T09:37:41Z</time>
      </trkpt>
      <trkpt lat="45.52143" lon="5.89958">
        <ele>737.59997558594</ele>
        <time>2012-11-18T09:37:43Z</time>
      </trkpt>
      <trkpt lat="45.52139" lon="5.89957">
        <ele>738.20001220703</ele>
        <time>2012-11-18T09:37:47Z</time>
      </trkpt>
      <trkpt lat="45.52138" lon="5.89957">
        <ele>738.40002441406</ele>
        <time>2012-11-18T09:37:48Z</time>
      </trkpt>
      <trkpt lat="45.52131" lon="5.89957">
        <ele>739.59997558594</ele>
        <time>2012-11-18T09:37:56Z</time>
      </trkpt>
      <trkpt lat="45.52128" lon="5.89957">
        <ele>740.20001220703</ele>
        <time>2012-11-18T09:37:59Z</time>
      </trkpt>
      <trkpt lat="45.52126" lon="5.89955">
        <ele>740.40002441406</ele>
        <time>2012-11-18T09:38:01Z</time>
      </trkpt>
      <trkpt lat="45.52123" lon="5.89954">
        <ele>740.79998779297</ele>
        <time>2012-11-18T09:38:04Z</time>
      </trkpt>
      <trkpt lat="45.52118" lon="5.89954">
        <ele>741.79998779297</ele>
        <time>2012-11-18T09:38:09Z</time>
      </trkpt>
      <trkpt lat="45.52114" lon="5.89955">
        <ele>742.40002441406</ele>
        <time>2012-11-18T09:38:13Z</time>
      </trkpt>
      <trkpt lat="45.52112" lon="5.89954">
        <ele>742.79998779297</ele>
        <time>2012-11-18T09:38:16Z</time>
      </trkpt>
      <trkpt lat="45.52108" lon="5.89953">
        <ele>743.20001220703</ele>
        <time>2012-11-18T09:38:20Z</time>
      </trkpt>
      <trkpt lat="45.52105" lon="5.89952">
        <ele>743.59997558594</ele>
        <time>2012-11-18T09:38:25Z</time>
      </trkpt>
      <trkpt lat="45.52104" lon="5.89951">
        <ele>743.79998779297</ele>
        <time>2012-11-18T09:38:26Z</time>
      </trkpt>
      <trkpt lat="45.52097" lon="5.8995">
        <ele>744.79998779297</ele>
        <time>2012-11-18T09:38:33Z</time>
      </trkpt>
      <trkpt lat="45.52094" lon="5.8995">
        <ele>745.40002441406</ele>
        <time>2012-11-18T09:38:37Z</time>
      </trkpt>
      <trkpt lat="45.52091" lon="5.89951">
        <ele>746</ele>
        <time>2012-11-18T09:38:39Z</time>
      </trkpt>
      <trkpt lat="45.52088" lon="5.89951">
        <ele>746.40002441406</ele>
        <time>2012-11-18T09:38:41Z</time>
      </trkpt>
      <trkpt lat="45.52082" lon="5.89952">
        <ele>747.59997558594</ele>
        <time>2012-11-18T09:38:45Z</time>
      </trkpt>
      <trkpt lat="45.52079" lon="5.89952">
        <ele>748.20001220703</ele>
        <time>2012-11-18T09:38:47Z</time>
      </trkpt>
      <trkpt lat="45.52076" lon="5.89953">
        <ele>748.79998779297</ele>
        <time>2012-11-18T09:38:50Z</time>
      </trkpt>
      <trkpt lat="45.52071" lon="5.89952">
        <ele>749.59997558594</ele>
        <time>2012-11-18T09:38:53Z</time>
      </trkpt>
      <trkpt lat="45.52064" lon="5.89953">
        <ele>750.79998779297</ele>
        <time>2012-11-18T09:38:59Z</time>
      </trkpt>
      <trkpt lat="45.52059" lon="5.89955">
        <ele>752</ele>
        <time>2012-11-18T09:39:03Z</time>
      </trkpt>
      <trkpt lat="45.52057" lon="5.89955">
        <ele>752.59997558594</ele>
        <time>2012-11-18T09:39:06Z</time>
      </trkpt>
      <trkpt lat="45.52054" lon="5.89956">
        <ele>753</ele>
        <time>2012-11-18T09:39:08Z</time>
      </trkpt>
      <trkpt lat="45.52047" lon="5.89957">
        <ele>754.40002441406</ele>
        <time>2012-11-18T09:39:16Z</time>
      </trkpt>
      <trkpt lat="45.52043" lon="5.89957">
        <ele>755.20001220703</ele>
        <time>2012-11-18T09:39:19Z</time>
      </trkpt>
      <trkpt lat="45.52037" lon="5.89955">
        <ele>756</ele>
        <time>2012-11-18T09:39:23Z</time>
      </trkpt>
      <trkpt lat="45.52036" lon="5.89955">
        <ele>756</ele>
        <time>2012-11-18T09:39:24Z</time>
      </trkpt>
      <trkpt lat="45.5202" lon="5.89948">
        <ele>757.40002441406</ele>
        <time>2012-11-18T09:39:32Z</time>
      </trkpt>
      <trkpt lat="45.52018" lon="5.89945">
        <ele>757.40002441406</ele>
        <time>2012-11-18T09:39:35Z</time>
      </trkpt>
      <trkpt lat="45.52008" lon="5.89943">
        <ele>758.59997558594</ele>
        <time>2012-11-18T09:39:40Z</time>
      </trkpt>
      <trkpt lat="45.52006" lon="5.89942">
        <ele>758.79998779297</ele>
        <time>2012-11-18T09:39:41Z</time>
      </trkpt>
      <trkpt lat="45.51996" lon="5.89937">
        <ele>759.59997558594</ele>
        <time>2012-11-18T09:39:46Z</time>
      </trkpt>
      <trkpt lat="45.51995" lon="5.89936">
        <ele>759.79998779297</ele>
        <time>2012-11-18T09:39:47Z</time>
      </trkpt>
      <trkpt lat="45.51988" lon="5.89934">
        <ele>760.79998779297</ele>
        <time>2012-11-18T09:39:50Z</time>
      </trkpt>
      <trkpt lat="45.5198" lon="5.89936">
        <ele>762.59997558594</ele>
        <time>2012-11-18T09:39:54Z</time>
      </trkpt>
      <trkpt lat="45.51969" lon="5.89935">
        <ele>764.79998779297</ele>
        <time>2012-11-18T09:39:59Z</time>
      </trkpt>
      <trkpt lat="45.51966" lon="5.89935">
        <ele>765.40002441406</ele>
        <time>2012-11-18T09:40:01Z</time>
      </trkpt>
      <trkpt lat="45.51949" lon="5.89928">
        <ele>767.40002441406</ele>
        <time>2012-11-18T09:40:10Z</time>
      </trkpt>
      <trkpt lat="45.51943" lon="5.89925">
        <ele>768.20001220703</ele>
        <time>2012-11-18T09:40:13Z</time>
      </trkpt>
      <trkpt lat="45.51939" lon="5.89925">
        <ele>768.79998779297</ele>
        <time>2012-11-18T09:40:15Z</time>
      </trkpt>
      <trkpt lat="45.51934" lon="5.89924">
        <ele>769.79998779297</ele>
        <time>2012-11-18T09:40:18Z</time>
      </trkpt>
      <trkpt lat="45.51921" lon="5.89922">
        <ele>772</ele>
        <time>2012-11-18T09:40:24Z</time>
      </trkpt>
      <trkpt lat="45.51917" lon="5.89922">
        <ele>772.79998779297</ele>
        <time>2012-11-18T09:40:26Z</time>
      </trkpt>
      <trkpt lat="45.51909" lon="5.89923">
        <ele>773.59997558594</ele>
        <time>2012-11-18T09:40:31Z</time>
      </trkpt>
      <trkpt lat="45.519" lon="5.89925">
        <ele>774.79998779297</ele>
        <time>2012-11-18T09:40:36Z</time>
      </trkpt>
      <trkpt lat="45.51888" lon="5.89923">
        <ele>775.40002441406</ele>
        <time>2012-11-18T09:40:41Z</time>
      </trkpt>
      <trkpt lat="45.51886" lon="5.89922">
        <ele>775.59997558594</ele>
        <time>2012-11-18T09:40:42Z</time>
      </trkpt>
      <trkpt lat="45.51862" lon="5.8991">
        <ele>775.40002441406</ele>
        <time>2012-11-18T09:40:53Z</time>
      </trkpt>
      <trkpt lat="45.51861" lon="5.8991">
        <ele>775.40002441406</ele>
        <time>2012-11-18T09:40:54Z</time>
      </trkpt>
      <trkpt lat="45.51853" lon="5.89907">
        <ele>775.59997558594</ele>
        <time>2012-11-18T09:40:57Z</time>
      </trkpt>
      <trkpt lat="45.51848" lon="5.89906">
        <ele>776</ele>
        <time>2012-11-18T09:41:00Z</time>
      </trkpt>
      <trkpt lat="45.51841" lon="5.89906">
        <ele>776.59997558594</ele>
        <time>2012-11-18T09:41:03Z</time>
      </trkpt>
      <trkpt lat="45.51834" lon="5.89905">
        <ele>777.20001220703</ele>
        <time>2012-11-18T09:41:06Z</time>
      </trkpt>
      <trkpt lat="45.51819" lon="5.899">
        <ele>777.40002441406</ele>
        <time>2012-11-18T09:41:12Z</time>
      </trkpt>
      <trkpt lat="45.51811" lon="5.89897">
        <ele>777.40002441406</ele>
        <time>2012-11-18T09:41:15Z</time>
      </trkpt>
      <trkpt lat="45.518" lon="5.89894">
        <ele>777.79998779297</ele>
        <time>2012-11-18T09:41:20Z</time>
      </trkpt>
      <trkpt lat="45.51798" lon="5.89892">
        <ele>777.79998779297</ele>
        <time>2012-11-18T09:41:21Z</time>
      </trkpt>
      <trkpt lat="45.51799" lon="5.89885">
        <ele>777</ele>
        <time>2012-11-18T09:41:25Z</time>
      </trkpt>
      <trkpt lat="45.51798" lon="5.89882">
        <ele>776.59997558594</ele>
        <time>2012-11-18T09:41:27Z</time>
      </trkpt>
      <trkpt lat="45.51796" lon="5.89876">
        <ele>776.20001220703</ele>
        <time>2012-11-18T09:41:30Z</time>
      </trkpt>
      <trkpt lat="45.51795" lon="5.89873">
        <ele>775.79998779297</ele>
        <time>2012-11-18T09:41:32Z</time>
      </trkpt>
      <trkpt lat="45.51791" lon="5.89861">
        <ele>775</ele>
        <time>2012-11-18T09:41:39Z</time>
      </trkpt>
      <trkpt lat="45.5179" lon="5.8986">
        <ele>775</ele>
        <time>2012-11-18T09:41:40Z</time>
      </trkpt>
      <trkpt lat="45.51785" lon="5.89852">
        <ele>774.59997558594</ele>
        <time>2012-11-18T09:41:45Z</time>
      </trkpt>
      <trkpt lat="45.51783" lon="5.89848">
        <ele>774.40002441406</ele>
        <time>2012-11-18T09:41:47Z</time>
      </trkpt>
      <trkpt lat="45.51778" lon="5.89842">
        <ele>774.40002441406</ele>
        <time>2012-11-18T09:41:52Z</time>
      </trkpt>
      <trkpt lat="45.51776" lon="5.89839">
        <ele>774.40002441406</ele>
        <time>2012-11-18T09:41:55Z</time>
      </trkpt>
      <trkpt lat="45.51771" lon="5.89833">
        <ele>774.40002441406</ele>
        <time>2012-11-18T09:41:59Z</time>
      </trkpt>
      <trkpt lat="45.51766" lon="5.89829">
        <ele>774.59997558594</ele>
        <time>2012-11-18T09:42:04Z</time>
      </trkpt>
      <trkpt lat="45.5176" lon="5.89824">
        <ele>775</ele>
        <time>2012-11-18T09:42:10Z</time>
      </trkpt>
      <trkpt lat="45.51758" lon="5.89823">
        <ele>775.20001220703</ele>
        <time>2012-11-18T09:42:12Z</time>
      </trkpt>
      <trkpt lat="45.51748" lon="5.89821">
        <ele>776.59997558594</ele>
        <time>2012-11-18T09:42:22Z</time>
      </trkpt>
      <trkpt lat="45.51747" lon="5.89821">
        <ele>776.59997558594</ele>
        <time>2012-11-18T09:42:23Z</time>
      </trkpt>
      <trkpt lat="45.51743" lon="5.89822">
        <ele>777.20001220703</ele>
        <time>2012-11-18T09:42:28Z</time>
      </trkpt>
      <trkpt lat="45.5174" lon="5.89824">
        <ele>777.79998779297</ele>
        <time>2012-11-18T09:42:32Z</time>
      </trkpt>
      <trkpt lat="45.51738" lon="5.89828">
        <ele>778.20001220703</ele>
        <time>2012-11-18T09:42:36Z</time>
      </trkpt>
      <trkpt lat="45.51737" lon="5.89828">
        <ele>778.40002441406</ele>
        <time>2012-11-18T09:42:37Z</time>
      </trkpt>
      <trkpt lat="45.51733" lon="5.89827">
        <ele>779</ele>
        <time>2012-11-18T09:42:42Z</time>
      </trkpt>
      <trkpt lat="45.51729" lon="5.89826">
        <ele>779.59997558594</ele>
        <time>2012-11-18T09:42:45Z</time>
      </trkpt>
      <trkpt lat="45.51717" lon="5.89825">
        <ele>781.40002441406</ele>
        <time>2012-11-18T09:42:50Z</time>
      </trkpt>
      <trkpt lat="45.51713" lon="5.89823">
        <ele>781.59997558594</ele>
        <time>2012-11-18T09:42:51Z</time>
      </trkpt>
      <trkpt lat="45.517" lon="5.89815">
        <ele>783.40002441406</ele>
        <time>2012-11-18T09:42:56Z</time>
      </trkpt>
      <trkpt lat="45.51695" lon="5.89811">
        <ele>784</ele>
        <time>2012-11-18T09:42:58Z</time>
      </trkpt>
      <trkpt lat="45.51686" lon="5.89803">
        <ele>785.20001220703</ele>
        <time>2012-11-18T09:43:02Z</time>
      </trkpt>
      <trkpt lat="45.51683" lon="5.898">
        <ele>785.40002441406</ele>
        <time>2012-11-18T09:43:04Z</time>
      </trkpt>
      <trkpt lat="45.51679" lon="5.89797">
        <ele>786.20001220703</ele>
        <time>2012-11-18T09:43:06Z</time>
      </trkpt>
      <trkpt lat="45.51673" lon="5.89795">
        <ele>787</ele>
        <time>2012-11-18T09:43:08Z</time>
      </trkpt>
      <trkpt lat="45.51668" lon="5.89794">
        <ele>787.59997558594</ele>
        <time>2012-11-18T09:43:10Z</time>
      </trkpt>
      <trkpt lat="45.5166" lon="5.89795">
        <ele>789.40002441406</ele>
        <time>2012-11-18T09:43:13Z</time>
      </trkpt>
      <trkpt lat="45.51648" lon="5.89784">
        <ele>792</ele>
        <time>2012-11-18T09:43:19Z</time>
      </trkpt>
      <trkpt lat="45.51648" lon="5.89782">
        <ele>792.20001220703</ele>
        <time>2012-11-18T09:43:20Z</time>
      </trkpt>
      <trkpt lat="45.51648" lon="5.89775">
        <ele>792</ele>
        <time>2012-11-18T09:43:24Z</time>
      </trkpt>
      <trkpt lat="45.51649" lon="5.89772">
        <ele>791.79998779297</ele>
        <time>2012-11-18T09:43:27Z</time>
      </trkpt>
      <trkpt lat="45.51651" lon="5.8977">
        <ele>791.40002441406</ele>
        <time>2012-11-18T09:43:31Z</time>
      </trkpt>
      <trkpt lat="45.51652" lon="5.89767">
        <ele>791.20001220703</ele>
        <time>2012-11-18T09:43:34Z</time>
      </trkpt>
      <trkpt lat="45.51657" lon="5.89759">
        <ele>789.79998779297</ele>
        <time>2012-11-18T09:43:42Z</time>
      </trkpt>
      <trkpt lat="45.51657" lon="5.89757">
        <ele>789.59997558594</ele>
        <time>2012-11-18T09:43:43Z</time>
      </trkpt>
      <trkpt lat="45.51658" lon="5.89753">
        <ele>789.40002441406</ele>
        <time>2012-11-18T09:43:46Z</time>
      </trkpt>
      <trkpt lat="45.51658" lon="5.8975">
        <ele>789.20001220703</ele>
        <time>2012-11-18T09:43:48Z</time>
      </trkpt>
      <trkpt lat="45.51659" lon="5.89748">
        <ele>789.20001220703</ele>
        <time>2012-11-18T09:43:50Z</time>
      </trkpt>
      <trkpt lat="45.5166" lon="5.89745">
        <ele>789.59997558594</ele>
        <time>2012-11-18T09:43:51Z</time>
      </trkpt>
      <trkpt lat="45.51659" lon="5.89741">
        <ele>790.20001220703</ele>
        <time>2012-11-18T09:43:54Z</time>
      </trkpt>
      <trkpt lat="45.51659" lon="5.8974">
        <ele>790.40002441406</ele>
        <time>2012-11-18T09:43:55Z</time>
      </trkpt>
      <trkpt lat="45.51656" lon="5.89736">
        <ele>791.59997558594</ele>
        <time>2012-11-18T09:43:59Z</time>
      </trkpt>
      <trkpt lat="45.51656" lon="5.89735">
        <ele>791.79998779297</ele>
        <time>2012-11-18T09:44:01Z</time>
      </trkpt>
      <trkpt lat="45.51655" lon="5.89734">
        <ele>792.20001220703</ele>
        <time>2012-11-18T09:44:03Z</time>
      </trkpt>
      <trkpt lat="45.51653" lon="5.89731">
        <ele>793</ele>
        <time>2012-11-18T09:44:07Z</time>
      </trkpt>
      <trkpt lat="45.51652" lon="5.89729">
        <ele>793.79998779297</ele>
        <time>2012-11-18T09:44:11Z</time>
      </trkpt>
      <trkpt lat="45.5165" lon="5.89727">
        <ele>794.40002441406</ele>
        <time>2012-11-18T09:44:14Z</time>
      </trkpt>
      <trkpt lat="45.51648" lon="5.89725">
        <ele>795.40002441406</ele>
        <time>2012-11-18T09:44:19Z</time>
      </trkpt>
      <trkpt lat="45.51646" lon="5.89722">
        <ele>796.40002441406</ele>
        <time>2012-11-18T09:44:23Z</time>
      </trkpt>
      <trkpt lat="45.51644" lon="5.89717">
        <ele>797.79998779297</ele>
        <time>2012-11-18T09:44:29Z</time>
      </trkpt>
      <trkpt lat="45.51644" lon="5.89717">
        <ele>797.59997558594</ele>
        <time>2012-11-18T09:44:30Z</time>
      </trkpt>
      <trkpt lat="45.51643" lon="5.8971">
        <ele>798.79998779297</ele>
        <time>2012-11-18T09:44:36Z</time>
      </trkpt>
      <trkpt lat="45.51643" lon="5.89707">
        <ele>799.20001220703</ele>
        <time>2012-11-18T09:44:39Z</time>
      </trkpt>
      <trkpt lat="45.51643" lon="5.89704">
        <ele>799.59997558594</ele>
        <time>2012-11-18T09:44:43Z</time>
      </trkpt>
      <trkpt lat="45.51643" lon="5.89702">
        <ele>800</ele>
        <time>2012-11-18T09:44:46Z</time>
      </trkpt>
      <trkpt lat="45.51643" lon="5.89695">
        <ele>801</ele>
        <time>2012-11-18T09:44:51Z</time>
      </trkpt>
      <trkpt lat="45.51642" lon="5.89692">
        <ele>801.40002441406</ele>
        <time>2012-11-18T09:44:54Z</time>
      </trkpt>
      <trkpt lat="45.51641" lon="5.89687">
        <ele>802.59997558594</ele>
        <time>2012-11-18T09:44:59Z</time>
      </trkpt>
      <trkpt lat="45.51641" lon="5.89686">
        <ele>802.79998779297</ele>
        <time>2012-11-18T09:45:00Z</time>
      </trkpt>
      <trkpt lat="45.5164" lon="5.89683">
        <ele>803.20001220703</ele>
        <time>2012-11-18T09:45:03Z</time>
      </trkpt>
      <trkpt lat="45.51641" lon="5.89683">
        <ele>803</ele>
        <time>2012-11-18T09:45:04Z</time>
      </trkpt>
      <trkpt lat="45.5164" lon="5.89678">
        <ele>804</ele>
        <time>2012-11-18T09:45:10Z</time>
      </trkpt>
      <trkpt lat="45.51639" lon="5.8967">
        <ele>805.40002441406</ele>
        <time>2012-11-18T09:45:14Z</time>
      </trkpt>
      <trkpt lat="45.51638" lon="5.89662">
        <ele>806.79998779297</ele>
        <time>2012-11-18T09:45:20Z</time>
      </trkpt>
      <trkpt lat="45.51637" lon="5.89659">
        <ele>807.59997558594</ele>
        <time>2012-11-18T09:45:22Z</time>
      </trkpt>
      <trkpt lat="45.51636" lon="5.89651">
        <ele>808.79998779297</ele>
        <time>2012-11-18T09:45:27Z</time>
      </trkpt>
      <trkpt lat="45.51635" lon="5.89649">
        <ele>809.20001220703</ele>
        <time>2012-11-18T09:45:28Z</time>
      </trkpt>
      <trkpt lat="45.51633" lon="5.8964">
        <ele>811</ele>
        <time>2012-11-18T09:45:34Z</time>
      </trkpt>
      <trkpt lat="45.51632" lon="5.89636">
        <ele>811.79998779297</ele>
        <time>2012-11-18T09:45:37Z</time>
      </trkpt>
      <trkpt lat="45.51631" lon="5.89636">
        <ele>812</ele>
        <time>2012-11-18T09:45:39Z</time>
      </trkpt>
      <trkpt lat="45.51631" lon="5.89633">
        <ele>812.40002441406</ele>
        <time>2012-11-18T09:45:40Z</time>
      </trkpt>
      <trkpt lat="45.51632" lon="5.89629">
        <ele>812.79998779297</ele>
        <time>2012-11-18T09:45:44Z</time>
      </trkpt>
      <trkpt lat="45.51636" lon="5.89618">
        <ele>813.20001220703</ele>
        <time>2012-11-18T09:45:49Z</time>
      </trkpt>
      <trkpt lat="45.51637" lon="5.89601">
        <ele>815</ele>
        <time>2012-11-18T09:45:54Z</time>
      </trkpt>
      <trkpt lat="45.51638" lon="5.89584">
        <ele>817</ele>
        <time>2012-11-18T09:45:59Z</time>
      </trkpt>
      <trkpt lat="45.5164" lon="5.89572">
        <ele>816.20001220703</ele>
        <time>2012-11-18T09:46:02Z</time>
      </trkpt>
      <trkpt lat="45.51642" lon="5.89565">
        <ele>815.40002441406</ele>
        <time>2012-11-18T09:46:04Z</time>
      </trkpt>
      <trkpt lat="45.51643" lon="5.89553">
        <ele>815</ele>
        <time>2012-11-18T09:46:07Z</time>
      </trkpt>
      <trkpt lat="45.51644" lon="5.89549">
        <ele>814.79998779297</ele>
        <time>2012-11-18T09:46:08Z</time>
      </trkpt>
      <trkpt lat="45.51646" lon="5.89538">
        <ele>813.79998779297</ele>
        <time>2012-11-18T09:46:11Z</time>
      </trkpt>
      <trkpt lat="45.51648" lon="5.89529">
        <ele>813.20001220703</ele>
        <time>2012-11-18T09:46:13Z</time>
      </trkpt>
      <trkpt lat="45.51647" lon="5.89493">
        <ele>811.40002441406</ele>
        <time>2012-11-18T09:46:22Z</time>
      </trkpt>
      <trkpt lat="45.51647" lon="5.89481">
        <ele>809.20001220703</ele>
        <time>2012-11-18T09:46:25Z</time>
      </trkpt>
      <trkpt lat="45.51647" lon="5.89466">
        <ele>806.40002441406</ele>
        <time>2012-11-18T09:46:29Z</time>
      </trkpt>
      <trkpt lat="45.51646" lon="5.89464">
        <ele>806</ele>
        <time>2012-11-18T09:46:30Z</time>
      </trkpt>
      <trkpt lat="45.5164" lon="5.89451">
        <ele>804.20001220703</ele>
        <time>2012-11-18T09:46:35Z</time>
      </trkpt>
      <trkpt lat="45.51638" lon="5.89448">
        <ele>803.79998779297</ele>
        <time>2012-11-18T09:46:36Z</time>
      </trkpt>
      <trkpt lat="45.51627" lon="5.89437">
        <ele>802.79998779297</ele>
        <time>2012-11-18T09:46:41Z</time>
      </trkpt>
      <trkpt lat="45.51625" lon="5.89435">
        <ele>802.59997558594</ele>
        <time>2012-11-18T09:46:42Z</time>
      </trkpt>
      <trkpt lat="45.51599" lon="5.89416">
        <ele>801</ele>
        <time>2012-11-18T09:46:51Z</time>
      </trkpt>
      <trkpt lat="45.51595" lon="5.89412">
        <ele>800.59997558594</ele>
        <time>2012-11-18T09:46:53Z</time>
      </trkpt>
      <trkpt lat="45.51579" lon="5.89398">
        <ele>798.40002441406</ele>
        <time>2012-11-18T09:47:00Z</time>
      </trkpt>
      <trkpt lat="45.51567" lon="5.89391">
        <ele>798</ele>
        <time>2012-11-18T09:47:04Z</time>
      </trkpt>
      <trkpt lat="45.51548" lon="5.8938">
        <ele>797.40002441406</ele>
        <time>2012-11-18T09:47:11Z</time>
      </trkpt>
      <trkpt lat="45.51536" lon="5.89374">
        <ele>797</ele>
        <time>2012-11-18T09:47:16Z</time>
      </trkpt>
      <trkpt lat="45.51516" lon="5.89364">
        <ele>796</ele>
        <time>2012-11-18T09:47:25Z</time>
      </trkpt>
      <trkpt lat="45.51509" lon="5.8936">
        <ele>795.59997558594</ele>
        <time>2012-11-18T09:47:28Z</time>
      </trkpt>
      <trkpt lat="45.51492" lon="5.89348">
        <ele>794.59997558594</ele>
        <time>2012-11-18T09:47:35Z</time>
      </trkpt>
      <trkpt lat="45.51483" lon="5.89343">
        <ele>795</ele>
        <time>2012-11-18T09:47:39Z</time>
      </trkpt>
      <trkpt lat="45.51473" lon="5.8934">
        <ele>796.20001220703</ele>
        <time>2012-11-18T09:47:43Z</time>
      </trkpt>
      <trkpt lat="45.51468" lon="5.89338">
        <ele>796.59997558594</ele>
        <time>2012-11-18T09:47:45Z</time>
      </trkpt>
      <trkpt lat="45.51457" lon="5.89335">
        <ele>798.20001220703</ele>
        <time>2012-11-18T09:47:50Z</time>
      </trkpt>
      <trkpt lat="45.51448" lon="5.89329">
        <ele>798.79998779297</ele>
        <time>2012-11-18T09:47:54Z</time>
      </trkpt>
      <trkpt lat="45.51425" lon="5.89318">
        <ele>801</ele>
        <time>2012-11-18T09:48:03Z</time>
      </trkpt>
      <trkpt lat="45.51422" lon="5.89315">
        <ele>801</ele>
        <time>2012-11-18T09:48:04Z</time>
      </trkpt>
      <trkpt lat="45.51402" lon="5.89298">
        <ele>801.20001220703</ele>
        <time>2012-11-18T09:48:12Z</time>
      </trkpt>
      <trkpt lat="45.51398" lon="5.89296">
        <ele>801.59997558594</ele>
        <time>2012-11-18T09:48:14Z</time>
      </trkpt>
      <trkpt lat="45.51389" lon="5.89294">
        <ele>803.20001220703</ele>
        <time>2012-11-18T09:48:19Z</time>
      </trkpt>
      <trkpt lat="45.51379" lon="5.89287">
        <ele>803.59997558594</ele>
        <time>2012-11-18T09:48:23Z</time>
      </trkpt>
      <trkpt lat="45.51371" lon="5.89279">
        <ele>803.40002441406</ele>
        <time>2012-11-18T09:48:27Z</time>
      </trkpt>
      <trkpt lat="45.51369" lon="5.89275">
        <ele>803.20001220703</ele>
        <time>2012-11-18T09:48:28Z</time>
      </trkpt>
      <trkpt lat="45.51364" lon="5.89272">
        <ele>803.20001220703</ele>
        <time>2012-11-18T09:48:32Z</time>
      </trkpt>
      <trkpt lat="45.51362" lon="5.89271">
        <ele>803.40002441406</ele>
        <time>2012-11-18T09:48:33Z</time>
      </trkpt>
      <trkpt lat="45.51358" lon="5.89266">
        <ele>803.20001220703</ele>
        <time>2012-11-18T09:48:36Z</time>
      </trkpt>
      <trkpt lat="45.51356" lon="5.89264">
        <ele>803</ele>
        <time>2012-11-18T09:48:38Z</time>
      </trkpt>
      <trkpt lat="45.5135" lon="5.89258">
        <ele>803.20001220703</ele>
        <time>2012-11-18T09:48:42Z</time>
      </trkpt>
      <trkpt lat="45.51348" lon="5.89257">
        <ele>803.40002441406</ele>
        <time>2012-11-18T09:48:43Z</time>
      </trkpt>
      <trkpt lat="45.51338" lon="5.89256">
        <ele>805.20001220703</ele>
        <time>2012-11-18T09:48:48Z</time>
      </trkpt>
      <trkpt lat="45.51327" lon="5.89254">
        <ele>806.79998779297</ele>
        <time>2012-11-18T09:48:54Z</time>
      </trkpt>
      <trkpt lat="45.51321" lon="5.89253">
        <ele>807.59997558594</ele>
        <time>2012-11-18T09:49:00Z</time>
      </trkpt>
      <trkpt lat="45.51319" lon="5.89254">
        <ele>808</ele>
        <time>2012-11-18T09:49:02Z</time>
      </trkpt>
      <trkpt lat="45.51313" lon="5.89255">
        <ele>809</ele>
        <time>2012-11-18T09:49:06Z</time>
      </trkpt>
      <trkpt lat="45.51308" lon="5.89254">
        <ele>809.59997558594</ele>
        <time>2012-11-18T09:49:10Z</time>
      </trkpt>
      <trkpt lat="45.51303" lon="5.89254">
        <ele>810.20001220703</ele>
        <time>2012-11-18T09:49:15Z</time>
      </trkpt>
      <trkpt lat="45.513" lon="5.89254">
        <ele>810.59997558594</ele>
        <time>2012-11-18T09:49:17Z</time>
      </trkpt>
      <trkpt lat="45.51298" lon="5.89253">
        <ele>810.79998779297</ele>
        <time>2012-11-18T09:49:19Z</time>
      </trkpt>
      <trkpt lat="45.51293" lon="5.89253">
        <ele>811.40002441406</ele>
        <time>2012-11-18T09:49:24Z</time>
      </trkpt>
      <trkpt lat="45.51288" lon="5.89253">
        <ele>812</ele>
        <time>2012-11-18T09:49:28Z</time>
      </trkpt>
      <trkpt lat="45.51287" lon="5.89254">
        <ele>812.59997558594</ele>
        <time>2012-11-18T09:49:29Z</time>
      </trkpt>
      <trkpt lat="45.5128" lon="5.89256">
        <ele>814.20001220703</ele>
        <time>2012-11-18T09:49:33Z</time>
      </trkpt>
      <trkpt lat="45.51279" lon="5.89257">
        <ele>814.79998779297</ele>
        <time>2012-11-18T09:49:34Z</time>
      </trkpt>
      <trkpt lat="45.51271" lon="5.89263">
        <ele>817.59997558594</ele>
        <time>2012-11-18T09:49:39Z</time>
      </trkpt>
      <trkpt lat="45.51266" lon="5.89272">
        <ele>820.79998779297</ele>
        <time>2012-11-18T09:49:43Z</time>
      </trkpt>
      <trkpt lat="45.51261" lon="5.89285">
        <ele>825.40002441406</ele>
        <time>2012-11-18T09:49:48Z</time>
      </trkpt>
      <trkpt lat="45.51259" lon="5.8929">
        <ele>827</ele>
        <time>2012-11-18T09:49:50Z</time>
      </trkpt>
      <trkpt lat="45.51255" lon="5.89299">
        <ele>830.20001220703</ele>
        <time>2012-11-18T09:49:54Z</time>
      </trkpt>
      <trkpt lat="45.5125" lon="5.89301">
        <ele>831.40002441406</ele>
        <time>2012-11-18T09:49:57Z</time>
      </trkpt>
      <trkpt lat="45.51247" lon="5.89299">
        <ele>831.59997558594</ele>
        <time>2012-11-18T09:50:00Z</time>
      </trkpt>
      <trkpt lat="45.51244" lon="5.89295">
        <ele>831.40002441406</ele>
        <time>2012-11-18T09:50:03Z</time>
      </trkpt>
      <trkpt lat="45.5124" lon="5.8929">
        <ele>830.79998779297</ele>
        <time>2012-11-18T09:50:08Z</time>
      </trkpt>
      <trkpt lat="45.51239" lon="5.89287">
        <ele>830.59997558594</ele>
        <time>2012-11-18T09:50:11Z</time>
      </trkpt>
      <trkpt lat="45.51235" lon="5.89277">
        <ele>828.79998779297</ele>
        <time>2012-11-18T09:50:19Z</time>
      </trkpt>
      <trkpt lat="45.51235" lon="5.89276">
        <ele>828.40002441406</ele>
        <time>2012-11-18T09:50:20Z</time>
      </trkpt>
      <trkpt lat="45.51232" lon="5.89269">
        <ele>827.59997558594</ele>
        <time>2012-11-18T09:50:25Z</time>
      </trkpt>
      <trkpt lat="45.51229" lon="5.89266">
        <ele>827.59997558594</ele>
        <time>2012-11-18T09:50:28Z</time>
      </trkpt>
      <trkpt lat="45.5122" lon="5.89256">
        <ele>827.79998779297</ele>
        <time>2012-11-18T09:50:34Z</time>
      </trkpt>
      <trkpt lat="45.5122" lon="5.89256">
        <ele>827.79998779297</ele>
        <time>2012-11-18T09:50:35Z</time>
      </trkpt>
      <trkpt lat="45.51215" lon="5.89254">
        <ele>828.79998779297</ele>
        <time>2012-11-18T09:50:37Z</time>
      </trkpt>
      <trkpt lat="45.5121" lon="5.89252">
        <ele>829.79998779297</ele>
        <time>2012-11-18T09:50:40Z</time>
      </trkpt>
      <trkpt lat="45.51195" lon="5.89244">
        <ele>833.79998779297</ele>
        <time>2012-11-18T09:50:47Z</time>
      </trkpt>
      <trkpt lat="45.51185" lon="5.8924">
        <ele>837</ele>
        <time>2012-11-18T09:50:51Z</time>
      </trkpt>
      <trkpt lat="45.51186" lon="5.8923">
        <ele>836.79998779297</ele>
        <time>2012-11-18T09:50:55Z</time>
      </trkpt>
      <trkpt lat="45.51186" lon="5.89227">
        <ele>836.79998779297</ele>
        <time>2012-11-18T09:50:56Z</time>
      </trkpt>
      <trkpt lat="45.51187" lon="5.8922">
        <ele>836.20001220703</ele>
        <time>2012-11-18T09:51:00Z</time>
      </trkpt>
      <trkpt lat="45.51189" lon="5.89216">
        <ele>835.59997558594</ele>
        <time>2012-11-18T09:51:03Z</time>
      </trkpt>
      <trkpt lat="45.5119" lon="5.89208">
        <ele>835</ele>
        <time>2012-11-18T09:51:08Z</time>
      </trkpt>
      <trkpt lat="45.51191" lon="5.89198">
        <ele>834.40002441406</ele>
        <time>2012-11-18T09:51:14Z</time>
      </trkpt>
      <trkpt lat="45.5119" lon="5.89193">
        <ele>834.79998779297</ele>
        <time>2012-11-18T09:51:17Z</time>
      </trkpt>
      <trkpt lat="45.51189" lon="5.89191">
        <ele>835.40002441406</ele>
        <time>2012-11-18T09:51:19Z</time>
      </trkpt>
      <trkpt lat="45.51187" lon="5.89184">
        <ele>836</ele>
        <time>2012-11-18T09:51:23Z</time>
      </trkpt>
      <trkpt lat="45.51186" lon="5.89181">
        <ele>836.40002441406</ele>
        <time>2012-11-18T09:51:25Z</time>
      </trkpt>
      <trkpt lat="45.51185" lon="5.89177">
        <ele>837</ele>
        <time>2012-11-18T09:51:28Z</time>
      </trkpt>
      <trkpt lat="45.51184" lon="5.89175">
        <ele>837.20001220703</ele>
        <time>2012-11-18T09:51:30Z</time>
      </trkpt>
      <trkpt lat="45.51179" lon="5.89166">
        <ele>839.20001220703</ele>
        <time>2012-11-18T09:51:35Z</time>
      </trkpt>
      <trkpt lat="45.51179" lon="5.89164">
        <ele>839.40002441406</ele>
        <time>2012-11-18T09:51:36Z</time>
      </trkpt>
      <trkpt lat="45.51175" lon="5.89159">
        <ele>840.79998779297</ele>
        <time>2012-11-18T09:51:41Z</time>
      </trkpt>
      <trkpt lat="45.51175" lon="5.89158">
        <ele>840.79998779297</ele>
        <time>2012-11-18T09:51:42Z</time>
      </trkpt>
      <trkpt lat="45.51172" lon="5.89151">
        <ele>841.40002441406</ele>
        <time>2012-11-18T09:51:47Z</time>
      </trkpt>
      <trkpt lat="45.51172" lon="5.89148">
        <ele>841.40002441406</ele>
        <time>2012-11-18T09:51:49Z</time>
      </trkpt>
      <trkpt lat="45.51172" lon="5.89145">
        <ele>841.20001220703</ele>
        <time>2012-11-18T09:51:53Z</time>
      </trkpt>
      <trkpt lat="45.51171" lon="5.89139">
        <ele>841.20001220703</ele>
        <time>2012-11-18T09:52:01Z</time>
      </trkpt>
      <trkpt lat="45.51169" lon="5.89133">
        <ele>841.79998779297</ele>
        <time>2012-11-18T09:52:06Z</time>
      </trkpt>
      <trkpt lat="45.51169" lon="5.89128">
        <ele>841.59997558594</ele>
        <time>2012-11-18T09:52:10Z</time>
      </trkpt>
      <trkpt lat="45.51168" lon="5.89125">
        <ele>842</ele>
        <time>2012-11-18T09:52:12Z</time>
      </trkpt>
      <trkpt lat="45.51166" lon="5.89121">
        <ele>842.40002441406</ele>
        <time>2012-11-18T09:52:15Z</time>
      </trkpt>
      <trkpt lat="45.51164" lon="5.89114">
        <ele>842.79998779297</ele>
        <time>2012-11-18T09:52:21Z</time>
      </trkpt>
      <trkpt lat="45.51163" lon="5.89113">
        <ele>843</ele>
        <time>2012-11-18T09:52:22Z</time>
      </trkpt>
      <trkpt lat="45.51161" lon="5.89106">
        <ele>843.40002441406</ele>
        <time>2012-11-18T09:52:28Z</time>
      </trkpt>
      <trkpt lat="45.5116" lon="5.89103">
        <ele>843.59997558594</ele>
        <time>2012-11-18T09:52:30Z</time>
      </trkpt>
      <trkpt lat="45.51159" lon="5.89101">
        <ele>843.59997558594</ele>
        <time>2012-11-18T09:52:32Z</time>
      </trkpt>
      <trkpt lat="45.51158" lon="5.89097">
        <ele>844</ele>
        <time>2012-11-18T09:52:35Z</time>
      </trkpt>
      <trkpt lat="45.51157" lon="5.89094">
        <ele>844.20001220703</ele>
        <time>2012-11-18T09:52:37Z</time>
      </trkpt>
      <trkpt lat="45.51153" lon="5.89089">
        <ele>845.20001220703</ele>
        <time>2012-11-18T09:52:41Z</time>
      </trkpt>
      <trkpt lat="45.5115" lon="5.89083">
        <ele>846</ele>
        <time>2012-11-18T09:52:46Z</time>
      </trkpt>
      <trkpt lat="45.5115" lon="5.89083">
        <ele>846</ele>
        <time>2012-11-18T09:52:47Z</time>
      </trkpt>
      <trkpt lat="45.51147" lon="5.89078">
        <ele>845.59997558594</ele>
        <time>2012-11-18T09:52:53Z</time>
      </trkpt>
      <trkpt lat="45.51146" lon="5.89077">
        <ele>845.59997558594</ele>
        <time>2012-11-18T09:52:55Z</time>
      </trkpt>
      <trkpt lat="45.51142" lon="5.89072">
        <ele>846</ele>
        <time>2012-11-18T09:52:59Z</time>
      </trkpt>
      <trkpt lat="45.51141" lon="5.89072">
        <ele>846.20001220703</ele>
        <time>2012-11-18T09:53:00Z</time>
      </trkpt>
      <trkpt lat="45.51139" lon="5.89072">
        <ele>847.20001220703</ele>
        <time>2012-11-18T09:53:03Z</time>
      </trkpt>
      <trkpt lat="45.51135" lon="5.89071">
        <ele>848.20001220703</ele>
        <time>2012-11-18T09:53:08Z</time>
      </trkpt>
      <trkpt lat="45.51132" lon="5.89073">
        <ele>849.79998779297</ele>
        <time>2012-11-18T09:53:12Z</time>
      </trkpt>
      <trkpt lat="45.51131" lon="5.89073">
        <ele>850.40002441406</ele>
        <time>2012-11-18T09:53:14Z</time>
      </trkpt>
      <trkpt lat="45.51128" lon="5.89074">
        <ele>851.59997558594</ele>
        <time>2012-11-18T09:53:18Z</time>
      </trkpt>
      <trkpt lat="45.51124" lon="5.89073">
        <ele>852.79998779297</ele>
        <time>2012-11-18T09:53:22Z</time>
      </trkpt>
      <trkpt lat="45.51121" lon="5.89073">
        <ele>854</ele>
        <time>2012-11-18T09:53:26Z</time>
      </trkpt>
      <trkpt lat="45.5112" lon="5.89073">
        <ele>854.20001220703</ele>
        <time>2012-11-18T09:53:27Z</time>
      </trkpt>
      <trkpt lat="45.51118" lon="5.89073">
        <ele>855.20001220703</ele>
        <time>2012-11-18T09:53:30Z</time>
      </trkpt>
      <trkpt lat="45.51116" lon="5.89074">
        <ele>856.20001220703</ele>
        <time>2012-11-18T09:53:33Z</time>
      </trkpt>
      <trkpt lat="45.51112" lon="5.89079">
        <ele>858.79998779297</ele>
        <time>2012-11-18T09:53:39Z</time>
      </trkpt>
      <trkpt lat="45.5111" lon="5.89081">
        <ele>860.20001220703</ele>
        <time>2012-11-18T09:53:42Z</time>
      </trkpt>
      <trkpt lat="45.51108" lon="5.89084">
        <ele>861.59997558594</ele>
        <time>2012-11-18T09:53:47Z</time>
      </trkpt>
      <trkpt lat="45.51105" lon="5.89087">
        <ele>863</ele>
        <time>2012-11-18T09:53:52Z</time>
      </trkpt>
      <trkpt lat="45.51103" lon="5.89088">
        <ele>864</ele>
        <time>2012-11-18T09:53:57Z</time>
      </trkpt>
      <trkpt lat="45.51102" lon="5.89087">
        <ele>864.20001220703</ele>
        <time>2012-11-18T09:53:58Z</time>
      </trkpt>
      <trkpt lat="45.51095" lon="5.89083">
        <ele>866.59997558594</ele>
        <time>2012-11-18T09:54:08Z</time>
      </trkpt>
      <trkpt lat="45.51094" lon="5.89082">
        <ele>866.59997558594</ele>
        <time>2012-11-18T09:54:09Z</time>
      </trkpt>
      <trkpt lat="45.51093" lon="5.8908">
        <ele>866.59997558594</ele>
        <time>2012-11-18T09:54:14Z</time>
      </trkpt>
      <trkpt lat="45.51092" lon="5.89079">
        <ele>866.79998779297</ele>
        <time>2012-11-18T09:54:16Z</time>
      </trkpt>
      <trkpt lat="45.5109" lon="5.89074">
        <ele>865.59997558594</ele>
        <time>2012-11-18T09:54:21Z</time>
      </trkpt>
      <trkpt lat="45.51089" lon="5.89067">
        <ele>864.40002441406</ele>
        <time>2012-11-18T09:54:27Z</time>
      </trkpt>
      <trkpt lat="45.51086" lon="5.89063">
        <ele>864.59997558594</ele>
        <time>2012-11-18T09:54:31Z</time>
      </trkpt>
      <trkpt lat="45.51086" lon="5.89062">
        <ele>864.40002441406</ele>
        <time>2012-11-18T09:54:32Z</time>
      </trkpt>
      <trkpt lat="45.51082" lon="5.89059">
        <ele>864.59997558594</ele>
        <time>2012-11-18T09:54:36Z</time>
      </trkpt>
      <trkpt lat="45.51081" lon="5.89058">
        <ele>864.79998779297</ele>
        <time>2012-11-18T09:54:37Z</time>
      </trkpt>
      <trkpt lat="45.51077" lon="5.89058">
        <ele>865.79998779297</ele>
        <time>2012-11-18T09:54:42Z</time>
      </trkpt>
      <trkpt lat="45.51073" lon="5.89058">
        <ele>866.40002441406</ele>
        <time>2012-11-18T09:54:46Z</time>
      </trkpt>
      <trkpt lat="45.51068" lon="5.89056">
        <ele>867.40002441406</ele>
        <time>2012-11-18T09:54:52Z</time>
      </trkpt>
      <trkpt lat="45.51067" lon="5.89056">
        <ele>867.40002441406</ele>
        <time>2012-11-18T09:54:53Z</time>
      </trkpt>
      <trkpt lat="45.5106" lon="5.89052">
        <ele>867.79998779297</ele>
        <time>2012-11-18T09:55:00Z</time>
      </trkpt>
      <trkpt lat="45.51059" lon="5.89051">
        <ele>868</ele>
        <time>2012-11-18T09:55:02Z</time>
      </trkpt>
      <trkpt lat="45.51054" lon="5.89052">
        <ele>869</ele>
        <time>2012-11-18T09:55:09Z</time>
      </trkpt>
      <trkpt lat="45.51051" lon="5.89051">
        <ele>869.59997558594</ele>
        <time>2012-11-18T09:55:12Z</time>
      </trkpt>
      <trkpt lat="45.51048" lon="5.89051">
        <ele>870.40002441406</ele>
        <time>2012-11-18T09:55:17Z</time>
      </trkpt>
      <trkpt lat="45.51046" lon="5.89051">
        <ele>871</ele>
        <time>2012-11-18T09:55:19Z</time>
      </trkpt>
      <trkpt lat="45.51043" lon="5.89051">
        <ele>871.40002441406</ele>
        <time>2012-11-18T09:55:23Z</time>
      </trkpt>
      <trkpt lat="45.51042" lon="5.89052">
        <ele>871.59997558594</ele>
        <time>2012-11-18T09:55:24Z</time>
      </trkpt>
      <trkpt lat="45.51039" lon="5.89053">
        <ele>872.79998779297</ele>
        <time>2012-11-18T09:55:28Z</time>
      </trkpt>
      <trkpt lat="45.51039" lon="5.89054">
        <ele>873</ele>
        <time>2012-11-18T09:55:29Z</time>
      </trkpt>
      <trkpt lat="45.51035" lon="5.89056">
        <ele>874.79998779297</ele>
        <time>2012-11-18T09:55:35Z</time>
      </trkpt>
      <trkpt lat="45.51033" lon="5.89057">
        <ele>875.40002441406</ele>
        <time>2012-11-18T09:55:37Z</time>
      </trkpt>
      <trkpt lat="45.51029" lon="5.89058">
        <ele>876.79998779297</ele>
        <time>2012-11-18T09:55:41Z</time>
      </trkpt>
      <trkpt lat="45.51026" lon="5.89058">
        <ele>877.59997558594</ele>
        <time>2012-11-18T09:55:44Z</time>
      </trkpt>
      <trkpt lat="45.51024" lon="5.89059">
        <ele>878.20001220703</ele>
        <time>2012-11-18T09:55:46Z</time>
      </trkpt>
      <trkpt lat="45.51023" lon="5.89059">
        <ele>878.59997558594</ele>
        <time>2012-11-18T09:55:47Z</time>
      </trkpt>
      <trkpt lat="45.51011" lon="5.89062">
        <ele>882.40002441406</ele>
        <time>2012-11-18T09:55:57Z</time>
      </trkpt>
      <trkpt lat="45.51007" lon="5.89064">
        <ele>883.79998779297</ele>
        <time>2012-11-18T09:56:00Z</time>
      </trkpt>
      <trkpt lat="45.51" lon="5.89069">
        <ele>887</ele>
        <time>2012-11-18T09:56:07Z</time>
      </trkpt>
      <trkpt lat="45.50996" lon="5.89074">
        <ele>888.40002441406</ele>
        <time>2012-11-18T09:56:10Z</time>
      </trkpt>
      <trkpt lat="45.50993" lon="5.89079">
        <ele>889.79998779297</ele>
        <time>2012-11-18T09:56:12Z</time>
      </trkpt>
      <trkpt lat="45.50989" lon="5.89085">
        <ele>891.20001220703</ele>
        <time>2012-11-18T09:56:16Z</time>
      </trkpt>
      <trkpt lat="45.50987" lon="5.89093">
        <ele>892</ele>
        <time>2012-11-18T09:56:21Z</time>
      </trkpt>
      <trkpt lat="45.50987" lon="5.89095">
        <ele>892.40002441406</ele>
        <time>2012-11-18T09:56:22Z</time>
      </trkpt>
      <trkpt lat="45.50988" lon="5.89101">
        <ele>893</ele>
        <time>2012-11-18T09:56:25Z</time>
      </trkpt>
      <trkpt lat="45.50988" lon="5.89103">
        <ele>893.20001220703</ele>
        <time>2012-11-18T09:56:26Z</time>
      </trkpt>
      <trkpt lat="45.50988" lon="5.89112">
        <ele>894.40002441406</ele>
        <time>2012-11-18T09:56:31Z</time>
      </trkpt>
      <trkpt lat="45.50989" lon="5.89113">
        <ele>894.59997558594</ele>
        <time>2012-11-18T09:56:32Z</time>
      </trkpt>
      <trkpt lat="45.5099" lon="5.8912">
        <ele>895.40002441406</ele>
        <time>2012-11-18T09:56:36Z</time>
      </trkpt>
      <trkpt lat="45.5099" lon="5.89124">
        <ele>896</ele>
        <time>2012-11-18T09:56:38Z</time>
      </trkpt>
      <trkpt lat="45.50992" lon="5.89133">
        <ele>897</ele>
        <time>2012-11-18T09:56:43Z</time>
      </trkpt>
      <trkpt lat="45.50992" lon="5.89137">
        <ele>897.59997558594</ele>
        <time>2012-11-18T09:56:45Z</time>
      </trkpt>
      <trkpt lat="45.50992" lon="5.89142">
        <ele>898</ele>
        <time>2012-11-18T09:56:47Z</time>
      </trkpt>
      <trkpt lat="45.50993" lon="5.89147">
        <ele>898.59997558594</ele>
        <time>2012-11-18T09:56:49Z</time>
      </trkpt>
      <trkpt lat="45.50993" lon="5.89155">
        <ele>899.59997558594</ele>
        <time>2012-11-18T09:56:53Z</time>
      </trkpt>
      <trkpt lat="45.50993" lon="5.89159">
        <ele>900.20001220703</ele>
        <time>2012-11-18T09:56:54Z</time>
      </trkpt>
      <trkpt lat="45.50992" lon="5.89166">
        <ele>901</ele>
        <time>2012-11-18T09:56:56Z</time>
      </trkpt>
      <trkpt lat="45.50991" lon="5.89176">
        <ele>901.79998779297</ele>
        <time>2012-11-18T09:57:00Z</time>
      </trkpt>
      <trkpt lat="45.50991" lon="5.89189">
        <ele>903</ele>
        <time>2012-11-18T09:57:05Z</time>
      </trkpt>
      <trkpt lat="45.50994" lon="5.89205">
        <ele>904</ele>
        <time>2012-11-18T09:57:10Z</time>
      </trkpt>
      <trkpt lat="45.50998" lon="5.89235">
        <ele>906</ele>
        <time>2012-11-18T09:57:18Z</time>
      </trkpt>
      <trkpt lat="45.51001" lon="5.89242">
        <ele>906</ele>
        <time>2012-11-18T09:57:20Z</time>
      </trkpt>
      <trkpt lat="45.51013" lon="5.89268">
        <ele>902.79998779297</ele>
        <time>2012-11-18T09:57:27Z</time>
      </trkpt>
      <trkpt lat="45.51015" lon="5.89275">
        <ele>902.20001220703</ele>
        <time>2012-11-18T09:57:29Z</time>
      </trkpt>
      <trkpt lat="45.51018" lon="5.89285">
        <ele>901.20001220703</ele>
        <time>2012-11-18T09:57:32Z</time>
      </trkpt>
      <trkpt lat="45.5102" lon="5.89288">
        <ele>900.40002441406</ele>
        <time>2012-11-18T09:57:33Z</time>
      </trkpt>
      <trkpt lat="45.51023" lon="5.89301">
        <ele>899</ele>
        <time>2012-11-18T09:57:36Z</time>
      </trkpt>
      <trkpt lat="45.51024" lon="5.89317">
        <ele>898.79998779297</ele>
        <time>2012-11-18T09:57:39Z</time>
      </trkpt>
      <trkpt lat="45.51022" lon="5.8933">
        <ele>899.59997558594</ele>
        <time>2012-11-18T09:57:42Z</time>
      </trkpt>
      <trkpt lat="45.51019" lon="5.8934">
        <ele>901.20001220703</ele>
        <time>2012-11-18T09:57:44Z</time>
      </trkpt>
      <trkpt lat="45.51012" lon="5.89365">
        <ele>904.59997558594</ele>
        <time>2012-11-18T09:57:49Z</time>
      </trkpt>
      <trkpt lat="45.51012" lon="5.89368">
        <ele>904.59997558594</ele>
        <time>2012-11-18T09:57:50Z</time>
      </trkpt>
      <trkpt lat="45.51022" lon="5.89395">
        <ele>902.40002441406</ele>
        <time>2012-11-18T09:57:59Z</time>
      </trkpt>
      <trkpt lat="45.51028" lon="5.89401">
        <ele>900.79998779297</ele>
        <time>2012-11-18T09:58:02Z</time>
      </trkpt>
      <trkpt lat="45.51039" lon="5.89404">
        <ele>898</ele>
        <time>2012-11-18T09:58:08Z</time>
      </trkpt>
      <trkpt lat="45.51042" lon="5.89406">
        <ele>897.40002441406</ele>
        <time>2012-11-18T09:58:09Z</time>
      </trkpt>
      <trkpt lat="45.51059" lon="5.89412">
        <ele>893.59997558594</ele>
        <time>2012-11-18T09:58:15Z</time>
      </trkpt>
      <trkpt lat="45.51069" lon="5.89418">
        <ele>891.79998779297</ele>
        <time>2012-11-18T09:58:19Z</time>
      </trkpt>
      <trkpt lat="45.51082" lon="5.89422">
        <ele>889.40002441406</ele>
        <time>2012-11-18T09:58:24Z</time>
      </trkpt>
      <trkpt lat="45.51088" lon="5.89426">
        <ele>889.20001220703</ele>
        <time>2012-11-18T09:58:26Z</time>
      </trkpt>
      <trkpt lat="45.51105" lon="5.89432">
        <ele>887.79998779297</ele>
        <time>2012-11-18T09:58:33Z</time>
      </trkpt>
      <trkpt lat="45.51108" lon="5.89435">
        <ele>887.79998779297</ele>
        <time>2012-11-18T09:58:35Z</time>
      </trkpt>
      <trkpt lat="45.51111" lon="5.89439">
        <ele>888.20001220703</ele>
        <time>2012-11-18T09:58:37Z</time>
      </trkpt>
      <trkpt lat="45.51117" lon="5.89448">
        <ele>888.79998779297</ele>
        <time>2012-11-18T09:58:40Z</time>
      </trkpt>
      <trkpt lat="45.51121" lon="5.89455">
        <ele>889.59997558594</ele>
        <time>2012-11-18T09:58:42Z</time>
      </trkpt>
      <trkpt lat="45.51121" lon="5.89459">
        <ele>890.40002441406</ele>
        <time>2012-11-18T09:58:43Z</time>
      </trkpt>
      <trkpt lat="45.51123" lon="5.89473">
        <ele>893</ele>
        <time>2012-11-18T09:58:46Z</time>
      </trkpt>
      <trkpt lat="45.51123" lon="5.89485">
        <ele>895.20001220703</ele>
        <time>2012-11-18T09:58:48Z</time>
      </trkpt>
      <trkpt lat="45.51122" lon="5.89501">
        <ele>898.59997558594</ele>
        <time>2012-11-18T09:58:52Z</time>
      </trkpt>
      <trkpt lat="45.51123" lon="5.89504">
        <ele>898.79998779297</ele>
        <time>2012-11-18T09:58:53Z</time>
      </trkpt>
      <trkpt lat="45.51128" lon="5.89507">
        <ele>898.40002441406</ele>
        <time>2012-11-18T09:58:56Z</time>
      </trkpt>
      <trkpt lat="45.51134" lon="5.89507">
        <ele>897.20001220703</ele>
        <time>2012-11-18T09:59:00Z</time>
      </trkpt>
      <trkpt lat="45.51148" lon="5.89503">
        <ele>894</ele>
        <time>2012-11-18T09:59:06Z</time>
      </trkpt>
      <trkpt lat="45.51154" lon="5.89498">
        <ele>892</ele>
        <time>2012-11-18T09:59:10Z</time>
      </trkpt>
      <trkpt lat="45.51161" lon="5.89497">
        <ele>890.40002441406</ele>
        <time>2012-11-18T09:59:15Z</time>
      </trkpt>
      <trkpt lat="45.51167" lon="5.89497">
        <ele>889.40002441406</ele>
        <time>2012-11-18T09:59:19Z</time>
      </trkpt>
      <trkpt lat="45.51173" lon="5.89501">
        <ele>889.40002441406</ele>
        <time>2012-11-18T09:59:24Z</time>
      </trkpt>
      <trkpt lat="45.51176" lon="5.89502">
        <ele>889.40002441406</ele>
        <time>2012-11-18T09:59:26Z</time>
      </trkpt>
      <trkpt lat="45.51179" lon="5.89504">
        <ele>889.40002441406</ele>
        <time>2012-11-18T09:59:28Z</time>
      </trkpt>
      <trkpt lat="45.5118" lon="5.89506">
        <ele>889.59997558594</ele>
        <time>2012-11-18T09:59:29Z</time>
      </trkpt>
      <trkpt lat="45.51194" lon="5.89519">
        <ele>890.59997558594</ele>
        <time>2012-11-18T09:59:36Z</time>
      </trkpt>
      <trkpt lat="45.51209" lon="5.89527">
        <ele>890</ele>
        <time>2012-11-18T09:59:41Z</time>
      </trkpt>
      <trkpt lat="45.51236" lon="5.8954">
        <ele>888.59997558594</ele>
        <time>2012-11-18T09:59:49Z</time>
      </trkpt>
      <trkpt lat="45.51239" lon="5.89542">
        <ele>888.40002441406</ele>
        <time>2012-11-18T09:59:50Z</time>
      </trkpt>
      <trkpt lat="45.51248" lon="5.89546">
        <ele>887.59997558594</ele>
        <time>2012-11-18T09:59:53Z</time>
      </trkpt>
      <trkpt lat="45.51254" lon="5.8955">
        <ele>887.20001220703</ele>
        <time>2012-11-18T09:59:55Z</time>
      </trkpt>
      <trkpt lat="45.51263" lon="5.89555">
        <ele>886</ele>
        <time>2012-11-18T09:59:58Z</time>
      </trkpt>
      <trkpt lat="45.51269" lon="5.89558">
        <ele>885.20001220703</ele>
        <time>2012-11-18T10:00:00Z</time>
      </trkpt>
      <trkpt lat="45.5128" lon="5.89566">
        <ele>883.79998779297</ele>
        <time>2012-11-18T10:00:03Z</time>
      </trkpt>
      <trkpt lat="45.51285" lon="5.89571">
        <ele>883.20001220703</ele>
        <time>2012-11-18T10:00:05Z</time>
      </trkpt>
      <trkpt lat="45.51304" lon="5.89597">
        <ele>879</ele>
        <time>2012-11-18T10:00:13Z</time>
      </trkpt>
      <trkpt lat="45.51304" lon="5.89601">
        <ele>878.79998779297</ele>
        <time>2012-11-18T10:00:14Z</time>
      </trkpt>
      <trkpt lat="45.51303" lon="5.89627">
        <ele>876.79998779297</ele>
        <time>2012-11-18T10:00:20Z</time>
      </trkpt>
      <trkpt lat="45.51301" lon="5.89637">
        <ele>876.59997558594</ele>
        <time>2012-11-18T10:00:22Z</time>
      </trkpt>
      <trkpt lat="45.51296" lon="5.89663">
        <ele>875.79998779297</ele>
        <time>2012-11-18T10:00:28Z</time>
      </trkpt>
      <trkpt lat="45.51294" lon="5.89677">
        <ele>874.40002441406</ele>
        <time>2012-11-18T10:00:31Z</time>
      </trkpt>
      <trkpt lat="45.51286" lon="5.89712">
        <ele>871.59997558594</ele>
        <time>2012-11-18T10:00:39Z</time>
      </trkpt>
      <trkpt lat="45.51279" lon="5.89735">
        <ele>870</ele>
        <time>2012-11-18T10:00:45Z</time>
      </trkpt>
      <trkpt lat="45.51274" lon="5.89753">
        <ele>868.59997558594</ele>
        <time>2012-11-18T10:00:49Z</time>
      </trkpt>
      <trkpt lat="45.51272" lon="5.89766">
        <ele>866.79998779297</ele>
        <time>2012-11-18T10:00:52Z</time>
      </trkpt>
      <trkpt lat="45.5127" lon="5.89777">
        <ele>865.40002441406</ele>
        <time>2012-11-18T10:00:55Z</time>
      </trkpt>
      <trkpt lat="45.51267" lon="5.89796">
        <ele>863.20001220703</ele>
        <time>2012-11-18T10:01:00Z</time>
      </trkpt>
      <trkpt lat="45.51265" lon="5.89807">
        <ele>861.79998779297</ele>
        <time>2012-11-18T10:01:03Z</time>
      </trkpt>
      <trkpt lat="45.51265" lon="5.89813">
        <ele>860.79998779297</ele>
        <time>2012-11-18T10:01:05Z</time>
      </trkpt>
      <trkpt lat="45.51264" lon="5.89825">
        <ele>859</ele>
        <time>2012-11-18T10:01:08Z</time>
      </trkpt>
      <trkpt lat="45.51263" lon="5.89833">
        <ele>858</ele>
        <time>2012-11-18T10:01:10Z</time>
      </trkpt>
      <trkpt lat="45.51261" lon="5.89842">
        <ele>857.59997558594</ele>
        <time>2012-11-18T10:01:12Z</time>
      </trkpt>
      <trkpt lat="45.51261" lon="5.89857">
        <ele>856.40002441406</ele>
        <time>2012-11-18T10:01:15Z</time>
      </trkpt>
      <trkpt lat="45.51258" lon="5.89878">
        <ele>855.40002441406</ele>
        <time>2012-11-18T10:01:20Z</time>
      </trkpt>
      <trkpt lat="45.5126" lon="5.89903">
        <ele>852.79998779297</ele>
        <time>2012-11-18T10:01:26Z</time>
      </trkpt>
      <trkpt lat="45.51274" lon="5.89928">
        <ele>849</ele>
        <time>2012-11-18T10:01:35Z</time>
      </trkpt>
      <trkpt lat="45.51279" lon="5.89936">
        <ele>848.40002441406</ele>
        <time>2012-11-18T10:01:38Z</time>
      </trkpt>
      <trkpt lat="45.51288" lon="5.89945">
        <ele>846.79998779297</ele>
        <time>2012-11-18T10:01:42Z</time>
      </trkpt>
      <trkpt lat="45.51292" lon="5.8995">
        <ele>846.40002441406</ele>
        <time>2012-11-18T10:01:44Z</time>
      </trkpt>
      <trkpt lat="45.51298" lon="5.89958">
        <ele>845.59997558594</ele>
        <time>2012-11-18T10:01:47Z</time>
      </trkpt>
      <trkpt lat="45.51301" lon="5.89964">
        <ele>845.40002441406</ele>
        <time>2012-11-18T10:01:49Z</time>
      </trkpt>
      <trkpt lat="45.51308" lon="5.89974">
        <ele>844.20001220703</ele>
        <time>2012-11-18T10:01:53Z</time>
      </trkpt>
      <trkpt lat="45.51311" lon="5.89978">
        <ele>844</ele>
        <time>2012-11-18T10:01:55Z</time>
      </trkpt>
      <trkpt lat="45.51315" lon="5.89982">
        <ele>843.20001220703</ele>
        <time>2012-11-18T10:01:57Z</time>
      </trkpt>
      <trkpt lat="45.51323" lon="5.8999">
        <ele>841.59997558594</ele>
        <time>2012-11-18T10:02:01Z</time>
      </trkpt>
      <trkpt lat="45.51327" lon="5.89994">
        <ele>841</ele>
        <time>2012-11-18T10:02:03Z</time>
      </trkpt>
      <trkpt lat="45.51335" lon="5.89999">
        <ele>839.59997558594</ele>
        <time>2012-11-18T10:02:06Z</time>
      </trkpt>
      <trkpt lat="45.51346" lon="5.90006">
        <ele>838.20001220703</ele>
        <time>2012-11-18T10:02:10Z</time>
      </trkpt>
      <trkpt lat="45.51355" lon="5.90009">
        <ele>837.20001220703</ele>
        <time>2012-11-18T10:02:13Z</time>
      </trkpt>
      <trkpt lat="45.51372" lon="5.90014">
        <ele>834.79998779297</ele>
        <time>2012-11-18T10:02:19Z</time>
      </trkpt>
      <trkpt lat="45.51376" lon="5.90015">
        <ele>834.40002441406</ele>
        <time>2012-11-18T10:02:20Z</time>
      </trkpt>
      <trkpt lat="45.51395" lon="5.90023">
        <ele>832.40002441406</ele>
        <time>2012-11-18T10:02:27Z</time>
      </trkpt>
      <trkpt lat="45.51403" lon="5.90027">
        <ele>832</ele>
        <time>2012-11-18T10:02:30Z</time>
      </trkpt>
      <trkpt lat="45.51417" lon="5.90027">
        <ele>829.79998779297</ele>
        <time>2012-11-18T10:02:34Z</time>
      </trkpt>
      <trkpt lat="45.51418" lon="5.90028">
        <ele>829.79998779297</ele>
        <time>2012-11-18T10:02:35Z</time>
      </trkpt>
      <trkpt lat="45.51447" lon="5.90038">
        <ele>828.59997558594</ele>
        <time>2012-11-18T10:02:43Z</time>
      </trkpt>
      <trkpt lat="45.51458" lon="5.90045">
        <ele>828.40002441406</ele>
        <time>2012-11-18T10:02:47Z</time>
      </trkpt>
      <trkpt lat="45.5149" lon="5.9006">
        <ele>827</ele>
        <time>2012-11-18T10:02:58Z</time>
      </trkpt>
      <trkpt lat="45.51499" lon="5.90064">
        <ele>826.40002441406</ele>
        <time>2012-11-18T10:03:02Z</time>
      </trkpt>
      <trkpt lat="45.51506" lon="5.90065">
        <ele>825.59997558594</ele>
        <time>2012-11-18T10:03:04Z</time>
      </trkpt>
      <trkpt lat="45.51513" lon="5.90066">
        <ele>824.59997558594</ele>
        <time>2012-11-18T10:03:07Z</time>
      </trkpt>
      <trkpt lat="45.51528" lon="5.90075">
        <ele>823</ele>
        <time>2012-11-18T10:03:12Z</time>
      </trkpt>
      <trkpt lat="45.5153" lon="5.90079">
        <ele>823</ele>
        <time>2012-11-18T10:03:13Z</time>
      </trkpt>
      <trkpt lat="45.51536" lon="5.90092">
        <ele>822.40002441406</ele>
        <time>2012-11-18T10:03:16Z</time>
      </trkpt>
      <trkpt lat="45.51541" lon="5.90115">
        <ele>821.59997558594</ele>
        <time>2012-11-18T10:03:21Z</time>
      </trkpt>
      <trkpt lat="45.51546" lon="5.90132">
        <ele>821</ele>
        <time>2012-11-18T10:03:25Z</time>
      </trkpt>
      <trkpt lat="45.51548" lon="5.90137">
        <ele>820.59997558594</ele>
        <time>2012-11-18T10:03:26Z</time>
      </trkpt>
      <trkpt lat="45.51558" lon="5.90155">
        <ele>819</ele>
        <time>2012-11-18T10:03:31Z</time>
      </trkpt>
      <trkpt lat="45.51561" lon="5.90162">
        <ele>818.59997558594</ele>
        <time>2012-11-18T10:03:35Z</time>
      </trkpt>
      <trkpt lat="45.51562" lon="5.90167">
        <ele>818.59997558594</ele>
        <time>2012-11-18T10:03:42Z</time>
      </trkpt>
      <trkpt lat="45.51563" lon="5.90167">
        <ele>818.40002441406</ele>
        <time>2012-11-18T10:03:46Z</time>
      </trkpt>
      <trkpt lat="45.51561" lon="5.90172">
        <ele>818.79998779297</ele>
        <time>2012-11-18T10:03:53Z</time>
      </trkpt>
      <trkpt lat="45.51556" lon="5.90169">
        <ele>819.59997558594</ele>
        <time>2012-11-18T10:03:59Z</time>
      </trkpt>
      <trkpt lat="45.51556" lon="5.90171">
        <ele>819.79998779297</ele>
        <time>2012-11-18T10:04:08Z</time>
      </trkpt>
      <trkpt lat="45.51551" lon="5.90175">
        <ele>820.59997558594</ele>
        <time>2012-11-18T10:04:13Z</time>
      </trkpt>
      <trkpt lat="45.51543" lon="5.90184">
        <ele>822.20001220703</ele>
        <time>2012-11-18T10:04:18Z</time>
      </trkpt>
      <trkpt lat="45.5154" lon="5.90188">
        <ele>822.79998779297</ele>
        <time>2012-11-18T10:04:20Z</time>
      </trkpt>
      <trkpt lat="45.51529" lon="5.902">
        <ele>824.59997558594</ele>
        <time>2012-11-18T10:04:27Z</time>
      </trkpt>
      <trkpt lat="45.51522" lon="5.90208">
        <ele>825.40002441406</ele>
        <time>2012-11-18T10:04:33Z</time>
      </trkpt>
      <trkpt lat="45.51518" lon="5.90214">
        <ele>826</ele>
        <time>2012-11-18T10:04:37Z</time>
      </trkpt>
      <trkpt lat="45.51516" lon="5.90215">
        <ele>826.20001220703</ele>
        <time>2012-11-18T10:04:39Z</time>
      </trkpt>
      <trkpt lat="45.5151" lon="5.90223">
        <ele>827</ele>
        <time>2012-11-18T10:04:45Z</time>
      </trkpt>
      <trkpt lat="45.51507" lon="5.90226">
        <ele>827.40002441406</ele>
        <time>2012-11-18T10:04:48Z</time>
      </trkpt>
      <trkpt lat="45.515" lon="5.90234">
        <ele>828</ele>
        <time>2012-11-18T10:04:54Z</time>
      </trkpt>
      <trkpt lat="45.51497" lon="5.90237">
        <ele>828.59997558594</ele>
        <time>2012-11-18T10:04:56Z</time>
      </trkpt>
      <trkpt lat="45.5149" lon="5.90242">
        <ele>830.40002441406</ele>
        <time>2012-11-18T10:05:02Z</time>
      </trkpt>
      <trkpt lat="45.51487" lon="5.90244">
        <ele>831.20001220703</ele>
        <time>2012-11-18T10:05:05Z</time>
      </trkpt>
      <trkpt lat="45.51481" lon="5.90246">
        <ele>832.79998779297</ele>
        <time>2012-11-18T10:05:10Z</time>
      </trkpt>
      <trkpt lat="45.51476" lon="5.90246">
        <ele>834</ele>
        <time>2012-11-18T10:05:13Z</time>
      </trkpt>
      <trkpt lat="45.51467" lon="5.90245">
        <ele>836.20001220703</ele>
        <time>2012-11-18T10:05:20Z</time>
      </trkpt>
      <trkpt lat="45.51465" lon="5.90246">
        <ele>836.59997558594</ele>
        <time>2012-11-18T10:05:21Z</time>
      </trkpt>
      <trkpt lat="45.51457" lon="5.90246">
        <ele>838.59997558594</ele>
        <time>2012-11-18T10:05:27Z</time>
      </trkpt>
      <trkpt lat="45.51451" lon="5.90248">
        <ele>840.40002441406</ele>
        <time>2012-11-18T10:05:32Z</time>
      </trkpt>
      <trkpt lat="45.51449" lon="5.90248">
        <ele>840.79998779297</ele>
        <time>2012-11-18T10:05:34Z</time>
      </trkpt>
      <trkpt lat="45.51447" lon="5.90249">
        <ele>841.40002441406</ele>
        <time>2012-11-18T10:05:36Z</time>
      </trkpt>
      <trkpt lat="45.51442" lon="5.90253">
        <ele>842.59997558594</ele>
        <time>2012-11-18T10:05:41Z</time>
      </trkpt>
      <trkpt lat="45.5144" lon="5.90256">
        <ele>843.20001220703</ele>
        <time>2012-11-18T10:05:44Z</time>
      </trkpt>
      <trkpt lat="45.51436" lon="5.90267">
        <ele>844.59997558594</ele>
        <time>2012-11-18T10:05:50Z</time>
      </trkpt>
      <trkpt lat="45.51436" lon="5.90269">
        <ele>844.59997558594</ele>
        <time>2012-11-18T10:05:57Z</time>
      </trkpt>
      <trkpt lat="45.51434" lon="5.90274">
        <ele>845</ele>
        <time>2012-11-18T10:05:59Z</time>
      </trkpt>
      <trkpt lat="45.51435" lon="5.90279">
        <ele>845</ele>
        <time>2012-11-18T10:06:01Z</time>
      </trkpt>
      <trkpt lat="45.51438" lon="5.90293">
        <ele>845</ele>
        <time>2012-11-18T10:06:06Z</time>
      </trkpt>
      <trkpt lat="45.51439" lon="5.90298">
        <ele>844.79998779297</ele>
        <time>2012-11-18T10:06:08Z</time>
      </trkpt>
      <trkpt lat="45.51445" lon="5.90309">
        <ele>844.40002441406</ele>
        <time>2012-11-18T10:06:13Z</time>
      </trkpt>
      <trkpt lat="45.51448" lon="5.90317">
        <ele>844.40002441406</ele>
        <time>2012-11-18T10:06:16Z</time>
      </trkpt>
      <trkpt lat="45.51456" lon="5.90328">
        <ele>844.20001220703</ele>
        <time>2012-11-18T10:06:21Z</time>
      </trkpt>
      <trkpt lat="45.51461" lon="5.90334">
        <ele>844.40002441406</ele>
        <time>2012-11-18T10:06:25Z</time>
      </trkpt>
      <trkpt lat="45.51463" lon="5.90337">
        <ele>844.40002441406</ele>
        <time>2012-11-18T10:06:27Z</time>
      </trkpt>
      <trkpt lat="45.51465" lon="5.90338">
        <ele>844.40002441406</ele>
        <time>2012-11-18T10:06:28Z</time>
      </trkpt>
      <trkpt lat="45.51469" lon="5.90342">
        <ele>844.40002441406</ele>
        <time>2012-11-18T10:06:32Z</time>
      </trkpt>
      <trkpt lat="45.51472" lon="5.90344">
        <ele>844.40002441406</ele>
        <time>2012-11-18T10:06:34Z</time>
      </trkpt>
      <trkpt lat="45.51482" lon="5.90354">
        <ele>844.59997558594</ele>
        <time>2012-11-18T10:06:44Z</time>
      </trkpt>
      <trkpt lat="45.51484" lon="5.90355">
        <ele>844.59997558594</ele>
        <time>2012-11-18T10:06:45Z</time>
      </trkpt>
      <trkpt lat="45.51495" lon="5.90362">
        <ele>844.20001220703</ele>
        <time>2012-11-18T10:06:51Z</time>
      </trkpt>
      <trkpt lat="45.51499" lon="5.90364">
        <ele>844</ele>
        <time>2012-11-18T10:06:53Z</time>
      </trkpt>
      <trkpt lat="45.51514" lon="5.90375">
        <ele>844.59997558594</ele>
        <time>2012-11-18T10:07:00Z</time>
      </trkpt>
      <trkpt lat="45.51517" lon="5.90381">
        <ele>845.20001220703</ele>
        <time>2012-11-18T10:07:02Z</time>
      </trkpt>
      <trkpt lat="45.5152" lon="5.90401">
        <ele>847.20001220703</ele>
        <time>2012-11-18T10:07:08Z</time>
      </trkpt>
      <trkpt lat="45.5152" lon="5.90413">
        <ele>848.59997558594</ele>
        <time>2012-11-18T10:07:12Z</time>
      </trkpt>
      <trkpt lat="45.51515" lon="5.90434">
        <ele>848.40002441406</ele>
        <time>2012-11-18T10:07:21Z</time>
      </trkpt>
      <trkpt lat="45.51514" lon="5.90434">
        <ele>848.40002441406</ele>
        <time>2012-11-18T10:07:22Z</time>
      </trkpt>
      <trkpt lat="45.51507" lon="5.90433">
        <ele>848.59997558594</ele>
        <time>2012-11-18T10:07:28Z</time>
      </trkpt>
      <trkpt lat="45.51504" lon="5.90432">
        <ele>848.59997558594</ele>
        <time>2012-11-18T10:07:30Z</time>
      </trkpt>
      <trkpt lat="45.51499" lon="5.90431">
        <ele>848.79998779297</ele>
        <time>2012-11-18T10:07:34Z</time>
      </trkpt>
      <trkpt lat="45.51497" lon="5.9043">
        <ele>849.20001220703</ele>
        <time>2012-11-18T10:07:36Z</time>
      </trkpt>
      <trkpt lat="45.51487" lon="5.90428">
        <ele>850.59997558594</ele>
        <time>2012-11-18T10:07:44Z</time>
      </trkpt>
      <trkpt lat="45.51483" lon="5.90428">
        <ele>851</ele>
        <time>2012-11-18T10:07:47Z</time>
      </trkpt>
      <trkpt lat="45.51479" lon="5.90427">
        <ele>851.59997558594</ele>
        <time>2012-11-18T10:07:50Z</time>
      </trkpt>
      <trkpt lat="45.51478" lon="5.90427">
        <ele>851.79998779297</ele>
        <time>2012-11-18T10:07:51Z</time>
      </trkpt>
      <trkpt lat="45.5147" lon="5.90425">
        <ele>852.79998779297</ele>
        <time>2012-11-18T10:07:58Z</time>
      </trkpt>
      <trkpt lat="45.51463" lon="5.90425">
        <ele>853.79998779297</ele>
        <time>2012-11-18T10:08:04Z</time>
      </trkpt>
      <trkpt lat="45.51459" lon="5.90426">
        <ele>854.40002441406</ele>
        <time>2012-11-18T10:08:08Z</time>
      </trkpt>
      <trkpt lat="45.51456" lon="5.90427">
        <ele>854.59997558594</ele>
        <time>2012-11-18T10:08:10Z</time>
      </trkpt>
      <trkpt lat="45.51454" lon="5.90428">
        <ele>854.79998779297</ele>
        <time>2012-11-18T10:08:12Z</time>
      </trkpt>
      <trkpt lat="45.51453" lon="5.9043">
        <ele>855</ele>
        <time>2012-11-18T10:08:14Z</time>
      </trkpt>
      <trkpt lat="45.51451" lon="5.90432">
        <ele>855.40002441406</ele>
        <time>2012-11-18T10:08:17Z</time>
      </trkpt>
      <trkpt lat="45.51449" lon="5.90433">
        <ele>855.59997558594</ele>
        <time>2012-11-18T10:08:18Z</time>
      </trkpt>
      <trkpt lat="45.51447" lon="5.90435">
        <ele>855.79998779297</ele>
        <time>2012-11-18T10:08:20Z</time>
      </trkpt>
      <trkpt lat="45.51446" lon="5.90436">
        <ele>856</ele>
        <time>2012-11-18T10:08:21Z</time>
      </trkpt>
      <trkpt lat="45.51441" lon="5.9044">
        <ele>856.59997558594</ele>
        <time>2012-11-18T10:08:26Z</time>
      </trkpt>
      <trkpt lat="45.51437" lon="5.90443">
        <ele>857.20001220703</ele>
        <time>2012-11-18T10:08:29Z</time>
      </trkpt>
      <trkpt lat="45.5143" lon="5.90445">
        <ele>858</ele>
        <time>2012-11-18T10:08:34Z</time>
      </trkpt>
      <trkpt lat="45.51426" lon="5.90442">
        <ele>858.59997558594</ele>
        <time>2012-11-18T10:08:37Z</time>
      </trkpt>
      <trkpt lat="45.5142" lon="5.90436">
        <ele>859.59997558594</ele>
        <time>2012-11-18T10:08:42Z</time>
      </trkpt>
      <trkpt lat="45.51416" lon="5.90434">
        <ele>860</ele>
        <time>2012-11-18T10:08:45Z</time>
      </trkpt>
      <trkpt lat="45.51408" lon="5.90431">
        <ele>861.20001220703</ele>
        <time>2012-11-18T10:08:52Z</time>
      </trkpt>
      <trkpt lat="45.51407" lon="5.9043">
        <ele>861.40002441406</ele>
        <time>2012-11-18T10:08:53Z</time>
      </trkpt>
      <trkpt lat="45.51402" lon="5.90431">
        <ele>862</ele>
        <time>2012-11-18T10:08:56Z</time>
      </trkpt>
      <trkpt lat="45.51401" lon="5.90432">
        <ele>862.40002441406</ele>
        <time>2012-11-18T10:08:57Z</time>
      </trkpt>
      <trkpt lat="45.51386" lon="5.90433">
        <ele>864.59997558594</ele>
        <time>2012-11-18T10:09:04Z</time>
      </trkpt>
      <trkpt lat="45.51384" lon="5.90434">
        <ele>865</ele>
        <time>2012-11-18T10:09:05Z</time>
      </trkpt>
      <trkpt lat="45.51375" lon="5.90435">
        <ele>866.20001220703</ele>
        <time>2012-11-18T10:09:09Z</time>
      </trkpt>
      <trkpt lat="45.51373" lon="5.90436">
        <ele>866.59997558594</ele>
        <time>2012-11-18T10:09:10Z</time>
      </trkpt>
      <trkpt lat="45.51365" lon="5.90437">
        <ele>867.79998779297</ele>
        <time>2012-11-18T10:09:14Z</time>
      </trkpt>
      <trkpt lat="45.51362" lon="5.90437">
        <ele>868.20001220703</ele>
        <time>2012-11-18T10:09:15Z</time>
      </trkpt>
      <trkpt lat="45.51352" lon="5.90434">
        <ele>870</ele>
        <time>2012-11-18T10:09:20Z</time>
      </trkpt>
      <trkpt lat="45.51348" lon="5.90432">
        <ele>870.40002441406</ele>
        <time>2012-11-18T10:09:22Z</time>
      </trkpt>
      <trkpt lat="45.51341" lon="5.90432">
        <ele>871.59997558594</ele>
        <time>2012-11-18T10:09:31Z</time>
      </trkpt>
      <trkpt lat="45.51339" lon="5.90432">
        <ele>871.79998779297</ele>
        <time>2012-11-18T10:09:33Z</time>
      </trkpt>
      <trkpt lat="45.51334" lon="5.90432">
        <ele>872.59997558594</ele>
        <time>2012-11-18T10:09:37Z</time>
      </trkpt>
      <trkpt lat="45.51329" lon="5.90432">
        <ele>873.59997558594</ele>
        <time>2012-11-18T10:09:41Z</time>
      </trkpt>
      <trkpt lat="45.51326" lon="5.90432">
        <ele>874.40002441406</ele>
        <time>2012-11-18T10:09:44Z</time>
      </trkpt>
      <trkpt lat="45.51323" lon="5.90432">
        <ele>875</ele>
        <time>2012-11-18T10:09:46Z</time>
      </trkpt>
      <trkpt lat="45.5132" lon="5.90432">
        <ele>875.79998779297</ele>
        <time>2012-11-18T10:09:49Z</time>
      </trkpt>
      <trkpt lat="45.51316" lon="5.90432">
        <ele>876.59997558594</ele>
        <time>2012-11-18T10:09:52Z</time>
      </trkpt>
      <trkpt lat="45.51314" lon="5.90432">
        <ele>877.20001220703</ele>
        <time>2012-11-18T10:09:54Z</time>
      </trkpt>
      <trkpt lat="45.5131" lon="5.90434">
        <ele>878</ele>
        <time>2012-11-18T10:09:57Z</time>
      </trkpt>
      <trkpt lat="45.51305" lon="5.90436">
        <ele>879.20001220703</ele>
        <time>2012-11-18T10:10:02Z</time>
      </trkpt>
      <trkpt lat="45.51296" lon="5.90441">
        <ele>881.20001220703</ele>
        <time>2012-11-18T10:10:07Z</time>
      </trkpt>
      <trkpt lat="45.51289" lon="5.90449">
        <ele>882.59997558594</ele>
        <time>2012-11-18T10:10:11Z</time>
      </trkpt>
      <trkpt lat="45.51284" lon="5.90455">
        <ele>883.79998779297</ele>
        <time>2012-11-18T10:10:14Z</time>
      </trkpt>
      <trkpt lat="45.51277" lon="5.90462">
        <ele>885.20001220703</ele>
        <time>2012-11-18T10:10:21Z</time>
      </trkpt>
      <trkpt lat="45.51272" lon="5.90465">
        <ele>886.20001220703</ele>
        <time>2012-11-18T10:10:25Z</time>
      </trkpt>
      <trkpt lat="45.51267" lon="5.90468">
        <ele>887.40002441406</ele>
        <time>2012-11-18T10:10:31Z</time>
      </trkpt>
      <trkpt lat="45.51264" lon="5.90469">
        <ele>888.20001220703</ele>
        <time>2012-11-18T10:10:33Z</time>
      </trkpt>
      <trkpt lat="45.51255" lon="5.9047">
        <ele>890</ele>
        <time>2012-11-18T10:10:40Z</time>
      </trkpt>
      <trkpt lat="45.51253" lon="5.90469">
        <ele>890.59997558594</ele>
        <time>2012-11-18T10:10:41Z</time>
      </trkpt>
      <trkpt lat="45.51249" lon="5.90472">
        <ele>891.40002441406</ele>
        <time>2012-11-18T10:10:45Z</time>
      </trkpt>
      <trkpt lat="45.51246" lon="5.90474">
        <ele>892</ele>
        <time>2012-11-18T10:10:49Z</time>
      </trkpt>
      <trkpt lat="45.5124" lon="5.90475">
        <ele>892.79998779297</ele>
        <time>2012-11-18T10:10:54Z</time>
      </trkpt>
      <trkpt lat="45.5124" lon="5.90475">
        <ele>892.79998779297</ele>
        <time>2012-11-18T10:10:55Z</time>
      </trkpt>
      <trkpt lat="45.51234" lon="5.90478">
        <ele>893.59997558594</ele>
        <time>2012-11-18T10:10:58Z</time>
      </trkpt>
      <trkpt lat="45.51232" lon="5.9048">
        <ele>894</ele>
        <time>2012-11-18T10:11:00Z</time>
      </trkpt>
      <trkpt lat="45.5122" lon="5.90484">
        <ele>895.59997558594</ele>
        <time>2012-11-18T10:11:07Z</time>
      </trkpt>
      <trkpt lat="45.5121" lon="5.90487">
        <ele>897</ele>
        <time>2012-11-18T10:11:12Z</time>
      </trkpt>
      <trkpt lat="45.51202" lon="5.90486">
        <ele>898.20001220703</ele>
        <time>2012-11-18T10:11:16Z</time>
      </trkpt>
      <trkpt lat="45.512" lon="5.90487">
        <ele>898.40002441406</ele>
        <time>2012-11-18T10:11:17Z</time>
      </trkpt>
      <trkpt lat="45.51191" lon="5.90486">
        <ele>899.79998779297</ele>
        <time>2012-11-18T10:11:21Z</time>
      </trkpt>
      <trkpt lat="45.51181" lon="5.90484">
        <ele>901.40002441406</ele>
        <time>2012-11-18T10:11:25Z</time>
      </trkpt>
      <trkpt lat="45.51173" lon="5.90486">
        <ele>902.59997558594</ele>
        <time>2012-11-18T10:11:29Z</time>
      </trkpt>
      <trkpt lat="45.51171" lon="5.90487">
        <ele>902.59997558594</ele>
        <time>2012-11-18T10:11:30Z</time>
      </trkpt>
      <trkpt lat="45.51168" lon="5.90487">
        <ele>903</ele>
        <time>2012-11-18T10:11:32Z</time>
      </trkpt>
      <trkpt lat="45.51165" lon="5.90489">
        <ele>903.59997558594</ele>
        <time>2012-11-18T10:11:34Z</time>
      </trkpt>
      <trkpt lat="45.51159" lon="5.90491">
        <ele>905.20001220703</ele>
        <time>2012-11-18T10:11:39Z</time>
      </trkpt>
      <trkpt lat="45.51154" lon="5.90491">
        <ele>906.40002441406</ele>
        <time>2012-11-18T10:11:42Z</time>
      </trkpt>
      <trkpt lat="45.51148" lon="5.90494">
        <ele>908</ele>
        <time>2012-11-18T10:11:46Z</time>
      </trkpt>
      <trkpt lat="45.51145" lon="5.90495">
        <ele>908.79998779297</ele>
        <time>2012-11-18T10:11:48Z</time>
      </trkpt>
      <trkpt lat="45.5114" lon="5.90498">
        <ele>910</ele>
        <time>2012-11-18T10:11:53Z</time>
      </trkpt>
      <trkpt lat="45.51139" lon="5.90498">
        <ele>910.20001220703</ele>
        <time>2012-11-18T10:11:54Z</time>
      </trkpt>
      <trkpt lat="45.51133" lon="5.90503">
        <ele>911.20001220703</ele>
        <time>2012-11-18T10:12:00Z</time>
      </trkpt>
      <trkpt lat="45.51131" lon="5.90505">
        <ele>911.59997558594</ele>
        <time>2012-11-18T10:12:02Z</time>
      </trkpt>
      <trkpt lat="45.51127" lon="5.90508">
        <ele>912.40002441406</ele>
        <time>2012-11-18T10:12:06Z</time>
      </trkpt>
      <trkpt lat="45.51123" lon="5.90507">
        <ele>913.40002441406</ele>
        <time>2012-11-18T10:12:09Z</time>
      </trkpt>
      <trkpt lat="45.51119" lon="5.90509">
        <ele>914.40002441406</ele>
        <time>2012-11-18T10:12:13Z</time>
      </trkpt>
      <trkpt lat="45.51118" lon="5.90509">
        <ele>914.59997558594</ele>
        <time>2012-11-18T10:12:14Z</time>
      </trkpt>
      <trkpt lat="45.51116" lon="5.90511">
        <ele>915</ele>
        <time>2012-11-18T10:12:18Z</time>
      </trkpt>
      <trkpt lat="45.51115" lon="5.90512">
        <ele>915.20001220703</ele>
        <time>2012-11-18T10:12:19Z</time>
      </trkpt>
      <trkpt lat="45.51111" lon="5.90513">
        <ele>916</ele>
        <time>2012-11-18T10:12:23Z</time>
      </trkpt>
      <trkpt lat="45.5111" lon="5.90513">
        <ele>916.20001220703</ele>
        <time>2012-11-18T10:12:24Z</time>
      </trkpt>
      <trkpt lat="45.51109" lon="5.90514">
        <ele>916.59997558594</ele>
        <time>2012-11-18T10:12:27Z</time>
      </trkpt>
      <trkpt lat="45.51107" lon="5.90515">
        <ele>917</ele>
        <time>2012-11-18T10:12:30Z</time>
      </trkpt>
      <trkpt lat="45.51103" lon="5.90517">
        <ele>918</ele>
        <time>2012-11-18T10:12:35Z</time>
      </trkpt>
      <trkpt lat="45.51101" lon="5.90517">
        <ele>918.40002441406</ele>
        <time>2012-11-18T10:12:38Z</time>
      </trkpt>
      <trkpt lat="45.51097" lon="5.90517">
        <ele>919.40002441406</ele>
        <time>2012-11-18T10:12:43Z</time>
      </trkpt>
      <trkpt lat="45.51095" lon="5.90518">
        <ele>920</ele>
        <time>2012-11-18T10:12:46Z</time>
      </trkpt>
      <trkpt lat="45.51093" lon="5.90518">
        <ele>920.59997558594</ele>
        <time>2012-11-18T10:12:50Z</time>
      </trkpt>
      <trkpt lat="45.5109" lon="5.90519">
        <ele>921.20001220703</ele>
        <time>2012-11-18T10:12:55Z</time>
      </trkpt>
      <trkpt lat="45.51087" lon="5.9052">
        <ele>921.79998779297</ele>
        <time>2012-11-18T10:12:59Z</time>
      </trkpt>
      <trkpt lat="45.51085" lon="5.90522">
        <ele>922.20001220703</ele>
        <time>2012-11-18T10:13:03Z</time>
      </trkpt>
      <trkpt lat="45.5108" lon="5.90524">
        <ele>923.79998779297</ele>
        <time>2012-11-18T10:13:11Z</time>
      </trkpt>
      <trkpt lat="45.51078" lon="5.90525">
        <ele>924</ele>
        <time>2012-11-18T10:13:14Z</time>
      </trkpt>
      <trkpt lat="45.51075" lon="5.90527">
        <ele>925</ele>
        <time>2012-11-18T10:13:18Z</time>
      </trkpt>
      <trkpt lat="45.51075" lon="5.90529">
        <ele>925</ele>
        <time>2012-11-18T10:13:20Z</time>
      </trkpt>
      <trkpt lat="45.51072" lon="5.90533">
        <ele>925.20001220703</ele>
        <time>2012-11-18T10:13:27Z</time>
      </trkpt>
      <trkpt lat="45.51072" lon="5.90535">
        <ele>925</ele>
        <time>2012-11-18T10:13:30Z</time>
      </trkpt>
      <trkpt lat="45.51071" lon="5.90538">
        <ele>925</ele>
        <time>2012-11-18T10:13:34Z</time>
      </trkpt>
      <trkpt lat="45.51069" lon="5.90543">
        <ele>925</ele>
        <time>2012-11-18T10:13:38Z</time>
      </trkpt>
      <trkpt lat="45.51066" lon="5.90544">
        <ele>925.59997558594</ele>
        <time>2012-11-18T10:13:41Z</time>
      </trkpt>
      <trkpt lat="45.51064" lon="5.90545">
        <ele>926.40002441406</ele>
        <time>2012-11-18T10:13:43Z</time>
      </trkpt>
      <trkpt lat="45.51055" lon="5.90554">
        <ele>928.20001220703</ele>
        <time>2012-11-18T10:13:48Z</time>
      </trkpt>
      <trkpt lat="45.51047" lon="5.90563">
        <ele>929.79998779297</ele>
        <time>2012-11-18T10:13:52Z</time>
      </trkpt>
      <trkpt lat="45.51035" lon="5.90578">
        <ele>932.20001220703</ele>
        <time>2012-11-18T10:14:00Z</time>
      </trkpt>
      <trkpt lat="45.51028" lon="5.90587">
        <ele>933.20001220703</ele>
        <time>2012-11-18T10:14:04Z</time>
      </trkpt>
      <trkpt lat="45.5102" lon="5.90604">
        <ele>934.20001220703</ele>
        <time>2012-11-18T10:14:12Z</time>
      </trkpt>
      <trkpt lat="45.51018" lon="5.90605">
        <ele>934.40002441406</ele>
        <time>2012-11-18T10:14:13Z</time>
      </trkpt>
      <trkpt lat="45.51014" lon="5.90611">
        <ele>935.20001220703</ele>
        <time>2012-11-18T10:14:17Z</time>
      </trkpt>
      <trkpt lat="45.51012" lon="5.90613">
        <ele>935.59997558594</ele>
        <time>2012-11-18T10:14:20Z</time>
      </trkpt>
      <trkpt lat="45.5101" lon="5.90617">
        <ele>936.20001220703</ele>
        <time>2012-11-18T10:14:23Z</time>
      </trkpt>
      <trkpt lat="45.51007" lon="5.90621">
        <ele>936.79998779297</ele>
        <time>2012-11-18T10:14:26Z</time>
      </trkpt>
      <trkpt lat="45.51004" lon="5.90624">
        <ele>937.40002441406</ele>
        <time>2012-11-18T10:14:29Z</time>
      </trkpt>
      <trkpt lat="45.51002" lon="5.90626">
        <ele>938.20001220703</ele>
        <time>2012-11-18T10:14:32Z</time>
      </trkpt>
      <trkpt lat="45.50995" lon="5.90636">
        <ele>938.20001220703</ele>
        <time>2012-11-18T10:14:39Z</time>
      </trkpt>
      <trkpt lat="45.50993" lon="5.90636">
        <ele>938.40002441406</ele>
        <time>2012-11-18T10:14:41Z</time>
      </trkpt>
      <trkpt lat="45.50988" lon="5.90637">
        <ele>938.79998779297</ele>
        <time>2012-11-18T10:14:47Z</time>
      </trkpt>
      <trkpt lat="45.50987" lon="5.90638">
        <ele>938.59997558594</ele>
        <time>2012-11-18T10:14:48Z</time>
      </trkpt>
      <trkpt lat="45.50978" lon="5.90641">
        <ele>939.20001220703</ele>
        <time>2012-11-18T10:14:55Z</time>
      </trkpt>
      <trkpt lat="45.50976" lon="5.90641">
        <ele>939.40002441406</ele>
        <time>2012-11-18T10:14:56Z</time>
      </trkpt>
      <trkpt lat="45.50972" lon="5.90638">
        <ele>940.20001220703</ele>
        <time>2012-11-18T10:15:01Z</time>
      </trkpt>
      <trkpt lat="45.5097" lon="5.90636">
        <ele>940.79998779297</ele>
        <time>2012-11-18T10:15:03Z</time>
      </trkpt>
      <trkpt lat="45.50968" lon="5.90632">
        <ele>941.40002441406</ele>
        <time>2012-11-18T10:15:06Z</time>
      </trkpt>
      <trkpt lat="45.50966" lon="5.90631">
        <ele>941.79998779297</ele>
        <time>2012-11-18T10:15:08Z</time>
      </trkpt>
      <trkpt lat="45.50964" lon="5.90627">
        <ele>942.59997558594</ele>
        <time>2012-11-18T10:15:12Z</time>
      </trkpt>
      <trkpt lat="45.50962" lon="5.90624">
        <ele>943.20001220703</ele>
        <time>2012-11-18T10:15:14Z</time>
      </trkpt>
      <trkpt lat="45.50959" lon="5.9062">
        <ele>944</ele>
        <time>2012-11-18T10:15:17Z</time>
      </trkpt>
      <trkpt lat="45.50956" lon="5.90621">
        <ele>944.20001220703</ele>
        <time>2012-11-18T10:15:19Z</time>
      </trkpt>
      <trkpt lat="45.50937" lon="5.90622">
        <ele>946.20001220703</ele>
        <time>2012-11-18T10:15:28Z</time>
      </trkpt>
      <trkpt lat="45.5093" lon="5.90626">
        <ele>946.20001220703</ele>
        <time>2012-11-18T10:15:32Z</time>
      </trkpt>
      <trkpt lat="45.50923" lon="5.90636">
        <ele>945.59997558594</ele>
        <time>2012-11-18T10:15:36Z</time>
      </trkpt>
      <trkpt lat="45.50922" lon="5.90638">
        <ele>945.40002441406</ele>
        <time>2012-11-18T10:15:37Z</time>
      </trkpt>
      <trkpt lat="45.50916" lon="5.90641">
        <ele>945.59997558594</ele>
        <time>2012-11-18T10:15:41Z</time>
      </trkpt>
      <trkpt lat="45.5091" lon="5.90645">
        <ele>946.79998779297</ele>
        <time>2012-11-18T10:15:43Z</time>
      </trkpt>
      <trkpt lat="45.50893" lon="5.90647">
        <ele>951</ele>
        <time>2012-11-18T10:15:52Z</time>
      </trkpt>
      <trkpt lat="45.50891" lon="5.90649">
        <ele>951</ele>
        <time>2012-11-18T10:15:53Z</time>
      </trkpt>
      <trkpt lat="45.50882" lon="5.90656">
        <ele>951.79998779297</ele>
        <time>2012-11-18T10:15:58Z</time>
      </trkpt>
      <trkpt lat="45.5088" lon="5.90659">
        <ele>951.59997558594</ele>
        <time>2012-11-18T10:15:59Z</time>
      </trkpt>
      <trkpt lat="45.50871" lon="5.90681">
        <ele>949</ele>
        <time>2012-11-18T10:16:07Z</time>
      </trkpt>
      <trkpt lat="45.5087" lon="5.90687">
        <ele>948</ele>
        <time>2012-11-18T10:16:09Z</time>
      </trkpt>
      <trkpt lat="45.50867" lon="5.90698">
        <ele>946.20001220703</ele>
        <time>2012-11-18T10:16:12Z</time>
      </trkpt>
      <trkpt lat="45.50865" lon="5.90702">
        <ele>945.59997558594</ele>
        <time>2012-11-18T10:16:13Z</time>
      </trkpt>
      <trkpt lat="45.50858" lon="5.90723">
        <ele>941.79998779297</ele>
        <time>2012-11-18T10:16:21Z</time>
      </trkpt>
      <trkpt lat="45.50858" lon="5.90727">
        <ele>941</ele>
        <time>2012-11-18T10:16:22Z</time>
      </trkpt>
      <trkpt lat="45.50859" lon="5.90744">
        <ele>937</ele>
        <time>2012-11-18T10:16:27Z</time>
      </trkpt>
      <trkpt lat="45.50858" lon="5.90747">
        <ele>936.40002441406</ele>
        <time>2012-11-18T10:16:28Z</time>
      </trkpt>
      <trkpt lat="45.50854" lon="5.90754">
        <ele>934.59997558594</ele>
        <time>2012-11-18T10:16:30Z</time>
      </trkpt>
      <trkpt lat="45.50851" lon="5.90758">
        <ele>933.79998779297</ele>
        <time>2012-11-18T10:16:31Z</time>
      </trkpt>
      <trkpt lat="45.50841" lon="5.90769">
        <ele>931</ele>
        <time>2012-11-18T10:16:35Z</time>
      </trkpt>
      <trkpt lat="45.50838" lon="5.90776">
        <ele>929.40002441406</ele>
        <time>2012-11-18T10:16:37Z</time>
      </trkpt>
      <trkpt lat="45.50836" lon="5.90786">
        <ele>927</ele>
        <time>2012-11-18T10:16:39Z</time>
      </trkpt>
      <trkpt lat="45.50834" lon="5.90791">
        <ele>925.59997558594</ele>
        <time>2012-11-18T10:16:40Z</time>
      </trkpt>
      <trkpt lat="45.50833" lon="5.90808">
        <ele>921.40002441406</ele>
        <time>2012-11-18T10:16:44Z</time>
      </trkpt>
      <trkpt lat="45.50836" lon="5.90814">
        <ele>919.79998779297</ele>
        <time>2012-11-18T10:16:46Z</time>
      </trkpt>
      <trkpt lat="45.50842" lon="5.90824">
        <ele>917.59997558594</ele>
        <time>2012-11-18T10:16:49Z</time>
      </trkpt>
      <trkpt lat="45.50846" lon="5.9083">
        <ele>916.20001220703</ele>
        <time>2012-11-18T10:16:52Z</time>
      </trkpt>
      <trkpt lat="45.50848" lon="5.90835">
        <ele>915</ele>
        <time>2012-11-18T10:16:54Z</time>
      </trkpt>
      <trkpt lat="45.50851" lon="5.90841">
        <ele>913.59997558594</ele>
        <time>2012-11-18T10:16:57Z</time>
      </trkpt>
      <trkpt lat="45.50857" lon="5.90847">
        <ele>912</ele>
        <time>2012-11-18T10:17:01Z</time>
      </trkpt>
      <trkpt lat="45.50858" lon="5.90849">
        <ele>911.59997558594</ele>
        <time>2012-11-18T10:17:02Z</time>
      </trkpt>
      <trkpt lat="45.50874" lon="5.90874">
        <ele>905.59997558594</ele>
        <time>2012-11-18T10:17:10Z</time>
      </trkpt>
      <trkpt lat="45.50875" lon="5.90882">
        <ele>903.40002441406</ele>
        <time>2012-11-18T10:17:12Z</time>
      </trkpt>
      <trkpt lat="45.50878" lon="5.90898">
        <ele>899.20001220703</ele>
        <time>2012-11-18T10:17:16Z</time>
      </trkpt>
      <trkpt lat="45.50879" lon="5.90906">
        <ele>897.20001220703</ele>
        <time>2012-11-18T10:17:18Z</time>
      </trkpt>
      <trkpt lat="45.50883" lon="5.9093">
        <ele>890.59997558594</ele>
        <time>2012-11-18T10:17:26Z</time>
      </trkpt>
      <trkpt lat="45.50883" lon="5.90937">
        <ele>888.59997558594</ele>
        <time>2012-11-18T10:17:28Z</time>
      </trkpt>
      <trkpt lat="45.50887" lon="5.90948">
        <ele>886</ele>
        <time>2012-11-18T10:17:32Z</time>
      </trkpt>
      <trkpt lat="45.50889" lon="5.90951">
        <ele>885.20001220703</ele>
        <time>2012-11-18T10:17:33Z</time>
      </trkpt>
      <trkpt lat="45.50896" lon="5.9096">
        <ele>883.20001220703</ele>
        <time>2012-11-18T10:17:37Z</time>
      </trkpt>
      <trkpt lat="45.50904" lon="5.90965">
        <ele>882.40002441406</ele>
        <time>2012-11-18T10:17:41Z</time>
      </trkpt>
      <trkpt lat="45.50915" lon="5.90978">
        <ele>880</ele>
        <time>2012-11-18T10:17:47Z</time>
      </trkpt>
      <trkpt lat="45.50919" lon="5.90981">
        <ele>879</ele>
        <time>2012-11-18T10:17:49Z</time>
      </trkpt>
      <trkpt lat="45.50925" lon="5.90986">
        <ele>876.40002441406</ele>
        <time>2012-11-18T10:17:52Z</time>
      </trkpt>
      <trkpt lat="45.50928" lon="5.9099">
        <ele>875</ele>
        <time>2012-11-18T10:17:54Z</time>
      </trkpt>
      <trkpt lat="45.50939" lon="5.91001">
        <ele>870</ele>
        <time>2012-11-18T10:18:00Z</time>
      </trkpt>
      <trkpt lat="45.50944" lon="5.91">
        <ele>869.20001220703</ele>
        <time>2012-11-18T10:18:02Z</time>
      </trkpt>
      <trkpt lat="45.50953" lon="5.90991">
        <ele>870.20001220703</ele>
        <time>2012-11-18T10:18:08Z</time>
      </trkpt>
      <trkpt lat="45.50959" lon="5.90989">
        <ele>869.79998779297</ele>
        <time>2012-11-18T10:18:11Z</time>
      </trkpt>
      <trkpt lat="45.50965" lon="5.90991">
        <ele>868</ele>
        <time>2012-11-18T10:18:15Z</time>
      </trkpt>
      <trkpt lat="45.5097" lon="5.9099">
        <ele>867.59997558594</ele>
        <time>2012-11-18T10:18:17Z</time>
      </trkpt>
      <trkpt lat="45.50977" lon="5.90985">
        <ele>867.79998779297</ele>
        <time>2012-11-18T10:18:20Z</time>
      </trkpt>
      <trkpt lat="45.50983" lon="5.9098">
        <ele>868</ele>
        <time>2012-11-18T10:18:23Z</time>
      </trkpt>
      <trkpt lat="45.50999" lon="5.90966">
        <ele>869.20001220703</ele>
        <time>2012-11-18T10:18:30Z</time>
      </trkpt>
      <trkpt lat="45.51002" lon="5.90963">
        <ele>869.20001220703</ele>
        <time>2012-11-18T10:18:31Z</time>
      </trkpt>
      <trkpt lat="45.51015" lon="5.90953">
        <ele>867.59997558594</ele>
        <time>2012-11-18T10:18:37Z</time>
      </trkpt>
      <trkpt lat="45.51032" lon="5.90945">
        <ele>863.59997558594</ele>
        <time>2012-11-18T10:18:43Z</time>
      </trkpt>
      <trkpt lat="45.51043" lon="5.9094">
        <ele>861.40002441406</ele>
        <time>2012-11-18T10:18:48Z</time>
      </trkpt>
      <trkpt lat="45.51045" lon="5.90938">
        <ele>860.79998779297</ele>
        <time>2012-11-18T10:18:49Z</time>
      </trkpt>
      <trkpt lat="45.51062" lon="5.90934">
        <ele>856</ele>
        <time>2012-11-18T10:18:56Z</time>
      </trkpt>
      <trkpt lat="45.51068" lon="5.90929">
        <ele>855</ele>
        <time>2012-11-18T10:18:59Z</time>
      </trkpt>
      <trkpt lat="45.51075" lon="5.90926">
        <ele>853</ele>
        <time>2012-11-18T10:19:02Z</time>
      </trkpt>
      <trkpt lat="45.5108" lon="5.90924">
        <ele>851.40002441406</ele>
        <time>2012-11-18T10:19:05Z</time>
      </trkpt>
      <trkpt lat="45.5109" lon="5.90922">
        <ele>849.20001220703</ele>
        <time>2012-11-18T10:19:09Z</time>
      </trkpt>
      <trkpt lat="45.51101" lon="5.9093">
        <ele>845</ele>
        <time>2012-11-18T10:19:13Z</time>
      </trkpt>
      <trkpt lat="45.51116" lon="5.90936">
        <ele>840</ele>
        <time>2012-11-18T10:19:19Z</time>
      </trkpt>
      <trkpt lat="45.51117" lon="5.90937">
        <ele>839.59997558594</ele>
        <time>2012-11-18T10:19:20Z</time>
      </trkpt>
      <trkpt lat="45.51124" lon="5.90939">
        <ele>837.40002441406</ele>
        <time>2012-11-18T10:19:24Z</time>
      </trkpt>
      <trkpt lat="45.51137" lon="5.90951">
        <ele>832.20001220703</ele>
        <time>2012-11-18T10:19:29Z</time>
      </trkpt>
      <trkpt lat="45.51154" lon="5.90963">
        <ele>825.59997558594</ele>
        <time>2012-11-18T10:19:35Z</time>
      </trkpt>
      <trkpt lat="45.51158" lon="5.90963">
        <ele>824.59997558594</ele>
        <time>2012-11-18T10:19:36Z</time>
      </trkpt>
      <trkpt lat="45.51174" lon="5.90961">
        <ele>821.59997558594</ele>
        <time>2012-11-18T10:19:41Z</time>
      </trkpt>
      <trkpt lat="45.51182" lon="5.90958">
        <ele>820.40002441406</ele>
        <time>2012-11-18T10:19:45Z</time>
      </trkpt>
      <trkpt lat="45.51198" lon="5.90954">
        <ele>818.20001220703</ele>
        <time>2012-11-18T10:19:52Z</time>
      </trkpt>
      <trkpt lat="45.51201" lon="5.90954">
        <ele>817.79998779297</ele>
        <time>2012-11-18T10:19:53Z</time>
      </trkpt>
      <trkpt lat="45.5121" lon="5.90949">
        <ele>817</ele>
        <time>2012-11-18T10:19:57Z</time>
      </trkpt>
      <trkpt lat="45.51216" lon="5.90947">
        <ele>816.20001220703</ele>
        <time>2012-11-18T10:20:00Z</time>
      </trkpt>
      <trkpt lat="45.51228" lon="5.90934">
        <ele>816</ele>
        <time>2012-11-18T10:20:06Z</time>
      </trkpt>
      <trkpt lat="45.51232" lon="5.90931">
        <ele>816</ele>
        <time>2012-11-18T10:20:08Z</time>
      </trkpt>
      <trkpt lat="45.5124" lon="5.90928">
        <ele>814.79998779297</ele>
        <time>2012-11-18T10:20:11Z</time>
      </trkpt>
      <trkpt lat="45.51264" lon="5.90922">
        <ele>812.59997558594</ele>
        <time>2012-11-18T10:20:20Z</time>
      </trkpt>
      <trkpt lat="45.51277" lon="5.9092">
        <ele>811.79998779297</ele>
        <time>2012-11-18T10:20:25Z</time>
      </trkpt>
      <trkpt lat="45.51289" lon="5.90916">
        <ele>811.40002441406</ele>
        <time>2012-11-18T10:20:29Z</time>
      </trkpt>
      <trkpt lat="45.51324" lon="5.90917">
        <ele>807.79998779297</ele>
        <time>2012-11-18T10:20:43Z</time>
      </trkpt>
      <trkpt lat="45.51333" lon="5.90924">
        <ele>806</ele>
        <time>2012-11-18T10:20:47Z</time>
      </trkpt>
      <trkpt lat="45.51347" lon="5.90953">
        <ele>801.59997558594</ele>
        <time>2012-11-18T10:20:55Z</time>
      </trkpt>
      <trkpt lat="45.51351" lon="5.90971">
        <ele>799.20001220703</ele>
        <time>2012-11-18T10:20:59Z</time>
      </trkpt>
      <trkpt lat="45.51364" lon="5.90997">
        <ele>795.40002441406</ele>
        <time>2012-11-18T10:21:06Z</time>
      </trkpt>
      <trkpt lat="45.51369" lon="5.91008">
        <ele>793.20001220703</ele>
        <time>2012-11-18T10:21:09Z</time>
      </trkpt>
      <trkpt lat="45.51375" lon="5.91025">
        <ele>789.79998779297</ele>
        <time>2012-11-18T10:21:14Z</time>
      </trkpt>
      <trkpt lat="45.51379" lon="5.91029">
        <ele>789.20001220703</ele>
        <time>2012-11-18T10:21:15Z</time>
      </trkpt>
      <trkpt lat="45.51388" lon="5.91041">
        <ele>786.79998779297</ele>
        <time>2012-11-18T10:21:19Z</time>
      </trkpt>
      <trkpt lat="45.51395" lon="5.91046">
        <ele>786</ele>
        <time>2012-11-18T10:21:22Z</time>
      </trkpt>
      <trkpt lat="45.51408" lon="5.91048">
        <ele>785.59997558594</ele>
        <time>2012-11-18T10:21:26Z</time>
      </trkpt>
      <trkpt lat="45.51411" lon="5.91048">
        <ele>785.59997558594</ele>
        <time>2012-11-18T10:21:27Z</time>
      </trkpt>
      <trkpt lat="45.51425" lon="5.91044">
        <ele>785</ele>
        <time>2012-11-18T10:21:31Z</time>
      </trkpt>
      <trkpt lat="45.51433" lon="5.9104">
        <ele>784.40002441406</ele>
        <time>2012-11-18T10:21:34Z</time>
      </trkpt>
      <trkpt lat="45.51445" lon="5.91035">
        <ele>783.40002441406</ele>
        <time>2012-11-18T10:21:38Z</time>
      </trkpt>
      <trkpt lat="45.51447" lon="5.91034">
        <ele>783.40002441406</ele>
        <time>2012-11-18T10:21:39Z</time>
      </trkpt>
      <trkpt lat="45.51458" lon="5.91032">
        <ele>782</ele>
        <time>2012-11-18T10:21:43Z</time>
      </trkpt>
      <trkpt lat="45.51463" lon="5.91031">
        <ele>781.40002441406</ele>
        <time>2012-11-18T10:21:45Z</time>
      </trkpt>
      <trkpt lat="45.51489" lon="5.91032">
        <ele>777.79998779297</ele>
        <time>2012-11-18T10:21:54Z</time>
      </trkpt>
      <trkpt lat="45.51502" lon="5.91035">
        <ele>775.59997558594</ele>
        <time>2012-11-18T10:21:59Z</time>
      </trkpt>
      <trkpt lat="45.51518" lon="5.91036">
        <ele>772.79998779297</ele>
        <time>2012-11-18T10:22:04Z</time>
      </trkpt>
      <trkpt lat="45.51536" lon="5.9103">
        <ele>770.40002441406</ele>
        <time>2012-11-18T10:22:10Z</time>
      </trkpt>
      <trkpt lat="45.51541" lon="5.91029">
        <ele>769.40002441406</ele>
        <time>2012-11-18T10:22:13Z</time>
      </trkpt>
      <trkpt lat="45.51546" lon="5.91027">
        <ele>768.79998779297</ele>
        <time>2012-11-18T10:22:15Z</time>
      </trkpt>
      <trkpt lat="45.51556" lon="5.91024">
        <ele>767.59997558594</ele>
        <time>2012-11-18T10:22:19Z</time>
      </trkpt>
      <trkpt lat="45.51562" lon="5.91023">
        <ele>766.79998779297</ele>
        <time>2012-11-18T10:22:22Z</time>
      </trkpt>
      <trkpt lat="45.51582" lon="5.91029">
        <ele>762.79998779297</ele>
        <time>2012-11-18T10:22:29Z</time>
      </trkpt>
      <trkpt lat="45.51586" lon="5.91029">
        <ele>762.20001220703</ele>
        <time>2012-11-18T10:22:30Z</time>
      </trkpt>
      <trkpt lat="45.51598" lon="5.9103">
        <ele>761.40002441406</ele>
        <time>2012-11-18T10:22:33Z</time>
      </trkpt>
      <trkpt lat="45.51613" lon="5.91028">
        <ele>761</ele>
        <time>2012-11-18T10:22:38Z</time>
      </trkpt>
      <trkpt lat="45.51642" lon="5.91026">
        <ele>759.79998779297</ele>
        <time>2012-11-18T10:22:47Z</time>
      </trkpt>
      <trkpt lat="45.51647" lon="5.91027">
        <ele>759.40002441406</ele>
        <time>2012-11-18T10:22:48Z</time>
      </trkpt>
      <trkpt lat="45.51673" lon="5.91033">
        <ele>757.20001220703</ele>
        <time>2012-11-18T10:22:56Z</time>
      </trkpt>
      <trkpt lat="45.51676" lon="5.91037">
        <ele>756.40002441406</ele>
        <time>2012-11-18T10:22:58Z</time>
      </trkpt>
      <trkpt lat="45.51694" lon="5.91049">
        <ele>754</ele>
        <time>2012-11-18T10:23:05Z</time>
      </trkpt>
      <trkpt lat="45.51701" lon="5.91054">
        <ele>753.40002441406</ele>
        <time>2012-11-18T10:23:07Z</time>
      </trkpt>
      <trkpt lat="45.51722" lon="5.91058">
        <ele>752.40002441406</ele>
        <time>2012-11-18T10:23:16Z</time>
      </trkpt>
      <trkpt lat="45.51731" lon="5.91059">
        <ele>752</ele>
        <time>2012-11-18T10:23:20Z</time>
      </trkpt>
      <trkpt lat="45.51767" lon="5.91061">
        <ele>750.79998779297</ele>
        <time>2012-11-18T10:23:29Z</time>
      </trkpt>
      <trkpt lat="45.51778" lon="5.91059">
        <ele>750.59997558594</ele>
        <time>2012-11-18T10:23:32Z</time>
      </trkpt>
      <trkpt lat="45.5181" lon="5.91066">
        <ele>748.59997558594</ele>
        <time>2012-11-18T10:23:41Z</time>
      </trkpt>
      <trkpt lat="45.51826" lon="5.91074">
        <ele>747.59997558594</ele>
        <time>2012-11-18T10:23:46Z</time>
      </trkpt>
      <trkpt lat="45.51849" lon="5.91084">
        <ele>744.40002441406</ele>
        <time>2012-11-18T10:23:53Z</time>
      </trkpt>
      <trkpt lat="45.51859" lon="5.91092">
        <ele>742.40002441406</ele>
        <time>2012-11-18T10:23:56Z</time>
      </trkpt>
      <trkpt lat="45.51878" lon="5.91116">
        <ele>738</ele>
        <time>2012-11-18T10:24:04Z</time>
      </trkpt>
      <trkpt lat="45.51894" lon="5.91138">
        <ele>734.20001220703</ele>
        <time>2012-11-18T10:24:10Z</time>
      </trkpt>
      <trkpt lat="45.51896" lon="5.9115">
        <ele>733.20001220703</ele>
        <time>2012-11-18T10:24:13Z</time>
      </trkpt>
      <trkpt lat="45.51897" lon="5.91154">
        <ele>732.79998779297</ele>
        <time>2012-11-18T10:24:14Z</time>
      </trkpt>
      <trkpt lat="45.51905" lon="5.91176">
        <ele>729.20001220703</ele>
        <time>2012-11-18T10:24:19Z</time>
      </trkpt>
      <trkpt lat="45.51912" lon="5.91192">
        <ele>725.59997558594</ele>
        <time>2012-11-18T10:24:23Z</time>
      </trkpt>
      <trkpt lat="45.51935" lon="5.91221">
        <ele>718.20001220703</ele>
        <time>2012-11-18T10:24:33Z</time>
      </trkpt>
      <trkpt lat="45.51938" lon="5.91221">
        <ele>717.79998779297</ele>
        <time>2012-11-18T10:24:34Z</time>
      </trkpt>
      <trkpt lat="45.51954" lon="5.91213">
        <ele>717.20001220703</ele>
        <time>2012-11-18T10:24:40Z</time>
      </trkpt>
      <trkpt lat="45.51968" lon="5.91208">
        <ele>716.40002441406</ele>
        <time>2012-11-18T10:24:44Z</time>
      </trkpt>
      <trkpt lat="45.51985" lon="5.91204">
        <ele>715</ele>
        <time>2012-11-18T10:24:49Z</time>
      </trkpt>
      <trkpt lat="45.51991" lon="5.91204">
        <ele>714.20001220703</ele>
        <time>2012-11-18T10:24:51Z</time>
      </trkpt>
      <trkpt lat="45.52022" lon="5.9121">
        <ele>711.20001220703</ele>
        <time>2012-11-18T10:25:00Z</time>
      </trkpt>
      <trkpt lat="45.5204" lon="5.91215">
        <ele>709.40002441406</ele>
        <time>2012-11-18T10:25:06Z</time>
      </trkpt>
      <trkpt lat="45.52071" lon="5.91218">
        <ele>707.20001220703</ele>
        <time>2012-11-18T10:25:16Z</time>
      </trkpt>
      <trkpt lat="45.52074" lon="5.91218">
        <ele>707</ele>
        <time>2012-11-18T10:25:17Z</time>
      </trkpt>
      <trkpt lat="45.52111" lon="5.91225">
        <ele>703.20001220703</ele>
        <time>2012-11-18T10:25:27Z</time>
      </trkpt>
      <trkpt lat="45.52121" lon="5.91229">
        <ele>701.59997558594</ele>
        <time>2012-11-18T10:25:31Z</time>
      </trkpt>
      <trkpt lat="45.52145" lon="5.91241">
        <ele>697.20001220703</ele>
        <time>2012-11-18T10:25:39Z</time>
      </trkpt>
      <trkpt lat="45.52152" lon="5.91244">
        <ele>696.20001220703</ele>
        <time>2012-11-18T10:25:41Z</time>
      </trkpt>
      <trkpt lat="45.52184" lon="5.91249">
        <ele>690.79998779297</ele>
        <time>2012-11-18T10:25:49Z</time>
      </trkpt>
      <trkpt lat="45.52199" lon="5.91252">
        <ele>687.20001220703</ele>
        <time>2012-11-18T10:25:53Z</time>
      </trkpt>
      <trkpt lat="45.52218" lon="5.91253">
        <ele>683.40002441406</ele>
        <time>2012-11-18T10:25:59Z</time>
      </trkpt>
      <trkpt lat="45.52222" lon="5.91253">
        <ele>682.59997558594</ele>
        <time>2012-11-18T10:26:00Z</time>
      </trkpt>
      <trkpt lat="45.52248" lon="5.91247">
        <ele>679</ele>
        <time>2012-11-18T10:26:07Z</time>
      </trkpt>
      <trkpt lat="45.52268" lon="5.91238">
        <ele>676.79998779297</ele>
        <time>2012-11-18T10:26:13Z</time>
      </trkpt>
      <trkpt lat="45.52292" lon="5.91221">
        <ele>674.59997558594</ele>
        <time>2012-11-18T10:26:21Z</time>
      </trkpt>
      <trkpt lat="45.52294" lon="5.91219">
        <ele>674.40002441406</ele>
        <time>2012-11-18T10:26:22Z</time>
      </trkpt>
      <trkpt lat="45.52304" lon="5.91216">
        <ele>672.40002441406</ele>
        <time>2012-11-18T10:26:25Z</time>
      </trkpt>
      <trkpt lat="45.52314" lon="5.91209">
        <ele>670.59997558594</ele>
        <time>2012-11-18T10:26:28Z</time>
      </trkpt>
      <trkpt lat="45.52329" lon="5.91214">
        <ele>666</ele>
        <time>2012-11-18T10:26:33Z</time>
      </trkpt>
      <trkpt lat="45.52337" lon="5.91225">
        <ele>663.40002441406</ele>
        <time>2012-11-18T10:26:36Z</time>
      </trkpt>
      <trkpt lat="45.52354" lon="5.91236">
        <ele>660.79998779297</ele>
        <time>2012-11-18T10:26:42Z</time>
      </trkpt>
      <trkpt lat="45.5236" lon="5.91234">
        <ele>660.40002441406</ele>
        <time>2012-11-18T10:26:44Z</time>
      </trkpt>
      <trkpt lat="45.52375" lon="5.91221">
        <ele>660.40002441406</ele>
        <time>2012-11-18T10:26:50Z</time>
      </trkpt>
      <trkpt lat="45.5238" lon="5.91217">
        <ele>660.20001220703</ele>
        <time>2012-11-18T10:26:52Z</time>
      </trkpt>
      <trkpt lat="45.52398" lon="5.91206">
        <ele>659.40002441406</ele>
        <time>2012-11-18T10:26:58Z</time>
      </trkpt>
      <trkpt lat="45.52406" lon="5.91199">
        <ele>659</ele>
        <time>2012-11-18T10:27:01Z</time>
      </trkpt>
      <trkpt lat="45.5243" lon="5.91181">
        <ele>657.79998779297</ele>
        <time>2012-11-18T10:27:10Z</time>
      </trkpt>
      <trkpt lat="45.5244" lon="5.91177">
        <ele>657</ele>
        <time>2012-11-18T10:27:13Z</time>
      </trkpt>
      <trkpt lat="45.52463" lon="5.91166">
        <ele>655</ele>
        <time>2012-11-18T10:27:21Z</time>
      </trkpt>
      <trkpt lat="45.52485" lon="5.91148">
        <ele>655</ele>
        <time>2012-11-18T10:27:31Z</time>
      </trkpt>
      <trkpt lat="45.52491" lon="5.91139">
        <ele>655.20001220703</ele>
        <time>2012-11-18T10:27:35Z</time>
      </trkpt>
      <trkpt lat="45.52494" lon="5.91133">
        <ele>655.79998779297</ele>
        <time>2012-11-18T10:27:37Z</time>
      </trkpt>
      <trkpt lat="45.52504" lon="5.91114">
        <ele>656.59997558594</ele>
        <time>2012-11-18T10:27:44Z</time>
      </trkpt>
      <trkpt lat="45.5252" lon="5.9109">
        <ele>656.79998779297</ele>
        <time>2012-11-18T10:27:54Z</time>
      </trkpt>
      <trkpt lat="45.5254" lon="5.91067">
        <ele>656.40002441406</ele>
        <time>2012-11-18T10:28:05Z</time>
      </trkpt>
      <trkpt lat="45.52555" lon="5.91058">
        <ele>655.20001220703</ele>
        <time>2012-11-18T10:28:10Z</time>
      </trkpt>
      <trkpt lat="45.52585" lon="5.91028">
        <ele>654.59997558594</ele>
        <time>2012-11-18T10:28:22Z</time>
      </trkpt>
      <trkpt lat="45.52602" lon="5.91015">
        <ele>654</ele>
        <time>2012-11-18T10:28:28Z</time>
      </trkpt>
      <trkpt lat="45.52631" lon="5.90993">
        <ele>652.20001220703</ele>
        <time>2012-11-18T10:28:39Z</time>
      </trkpt>
      <trkpt lat="45.52633" lon="5.90991">
        <ele>652</ele>
        <time>2012-11-18T10:28:40Z</time>
      </trkpt>
      <trkpt lat="45.52669" lon="5.90971">
        <ele>648.40002441406</ele>
        <time>2012-11-18T10:28:52Z</time>
      </trkpt>
      <trkpt lat="45.52678" lon="5.90966">
        <ele>647.40002441406</ele>
        <time>2012-11-18T10:28:55Z</time>
      </trkpt>
      <trkpt lat="45.52693" lon="5.9096">
        <ele>645.79998779297</ele>
        <time>2012-11-18T10:29:00Z</time>
      </trkpt>
      <trkpt lat="45.52701" lon="5.90956">
        <ele>644.79998779297</ele>
        <time>2012-11-18T10:29:03Z</time>
      </trkpt>
      <trkpt lat="45.5271" lon="5.90947">
        <ele>643.79998779297</ele>
        <time>2012-11-18T10:29:08Z</time>
      </trkpt>
      <trkpt lat="45.52715" lon="5.9094">
        <ele>643.59997558594</ele>
        <time>2012-11-18T10:29:11Z</time>
      </trkpt>
      <trkpt lat="45.52731" lon="5.90926">
        <ele>641.59997558594</ele>
        <time>2012-11-18T10:29:17Z</time>
      </trkpt>
      <trkpt lat="45.52733" lon="5.90924">
        <ele>641.40002441406</ele>
        <time>2012-11-18T10:29:18Z</time>
      </trkpt>
      <trkpt lat="45.5275" lon="5.90918">
        <ele>638.79998779297</ele>
        <time>2012-11-18T10:29:22Z</time>
      </trkpt>
      <trkpt lat="45.52769" lon="5.90912">
        <ele>638</ele>
        <time>2012-11-18T10:29:27Z</time>
      </trkpt>
      <trkpt lat="45.52803" lon="5.90904">
        <ele>636</ele>
        <time>2012-11-18T10:29:38Z</time>
      </trkpt>
      <trkpt lat="45.52815" lon="5.90897">
        <ele>635.20001220703</ele>
        <time>2012-11-18T10:29:42Z</time>
      </trkpt>
      <trkpt lat="45.52845" lon="5.90872">
        <ele>632.59997558594</ele>
        <time>2012-11-18T10:29:54Z</time>
      </trkpt>
      <trkpt lat="45.52871" lon="5.90857">
        <ele>631.59997558594</ele>
        <time>2012-11-18T10:30:05Z</time>
      </trkpt>
      <trkpt lat="45.52901" lon="5.9084">
        <ele>630.40002441406</ele>
        <time>2012-11-18T10:30:15Z</time>
      </trkpt>
      <trkpt lat="45.52912" lon="5.90831">
        <ele>630</ele>
        <time>2012-11-18T10:30:19Z</time>
      </trkpt>
      <trkpt lat="45.5293" lon="5.90822">
        <ele>628.59997558594</ele>
        <time>2012-11-18T10:30:25Z</time>
      </trkpt>
      <trkpt lat="45.52941" lon="5.90812">
        <ele>627.20001220703</ele>
        <time>2012-11-18T10:30:29Z</time>
      </trkpt>
      <trkpt lat="45.52954" lon="5.90796">
        <ele>625.20001220703</ele>
        <time>2012-11-18T10:30:34Z</time>
      </trkpt>
      <trkpt lat="45.52959" lon="5.9079">
        <ele>624.40002441406</ele>
        <time>2012-11-18T10:30:36Z</time>
      </trkpt>
      <trkpt lat="45.52976" lon="5.90769">
        <ele>621.40002441406</ele>
        <time>2012-11-18T10:30:43Z</time>
      </trkpt>
      <trkpt lat="45.52988" lon="5.90755">
        <ele>618.79998779297</ele>
        <time>2012-11-18T10:30:48Z</time>
      </trkpt>
      <trkpt lat="45.53003" lon="5.90746">
        <ele>616.40002441406</ele>
        <time>2012-11-18T10:30:53Z</time>
      </trkpt>
      <trkpt lat="45.53013" lon="5.90743">
        <ele>615</ele>
        <time>2012-11-18T10:30:56Z</time>
      </trkpt>
      <trkpt lat="45.53035" lon="5.90736">
        <ele>612</ele>
        <time>2012-11-18T10:31:03Z</time>
      </trkpt>
      <trkpt lat="45.53057" lon="5.90732">
        <ele>609.20001220703</ele>
        <time>2012-11-18T10:31:10Z</time>
      </trkpt>
      <trkpt lat="45.53085" lon="5.90724">
        <ele>605.59997558594</ele>
        <time>2012-11-18T10:31:19Z</time>
      </trkpt>
      <trkpt lat="45.53094" lon="5.90721">
        <ele>604.20001220703</ele>
        <time>2012-11-18T10:31:22Z</time>
      </trkpt>
      <trkpt lat="45.53115" lon="5.90714">
        <ele>601.59997558594</ele>
        <time>2012-11-18T10:31:29Z</time>
      </trkpt>
      <trkpt lat="45.53129" lon="5.90711">
        <ele>599.79998779297</ele>
        <time>2012-11-18T10:31:34Z</time>
      </trkpt>
      <trkpt lat="45.53141" lon="5.90693">
        <ele>597.79998779297</ele>
        <time>2012-11-18T10:31:40Z</time>
      </trkpt>
      <trkpt lat="45.53147" lon="5.90669">
        <ele>596</ele>
        <time>2012-11-18T10:31:46Z</time>
      </trkpt>
      <trkpt lat="45.53164" lon="5.90655">
        <ele>594.40002441406</ele>
        <time>2012-11-18T10:31:54Z</time>
      </trkpt>
      <trkpt lat="45.53175" lon="5.90665">
        <ele>593.20001220703</ele>
        <time>2012-11-18T10:31:58Z</time>
      </trkpt>
      <trkpt lat="45.53205" lon="5.90686">
        <ele>591.79998779297</ele>
        <time>2012-11-18T10:32:08Z</time>
      </trkpt>
      <trkpt lat="45.53216" lon="5.90694">
        <ele>591.20001220703</ele>
        <time>2012-11-18T10:32:12Z</time>
      </trkpt>
      <trkpt lat="45.53236" lon="5.90714">
        <ele>590.59997558594</ele>
        <time>2012-11-18T10:32:21Z</time>
      </trkpt>
      <trkpt lat="45.53249" lon="5.90726">
        <ele>590.20001220703</ele>
        <time>2012-11-18T10:32:26Z</time>
      </trkpt>
      <trkpt lat="45.53263" lon="5.90753">
        <ele>589.79998779297</ele>
        <time>2012-11-18T10:32:33Z</time>
      </trkpt>
      <trkpt lat="45.53266" lon="5.90761">
        <ele>589.40002441406</ele>
        <time>2012-11-18T10:32:35Z</time>
      </trkpt>
      <trkpt lat="45.5329" lon="5.90799">
        <ele>587.20001220703</ele>
        <time>2012-11-18T10:32:46Z</time>
      </trkpt>
      <trkpt lat="45.53311" lon="5.90804">
        <ele>586</ele>
        <time>2012-11-18T10:32:53Z</time>
      </trkpt>
      <trkpt lat="45.53341" lon="5.90792">
        <ele>584.20001220703</ele>
        <time>2012-11-18T10:33:03Z</time>
      </trkpt>
      <trkpt lat="45.53356" lon="5.90788">
        <ele>583.59997558594</ele>
        <time>2012-11-18T10:33:08Z</time>
      </trkpt>
      <trkpt lat="45.53389" lon="5.90776">
        <ele>582.40002441406</ele>
        <time>2012-11-18T10:33:18Z</time>
      </trkpt>
      <trkpt lat="45.5341" lon="5.90773">
        <ele>581.59997558594</ele>
        <time>2012-11-18T10:33:24Z</time>
      </trkpt>
      <trkpt lat="45.53445" lon="5.90766">
        <ele>581.40002441406</ele>
        <time>2012-11-18T10:33:35Z</time>
      </trkpt>
      <trkpt lat="45.53462" lon="5.90764">
        <ele>581.40002441406</ele>
        <time>2012-11-18T10:33:40Z</time>
      </trkpt>
      <trkpt lat="45.53506" lon="5.90756">
        <ele>581</ele>
        <time>2012-11-18T10:33:53Z</time>
      </trkpt>
      <trkpt lat="45.53527" lon="5.9075">
        <ele>580.20001220703</ele>
        <time>2012-11-18T10:33:59Z</time>
      </trkpt>
      <trkpt lat="45.53565" lon="5.90746">
        <ele>579.20001220703</ele>
        <time>2012-11-18T10:34:11Z</time>
      </trkpt>
      <trkpt lat="45.53577" lon="5.9075">
        <ele>579</ele>
        <time>2012-11-18T10:34:15Z</time>
      </trkpt>
      <trkpt lat="45.53612" lon="5.9077">
        <ele>576.79998779297</ele>
        <time>2012-11-18T10:34:26Z</time>
      </trkpt>
      <trkpt lat="45.53638" lon="5.90797">
        <ele>574.59997558594</ele>
        <time>2012-11-18T10:34:36Z</time>
      </trkpt>
      <trkpt lat="45.53667" lon="5.90825">
        <ele>571.59997558594</ele>
        <time>2012-11-18T10:34:46Z</time>
      </trkpt>
      <trkpt lat="45.53683" lon="5.90842">
        <ele>570.59997558594</ele>
        <time>2012-11-18T10:34:52Z</time>
      </trkpt>
      <trkpt lat="45.53701" lon="5.90849">
        <ele>569</ele>
        <time>2012-11-18T10:34:58Z</time>
      </trkpt>
      <trkpt lat="45.5373" lon="5.90824">
        <ele>566.40002441406</ele>
        <time>2012-11-18T10:35:08Z</time>
      </trkpt>
      <trkpt lat="45.53753" lon="5.90826">
        <ele>564.40002441406</ele>
        <time>2012-11-18T10:35:14Z</time>
      </trkpt>
      <trkpt lat="45.53763" lon="5.90821">
        <ele>563.40002441406</ele>
        <time>2012-11-18T10:35:17Z</time>
      </trkpt>
      <trkpt lat="45.53788" lon="5.90805">
        <ele>561</ele>
        <time>2012-11-18T10:35:24Z</time>
      </trkpt>
      <trkpt lat="45.53819" lon="5.90822">
        <ele>557.59997558594</ele>
        <time>2012-11-18T10:35:32Z</time>
      </trkpt>
      <trkpt lat="45.53837" lon="5.90826">
        <ele>556</ele>
        <time>2012-11-18T10:35:37Z</time>
      </trkpt>
      <trkpt lat="45.53841" lon="5.90828">
        <ele>555.79998779297</ele>
        <time>2012-11-18T10:35:38Z</time>
      </trkpt>
      <trkpt lat="45.53859" lon="5.90837">
        <ele>555.20001220703</ele>
        <time>2012-11-18T10:35:43Z</time>
      </trkpt>
      <trkpt lat="45.53884" lon="5.90841">
        <ele>554.40002441406</ele>
        <time>2012-11-18T10:35:50Z</time>
      </trkpt>
      <trkpt lat="45.53908" lon="5.9085">
        <ele>553.40002441406</ele>
        <time>2012-11-18T10:35:56Z</time>
      </trkpt>
    </trkseg>
  </trk>
</gpx>